<?xml version="1.0" encoding="UTF-8" standalone="no" ?><gpx xmlns="http://www.topografix.com/GPX/1/1" xmlns:gpxx="http://www.garmin.com/xmlschemas/GpxExtensions/v3" xmlns:wptx1="http://www.garmin.com/xmlschemas/WaypointExtension/v1" xmlns:gpxtpx="http://www.garmin.com/xmlschemas/TrackPointExtension/v1" creator="GuideVTT.com" version="1.1" xmlns:xsi="http://www.w3.org/2001/XMLSchema-instance" xsi:schemaLocation="http://www.topografix.com/GPX/1/1 http://www.topografix.com/GPX/1/1/gpx.xsd http://www.garmin.com/xmlschemas/GpxExtensions/v3 http://www8.garmin.com/xmlschemas/GpxExtensionsv3.xsd http://www.garmin.com/xmlschemas/WaypointExtension/v1 http://www8.garmin.com/xmlschemas/WaypointExtensionv1.xsd http://www.garmin.com/xmlschemas/TrackPointExtension/v1 http://www.garmin.com/xmlschemas/TrackPointExtensionv1.xsd">
<metadata><link href="http://www.garmin.com"><text>Garmin International</text></link><time>2013-06-22T15:13:50Z</time></metadata>
<trk><name>2022-12-04_094015.gpx</name><extensions><gpxx:TrackExtension><gpxx:DisplayColor>Cyan</gpxx:DisplayColor></gpxx:TrackExtension></extensions><trkseg>
<trkpt lat="48.496723" lon="2.634728"><ele></ele><time>2023-1-21T10:25:1Z</time></trkpt>
<trkpt lat="48.496723" lon="2.634728"><ele></ele><time>2023-1-21T10:25:4Z</time></trkpt>
<trkpt lat="48.496724" lon="2.634726"><ele></ele><time>2023-1-21T10:25:7Z</time></trkpt>
<trkpt lat="48.496724" lon="2.634726"><ele></ele><time>2023-1-21T10:25:10Z</time></trkpt>
<trkpt lat="48.496733" lon="2.634719"><ele></ele><time>2023-1-21T10:25:13Z</time></trkpt>
<trkpt lat="48.496737" lon="2.634717"><ele></ele><time>2023-1-21T10:25:16Z</time></trkpt>
<trkpt lat="48.49666" lon="2.634796"><ele></ele><time>2023-1-21T10:25:19Z</time></trkpt>
<trkpt lat="48.496566" lon="2.634905"><ele></ele><time>2023-1-21T10:25:22Z</time></trkpt>
<trkpt lat="48.496482" lon="2.635026"><ele></ele><time>2023-1-21T10:25:25Z</time></trkpt>
<trkpt lat="48.496387" lon="2.635138"><ele></ele><time>2023-1-21T10:25:28Z</time></trkpt>
<trkpt lat="48.496322" lon="2.635245"><ele></ele><time>2023-1-21T10:25:31Z</time></trkpt>
<trkpt lat="48.496225" lon="2.635345"><ele></ele><time>2023-1-21T10:25:34Z</time></trkpt>
<trkpt lat="48.49615" lon="2.635438"><ele></ele><time>2023-1-21T10:25:37Z</time></trkpt>
<trkpt lat="48.496063" lon="2.635575"><ele></ele><time>2023-1-21T10:25:40Z</time></trkpt>
<trkpt lat="48.49598" lon="2.635691"><ele></ele><time>2023-1-21T10:25:43Z</time></trkpt>
<trkpt lat="48.495911" lon="2.635785"><ele></ele><time>2023-1-21T10:25:46Z</time></trkpt>
<trkpt lat="48.495854" lon="2.63581"><ele></ele><time>2023-1-21T10:25:49Z</time></trkpt>
<trkpt lat="48.495846" lon="2.635811"><ele></ele><time>2023-1-21T10:25:52Z</time></trkpt>
<trkpt lat="48.495761" lon="2.635914"><ele></ele><time>2023-1-21T10:25:55Z</time></trkpt>
<trkpt lat="48.49567" lon="2.636027"><ele></ele><time>2023-1-21T10:25:58Z</time></trkpt>
<trkpt lat="48.495593" lon="2.636134"><ele></ele><time>2023-1-21T10:26:1Z</time></trkpt>
<trkpt lat="48.495512" lon="2.636256"><ele></ele><time>2023-1-21T10:26:4Z</time></trkpt>
<trkpt lat="48.495433" lon="2.636359"><ele></ele><time>2023-1-21T10:26:7Z</time></trkpt>
<trkpt lat="48.495336" lon="2.636472"><ele></ele><time>2023-1-21T10:26:10Z</time></trkpt>
<trkpt lat="48.495262" lon="2.636563"><ele></ele><time>2023-1-21T10:26:13Z</time></trkpt>
<trkpt lat="48.495163" lon="2.636657"><ele></ele><time>2023-1-21T10:26:16Z</time></trkpt>
<trkpt lat="48.495062" lon="2.636751"><ele></ele><time>2023-1-21T10:26:19Z</time></trkpt>
<trkpt lat="48.494962" lon="2.636859"><ele></ele><time>2023-1-21T10:26:22Z</time></trkpt>
<trkpt lat="48.494875" lon="2.636972"><ele></ele><time>2023-1-21T10:26:25Z</time></trkpt>
<trkpt lat="48.494787" lon="2.637099"><ele></ele><time>2023-1-21T10:26:28Z</time></trkpt>
<trkpt lat="48.494701" lon="2.637217"><ele></ele><time>2023-1-21T10:26:31Z</time></trkpt>
<trkpt lat="48.494617" lon="2.637321"><ele></ele><time>2023-1-21T10:26:34Z</time></trkpt>
<trkpt lat="48.494531" lon="2.637429"><ele></ele><time>2023-1-21T10:26:37Z</time></trkpt>
<trkpt lat="48.494437" lon="2.637545"><ele></ele><time>2023-1-21T10:26:40Z</time></trkpt>
<trkpt lat="48.494352" lon="2.637657"><ele></ele><time>2023-1-21T10:26:43Z</time></trkpt>
<trkpt lat="48.494274" lon="2.637795"><ele></ele><time>2023-1-21T10:26:46Z</time></trkpt>
<trkpt lat="48.494194" lon="2.637915"><ele></ele><time>2023-1-21T10:26:49Z</time></trkpt>
<trkpt lat="48.494111" lon="2.638023"><ele></ele><time>2023-1-21T10:26:52Z</time></trkpt>
<trkpt lat="48.494023" lon="2.63813"><ele></ele><time>2023-1-21T10:26:55Z</time></trkpt>
<trkpt lat="48.493934" lon="2.638234"><ele></ele><time>2023-1-21T10:26:58Z</time></trkpt>
<trkpt lat="48.493842" lon="2.638337"><ele></ele><time>2023-1-21T10:27:1Z</time></trkpt>
<trkpt lat="48.493753" lon="2.638465"><ele></ele><time>2023-1-21T10:27:4Z</time></trkpt>
<trkpt lat="48.493669" lon="2.638573"><ele></ele><time>2023-1-21T10:27:7Z</time></trkpt>
<trkpt lat="48.493575" lon="2.638686"><ele></ele><time>2023-1-21T10:27:10Z</time></trkpt>
<trkpt lat="48.493478" lon="2.638791"><ele></ele><time>2023-1-21T10:27:13Z</time></trkpt>
<trkpt lat="48.493397" lon="2.638868"><ele></ele><time>2023-1-21T10:27:16Z</time></trkpt>
<trkpt lat="48.493331" lon="2.638968"><ele></ele><time>2023-1-21T10:27:19Z</time></trkpt>
<trkpt lat="48.493251" lon="2.639096"><ele></ele><time>2023-1-21T10:27:22Z</time></trkpt>
<trkpt lat="48.493194" lon="2.639228"><ele></ele><time>2023-1-21T10:27:25Z</time></trkpt>
<trkpt lat="48.49313" lon="2.639346"><ele></ele><time>2023-1-21T10:27:28Z</time></trkpt>
<trkpt lat="48.493015" lon="2.639414"><ele></ele><time>2023-1-21T10:27:31Z</time></trkpt>
<trkpt lat="48.492913" lon="2.639509"><ele></ele><time>2023-1-21T10:27:34Z</time></trkpt>
<trkpt lat="48.492828" lon="2.639607"><ele></ele><time>2023-1-21T10:27:37Z</time></trkpt>
<trkpt lat="48.492734" lon="2.639724"><ele></ele><time>2023-1-21T10:27:40Z</time></trkpt>
<trkpt lat="48.492658" lon="2.639816"><ele></ele><time>2023-1-21T10:27:43Z</time></trkpt>
<trkpt lat="48.492584" lon="2.639912"><ele></ele><time>2023-1-21T10:27:46Z</time></trkpt>
<trkpt lat="48.492519" lon="2.640007"><ele></ele><time>2023-1-21T10:27:49Z</time></trkpt>
<trkpt lat="48.492433" lon="2.640098"><ele></ele><time>2023-1-21T10:27:52Z</time></trkpt>
<trkpt lat="48.492339" lon="2.640196"><ele></ele><time>2023-1-21T10:27:55Z</time></trkpt>
<trkpt lat="48.492235" lon="2.640295"><ele></ele><time>2023-1-21T10:27:58Z</time></trkpt>
<trkpt lat="48.492138" lon="2.640407"><ele></ele><time>2023-1-21T10:28:1Z</time></trkpt>
<trkpt lat="48.49206" lon="2.640519"><ele></ele><time>2023-1-21T10:28:4Z</time></trkpt>
<trkpt lat="48.491981" lon="2.640638"><ele></ele><time>2023-1-21T10:28:7Z</time></trkpt>
<trkpt lat="48.491905" lon="2.640716"><ele></ele><time>2023-1-21T10:28:10Z</time></trkpt>
<trkpt lat="48.49181" lon="2.640836"><ele></ele><time>2023-1-21T10:28:13Z</time></trkpt>
<trkpt lat="48.491728" lon="2.640935"><ele></ele><time>2023-1-21T10:28:16Z</time></trkpt>
<trkpt lat="48.49164" lon="2.641027"><ele></ele><time>2023-1-21T10:28:19Z</time></trkpt>
<trkpt lat="48.491561" lon="2.641102"><ele></ele><time>2023-1-21T10:28:22Z</time></trkpt>
<trkpt lat="48.491476" lon="2.641192"><ele></ele><time>2023-1-21T10:28:25Z</time></trkpt>
<trkpt lat="48.491399" lon="2.641321"><ele></ele><time>2023-1-21T10:28:28Z</time></trkpt>
<trkpt lat="48.491285" lon="2.641432"><ele></ele><time>2023-1-21T10:28:31Z</time></trkpt>
<trkpt lat="48.491192" lon="2.641559"><ele></ele><time>2023-1-21T10:28:34Z</time></trkpt>
<trkpt lat="48.491106" lon="2.641664"><ele></ele><time>2023-1-21T10:28:37Z</time></trkpt>
<trkpt lat="48.491032" lon="2.641794"><ele></ele><time>2023-1-21T10:28:40Z</time></trkpt>
<trkpt lat="48.490966" lon="2.641898"><ele></ele><time>2023-1-21T10:28:43Z</time></trkpt>
<trkpt lat="48.490886" lon="2.641991"><ele></ele><time>2023-1-21T10:28:46Z</time></trkpt>
<trkpt lat="48.490786" lon="2.642074"><ele></ele><time>2023-1-21T10:28:49Z</time></trkpt>
<trkpt lat="48.490695" lon="2.642191"><ele></ele><time>2023-1-21T10:28:52Z</time></trkpt>
<trkpt lat="48.49061" lon="2.642277"><ele></ele><time>2023-1-21T10:28:55Z</time></trkpt>
<trkpt lat="48.49051" lon="2.64237"><ele></ele><time>2023-1-21T10:28:58Z</time></trkpt>
<trkpt lat="48.490407" lon="2.642489"><ele></ele><time>2023-1-21T10:29:1Z</time></trkpt>
<trkpt lat="48.490311" lon="2.642597"><ele></ele><time>2023-1-21T10:29:4Z</time></trkpt>
<trkpt lat="48.490238" lon="2.642719"><ele></ele><time>2023-1-21T10:29:7Z</time></trkpt>
<trkpt lat="48.49016" lon="2.642832"><ele></ele><time>2023-1-21T10:29:10Z</time></trkpt>
<trkpt lat="48.490059" lon="2.642966"><ele></ele><time>2023-1-21T10:29:13Z</time></trkpt>
<trkpt lat="48.489966" lon="2.643107"><ele></ele><time>2023-1-21T10:29:16Z</time></trkpt>
<trkpt lat="48.489885" lon="2.643225"><ele></ele><time>2023-1-21T10:29:19Z</time></trkpt>
<trkpt lat="48.489825" lon="2.64335"><ele></ele><time>2023-1-21T10:29:22Z</time></trkpt>
<trkpt lat="48.489733" lon="2.643467"><ele></ele><time>2023-1-21T10:29:25Z</time></trkpt>
<trkpt lat="48.489667" lon="2.643604"><ele></ele><time>2023-1-21T10:29:28Z</time></trkpt>
<trkpt lat="48.48962" lon="2.643752"><ele></ele><time>2023-1-21T10:29:31Z</time></trkpt>
<trkpt lat="48.48959" lon="2.64388"><ele></ele><time>2023-1-21T10:29:34Z</time></trkpt>
<trkpt lat="48.489553" lon="2.644018"><ele></ele><time>2023-1-21T10:29:37Z</time></trkpt>
<trkpt lat="48.4895" lon="2.644186"><ele></ele><time>2023-1-21T10:29:40Z</time></trkpt>
<trkpt lat="48.489449" lon="2.644358"><ele></ele><time>2023-1-21T10:29:43Z</time></trkpt>
<trkpt lat="48.489387" lon="2.644506"><ele></ele><time>2023-1-21T10:29:46Z</time></trkpt>
<trkpt lat="48.489347" lon="2.644648"><ele></ele><time>2023-1-21T10:29:49Z</time></trkpt>
<trkpt lat="48.489309" lon="2.644777"><ele></ele><time>2023-1-21T10:29:52Z</time></trkpt>
<trkpt lat="48.489271" lon="2.644934"><ele></ele><time>2023-1-21T10:29:55Z</time></trkpt>
<trkpt lat="48.489252" lon="2.645076"><ele></ele><time>2023-1-21T10:29:58Z</time></trkpt>
<trkpt lat="48.489227" lon="2.645215"><ele></ele><time>2023-1-21T10:30:1Z</time></trkpt>
<trkpt lat="48.489182" lon="2.645346"><ele></ele><time>2023-1-21T10:30:4Z</time></trkpt>
<trkpt lat="48.489137" lon="2.64552"><ele></ele><time>2023-1-21T10:30:7Z</time></trkpt>
<trkpt lat="48.489107" lon="2.645671"><ele></ele><time>2023-1-21T10:30:10Z</time></trkpt>
<trkpt lat="48.48907" lon="2.645814"><ele></ele><time>2023-1-21T10:30:13Z</time></trkpt>
<trkpt lat="48.489023" lon="2.645966"><ele></ele><time>2023-1-21T10:30:16Z</time></trkpt>
<trkpt lat="48.488993" lon="2.646119"><ele></ele><time>2023-1-21T10:30:19Z</time></trkpt>
<trkpt lat="48.488945" lon="2.646252"><ele></ele><time>2023-1-21T10:30:22Z</time></trkpt>
<trkpt lat="48.488887" lon="2.646405"><ele></ele><time>2023-1-21T10:30:25Z</time></trkpt>
<trkpt lat="48.488844" lon="2.646538"><ele></ele><time>2023-1-21T10:30:28Z</time></trkpt>
<trkpt lat="48.488787" lon="2.646669"><ele></ele><time>2023-1-21T10:30:31Z</time></trkpt>
<trkpt lat="48.488725" lon="2.646797"><ele></ele><time>2023-1-21T10:30:34Z</time></trkpt>
<trkpt lat="48.488674" lon="2.646922"><ele></ele><time>2023-1-21T10:30:37Z</time></trkpt>
<trkpt lat="48.488618" lon="2.647051"><ele></ele><time>2023-1-21T10:30:40Z</time></trkpt>
<trkpt lat="48.488557" lon="2.647226"><ele></ele><time>2023-1-21T10:30:43Z</time></trkpt>
<trkpt lat="48.488503" lon="2.647358"><ele></ele><time>2023-1-21T10:30:46Z</time></trkpt>
<trkpt lat="48.488454" lon="2.647485"><ele></ele><time>2023-1-21T10:30:49Z</time></trkpt>
<trkpt lat="48.488396" lon="2.647612"><ele></ele><time>2023-1-21T10:30:52Z</time></trkpt>
<trkpt lat="48.488324" lon="2.647731"><ele></ele><time>2023-1-21T10:30:55Z</time></trkpt>
<trkpt lat="48.488249" lon="2.647865"><ele></ele><time>2023-1-21T10:30:58Z</time></trkpt>
<trkpt lat="48.48819" lon="2.647997"><ele></ele><time>2023-1-21T10:31:1Z</time></trkpt>
<trkpt lat="48.488116" lon="2.648155"><ele></ele><time>2023-1-21T10:31:4Z</time></trkpt>
<trkpt lat="48.488042" lon="2.648275"><ele></ele><time>2023-1-21T10:31:7Z</time></trkpt>
<trkpt lat="48.487975" lon="2.648416"><ele></ele><time>2023-1-21T10:31:10Z</time></trkpt>
<trkpt lat="48.48789" lon="2.648547"><ele></ele><time>2023-1-21T10:31:13Z</time></trkpt>
<trkpt lat="48.487834" lon="2.648663"><ele></ele><time>2023-1-21T10:31:16Z</time></trkpt>
<trkpt lat="48.487772" lon="2.648822"><ele></ele><time>2023-1-21T10:31:19Z</time></trkpt>
<trkpt lat="48.487701" lon="2.648954"><ele></ele><time>2023-1-21T10:31:22Z</time></trkpt>
<trkpt lat="48.487625" lon="2.6491"><ele></ele><time>2023-1-21T10:31:25Z</time></trkpt>
<trkpt lat="48.48757" lon="2.649212"><ele></ele><time>2023-1-21T10:31:28Z</time></trkpt>
<trkpt lat="48.487483" lon="2.649371"><ele></ele><time>2023-1-21T10:31:31Z</time></trkpt>
<trkpt lat="48.48743" lon="2.649494"><ele></ele><time>2023-1-21T10:31:34Z</time></trkpt>
<trkpt lat="48.487374" lon="2.649616"><ele></ele><time>2023-1-21T10:31:37Z</time></trkpt>
<trkpt lat="48.487303" lon="2.649735"><ele></ele><time>2023-1-21T10:31:40Z</time></trkpt>
<trkpt lat="48.487235" lon="2.649836"><ele></ele><time>2023-1-21T10:31:43Z</time></trkpt>
<trkpt lat="48.487151" lon="2.650002"><ele></ele><time>2023-1-21T10:31:46Z</time></trkpt>
<trkpt lat="48.487107" lon="2.650139"><ele></ele><time>2023-1-21T10:31:49Z</time></trkpt>
<trkpt lat="48.487049" lon="2.650308"><ele></ele><time>2023-1-21T10:31:52Z</time></trkpt>
<trkpt lat="48.486992" lon="2.650461"><ele></ele><time>2023-1-21T10:31:55Z</time></trkpt>
<trkpt lat="48.486927" lon="2.650604"><ele></ele><time>2023-1-21T10:31:58Z</time></trkpt>
<trkpt lat="48.486857" lon="2.650734"><ele></ele><time>2023-1-21T10:32:1Z</time></trkpt>
<trkpt lat="48.486797" lon="2.650842"><ele></ele><time>2023-1-21T10:32:4Z</time></trkpt>
<trkpt lat="48.486728" lon="2.650952"><ele></ele><time>2023-1-21T10:32:7Z</time></trkpt>
<trkpt lat="48.486658" lon="2.651069"><ele></ele><time>2023-1-21T10:32:10Z</time></trkpt>
<trkpt lat="48.486585" lon="2.651194"><ele></ele><time>2023-1-21T10:32:13Z</time></trkpt>
<trkpt lat="48.486533" lon="2.651306"><ele></ele><time>2023-1-21T10:32:16Z</time></trkpt>
<trkpt lat="48.486478" lon="2.651447"><ele></ele><time>2023-1-21T10:32:19Z</time></trkpt>
<trkpt lat="48.486425" lon="2.651596"><ele></ele><time>2023-1-21T10:32:22Z</time></trkpt>
<trkpt lat="48.48636" lon="2.651758"><ele></ele><time>2023-1-21T10:32:25Z</time></trkpt>
<trkpt lat="48.48628" lon="2.651915"><ele></ele><time>2023-1-21T10:32:28Z</time></trkpt>
<trkpt lat="48.486202" lon="2.652045"><ele></ele><time>2023-1-21T10:32:31Z</time></trkpt>
<trkpt lat="48.486132" lon="2.652166"><ele></ele><time>2023-1-21T10:32:34Z</time></trkpt>
<trkpt lat="48.486071" lon="2.652277"><ele></ele><time>2023-1-21T10:32:37Z</time></trkpt>
<trkpt lat="48.486015" lon="2.652427"><ele></ele><time>2023-1-21T10:32:40Z</time></trkpt>
<trkpt lat="48.485967" lon="2.652554"><ele></ele><time>2023-1-21T10:32:43Z</time></trkpt>
<trkpt lat="48.485905" lon="2.652696"><ele></ele><time>2023-1-21T10:32:46Z</time></trkpt>
<trkpt lat="48.48584" lon="2.652824"><ele></ele><time>2023-1-21T10:32:49Z</time></trkpt>
<trkpt lat="48.48577" lon="2.652981"><ele></ele><time>2023-1-21T10:32:52Z</time></trkpt>
<trkpt lat="48.485724" lon="2.653098"><ele></ele><time>2023-1-21T10:32:55Z</time></trkpt>
<trkpt lat="48.485662" lon="2.653224"><ele></ele><time>2023-1-21T10:32:58Z</time></trkpt>
<trkpt lat="48.485595" lon="2.653364"><ele></ele><time>2023-1-21T10:33:1Z</time></trkpt>
<trkpt lat="48.485551" lon="2.653535"><ele></ele><time>2023-1-21T10:33:4Z</time></trkpt>
<trkpt lat="48.485514" lon="2.653701"><ele></ele><time>2023-1-21T10:33:7Z</time></trkpt>
<trkpt lat="48.485474" lon="2.653835"><ele></ele><time>2023-1-21T10:33:10Z</time></trkpt>
<trkpt lat="48.485431" lon="2.654013"><ele></ele><time>2023-1-21T10:33:13Z</time></trkpt>
<trkpt lat="48.485399" lon="2.654147"><ele></ele><time>2023-1-21T10:33:16Z</time></trkpt>
<trkpt lat="48.485369" lon="2.654307"><ele></ele><time>2023-1-21T10:33:19Z</time></trkpt>
<trkpt lat="48.485356" lon="2.65446"><ele></ele><time>2023-1-21T10:33:22Z</time></trkpt>
<trkpt lat="48.485347" lon="2.654621"><ele></ele><time>2023-1-21T10:33:25Z</time></trkpt>
<trkpt lat="48.485303" lon="2.654764"><ele></ele><time>2023-1-21T10:33:28Z</time></trkpt>
<trkpt lat="48.485279" lon="2.654937"><ele></ele><time>2023-1-21T10:33:31Z</time></trkpt>
<trkpt lat="48.485267" lon="2.655112"><ele></ele><time>2023-1-21T10:33:34Z</time></trkpt>
<trkpt lat="48.485251" lon="2.655311"><ele></ele><time>2023-1-21T10:33:37Z</time></trkpt>
<trkpt lat="48.48523" lon="2.65545"><ele></ele><time>2023-1-21T10:33:40Z</time></trkpt>
<trkpt lat="48.485203" lon="2.655583"><ele></ele><time>2023-1-21T10:33:43Z</time></trkpt>
<trkpt lat="48.485172" lon="2.655752"><ele></ele><time>2023-1-21T10:33:46Z</time></trkpt>
<trkpt lat="48.48514" lon="2.655927"><ele></ele><time>2023-1-21T10:33:49Z</time></trkpt>
<trkpt lat="48.485104" lon="2.6561"><ele></ele><time>2023-1-21T10:33:52Z</time></trkpt>
<trkpt lat="48.485089" lon="2.656271"><ele></ele><time>2023-1-21T10:33:55Z</time></trkpt>
<trkpt lat="48.485077" lon="2.65647"><ele></ele><time>2023-1-21T10:33:58Z</time></trkpt>
<trkpt lat="48.485055" lon="2.656663"><ele></ele><time>2023-1-21T10:34:1Z</time></trkpt>
<trkpt lat="48.485049" lon="2.656799"><ele></ele><time>2023-1-21T10:34:4Z</time></trkpt>
<trkpt lat="48.485025" lon="2.656985"><ele></ele><time>2023-1-21T10:34:7Z</time></trkpt>
<trkpt lat="48.485002" lon="2.657157"><ele></ele><time>2023-1-21T10:34:10Z</time></trkpt>
<trkpt lat="48.484988" lon="2.657318"><ele></ele><time>2023-1-21T10:34:13Z</time></trkpt>
<trkpt lat="48.484959" lon="2.657476"><ele></ele><time>2023-1-21T10:34:16Z</time></trkpt>
<trkpt lat="48.484945" lon="2.657612"><ele></ele><time>2023-1-21T10:34:19Z</time></trkpt>
<trkpt lat="48.484929" lon="2.657756"><ele></ele><time>2023-1-21T10:34:22Z</time></trkpt>
<trkpt lat="48.484875" lon="2.657917"><ele></ele><time>2023-1-21T10:34:25Z</time></trkpt>
<trkpt lat="48.484844" lon="2.658093"><ele></ele><time>2023-1-21T10:34:28Z</time></trkpt>
<trkpt lat="48.484824" lon="2.658245"><ele></ele><time>2023-1-21T10:34:31Z</time></trkpt>
<trkpt lat="48.484811" lon="2.65843"><ele></ele><time>2023-1-21T10:34:34Z</time></trkpt>
<trkpt lat="48.484798" lon="2.658594"><ele></ele><time>2023-1-21T10:34:37Z</time></trkpt>
<trkpt lat="48.48478" lon="2.658775"><ele></ele><time>2023-1-21T10:34:40Z</time></trkpt>
<trkpt lat="48.484758" lon="2.658966"><ele></ele><time>2023-1-21T10:34:43Z</time></trkpt>
<trkpt lat="48.484729" lon="2.659156"><ele></ele><time>2023-1-21T10:34:46Z</time></trkpt>
<trkpt lat="48.484706" lon="2.65933"><ele></ele><time>2023-1-21T10:34:49Z</time></trkpt>
<trkpt lat="48.484673" lon="2.659519"><ele></ele><time>2023-1-21T10:34:52Z</time></trkpt>
<trkpt lat="48.484656" lon="2.659688"><ele></ele><time>2023-1-21T10:34:55Z</time></trkpt>
<trkpt lat="48.484633" lon="2.659831"><ele></ele><time>2023-1-21T10:34:58Z</time></trkpt>
<trkpt lat="48.484594" lon="2.660008"><ele></ele><time>2023-1-21T10:35:1Z</time></trkpt>
<trkpt lat="48.484555" lon="2.660167"><ele></ele><time>2023-1-21T10:35:4Z</time></trkpt>
<trkpt lat="48.484521" lon="2.660316"><ele></ele><time>2023-1-21T10:35:7Z</time></trkpt>
<trkpt lat="48.484481" lon="2.660458"><ele></ele><time>2023-1-21T10:35:10Z</time></trkpt>
<trkpt lat="48.484437" lon="2.660584"><ele></ele><time>2023-1-21T10:35:13Z</time></trkpt>
<trkpt lat="48.484389" lon="2.660717"><ele></ele><time>2023-1-21T10:35:16Z</time></trkpt>
<trkpt lat="48.484372" lon="2.660864"><ele></ele><time>2023-1-21T10:35:19Z</time></trkpt>
<trkpt lat="48.484356" lon="2.661012"><ele></ele><time>2023-1-21T10:35:22Z</time></trkpt>
<trkpt lat="48.484335" lon="2.661168"><ele></ele><time>2023-1-21T10:35:25Z</time></trkpt>
<trkpt lat="48.484303" lon="2.661309"><ele></ele><time>2023-1-21T10:35:28Z</time></trkpt>
<trkpt lat="48.484264" lon="2.661468"><ele></ele><time>2023-1-21T10:35:31Z</time></trkpt>
<trkpt lat="48.484233" lon="2.661616"><ele></ele><time>2023-1-21T10:35:34Z</time></trkpt>
<trkpt lat="48.484202" lon="2.661753"><ele></ele><time>2023-1-21T10:35:37Z</time></trkpt>
<trkpt lat="48.484161" lon="2.661894"><ele></ele><time>2023-1-21T10:35:40Z</time></trkpt>
<trkpt lat="48.484125" lon="2.662044"><ele></ele><time>2023-1-21T10:35:43Z</time></trkpt>
<trkpt lat="48.484106" lon="2.662181"><ele></ele><time>2023-1-21T10:35:46Z</time></trkpt>
<trkpt lat="48.48406" lon="2.662319"><ele></ele><time>2023-1-21T10:35:49Z</time></trkpt>
<trkpt lat="48.484024" lon="2.66246"><ele></ele><time>2023-1-21T10:35:52Z</time></trkpt>
<trkpt lat="48.483977" lon="2.662584"><ele></ele><time>2023-1-21T10:35:55Z</time></trkpt>
<trkpt lat="48.483943" lon="2.662724"><ele></ele><time>2023-1-21T10:35:58Z</time></trkpt>
<trkpt lat="48.483923" lon="2.66286"><ele></ele><time>2023-1-21T10:36:1Z</time></trkpt>
<trkpt lat="48.483881" lon="2.662994"><ele></ele><time>2023-1-21T10:36:4Z</time></trkpt>
<trkpt lat="48.483843" lon="2.663141"><ele></ele><time>2023-1-21T10:36:7Z</time></trkpt>
<trkpt lat="48.483808" lon="2.663286"><ele></ele><time>2023-1-21T10:36:10Z</time></trkpt>
<trkpt lat="48.483775" lon="2.663455"><ele></ele><time>2023-1-21T10:36:13Z</time></trkpt>
<trkpt lat="48.483759" lon="2.663593"><ele></ele><time>2023-1-21T10:36:16Z</time></trkpt>
<trkpt lat="48.48373" lon="2.663726"><ele></ele><time>2023-1-21T10:36:19Z</time></trkpt>
<trkpt lat="48.483688" lon="2.663853"><ele></ele><time>2023-1-21T10:36:22Z</time></trkpt>
<trkpt lat="48.483629" lon="2.664012"><ele></ele><time>2023-1-21T10:36:25Z</time></trkpt>
<trkpt lat="48.483573" lon="2.664132"><ele></ele><time>2023-1-21T10:36:28Z</time></trkpt>
<trkpt lat="48.483527" lon="2.664271"><ele></ele><time>2023-1-21T10:36:31Z</time></trkpt>
<trkpt lat="48.48351" lon="2.664416"><ele></ele><time>2023-1-21T10:36:34Z</time></trkpt>
<trkpt lat="48.483488" lon="2.664576"><ele></ele><time>2023-1-21T10:36:37Z</time></trkpt>
<trkpt lat="48.483464" lon="2.66472"><ele></ele><time>2023-1-21T10:36:40Z</time></trkpt>
<trkpt lat="48.483425" lon="2.664856"><ele></ele><time>2023-1-21T10:36:43Z</time></trkpt>
<trkpt lat="48.483337" lon="2.664901"><ele></ele><time>2023-1-21T10:36:46Z</time></trkpt>
<trkpt lat="48.483228" lon="2.664908"><ele></ele><time>2023-1-21T10:36:49Z</time></trkpt>
<trkpt lat="48.483126" lon="2.664927"><ele></ele><time>2023-1-21T10:36:52Z</time></trkpt>
<trkpt lat="48.48301" lon="2.664929"><ele></ele><time>2023-1-21T10:36:55Z</time></trkpt>
<trkpt lat="48.482916" lon="2.664938"><ele></ele><time>2023-1-21T10:36:58Z</time></trkpt>
<trkpt lat="48.482846" lon="2.664841"><ele></ele><time>2023-1-21T10:37:1Z</time></trkpt>
<trkpt lat="48.4828" lon="2.664713"><ele></ele><time>2023-1-21T10:37:4Z</time></trkpt>
<trkpt lat="48.482758" lon="2.664567"><ele></ele><time>2023-1-21T10:37:7Z</time></trkpt>
<trkpt lat="48.482712" lon="2.664406"><ele></ele><time>2023-1-21T10:37:10Z</time></trkpt>
<trkpt lat="48.482671" lon="2.664281"><ele></ele><time>2023-1-21T10:37:13Z</time></trkpt>
<trkpt lat="48.482642" lon="2.664126"><ele></ele><time>2023-1-21T10:37:16Z</time></trkpt>
<trkpt lat="48.482605" lon="2.663949"><ele></ele><time>2023-1-21T10:37:19Z</time></trkpt>
<trkpt lat="48.482561" lon="2.663763"><ele></ele><time>2023-1-21T10:37:22Z</time></trkpt>
<trkpt lat="48.482509" lon="2.663591"><ele></ele><time>2023-1-21T10:37:25Z</time></trkpt>
<trkpt lat="48.482459" lon="2.663436"><ele></ele><time>2023-1-21T10:37:28Z</time></trkpt>
<trkpt lat="48.482423" lon="2.663288"><ele></ele><time>2023-1-21T10:37:31Z</time></trkpt>
<trkpt lat="48.482386" lon="2.663151"><ele></ele><time>2023-1-21T10:37:34Z</time></trkpt>
<trkpt lat="48.482347" lon="2.663025"><ele></ele><time>2023-1-21T10:37:37Z</time></trkpt>
<trkpt lat="48.482306" lon="2.66289"><ele></ele><time>2023-1-21T10:37:40Z</time></trkpt>
<trkpt lat="48.482277" lon="2.662758"><ele></ele><time>2023-1-21T10:37:43Z</time></trkpt>
<trkpt lat="48.482233" lon="2.662602"><ele></ele><time>2023-1-21T10:37:46Z</time></trkpt>
<trkpt lat="48.482189" lon="2.662453"><ele></ele><time>2023-1-21T10:37:49Z</time></trkpt>
<trkpt lat="48.48214" lon="2.662299"><ele></ele><time>2023-1-21T10:37:52Z</time></trkpt>
<trkpt lat="48.482105" lon="2.662122"><ele></ele><time>2023-1-21T10:37:55Z</time></trkpt>
<trkpt lat="48.482068" lon="2.661985"><ele></ele><time>2023-1-21T10:37:58Z</time></trkpt>
<trkpt lat="48.482001" lon="2.6618"><ele></ele><time>2023-1-21T10:38:1Z</time></trkpt>
<trkpt lat="48.481943" lon="2.661604"><ele></ele><time>2023-1-21T10:38:4Z</time></trkpt>
<trkpt lat="48.481857" lon="2.661425"><ele></ele><time>2023-1-21T10:38:7Z</time></trkpt>
<trkpt lat="48.481795" lon="2.661235"><ele></ele><time>2023-1-21T10:38:10Z</time></trkpt>
<trkpt lat="48.481736" lon="2.661048"><ele></ele><time>2023-1-21T10:38:13Z</time></trkpt>
<trkpt lat="48.481674" lon="2.660889"><ele></ele><time>2023-1-21T10:38:16Z</time></trkpt>
<trkpt lat="48.481609" lon="2.660705"><ele></ele><time>2023-1-21T10:38:19Z</time></trkpt>
<trkpt lat="48.481574" lon="2.660545"><ele></ele><time>2023-1-21T10:38:22Z</time></trkpt>
<trkpt lat="48.481519" lon="2.660388"><ele></ele><time>2023-1-21T10:38:25Z</time></trkpt>
<trkpt lat="48.481466" lon="2.66024"><ele></ele><time>2023-1-21T10:38:28Z</time></trkpt>
<trkpt lat="48.481435" lon="2.660107"><ele></ele><time>2023-1-21T10:38:31Z</time></trkpt>
<trkpt lat="48.481378" lon="2.659967"><ele></ele><time>2023-1-21T10:38:34Z</time></trkpt>
<trkpt lat="48.481328" lon="2.659818"><ele></ele><time>2023-1-21T10:38:37Z</time></trkpt>
<trkpt lat="48.481291" lon="2.659658"><ele></ele><time>2023-1-21T10:38:40Z</time></trkpt>
<trkpt lat="48.481242" lon="2.659516"><ele></ele><time>2023-1-21T10:38:43Z</time></trkpt>
<trkpt lat="48.48123" lon="2.659378"><ele></ele><time>2023-1-21T10:38:46Z</time></trkpt>
<trkpt lat="48.481175" lon="2.659241"><ele></ele><time>2023-1-21T10:38:49Z</time></trkpt>
<trkpt lat="48.481118" lon="2.659107"><ele></ele><time>2023-1-21T10:38:52Z</time></trkpt>
<trkpt lat="48.481057" lon="2.658937"><ele></ele><time>2023-1-21T10:38:55Z</time></trkpt>
<trkpt lat="48.481012" lon="2.658782"><ele></ele><time>2023-1-21T10:38:58Z</time></trkpt>
<trkpt lat="48.480959" lon="2.658643"><ele></ele><time>2023-1-21T10:39:1Z</time></trkpt>
<trkpt lat="48.480896" lon="2.658463"><ele></ele><time>2023-1-21T10:39:4Z</time></trkpt>
<trkpt lat="48.48086" lon="2.658295"><ele></ele><time>2023-1-21T10:39:7Z</time></trkpt>
<trkpt lat="48.48082" lon="2.658125"><ele></ele><time>2023-1-21T10:39:10Z</time></trkpt>
<trkpt lat="48.480755" lon="2.657963"><ele></ele><time>2023-1-21T10:39:13Z</time></trkpt>
<trkpt lat="48.480706" lon="2.657848"><ele></ele><time>2023-1-21T10:39:16Z</time></trkpt>
<trkpt lat="48.480657" lon="2.657734"><ele></ele><time>2023-1-21T10:39:19Z</time></trkpt>
<trkpt lat="48.480621" lon="2.657572"><ele></ele><time>2023-1-21T10:39:22Z</time></trkpt>
<trkpt lat="48.480572" lon="2.657441"><ele></ele><time>2023-1-21T10:39:25Z</time></trkpt>
<trkpt lat="48.480523" lon="2.657302"><ele></ele><time>2023-1-21T10:39:28Z</time></trkpt>
<trkpt lat="48.480485" lon="2.657177"><ele></ele><time>2023-1-21T10:39:31Z</time></trkpt>
<trkpt lat="48.480432" lon="2.657059"><ele></ele><time>2023-1-21T10:39:34Z</time></trkpt>
<trkpt lat="48.480383" lon="2.656907"><ele></ele><time>2023-1-21T10:39:37Z</time></trkpt>
<trkpt lat="48.480341" lon="2.656746"><ele></ele><time>2023-1-21T10:39:40Z</time></trkpt>
<trkpt lat="48.480296" lon="2.656557"><ele></ele><time>2023-1-21T10:39:43Z</time></trkpt>
<trkpt lat="48.480244" lon="2.656422"><ele></ele><time>2023-1-21T10:39:46Z</time></trkpt>
<trkpt lat="48.4802" lon="2.6563"><ele></ele><time>2023-1-21T10:39:49Z</time></trkpt>
<trkpt lat="48.48016" lon="2.65613"><ele></ele><time>2023-1-21T10:39:52Z</time></trkpt>
<trkpt lat="48.480112" lon="2.65596"><ele></ele><time>2023-1-21T10:39:55Z</time></trkpt>
<trkpt lat="48.480074" lon="2.655835"><ele></ele><time>2023-1-21T10:39:58Z</time></trkpt>
<trkpt lat="48.480023" lon="2.655707"><ele></ele><time>2023-1-21T10:40:1Z</time></trkpt>
<trkpt lat="48.47996" lon="2.655583"><ele></ele><time>2023-1-21T10:40:4Z</time></trkpt>
<trkpt lat="48.479924" lon="2.655441"><ele></ele><time>2023-1-21T10:40:7Z</time></trkpt>
<trkpt lat="48.479871" lon="2.655279"><ele></ele><time>2023-1-21T10:40:10Z</time></trkpt>
<trkpt lat="48.47982" lon="2.655117"><ele></ele><time>2023-1-21T10:40:13Z</time></trkpt>
<trkpt lat="48.479782" lon="2.654992"><ele></ele><time>2023-1-21T10:40:16Z</time></trkpt>
<trkpt lat="48.479744" lon="2.654863"><ele></ele><time>2023-1-21T10:40:19Z</time></trkpt>
<trkpt lat="48.479691" lon="2.654749"><ele></ele><time>2023-1-21T10:40:22Z</time></trkpt>
<trkpt lat="48.479624" lon="2.654625"><ele></ele><time>2023-1-21T10:40:25Z</time></trkpt>
<trkpt lat="48.479573" lon="2.654483"><ele></ele><time>2023-1-21T10:40:28Z</time></trkpt>
<trkpt lat="48.479532" lon="2.654306"><ele></ele><time>2023-1-21T10:40:31Z</time></trkpt>
<trkpt lat="48.479498" lon="2.654159"><ele></ele><time>2023-1-21T10:40:34Z</time></trkpt>
<trkpt lat="48.479438" lon="2.654019"><ele></ele><time>2023-1-21T10:40:37Z</time></trkpt>
<trkpt lat="48.479389" lon="2.65386"><ele></ele><time>2023-1-21T10:40:40Z</time></trkpt>
<trkpt lat="48.47932" lon="2.653706"><ele></ele><time>2023-1-21T10:40:43Z</time></trkpt>
<trkpt lat="48.47927" lon="2.653577"><ele></ele><time>2023-1-21T10:40:46Z</time></trkpt>
<trkpt lat="48.47923" lon="2.653455"><ele></ele><time>2023-1-21T10:40:49Z</time></trkpt>
<trkpt lat="48.479184" lon="2.65331"><ele></ele><time>2023-1-21T10:40:52Z</time></trkpt>
<trkpt lat="48.479137" lon="2.653145"><ele></ele><time>2023-1-21T10:40:55Z</time></trkpt>
<trkpt lat="48.47911" lon="2.65299"><ele></ele><time>2023-1-21T10:40:58Z</time></trkpt>
<trkpt lat="48.479088" lon="2.652852"><ele></ele><time>2023-1-21T10:41:1Z</time></trkpt>
<trkpt lat="48.479017" lon="2.652751"><ele></ele><time>2023-1-21T10:41:4Z</time></trkpt>
<trkpt lat="48.478922" lon="2.652638"><ele></ele><time>2023-1-21T10:41:7Z</time></trkpt>
<trkpt lat="48.478839" lon="2.652569"><ele></ele><time>2023-1-21T10:41:10Z</time></trkpt>
<trkpt lat="48.478748" lon="2.652534"><ele></ele><time>2023-1-21T10:41:13Z</time></trkpt>
<trkpt lat="48.478652" lon="2.652563"><ele></ele><time>2023-1-21T10:41:16Z</time></trkpt>
<trkpt lat="48.478549" lon="2.65264"><ele></ele><time>2023-1-21T10:41:19Z</time></trkpt>
<trkpt lat="48.478435" lon="2.652718"><ele></ele><time>2023-1-21T10:41:22Z</time></trkpt>
<trkpt lat="48.478341" lon="2.652792"><ele></ele><time>2023-1-21T10:41:25Z</time></trkpt>
<trkpt lat="48.47826" lon="2.652873"><ele></ele><time>2023-1-21T10:41:28Z</time></trkpt>
<trkpt lat="48.478154" lon="2.652945"><ele></ele><time>2023-1-21T10:41:31Z</time></trkpt>
<trkpt lat="48.47804" lon="2.653004"><ele></ele><time>2023-1-21T10:41:34Z</time></trkpt>
<trkpt lat="48.477941" lon="2.653069"><ele></ele><time>2023-1-21T10:41:37Z</time></trkpt>
<trkpt lat="48.477849" lon="2.653126"><ele></ele><time>2023-1-21T10:41:40Z</time></trkpt>
<trkpt lat="48.477767" lon="2.653195"><ele></ele><time>2023-1-21T10:41:43Z</time></trkpt>
<trkpt lat="48.477669" lon="2.653286"><ele></ele><time>2023-1-21T10:41:46Z</time></trkpt>
<trkpt lat="48.477561" lon="2.653362"><ele></ele><time>2023-1-21T10:41:49Z</time></trkpt>
<trkpt lat="48.477446" lon="2.653455"><ele></ele><time>2023-1-21T10:41:52Z</time></trkpt>
<trkpt lat="48.477347" lon="2.653519"><ele></ele><time>2023-1-21T10:41:55Z</time></trkpt>
<trkpt lat="48.477256" lon="2.653592"><ele></ele><time>2023-1-21T10:41:58Z</time></trkpt>
<trkpt lat="48.477166" lon="2.653651"><ele></ele><time>2023-1-21T10:42:1Z</time></trkpt>
<trkpt lat="48.477045" lon="2.653777"><ele></ele><time>2023-1-21T10:42:4Z</time></trkpt>
<trkpt lat="48.476951" lon="2.653882"><ele></ele><time>2023-1-21T10:42:7Z</time></trkpt>
<trkpt lat="48.476869" lon="2.653948"><ele></ele><time>2023-1-21T10:42:10Z</time></trkpt>
<trkpt lat="48.476772" lon="2.654022"><ele></ele><time>2023-1-21T10:42:13Z</time></trkpt>
<trkpt lat="48.476689" lon="2.654115"><ele></ele><time>2023-1-21T10:42:16Z</time></trkpt>
<trkpt lat="48.476596" lon="2.6542"><ele></ele><time>2023-1-21T10:42:19Z</time></trkpt>
<trkpt lat="48.476498" lon="2.654289"><ele></ele><time>2023-1-21T10:42:22Z</time></trkpt>
<trkpt lat="48.476417" lon="2.654346"><ele></ele><time>2023-1-21T10:42:25Z</time></trkpt>
<trkpt lat="48.476311" lon="2.654409"><ele></ele><time>2023-1-21T10:42:28Z</time></trkpt>
<trkpt lat="48.476224" lon="2.654518"><ele></ele><time>2023-1-21T10:42:31Z</time></trkpt>
<trkpt lat="48.476116" lon="2.654617"><ele></ele><time>2023-1-21T10:42:34Z</time></trkpt>
<trkpt lat="48.476018" lon="2.654707"><ele></ele><time>2023-1-21T10:42:37Z</time></trkpt>
<trkpt lat="48.475932" lon="2.654794"><ele></ele><time>2023-1-21T10:42:40Z</time></trkpt>
<trkpt lat="48.475844" lon="2.654871"><ele></ele><time>2023-1-21T10:42:43Z</time></trkpt>
<trkpt lat="48.475744" lon="2.654958"><ele></ele><time>2023-1-21T10:42:46Z</time></trkpt>
<trkpt lat="48.475641" lon="2.655054"><ele></ele><time>2023-1-21T10:42:49Z</time></trkpt>
<trkpt lat="48.475559" lon="2.655121"><ele></ele><time>2023-1-21T10:42:52Z</time></trkpt>
<trkpt lat="48.47545" lon="2.655211"><ele></ele><time>2023-1-21T10:42:55Z</time></trkpt>
<trkpt lat="48.47537" lon="2.655277"><ele></ele><time>2023-1-21T10:42:58Z</time></trkpt>
<trkpt lat="48.475261" lon="2.655376"><ele></ele><time>2023-1-21T10:43:1Z</time></trkpt>
<trkpt lat="48.475165" lon="2.655477"><ele></ele><time>2023-1-21T10:43:4Z</time></trkpt>
<trkpt lat="48.475072" lon="2.655553"><ele></ele><time>2023-1-21T10:43:7Z</time></trkpt>
<trkpt lat="48.474968" lon="2.655628"><ele></ele><time>2023-1-21T10:43:10Z</time></trkpt>
<trkpt lat="48.474867" lon="2.655705"><ele></ele><time>2023-1-21T10:43:13Z</time></trkpt>
<trkpt lat="48.474768" lon="2.655762"><ele></ele><time>2023-1-21T10:43:16Z</time></trkpt>
<trkpt lat="48.474688" lon="2.655826"><ele></ele><time>2023-1-21T10:43:19Z</time></trkpt>
<trkpt lat="48.474612" lon="2.655903"><ele></ele><time>2023-1-21T10:43:22Z</time></trkpt>
<trkpt lat="48.474529" lon="2.65598"><ele></ele><time>2023-1-21T10:43:25Z</time></trkpt>
<trkpt lat="48.474429" lon="2.656051"><ele></ele><time>2023-1-21T10:43:28Z</time></trkpt>
<trkpt lat="48.474332" lon="2.656145"><ele></ele><time>2023-1-21T10:43:31Z</time></trkpt>
<trkpt lat="48.474243" lon="2.656237"><ele></ele><time>2023-1-21T10:43:34Z</time></trkpt>
<trkpt lat="48.474153" lon="2.65631"><ele></ele><time>2023-1-21T10:43:37Z</time></trkpt>
<trkpt lat="48.474073" lon="2.656383"><ele></ele><time>2023-1-21T10:43:40Z</time></trkpt>
<trkpt lat="48.473989" lon="2.656435"><ele></ele><time>2023-1-21T10:43:43Z</time></trkpt>
<trkpt lat="48.473881" lon="2.656524"><ele></ele><time>2023-1-21T10:43:46Z</time></trkpt>
<trkpt lat="48.4738" lon="2.656622"><ele></ele><time>2023-1-21T10:43:49Z</time></trkpt>
<trkpt lat="48.473712" lon="2.656696"><ele></ele><time>2023-1-21T10:43:52Z</time></trkpt>
<trkpt lat="48.473611" lon="2.65679"><ele></ele><time>2023-1-21T10:43:55Z</time></trkpt>
<trkpt lat="48.47351" lon="2.656866"><ele></ele><time>2023-1-21T10:43:58Z</time></trkpt>
<trkpt lat="48.473403" lon="2.656936"><ele></ele><time>2023-1-21T10:44:1Z</time></trkpt>
<trkpt lat="48.473311" lon="2.657031"><ele></ele><time>2023-1-21T10:44:4Z</time></trkpt>
<trkpt lat="48.4732" lon="2.657125"><ele></ele><time>2023-1-21T10:44:7Z</time></trkpt>
<trkpt lat="48.4731" lon="2.657225"><ele></ele><time>2023-1-21T10:44:10Z</time></trkpt>
<trkpt lat="48.473001" lon="2.65731"><ele></ele><time>2023-1-21T10:44:13Z</time></trkpt>
<trkpt lat="48.472899" lon="2.657393"><ele></ele><time>2023-1-21T10:44:16Z</time></trkpt>
<trkpt lat="48.472814" lon="2.657464"><ele></ele><time>2023-1-21T10:44:19Z</time></trkpt>
<trkpt lat="48.472698" lon="2.657553"><ele></ele><time>2023-1-21T10:44:22Z</time></trkpt>
<trkpt lat="48.472616" lon="2.657632"><ele></ele><time>2023-1-21T10:44:25Z</time></trkpt>
<trkpt lat="48.472527" lon="2.657693"><ele></ele><time>2023-1-21T10:44:28Z</time></trkpt>
<trkpt lat="48.47244" lon="2.657803"><ele></ele><time>2023-1-21T10:44:31Z</time></trkpt>
<trkpt lat="48.472304" lon="2.657883"><ele></ele><time>2023-1-21T10:44:34Z</time></trkpt>
<trkpt lat="48.472185" lon="2.657977"><ele></ele><time>2023-1-21T10:44:37Z</time></trkpt>
<trkpt lat="48.472079" lon="2.658088"><ele></ele><time>2023-1-21T10:44:40Z</time></trkpt>
<trkpt lat="48.471981" lon="2.658178"><ele></ele><time>2023-1-21T10:44:43Z</time></trkpt>
<trkpt lat="48.471872" lon="2.658241"><ele></ele><time>2023-1-21T10:44:46Z</time></trkpt>
<trkpt lat="48.471765" lon="2.658314"><ele></ele><time>2023-1-21T10:44:49Z</time></trkpt>
<trkpt lat="48.471669" lon="2.658405"><ele></ele><time>2023-1-21T10:44:52Z</time></trkpt>
<trkpt lat="48.471559" lon="2.658504"><ele></ele><time>2023-1-21T10:44:55Z</time></trkpt>
<trkpt lat="48.471468" lon="2.658575"><ele></ele><time>2023-1-21T10:44:58Z</time></trkpt>
<trkpt lat="48.471383" lon="2.658662"><ele></ele><time>2023-1-21T10:45:1Z</time></trkpt>
<trkpt lat="48.471271" lon="2.658747"><ele></ele><time>2023-1-21T10:45:4Z</time></trkpt>
<trkpt lat="48.471184" lon="2.658837"><ele></ele><time>2023-1-21T10:45:7Z</time></trkpt>
<trkpt lat="48.47108" lon="2.658878"><ele></ele><time>2023-1-21T10:45:10Z</time></trkpt>
<trkpt lat="48.470963" lon="2.658872"><ele></ele><time>2023-1-21T10:45:13Z</time></trkpt>
<trkpt lat="48.470839" lon="2.658886"><ele></ele><time>2023-1-21T10:45:16Z</time></trkpt>
<trkpt lat="48.470706" lon="2.658841"><ele></ele><time>2023-1-21T10:45:19Z</time></trkpt>
<trkpt lat="48.470577" lon="2.658832"><ele></ele><time>2023-1-21T10:45:22Z</time></trkpt>
<trkpt lat="48.470447" lon="2.658814"><ele></ele><time>2023-1-21T10:45:25Z</time></trkpt>
<trkpt lat="48.470323" lon="2.658805"><ele></ele><time>2023-1-21T10:45:28Z</time></trkpt>
<trkpt lat="48.470208" lon="2.658799"><ele></ele><time>2023-1-21T10:45:31Z</time></trkpt>
<trkpt lat="48.470112" lon="2.658821"><ele></ele><time>2023-1-21T10:45:34Z</time></trkpt>
<trkpt lat="48.469994" lon="2.658825"><ele></ele><time>2023-1-21T10:45:37Z</time></trkpt>
<trkpt lat="48.469905" lon="2.658792"><ele></ele><time>2023-1-21T10:45:40Z</time></trkpt>
<trkpt lat="48.469793" lon="2.658791"><ele></ele><time>2023-1-21T10:45:43Z</time></trkpt>
<trkpt lat="48.469674" lon="2.658774"><ele></ele><time>2023-1-21T10:45:46Z</time></trkpt>
<trkpt lat="48.469547" lon="2.658745"><ele></ele><time>2023-1-21T10:45:49Z</time></trkpt>
<trkpt lat="48.469456" lon="2.658733"><ele></ele><time>2023-1-21T10:45:52Z</time></trkpt>
<trkpt lat="48.469332" lon="2.658714"><ele></ele><time>2023-1-21T10:45:55Z</time></trkpt>
<trkpt lat="48.469233" lon="2.658713"><ele></ele><time>2023-1-21T10:45:58Z</time></trkpt>
<trkpt lat="48.469138" lon="2.6587"><ele></ele><time>2023-1-21T10:46:1Z</time></trkpt>
<trkpt lat="48.469044" lon="2.658664"><ele></ele><time>2023-1-21T10:46:4Z</time></trkpt>
<trkpt lat="48.46893" lon="2.658653"><ele></ele><time>2023-1-21T10:46:7Z</time></trkpt>
<trkpt lat="48.468831" lon="2.65865"><ele></ele><time>2023-1-21T10:46:10Z</time></trkpt>
<trkpt lat="48.468734" lon="2.658639"><ele></ele><time>2023-1-21T10:46:13Z</time></trkpt>
<trkpt lat="48.468638" lon="2.658632"><ele></ele><time>2023-1-21T10:46:16Z</time></trkpt>
<trkpt lat="48.468527" lon="2.65861"><ele></ele><time>2023-1-21T10:46:19Z</time></trkpt>
<trkpt lat="48.468411" lon="2.658597"><ele></ele><time>2023-1-21T10:46:22Z</time></trkpt>
<trkpt lat="48.468289" lon="2.658582"><ele></ele><time>2023-1-21T10:46:25Z</time></trkpt>
<trkpt lat="48.4682" lon="2.658568"><ele></ele><time>2023-1-21T10:46:28Z</time></trkpt>
<trkpt lat="48.468108" lon="2.658538"><ele></ele><time>2023-1-21T10:46:31Z</time></trkpt>
<trkpt lat="48.468008" lon="2.658526"><ele></ele><time>2023-1-21T10:46:34Z</time></trkpt>
<trkpt lat="48.467893" lon="2.65854"><ele></ele><time>2023-1-21T10:46:37Z</time></trkpt>
<trkpt lat="48.467779" lon="2.65853"><ele></ele><time>2023-1-21T10:46:40Z</time></trkpt>
<trkpt lat="48.467681" lon="2.658494"><ele></ele><time>2023-1-21T10:46:43Z</time></trkpt>
<trkpt lat="48.467565" lon="2.658492"><ele></ele><time>2023-1-21T10:46:46Z</time></trkpt>
<trkpt lat="48.467452" lon="2.658482"><ele></ele><time>2023-1-21T10:46:49Z</time></trkpt>
<trkpt lat="48.467327" lon="2.658467"><ele></ele><time>2023-1-21T10:46:52Z</time></trkpt>
<trkpt lat="48.467211" lon="2.658457"><ele></ele><time>2023-1-21T10:46:55Z</time></trkpt>
<trkpt lat="48.467107" lon="2.658449"><ele></ele><time>2023-1-21T10:46:58Z</time></trkpt>
<trkpt lat="48.467005" lon="2.658432"><ele></ele><time>2023-1-21T10:47:1Z</time></trkpt>
<trkpt lat="48.466913" lon="2.658437"><ele></ele><time>2023-1-21T10:47:4Z</time></trkpt>
<trkpt lat="48.466803" lon="2.658441"><ele></ele><time>2023-1-21T10:47:7Z</time></trkpt>
<trkpt lat="48.466687" lon="2.658421"><ele></ele><time>2023-1-21T10:47:10Z</time></trkpt>
<trkpt lat="48.466571" lon="2.658401"><ele></ele><time>2023-1-21T10:47:13Z</time></trkpt>
<trkpt lat="48.466469" lon="2.65839"><ele></ele><time>2023-1-21T10:47:16Z</time></trkpt>
<trkpt lat="48.466365" lon="2.658377"><ele></ele><time>2023-1-21T10:47:19Z</time></trkpt>
<trkpt lat="48.466268" lon="2.658365"><ele></ele><time>2023-1-21T10:47:22Z</time></trkpt>
<trkpt lat="48.466164" lon="2.658372"><ele></ele><time>2023-1-21T10:47:25Z</time></trkpt>
<trkpt lat="48.466077" lon="2.658417"><ele></ele><time>2023-1-21T10:47:28Z</time></trkpt>
<trkpt lat="48.465982" lon="2.658449"><ele></ele><time>2023-1-21T10:47:31Z</time></trkpt>
<trkpt lat="48.465884" lon="2.658493"><ele></ele><time>2023-1-21T10:47:34Z</time></trkpt>
<trkpt lat="48.465788" lon="2.658557"><ele></ele><time>2023-1-21T10:47:37Z</time></trkpt>
<trkpt lat="48.465689" lon="2.658592"><ele></ele><time>2023-1-21T10:47:40Z</time></trkpt>
<trkpt lat="48.465587" lon="2.658523"><ele></ele><time>2023-1-21T10:47:43Z</time></trkpt>
<trkpt lat="48.465511" lon="2.658437"><ele></ele><time>2023-1-21T10:47:46Z</time></trkpt>
<trkpt lat="48.465402" lon="2.658403"><ele></ele><time>2023-1-21T10:47:49Z</time></trkpt>
<trkpt lat="48.465278" lon="2.658416"><ele></ele><time>2023-1-21T10:47:52Z</time></trkpt>
<trkpt lat="48.465162" lon="2.658437"><ele></ele><time>2023-1-21T10:47:55Z</time></trkpt>
<trkpt lat="48.465065" lon="2.658462"><ele></ele><time>2023-1-21T10:47:58Z</time></trkpt>
<trkpt lat="48.464976" lon="2.658498"><ele></ele><time>2023-1-21T10:48:1Z</time></trkpt>
<trkpt lat="48.464879" lon="2.658549"><ele></ele><time>2023-1-21T10:48:4Z</time></trkpt>
<trkpt lat="48.46476" lon="2.658525"><ele></ele><time>2023-1-21T10:48:7Z</time></trkpt>
<trkpt lat="48.464647" lon="2.658505"><ele></ele><time>2023-1-21T10:48:10Z</time></trkpt>
<trkpt lat="48.464537" lon="2.658559"><ele></ele><time>2023-1-21T10:48:13Z</time></trkpt>
<trkpt lat="48.464445" lon="2.65862"><ele></ele><time>2023-1-21T10:48:16Z</time></trkpt>
<trkpt lat="48.464342" lon="2.658693"><ele></ele><time>2023-1-21T10:48:19Z</time></trkpt>
<trkpt lat="48.464263" lon="2.658763"><ele></ele><time>2023-1-21T10:48:22Z</time></trkpt>
<trkpt lat="48.464169" lon="2.658806"><ele></ele><time>2023-1-21T10:48:25Z</time></trkpt>
<trkpt lat="48.464066" lon="2.658882"><ele></ele><time>2023-1-21T10:48:28Z</time></trkpt>
<trkpt lat="48.463992" lon="2.658964"><ele></ele><time>2023-1-21T10:48:31Z</time></trkpt>
<trkpt lat="48.463893" lon="2.659061"><ele></ele><time>2023-1-21T10:48:34Z</time></trkpt>
<trkpt lat="48.463786" lon="2.659113"><ele></ele><time>2023-1-21T10:48:37Z</time></trkpt>
<trkpt lat="48.463678" lon="2.659206"><ele></ele><time>2023-1-21T10:48:40Z</time></trkpt>
<trkpt lat="48.46359" lon="2.659258"><ele></ele><time>2023-1-21T10:48:43Z</time></trkpt>
<trkpt lat="48.463501" lon="2.65933"><ele></ele><time>2023-1-21T10:48:46Z</time></trkpt>
<trkpt lat="48.46342" lon="2.659397"><ele></ele><time>2023-1-21T10:48:49Z</time></trkpt>
<trkpt lat="48.463338" lon="2.659464"><ele></ele><time>2023-1-21T10:48:52Z</time></trkpt>
<trkpt lat="48.463261" lon="2.659557"><ele></ele><time>2023-1-21T10:48:55Z</time></trkpt>
<trkpt lat="48.463165" lon="2.65964"><ele></ele><time>2023-1-21T10:48:58Z</time></trkpt>
<trkpt lat="48.463082" lon="2.659692"><ele></ele><time>2023-1-21T10:49:1Z</time></trkpt>
<trkpt lat="48.462991" lon="2.659744"><ele></ele><time>2023-1-21T10:49:4Z</time></trkpt>
<trkpt lat="48.462905" lon="2.659808"><ele></ele><time>2023-1-21T10:49:7Z</time></trkpt>
<trkpt lat="48.46282" lon="2.659895"><ele></ele><time>2023-1-21T10:49:10Z</time></trkpt>
<trkpt lat="48.462727" lon="2.659967"><ele></ele><time>2023-1-21T10:49:13Z</time></trkpt>
<trkpt lat="48.462633" lon="2.66002"><ele></ele><time>2023-1-21T10:49:16Z</time></trkpt>
<trkpt lat="48.462536" lon="2.660094"><ele></ele><time>2023-1-21T10:49:19Z</time></trkpt>
<trkpt lat="48.46244" lon="2.660164"><ele></ele><time>2023-1-21T10:49:22Z</time></trkpt>
<trkpt lat="48.462369" lon="2.660258"><ele></ele><time>2023-1-21T10:49:25Z</time></trkpt>
<trkpt lat="48.462266" lon="2.660337"><ele></ele><time>2023-1-21T10:49:28Z</time></trkpt>
<trkpt lat="48.462164" lon="2.660353"><ele></ele><time>2023-1-21T10:49:31Z</time></trkpt>
<trkpt lat="48.462057" lon="2.660379"><ele></ele><time>2023-1-21T10:49:34Z</time></trkpt>
<trkpt lat="48.461965" lon="2.660449"><ele></ele><time>2023-1-21T10:49:37Z</time></trkpt>
<trkpt lat="48.461878" lon="2.66049"><ele></ele><time>2023-1-21T10:49:40Z</time></trkpt>
<trkpt lat="48.461785" lon="2.660509"><ele></ele><time>2023-1-21T10:49:43Z</time></trkpt>
<trkpt lat="48.461693" lon="2.660525"><ele></ele><time>2023-1-21T10:49:46Z</time></trkpt>
<trkpt lat="48.461595" lon="2.660518"><ele></ele><time>2023-1-21T10:49:49Z</time></trkpt>
<trkpt lat="48.461499" lon="2.660511"><ele></ele><time>2023-1-21T10:49:52Z</time></trkpt>
<trkpt lat="48.461412" lon="2.660444"><ele></ele><time>2023-1-21T10:49:55Z</time></trkpt>
<trkpt lat="48.46132" lon="2.660415"><ele></ele><time>2023-1-21T10:49:58Z</time></trkpt>
<trkpt lat="48.461228" lon="2.660407"><ele></ele><time>2023-1-21T10:50:1Z</time></trkpt>
<trkpt lat="48.461137" lon="2.660437"><ele></ele><time>2023-1-21T10:50:4Z</time></trkpt>
<trkpt lat="48.461056" lon="2.660514"><ele></ele><time>2023-1-21T10:50:7Z</time></trkpt>
<trkpt lat="48.460959" lon="2.660518"><ele></ele><time>2023-1-21T10:50:10Z</time></trkpt>
<trkpt lat="48.460869" lon="2.660577"><ele></ele><time>2023-1-21T10:50:13Z</time></trkpt>
<trkpt lat="48.460791" lon="2.660706"><ele></ele><time>2023-1-21T10:50:16Z</time></trkpt>
<trkpt lat="48.460707" lon="2.660792"><ele></ele><time>2023-1-21T10:50:19Z</time></trkpt>
<trkpt lat="48.46063" lon="2.660898"><ele></ele><time>2023-1-21T10:50:22Z</time></trkpt>
<trkpt lat="48.460585" lon="2.66102"><ele></ele><time>2023-1-21T10:50:25Z</time></trkpt>
<trkpt lat="48.460504" lon="2.661143"><ele></ele><time>2023-1-21T10:50:28Z</time></trkpt>
<trkpt lat="48.460388" lon="2.661192"><ele></ele><time>2023-1-21T10:50:31Z</time></trkpt>
<trkpt lat="48.460273" lon="2.66123"><ele></ele><time>2023-1-21T10:50:34Z</time></trkpt>
<trkpt lat="48.460175" lon="2.66131"><ele></ele><time>2023-1-21T10:50:37Z</time></trkpt>
<trkpt lat="48.460084" lon="2.661417"><ele></ele><time>2023-1-21T10:50:40Z</time></trkpt>
<trkpt lat="48.459962" lon="2.661444"><ele></ele><time>2023-1-21T10:50:43Z</time></trkpt>
<trkpt lat="48.45985" lon="2.66144"><ele></ele><time>2023-1-21T10:50:46Z</time></trkpt>
<trkpt lat="48.459745" lon="2.661433"><ele></ele><time>2023-1-21T10:50:49Z</time></trkpt>
<trkpt lat="48.459691" lon="2.661562"><ele></ele><time>2023-1-21T10:50:52Z</time></trkpt>
<trkpt lat="48.4597" lon="2.661729"><ele></ele><time>2023-1-21T10:50:55Z</time></trkpt>
<trkpt lat="48.459679" lon="2.661878"><ele></ele><time>2023-1-21T10:50:58Z</time></trkpt>
<trkpt lat="48.459653" lon="2.66202"><ele></ele><time>2023-1-21T10:51:1Z</time></trkpt>
<trkpt lat="48.459643" lon="2.662195"><ele></ele><time>2023-1-21T10:51:4Z</time></trkpt>
<trkpt lat="48.459654" lon="2.66238"><ele></ele><time>2023-1-21T10:51:7Z</time></trkpt>
<trkpt lat="48.459662" lon="2.662557"><ele></ele><time>2023-1-21T10:51:10Z</time></trkpt>
<trkpt lat="48.459639" lon="2.662698"><ele></ele><time>2023-1-21T10:51:13Z</time></trkpt>
<trkpt lat="48.459592" lon="2.662841"><ele></ele><time>2023-1-21T10:51:16Z</time></trkpt>
<trkpt lat="48.459546" lon="2.662987"><ele></ele><time>2023-1-21T10:51:19Z</time></trkpt>
<trkpt lat="48.459513" lon="2.663135"><ele></ele><time>2023-1-21T10:51:22Z</time></trkpt>
<trkpt lat="48.459466" lon="2.663257"><ele></ele><time>2023-1-21T10:51:25Z</time></trkpt>
<trkpt lat="48.459412" lon="2.663381"><ele></ele><time>2023-1-21T10:51:28Z</time></trkpt>
<trkpt lat="48.459369" lon="2.663538"><ele></ele><time>2023-1-21T10:51:31Z</time></trkpt>
<trkpt lat="48.459332" lon="2.663678"><ele></ele><time>2023-1-21T10:51:34Z</time></trkpt>
<trkpt lat="48.459279" lon="2.663829"><ele></ele><time>2023-1-21T10:51:37Z</time></trkpt>
<trkpt lat="48.459243" lon="2.66397"><ele></ele><time>2023-1-21T10:51:40Z</time></trkpt>
<trkpt lat="48.459184" lon="2.664111"><ele></ele><time>2023-1-21T10:51:43Z</time></trkpt>
<trkpt lat="48.459138" lon="2.664269"><ele></ele><time>2023-1-21T10:51:46Z</time></trkpt>
<trkpt lat="48.459092" lon="2.664387"><ele></ele><time>2023-1-21T10:51:49Z</time></trkpt>
<trkpt lat="48.459055" lon="2.664523"><ele></ele><time>2023-1-21T10:51:52Z</time></trkpt>
<trkpt lat="48.459016" lon="2.664652"><ele></ele><time>2023-1-21T10:51:55Z</time></trkpt>
<trkpt lat="48.458959" lon="2.664791"><ele></ele><time>2023-1-21T10:51:58Z</time></trkpt>
<trkpt lat="48.458883" lon="2.664926"><ele></ele><time>2023-1-21T10:52:1Z</time></trkpt>
<trkpt lat="48.458839" lon="2.66505"><ele></ele><time>2023-1-21T10:52:4Z</time></trkpt>
<trkpt lat="48.458787" lon="2.665196"><ele></ele><time>2023-1-21T10:52:7Z</time></trkpt>
<trkpt lat="48.458761" lon="2.665332"><ele></ele><time>2023-1-21T10:52:10Z</time></trkpt>
<trkpt lat="48.458726" lon="2.66548"><ele></ele><time>2023-1-21T10:52:13Z</time></trkpt>
<trkpt lat="48.458686" lon="2.665601"><ele></ele><time>2023-1-21T10:52:16Z</time></trkpt>
<trkpt lat="48.45865" lon="2.665727"><ele></ele><time>2023-1-21T10:52:19Z</time></trkpt>
<trkpt lat="48.458607" lon="2.665876"><ele></ele><time>2023-1-21T10:52:22Z</time></trkpt>
<trkpt lat="48.458569" lon="2.666023"><ele></ele><time>2023-1-21T10:52:25Z</time></trkpt>
<trkpt lat="48.458537" lon="2.666174"><ele></ele><time>2023-1-21T10:52:28Z</time></trkpt>
<trkpt lat="48.458474" lon="2.666299"><ele></ele><time>2023-1-21T10:52:31Z</time></trkpt>
<trkpt lat="48.45843" lon="2.66645"><ele></ele><time>2023-1-21T10:52:34Z</time></trkpt>
<trkpt lat="48.458379" lon="2.666585"><ele></ele><time>2023-1-21T10:52:37Z</time></trkpt>
<trkpt lat="48.458333" lon="2.666721"><ele></ele><time>2023-1-21T10:52:40Z</time></trkpt>
<trkpt lat="48.458294" lon="2.666867"><ele></ele><time>2023-1-21T10:52:43Z</time></trkpt>
<trkpt lat="48.45826" lon="2.666997"><ele></ele><time>2023-1-21T10:52:46Z</time></trkpt>
<trkpt lat="48.458208" lon="2.66714"><ele></ele><time>2023-1-21T10:52:49Z</time></trkpt>
<trkpt lat="48.458157" lon="2.667286"><ele></ele><time>2023-1-21T10:52:52Z</time></trkpt>
<trkpt lat="48.458125" lon="2.667414"><ele></ele><time>2023-1-21T10:52:55Z</time></trkpt>
<trkpt lat="48.458069" lon="2.667545"><ele></ele><time>2023-1-21T10:52:58Z</time></trkpt>
<trkpt lat="48.458025" lon="2.66768"><ele></ele><time>2023-1-21T10:53:1Z</time></trkpt>
<trkpt lat="48.457983" lon="2.66781"><ele></ele><time>2023-1-21T10:53:4Z</time></trkpt>
<trkpt lat="48.457938" lon="2.667987"><ele></ele><time>2023-1-21T10:53:7Z</time></trkpt>
<trkpt lat="48.457889" lon="2.668104"><ele></ele><time>2023-1-21T10:53:10Z</time></trkpt>
<trkpt lat="48.457867" lon="2.668243"><ele></ele><time>2023-1-21T10:53:13Z</time></trkpt>
<trkpt lat="48.45782" lon="2.66843"><ele></ele><time>2023-1-21T10:53:16Z</time></trkpt>
<trkpt lat="48.457747" lon="2.668587"><ele></ele><time>2023-1-21T10:53:19Z</time></trkpt>
<trkpt lat="48.457685" lon="2.668749"><ele></ele><time>2023-1-21T10:53:22Z</time></trkpt>
<trkpt lat="48.45764" lon="2.668871"><ele></ele><time>2023-1-21T10:53:25Z</time></trkpt>
<trkpt lat="48.457567" lon="2.669039"><ele></ele><time>2023-1-21T10:53:28Z</time></trkpt>
<trkpt lat="48.457513" lon="2.66922"><ele></ele><time>2023-1-21T10:53:31Z</time></trkpt>
<trkpt lat="48.457455" lon="2.669391"><ele></ele><time>2023-1-21T10:53:34Z</time></trkpt>
<trkpt lat="48.457407" lon="2.669549"><ele></ele><time>2023-1-21T10:53:37Z</time></trkpt>
<trkpt lat="48.457345" lon="2.66968"><ele></ele><time>2023-1-21T10:53:40Z</time></trkpt>
<trkpt lat="48.457253" lon="2.669709"><ele></ele><time>2023-1-21T10:53:43Z</time></trkpt>
<trkpt lat="48.457161" lon="2.669713"><ele></ele><time>2023-1-21T10:53:46Z</time></trkpt>
<trkpt lat="48.457061" lon="2.669683"><ele></ele><time>2023-1-21T10:53:49Z</time></trkpt>
<trkpt lat="48.456992" lon="2.669572"><ele></ele><time>2023-1-21T10:53:52Z</time></trkpt>
<trkpt lat="48.456907" lon="2.669475"><ele></ele><time>2023-1-21T10:53:55Z</time></trkpt>
<trkpt lat="48.456828" lon="2.669373"><ele></ele><time>2023-1-21T10:53:58Z</time></trkpt>
<trkpt lat="48.456758" lon="2.669267"><ele></ele><time>2023-1-21T10:54:1Z</time></trkpt>
<trkpt lat="48.456707" lon="2.669112"><ele></ele><time>2023-1-21T10:54:4Z</time></trkpt>
<trkpt lat="48.456667" lon="2.668964"><ele></ele><time>2023-1-21T10:54:7Z</time></trkpt>
<trkpt lat="48.456629" lon="2.668816"><ele></ele><time>2023-1-21T10:54:10Z</time></trkpt>
<trkpt lat="48.456574" lon="2.668675"><ele></ele><time>2023-1-21T10:54:13Z</time></trkpt>
<trkpt lat="48.456524" lon="2.668542"><ele></ele><time>2023-1-21T10:54:16Z</time></trkpt>
<trkpt lat="48.456514" lon="2.668376"><ele></ele><time>2023-1-21T10:54:19Z</time></trkpt>
<trkpt lat="48.456459" lon="2.66824"><ele></ele><time>2023-1-21T10:54:22Z</time></trkpt>
<trkpt lat="48.456387" lon="2.668106"><ele></ele><time>2023-1-21T10:54:25Z</time></trkpt>
<trkpt lat="48.456342" lon="2.667988"><ele></ele><time>2023-1-21T10:54:28Z</time></trkpt>
<trkpt lat="48.456297" lon="2.66785"><ele></ele><time>2023-1-21T10:54:31Z</time></trkpt>
<trkpt lat="48.456231" lon="2.667733"><ele></ele><time>2023-1-21T10:54:34Z</time></trkpt>
<trkpt lat="48.456183" lon="2.667614"><ele></ele><time>2023-1-21T10:54:37Z</time></trkpt>
<trkpt lat="48.456107" lon="2.667518"><ele></ele><time>2023-1-21T10:54:40Z</time></trkpt>
<trkpt lat="48.456044" lon="2.667401"><ele></ele><time>2023-1-21T10:54:43Z</time></trkpt>
<trkpt lat="48.456003" lon="2.667268"><ele></ele><time>2023-1-21T10:54:46Z</time></trkpt>
<trkpt lat="48.455924" lon="2.667157"><ele></ele><time>2023-1-21T10:54:49Z</time></trkpt>
<trkpt lat="48.455869" lon="2.667036"><ele></ele><time>2023-1-21T10:54:52Z</time></trkpt>
<trkpt lat="48.455801" lon="2.666932"><ele></ele><time>2023-1-21T10:54:55Z</time></trkpt>
<trkpt lat="48.455707" lon="2.666853"><ele></ele><time>2023-1-21T10:54:58Z</time></trkpt>
<trkpt lat="48.455632" lon="2.666779"><ele></ele><time>2023-1-21T10:55:1Z</time></trkpt>
<trkpt lat="48.455548" lon="2.666722"><ele></ele><time>2023-1-21T10:55:4Z</time></trkpt>
<trkpt lat="48.455456" lon="2.666665"><ele></ele><time>2023-1-21T10:55:7Z</time></trkpt>
<trkpt lat="48.455358" lon="2.666617"><ele></ele><time>2023-1-21T10:55:10Z</time></trkpt>
<trkpt lat="48.455266" lon="2.666571"><ele></ele><time>2023-1-21T10:55:13Z</time></trkpt>
<trkpt lat="48.455182" lon="2.66649"><ele></ele><time>2023-1-21T10:55:16Z</time></trkpt>
<trkpt lat="48.455112" lon="2.666384"><ele></ele><time>2023-1-21T10:55:19Z</time></trkpt>
<trkpt lat="48.455062" lon="2.666251"><ele></ele><time>2023-1-21T10:55:22Z</time></trkpt>
<trkpt lat="48.455039" lon="2.666104"><ele></ele><time>2023-1-21T10:55:25Z</time></trkpt>
<trkpt lat="48.455033" lon="2.665965"><ele></ele><time>2023-1-21T10:55:28Z</time></trkpt>
<trkpt lat="48.455" lon="2.665819"><ele></ele><time>2023-1-21T10:55:31Z</time></trkpt>
<trkpt lat="48.454957" lon="2.665675"><ele></ele><time>2023-1-21T10:55:34Z</time></trkpt>
<trkpt lat="48.454927" lon="2.665538"><ele></ele><time>2023-1-21T10:55:37Z</time></trkpt>
<trkpt lat="48.454907" lon="2.665387"><ele></ele><time>2023-1-21T10:55:40Z</time></trkpt>
<trkpt lat="48.454854" lon="2.665264"><ele></ele><time>2023-1-21T10:55:43Z</time></trkpt>
<trkpt lat="48.454797" lon="2.66515"><ele></ele><time>2023-1-21T10:55:46Z</time></trkpt>
<trkpt lat="48.454735" lon="2.665046"><ele></ele><time>2023-1-21T10:55:49Z</time></trkpt>
<trkpt lat="48.454686" lon="2.664918"><ele></ele><time>2023-1-21T10:55:52Z</time></trkpt>
<trkpt lat="48.454649" lon="2.664795"><ele></ele><time>2023-1-21T10:55:55Z</time></trkpt>
<trkpt lat="48.454581" lon="2.664678"><ele></ele><time>2023-1-21T10:55:58Z</time></trkpt>
<trkpt lat="48.454521" lon="2.664566"><ele></ele><time>2023-1-21T10:56:1Z</time></trkpt>
<trkpt lat="48.454459" lon="2.664452"><ele></ele><time>2023-1-21T10:56:4Z</time></trkpt>
<trkpt lat="48.454391" lon="2.664334"><ele></ele><time>2023-1-21T10:56:7Z</time></trkpt>
<trkpt lat="48.454347" lon="2.664204"><ele></ele><time>2023-1-21T10:56:10Z</time></trkpt>
<trkpt lat="48.4543" lon="2.664078"><ele></ele><time>2023-1-21T10:56:13Z</time></trkpt>
<trkpt lat="48.454253" lon="2.663953"><ele></ele><time>2023-1-21T10:56:16Z</time></trkpt>
<trkpt lat="48.454199" lon="2.663821"><ele></ele><time>2023-1-21T10:56:19Z</time></trkpt>
<trkpt lat="48.454164" lon="2.663694"><ele></ele><time>2023-1-21T10:56:22Z</time></trkpt>
<trkpt lat="48.454137" lon="2.66356"><ele></ele><time>2023-1-21T10:56:25Z</time></trkpt>
<trkpt lat="48.454117" lon="2.663416"><ele></ele><time>2023-1-21T10:56:28Z</time></trkpt>
<trkpt lat="48.454111" lon="2.66328"><ele></ele><time>2023-1-21T10:56:31Z</time></trkpt>
<trkpt lat="48.45407" lon="2.663149"><ele></ele><time>2023-1-21T10:56:34Z</time></trkpt>
<trkpt lat="48.454036" lon="2.663022"><ele></ele><time>2023-1-21T10:56:37Z</time></trkpt>
<trkpt lat="48.454002" lon="2.662888"><ele></ele><time>2023-1-21T10:56:40Z</time></trkpt>
<trkpt lat="48.453937" lon="2.66278"><ele></ele><time>2023-1-21T10:56:43Z</time></trkpt>
<trkpt lat="48.453884" lon="2.662664"><ele></ele><time>2023-1-21T10:56:46Z</time></trkpt>
<trkpt lat="48.453835" lon="2.66254"><ele></ele><time>2023-1-21T10:56:49Z</time></trkpt>
<trkpt lat="48.453757" lon="2.662447"><ele></ele><time>2023-1-21T10:56:52Z</time></trkpt>
<trkpt lat="48.453673" lon="2.662389"><ele></ele><time>2023-1-21T10:56:55Z</time></trkpt>
<trkpt lat="48.453629" lon="2.662252"><ele></ele><time>2023-1-21T10:56:58Z</time></trkpt>
<trkpt lat="48.453653" lon="2.662112"><ele></ele><time>2023-1-21T10:57:1Z</time></trkpt>
<trkpt lat="48.453723" lon="2.661997"><ele></ele><time>2023-1-21T10:57:4Z</time></trkpt>
<trkpt lat="48.453814" lon="2.661966"><ele></ele><time>2023-1-21T10:57:7Z</time></trkpt>
<trkpt lat="48.453906" lon="2.66203"><ele></ele><time>2023-1-21T10:57:10Z</time></trkpt>
<trkpt lat="48.453964" lon="2.662166"><ele></ele><time>2023-1-21T10:57:13Z</time></trkpt>
<trkpt lat="48.454033" lon="2.662266"><ele></ele><time>2023-1-21T10:57:16Z</time></trkpt>
<trkpt lat="48.454076" lon="2.662421"><ele></ele><time>2023-1-21T10:57:19Z</time></trkpt>
<trkpt lat="48.4541" lon="2.662561"><ele></ele><time>2023-1-21T10:57:22Z</time></trkpt>
<trkpt lat="48.454122" lon="2.662741"><ele></ele><time>2023-1-21T10:57:25Z</time></trkpt>
<trkpt lat="48.454175" lon="2.662859"><ele></ele><time>2023-1-21T10:57:28Z</time></trkpt>
<trkpt lat="48.454228" lon="2.662978"><ele></ele><time>2023-1-21T10:57:31Z</time></trkpt>
<trkpt lat="48.454277" lon="2.663102"><ele></ele><time>2023-1-21T10:57:34Z</time></trkpt>
<trkpt lat="48.454335" lon="2.663221"><ele></ele><time>2023-1-21T10:57:37Z</time></trkpt>
<trkpt lat="48.454409" lon="2.663361"><ele></ele><time>2023-1-21T10:57:40Z</time></trkpt>
<trkpt lat="48.454465" lon="2.663487"><ele></ele><time>2023-1-21T10:57:43Z</time></trkpt>
<trkpt lat="48.454518" lon="2.663611"><ele></ele><time>2023-1-21T10:57:46Z</time></trkpt>
<trkpt lat="48.454568" lon="2.663727"><ele></ele><time>2023-1-21T10:57:49Z</time></trkpt>
<trkpt lat="48.454633" lon="2.663844"><ele></ele><time>2023-1-21T10:57:52Z</time></trkpt>
<trkpt lat="48.45469" lon="2.663953"><ele></ele><time>2023-1-21T10:57:55Z</time></trkpt>
<trkpt lat="48.454733" lon="2.664077"><ele></ele><time>2023-1-21T10:57:58Z</time></trkpt>
<trkpt lat="48.454788" lon="2.664207"><ele></ele><time>2023-1-21T10:58:1Z</time></trkpt>
<trkpt lat="48.454847" lon="2.664341"><ele></ele><time>2023-1-21T10:58:4Z</time></trkpt>
<trkpt lat="48.454889" lon="2.664462"><ele></ele><time>2023-1-21T10:58:7Z</time></trkpt>
<trkpt lat="48.454954" lon="2.664616"><ele></ele><time>2023-1-21T10:58:10Z</time></trkpt>
<trkpt lat="48.455027" lon="2.664773"><ele></ele><time>2023-1-21T10:58:13Z</time></trkpt>
<trkpt lat="48.455096" lon="2.664927"><ele></ele><time>2023-1-21T10:58:16Z</time></trkpt>
<trkpt lat="48.455142" lon="2.665096"><ele></ele><time>2023-1-21T10:58:19Z</time></trkpt>
<trkpt lat="48.455213" lon="2.665231"><ele></ele><time>2023-1-21T10:58:22Z</time></trkpt>
<trkpt lat="48.455278" lon="2.665344"><ele></ele><time>2023-1-21T10:58:25Z</time></trkpt>
<trkpt lat="48.455377" lon="2.665458"><ele></ele><time>2023-1-21T10:58:28Z</time></trkpt>
<trkpt lat="48.455457" lon="2.665542"><ele></ele><time>2023-1-21T10:58:31Z</time></trkpt>
<trkpt lat="48.455564" lon="2.665626"><ele></ele><time>2023-1-21T10:58:34Z</time></trkpt>
<trkpt lat="48.455666" lon="2.665739"><ele></ele><time>2023-1-21T10:58:37Z</time></trkpt>
<trkpt lat="48.455755" lon="2.665815"><ele></ele><time>2023-1-21T10:58:40Z</time></trkpt>
<trkpt lat="48.455844" lon="2.665899"><ele></ele><time>2023-1-21T10:58:43Z</time></trkpt>
<trkpt lat="48.455954" lon="2.665981"><ele></ele><time>2023-1-21T10:58:46Z</time></trkpt>
<trkpt lat="48.456053" lon="2.666063"><ele></ele><time>2023-1-21T10:58:49Z</time></trkpt>
<trkpt lat="48.45616" lon="2.666154"><ele></ele><time>2023-1-21T10:58:52Z</time></trkpt>
<trkpt lat="48.456234" lon="2.666241"><ele></ele><time>2023-1-21T10:58:55Z</time></trkpt>
<trkpt lat="48.4563" lon="2.666347"><ele></ele><time>2023-1-21T10:58:58Z</time></trkpt>
<trkpt lat="48.45637" lon="2.666473"><ele></ele><time>2023-1-21T10:59:1Z</time></trkpt>
<trkpt lat="48.456429" lon="2.666578"><ele></ele><time>2023-1-21T10:59:4Z</time></trkpt>
<trkpt lat="48.456492" lon="2.666679"><ele></ele><time>2023-1-21T10:59:7Z</time></trkpt>
<trkpt lat="48.456571" lon="2.666749"><ele></ele><time>2023-1-21T10:59:10Z</time></trkpt>
<trkpt lat="48.456659" lon="2.666825"><ele></ele><time>2023-1-21T10:59:13Z</time></trkpt>
<trkpt lat="48.456713" lon="2.666948"><ele></ele><time>2023-1-21T10:59:16Z</time></trkpt>
<trkpt lat="48.456794" lon="2.667066"><ele></ele><time>2023-1-21T10:59:19Z</time></trkpt>
<trkpt lat="48.456873" lon="2.667156"><ele></ele><time>2023-1-21T10:59:22Z</time></trkpt>
<trkpt lat="48.456977" lon="2.66723"><ele></ele><time>2023-1-21T10:59:25Z</time></trkpt>
<trkpt lat="48.457082" lon="2.667221"><ele></ele><time>2023-1-21T10:59:28Z</time></trkpt>
<trkpt lat="48.457176" lon="2.667138"><ele></ele><time>2023-1-21T10:59:31Z</time></trkpt>
<trkpt lat="48.457228" lon="2.667014"><ele></ele><time>2023-1-21T10:59:34Z</time></trkpt>
<trkpt lat="48.457298" lon="2.666893"><ele></ele><time>2023-1-21T10:59:37Z</time></trkpt>
<trkpt lat="48.457331" lon="2.666729"><ele></ele><time>2023-1-21T10:59:40Z</time></trkpt>
<trkpt lat="48.457345" lon="2.666593"><ele></ele><time>2023-1-21T10:59:43Z</time></trkpt>
<trkpt lat="48.457368" lon="2.666432"><ele></ele><time>2023-1-21T10:59:46Z</time></trkpt>
<trkpt lat="48.457388" lon="2.666263"><ele></ele><time>2023-1-21T10:59:49Z</time></trkpt>
<trkpt lat="48.457388" lon="2.666075"><ele></ele><time>2023-1-21T10:59:52Z</time></trkpt>
<trkpt lat="48.457392" lon="2.665898"><ele></ele><time>2023-1-21T10:59:55Z</time></trkpt>
<trkpt lat="48.457346" lon="2.665725"><ele></ele><time>2023-1-21T10:59:58Z</time></trkpt>
<trkpt lat="48.457276" lon="2.665611"><ele></ele><time>2023-1-21T11:0:1Z</time></trkpt>
<trkpt lat="48.457205" lon="2.66549"><ele></ele><time>2023-1-21T11:0:4Z</time></trkpt>
<trkpt lat="48.457152" lon="2.665337"><ele></ele><time>2023-1-21T11:0:7Z</time></trkpt>
<trkpt lat="48.457131" lon="2.665154"><ele></ele><time>2023-1-21T11:0:10Z</time></trkpt>
<trkpt lat="48.457125" lon="2.665"><ele></ele><time>2023-1-21T11:0:13Z</time></trkpt>
<trkpt lat="48.457109" lon="2.66484"><ele></ele><time>2023-1-21T11:0:16Z</time></trkpt>
<trkpt lat="48.457087" lon="2.664686"><ele></ele><time>2023-1-21T11:0:19Z</time></trkpt>
<trkpt lat="48.457064" lon="2.664526"><ele></ele><time>2023-1-21T11:0:22Z</time></trkpt>
<trkpt lat="48.45704" lon="2.664352"><ele></ele><time>2023-1-21T11:0:25Z</time></trkpt>
<trkpt lat="48.457028" lon="2.664184"><ele></ele><time>2023-1-21T11:0:28Z</time></trkpt>
<trkpt lat="48.45702" lon="2.664028"><ele></ele><time>2023-1-21T11:0:31Z</time></trkpt>
<trkpt lat="48.45698" lon="2.663864"><ele></ele><time>2023-1-21T11:0:34Z</time></trkpt>
<trkpt lat="48.456938" lon="2.66371"><ele></ele><time>2023-1-21T11:0:37Z</time></trkpt>
<trkpt lat="48.456902" lon="2.663573"><ele></ele><time>2023-1-21T11:0:40Z</time></trkpt>
<trkpt lat="48.45687" lon="2.663438"><ele></ele><time>2023-1-21T11:0:43Z</time></trkpt>
<trkpt lat="48.456816" lon="2.663305"><ele></ele><time>2023-1-21T11:0:46Z</time></trkpt>
<trkpt lat="48.456779" lon="2.663161"><ele></ele><time>2023-1-21T11:0:49Z</time></trkpt>
<trkpt lat="48.456733" lon="2.662998"><ele></ele><time>2023-1-21T11:0:52Z</time></trkpt>
<trkpt lat="48.456676" lon="2.662858"><ele></ele><time>2023-1-21T11:0:55Z</time></trkpt>
<trkpt lat="48.456627" lon="2.66272"><ele></ele><time>2023-1-21T11:0:58Z</time></trkpt>
<trkpt lat="48.456574" lon="2.662597"><ele></ele><time>2023-1-21T11:1:1Z</time></trkpt>
<trkpt lat="48.45652" lon="2.662439"><ele></ele><time>2023-1-21T11:1:4Z</time></trkpt>
<trkpt lat="48.456458" lon="2.662286"><ele></ele><time>2023-1-21T11:1:7Z</time></trkpt>
<trkpt lat="48.456397" lon="2.662159"><ele></ele><time>2023-1-21T11:1:10Z</time></trkpt>
<trkpt lat="48.456364" lon="2.662017"><ele></ele><time>2023-1-21T11:1:13Z</time></trkpt>
<trkpt lat="48.456335" lon="2.661886"><ele></ele><time>2023-1-21T11:1:16Z</time></trkpt>
<trkpt lat="48.456292" lon="2.661745"><ele></ele><time>2023-1-21T11:1:19Z</time></trkpt>
<trkpt lat="48.456243" lon="2.661624"><ele></ele><time>2023-1-21T11:1:22Z</time></trkpt>
<trkpt lat="48.456213" lon="2.661494"><ele></ele><time>2023-1-21T11:1:25Z</time></trkpt>
<trkpt lat="48.456191" lon="2.661352"><ele></ele><time>2023-1-21T11:1:28Z</time></trkpt>
<trkpt lat="48.456183" lon="2.661198"><ele></ele><time>2023-1-21T11:1:31Z</time></trkpt>
<trkpt lat="48.456172" lon="2.661062"><ele></ele><time>2023-1-21T11:1:34Z</time></trkpt>
<trkpt lat="48.456172" lon="2.660915"><ele></ele><time>2023-1-21T11:1:37Z</time></trkpt>
<trkpt lat="48.456189" lon="2.660756"><ele></ele><time>2023-1-21T11:1:40Z</time></trkpt>
<trkpt lat="48.456202" lon="2.66062"><ele></ele><time>2023-1-21T11:1:43Z</time></trkpt>
<trkpt lat="48.456227" lon="2.660472"><ele></ele><time>2023-1-21T11:1:46Z</time></trkpt>
<trkpt lat="48.456229" lon="2.660319"><ele></ele><time>2023-1-21T11:1:49Z</time></trkpt>
<trkpt lat="48.456247" lon="2.660145"><ele></ele><time>2023-1-21T11:1:52Z</time></trkpt>
<trkpt lat="48.45627" lon="2.659988"><ele></ele><time>2023-1-21T11:1:55Z</time></trkpt>
<trkpt lat="48.4563" lon="2.659858"><ele></ele><time>2023-1-21T11:1:58Z</time></trkpt>
<trkpt lat="48.456333" lon="2.659691"><ele></ele><time>2023-1-21T11:2:1Z</time></trkpt>
<trkpt lat="48.45635" lon="2.659555"><ele></ele><time>2023-1-21T11:2:4Z</time></trkpt>
<trkpt lat="48.456376" lon="2.659421"><ele></ele><time>2023-1-21T11:2:7Z</time></trkpt>
<trkpt lat="48.456407" lon="2.659269"><ele></ele><time>2023-1-21T11:2:10Z</time></trkpt>
<trkpt lat="48.456446" lon="2.659097"><ele></ele><time>2023-1-21T11:2:13Z</time></trkpt>
<trkpt lat="48.456474" lon="2.658949"><ele></ele><time>2023-1-21T11:2:16Z</time></trkpt>
<trkpt lat="48.456515" lon="2.658777"><ele></ele><time>2023-1-21T11:2:19Z</time></trkpt>
<trkpt lat="48.456553" lon="2.658647"><ele></ele><time>2023-1-21T11:2:22Z</time></trkpt>
<trkpt lat="48.456614" lon="2.658493"><ele></ele><time>2023-1-21T11:2:25Z</time></trkpt>
<trkpt lat="48.456663" lon="2.658354"><ele></ele><time>2023-1-21T11:2:28Z</time></trkpt>
<trkpt lat="48.456714" lon="2.658238"><ele></ele><time>2023-1-21T11:2:31Z</time></trkpt>
<trkpt lat="48.456783" lon="2.658101"><ele></ele><time>2023-1-21T11:2:34Z</time></trkpt>
<trkpt lat="48.456858" lon="2.657957"><ele></ele><time>2023-1-21T11:2:37Z</time></trkpt>
<trkpt lat="48.456954" lon="2.65787"><ele></ele><time>2023-1-21T11:2:40Z</time></trkpt>
<trkpt lat="48.45704" lon="2.65781"><ele></ele><time>2023-1-21T11:2:43Z</time></trkpt>
<trkpt lat="48.457148" lon="2.657768"><ele></ele><time>2023-1-21T11:2:46Z</time></trkpt>
<trkpt lat="48.457242" lon="2.657712"><ele></ele><time>2023-1-21T11:2:49Z</time></trkpt>
<trkpt lat="48.457347" lon="2.657656"><ele></ele><time>2023-1-21T11:2:52Z</time></trkpt>
<trkpt lat="48.457454" lon="2.657596"><ele></ele><time>2023-1-21T11:2:55Z</time></trkpt>
<trkpt lat="48.457569" lon="2.65756"><ele></ele><time>2023-1-21T11:2:58Z</time></trkpt>
<trkpt lat="48.457668" lon="2.657509"><ele></ele><time>2023-1-21T11:3:1Z</time></trkpt>
<trkpt lat="48.457769" lon="2.657461"><ele></ele><time>2023-1-21T11:3:4Z</time></trkpt>
<trkpt lat="48.45788" lon="2.657441"><ele></ele><time>2023-1-21T11:3:7Z</time></trkpt>
<trkpt lat="48.457974" lon="2.657427"><ele></ele><time>2023-1-21T11:3:10Z</time></trkpt>
<trkpt lat="48.458084" lon="2.657425"><ele></ele><time>2023-1-21T11:3:13Z</time></trkpt>
<trkpt lat="48.458176" lon="2.657389"><ele></ele><time>2023-1-21T11:3:16Z</time></trkpt>
<trkpt lat="48.458285" lon="2.657362"><ele></ele><time>2023-1-21T11:3:19Z</time></trkpt>
<trkpt lat="48.458379" lon="2.657283"><ele></ele><time>2023-1-21T11:3:22Z</time></trkpt>
<trkpt lat="48.458461" lon="2.657196"><ele></ele><time>2023-1-21T11:3:25Z</time></trkpt>
<trkpt lat="48.458531" lon="2.657106"><ele></ele><time>2023-1-21T11:3:28Z</time></trkpt>
<trkpt lat="48.458597" lon="2.657003"><ele></ele><time>2023-1-21T11:3:31Z</time></trkpt>
<trkpt lat="48.458649" lon="2.656879"><ele></ele><time>2023-1-21T11:3:34Z</time></trkpt>
<trkpt lat="48.458705" lon="2.656767"><ele></ele><time>2023-1-21T11:3:37Z</time></trkpt>
<trkpt lat="48.458772" lon="2.656622"><ele></ele><time>2023-1-21T11:3:40Z</time></trkpt>
<trkpt lat="48.458833" lon="2.656488"><ele></ele><time>2023-1-21T11:3:43Z</time></trkpt>
<trkpt lat="48.458904" lon="2.656376"><ele></ele><time>2023-1-21T11:3:46Z</time></trkpt>
<trkpt lat="48.458973" lon="2.656249"><ele></ele><time>2023-1-21T11:3:49Z</time></trkpt>
<trkpt lat="48.459035" lon="2.656132"><ele></ele><time>2023-1-21T11:3:52Z</time></trkpt>
<trkpt lat="48.45911" lon="2.656035"><ele></ele><time>2023-1-21T11:3:55Z</time></trkpt>
<trkpt lat="48.459198" lon="2.655912"><ele></ele><time>2023-1-21T11:3:58Z</time></trkpt>
<trkpt lat="48.459285" lon="2.655816"><ele></ele><time>2023-1-21T11:4:1Z</time></trkpt>
<trkpt lat="48.459342" lon="2.655704"><ele></ele><time>2023-1-21T11:4:4Z</time></trkpt>
<trkpt lat="48.459377" lon="2.655568"><ele></ele><time>2023-1-21T11:4:7Z</time></trkpt>
<trkpt lat="48.459411" lon="2.655418"><ele></ele><time>2023-1-21T11:4:10Z</time></trkpt>
<trkpt lat="48.459451" lon="2.655251"><ele></ele><time>2023-1-21T11:4:13Z</time></trkpt>
<trkpt lat="48.459489" lon="2.655109"><ele></ele><time>2023-1-21T11:4:16Z</time></trkpt>
<trkpt lat="48.459517" lon="2.654941"><ele></ele><time>2023-1-21T11:4:19Z</time></trkpt>
<trkpt lat="48.459553" lon="2.654796"><ele></ele><time>2023-1-21T11:4:22Z</time></trkpt>
<trkpt lat="48.459585" lon="2.654657"><ele></ele><time>2023-1-21T11:4:25Z</time></trkpt>
<trkpt lat="48.459603" lon="2.654486"><ele></ele><time>2023-1-21T11:4:28Z</time></trkpt>
<trkpt lat="48.459619" lon="2.654336"><ele></ele><time>2023-1-21T11:4:31Z</time></trkpt>
<trkpt lat="48.459639" lon="2.654202"><ele></ele><time>2023-1-21T11:4:34Z</time></trkpt>
<trkpt lat="48.45966" lon="2.654029"><ele></ele><time>2023-1-21T11:4:37Z</time></trkpt>
<trkpt lat="48.459632" lon="2.653857"><ele></ele><time>2023-1-21T11:4:40Z</time></trkpt>
<trkpt lat="48.459543" lon="2.653736"><ele></ele><time>2023-1-21T11:4:43Z</time></trkpt>
<trkpt lat="48.459434" lon="2.653638"><ele></ele><time>2023-1-21T11:4:46Z</time></trkpt>
<trkpt lat="48.459349" lon="2.653578"><ele></ele><time>2023-1-21T11:4:49Z</time></trkpt>
<trkpt lat="48.459238" lon="2.6535"><ele></ele><time>2023-1-21T11:4:52Z</time></trkpt>
<trkpt lat="48.459128" lon="2.653434"><ele></ele><time>2023-1-21T11:4:55Z</time></trkpt>
<trkpt lat="48.459" lon="2.653413"><ele></ele><time>2023-1-21T11:4:58Z</time></trkpt>
<trkpt lat="48.458907" lon="2.65342"><ele></ele><time>2023-1-21T11:5:1Z</time></trkpt>
<trkpt lat="48.458781" lon="2.653421"><ele></ele><time>2023-1-21T11:5:4Z</time></trkpt>
<trkpt lat="48.458675" lon="2.653432"><ele></ele><time>2023-1-21T11:5:7Z</time></trkpt>
<trkpt lat="48.458579" lon="2.653453"><ele></ele><time>2023-1-21T11:5:10Z</time></trkpt>
<trkpt lat="48.458467" lon="2.653451"><ele></ele><time>2023-1-21T11:5:13Z</time></trkpt>
<trkpt lat="48.458354" lon="2.653455"><ele></ele><time>2023-1-21T11:5:16Z</time></trkpt>
<trkpt lat="48.458238" lon="2.653442"><ele></ele><time>2023-1-21T11:5:19Z</time></trkpt>
<trkpt lat="48.458148" lon="2.653412"><ele></ele><time>2023-1-21T11:5:22Z</time></trkpt>
<trkpt lat="48.458035" lon="2.653352"><ele></ele><time>2023-1-21T11:5:25Z</time></trkpt>
<trkpt lat="48.457934" lon="2.653269"><ele></ele><time>2023-1-21T11:5:28Z</time></trkpt>
<trkpt lat="48.457853" lon="2.653164"><ele></ele><time>2023-1-21T11:5:31Z</time></trkpt>
<trkpt lat="48.457793" lon="2.653037"><ele></ele><time>2023-1-21T11:5:34Z</time></trkpt>
<trkpt lat="48.457729" lon="2.652923"><ele></ele><time>2023-1-21T11:5:37Z</time></trkpt>
<trkpt lat="48.457679" lon="2.652802"><ele></ele><time>2023-1-21T11:5:40Z</time></trkpt>
<trkpt lat="48.457669" lon="2.652657"><ele></ele><time>2023-1-21T11:5:43Z</time></trkpt>
<trkpt lat="48.457683" lon="2.652513"><ele></ele><time>2023-1-21T11:5:46Z</time></trkpt>
<trkpt lat="48.457713" lon="2.652347"><ele></ele><time>2023-1-21T11:5:49Z</time></trkpt>
<trkpt lat="48.457773" lon="2.652157"><ele></ele><time>2023-1-21T11:5:52Z</time></trkpt>
<trkpt lat="48.45782" lon="2.652033"><ele></ele><time>2023-1-21T11:5:55Z</time></trkpt>
<trkpt lat="48.457874" lon="2.651907"><ele></ele><time>2023-1-21T11:5:58Z</time></trkpt>
<trkpt lat="48.457967" lon="2.651793"><ele></ele><time>2023-1-21T11:6:1Z</time></trkpt>
<trkpt lat="48.458076" lon="2.651701"><ele></ele><time>2023-1-21T11:6:4Z</time></trkpt>
<trkpt lat="48.458174" lon="2.651626"><ele></ele><time>2023-1-21T11:6:7Z</time></trkpt>
<trkpt lat="48.45827" lon="2.651535"><ele></ele><time>2023-1-21T11:6:10Z</time></trkpt>
<trkpt lat="48.458372" lon="2.651443"><ele></ele><time>2023-1-21T11:6:13Z</time></trkpt>
<trkpt lat="48.458465" lon="2.651367"><ele></ele><time>2023-1-21T11:6:16Z</time></trkpt>
<trkpt lat="48.458545" lon="2.651276"><ele></ele><time>2023-1-21T11:6:19Z</time></trkpt>
<trkpt lat="48.458613" lon="2.651131"><ele></ele><time>2023-1-21T11:6:22Z</time></trkpt>
<trkpt lat="48.458639" lon="2.650966"><ele></ele><time>2023-1-21T11:6:25Z</time></trkpt>
<trkpt lat="48.458649" lon="2.650795"><ele></ele><time>2023-1-21T11:6:28Z</time></trkpt>
<trkpt lat="48.458628" lon="2.65065"><ele></ele><time>2023-1-21T11:6:31Z</time></trkpt>
<trkpt lat="48.458569" lon="2.65051"><ele></ele><time>2023-1-21T11:6:34Z</time></trkpt>
<trkpt lat="48.458492" lon="2.650376"><ele></ele><time>2023-1-21T11:6:37Z</time></trkpt>
<trkpt lat="48.458432" lon="2.650253"><ele></ele><time>2023-1-21T11:6:40Z</time></trkpt>
<trkpt lat="48.458387" lon="2.650124"><ele></ele><time>2023-1-21T11:6:43Z</time></trkpt>
<trkpt lat="48.458339" lon="2.649995"><ele></ele><time>2023-1-21T11:6:46Z</time></trkpt>
<trkpt lat="48.458286" lon="2.649864"><ele></ele><time>2023-1-21T11:6:49Z</time></trkpt>
<trkpt lat="48.458232" lon="2.649749"><ele></ele><time>2023-1-21T11:6:52Z</time></trkpt>
<trkpt lat="48.45817" lon="2.649599"><ele></ele><time>2023-1-21T11:6:55Z</time></trkpt>
<trkpt lat="48.458132" lon="2.649469"><ele></ele><time>2023-1-21T11:6:58Z</time></trkpt>
<trkpt lat="48.4581" lon="2.649325"><ele></ele><time>2023-1-21T11:7:1Z</time></trkpt>
<trkpt lat="48.458088" lon="2.649168"><ele></ele><time>2023-1-21T11:7:4Z</time></trkpt>
<trkpt lat="48.458078" lon="2.648989"><ele></ele><time>2023-1-21T11:7:7Z</time></trkpt>
<trkpt lat="48.458093" lon="2.648846"><ele></ele><time>2023-1-21T11:7:10Z</time></trkpt>
<trkpt lat="48.458149" lon="2.648683"><ele></ele><time>2023-1-21T11:7:13Z</time></trkpt>
<trkpt lat="48.458246" lon="2.648549"><ele></ele><time>2023-1-21T11:7:16Z</time></trkpt>
<trkpt lat="48.458324" lon="2.648468"><ele></ele><time>2023-1-21T11:7:19Z</time></trkpt>
<trkpt lat="48.458425" lon="2.648385"><ele></ele><time>2023-1-21T11:7:22Z</time></trkpt>
<trkpt lat="48.458543" lon="2.648304"><ele></ele><time>2023-1-21T11:7:25Z</time></trkpt>
<trkpt lat="48.458653" lon="2.648231"><ele></ele><time>2023-1-21T11:7:28Z</time></trkpt>
<trkpt lat="48.458758" lon="2.648209"><ele></ele><time>2023-1-21T11:7:31Z</time></trkpt>
<trkpt lat="48.458865" lon="2.648157"><ele></ele><time>2023-1-21T11:7:34Z</time></trkpt>
<trkpt lat="48.458958" lon="2.648126"><ele></ele><time>2023-1-21T11:7:37Z</time></trkpt>
<trkpt lat="48.459085" lon="2.648096"><ele></ele><time>2023-1-21T11:7:40Z</time></trkpt>
<trkpt lat="48.459206" lon="2.648043"><ele></ele><time>2023-1-21T11:7:43Z</time></trkpt>
<trkpt lat="48.459319" lon="2.647939"><ele></ele><time>2023-1-21T11:7:46Z</time></trkpt>
<trkpt lat="48.459391" lon="2.647808"><ele></ele><time>2023-1-21T11:7:49Z</time></trkpt>
<trkpt lat="48.459434" lon="2.647662"><ele></ele><time>2023-1-21T11:7:52Z</time></trkpt>
<trkpt lat="48.459465" lon="2.647517"><ele></ele><time>2023-1-21T11:7:55Z</time></trkpt>
<trkpt lat="48.459483" lon="2.647353"><ele></ele><time>2023-1-21T11:7:58Z</time></trkpt>
<trkpt lat="48.459495" lon="2.647205"><ele></ele><time>2023-1-21T11:8:1Z</time></trkpt>
<trkpt lat="48.459505" lon="2.647043"><ele></ele><time>2023-1-21T11:8:4Z</time></trkpt>
<trkpt lat="48.459497" lon="2.646886"><ele></ele><time>2023-1-21T11:8:7Z</time></trkpt>
<trkpt lat="48.459477" lon="2.646734"><ele></ele><time>2023-1-21T11:8:10Z</time></trkpt>
<trkpt lat="48.459475" lon="2.646584"><ele></ele><time>2023-1-21T11:8:13Z</time></trkpt>
<trkpt lat="48.459474" lon="2.646432"><ele></ele><time>2023-1-21T11:8:16Z</time></trkpt>
<trkpt lat="48.459473" lon="2.64629"><ele></ele><time>2023-1-21T11:8:19Z</time></trkpt>
<trkpt lat="48.459455" lon="2.646129"><ele></ele><time>2023-1-21T11:8:22Z</time></trkpt>
<trkpt lat="48.459413" lon="2.645978"><ele></ele><time>2023-1-21T11:8:25Z</time></trkpt>
<trkpt lat="48.459361" lon="2.64586"><ele></ele><time>2023-1-21T11:8:28Z</time></trkpt>
<trkpt lat="48.459302" lon="2.645748"><ele></ele><time>2023-1-21T11:8:31Z</time></trkpt>
<trkpt lat="48.459224" lon="2.645649"><ele></ele><time>2023-1-21T11:8:34Z</time></trkpt>
<trkpt lat="48.459161" lon="2.645529"><ele></ele><time>2023-1-21T11:8:37Z</time></trkpt>
<trkpt lat="48.459121" lon="2.645387"><ele></ele><time>2023-1-21T11:8:40Z</time></trkpt>
<trkpt lat="48.459086" lon="2.645212"><ele></ele><time>2023-1-21T11:8:43Z</time></trkpt>
<trkpt lat="48.459035" lon="2.645035"><ele></ele><time>2023-1-21T11:8:46Z</time></trkpt>
<trkpt lat="48.459016" lon="2.644855"><ele></ele><time>2023-1-21T11:8:49Z</time></trkpt>
<trkpt lat="48.458998" lon="2.644715"><ele></ele><time>2023-1-21T11:8:52Z</time></trkpt>
<trkpt lat="48.458988" lon="2.644558"><ele></ele><time>2023-1-21T11:8:55Z</time></trkpt>
<trkpt lat="48.458988" lon="2.644371"><ele></ele><time>2023-1-21T11:8:58Z</time></trkpt>
<trkpt lat="48.458993" lon="2.644235"><ele></ele><time>2023-1-21T11:9:1Z</time></trkpt>
<trkpt lat="48.459006" lon="2.644058"><ele></ele><time>2023-1-21T11:9:4Z</time></trkpt>
<trkpt lat="48.459007" lon="2.643902"><ele></ele><time>2023-1-21T11:9:7Z</time></trkpt>
<trkpt lat="48.459023" lon="2.643759"><ele></ele><time>2023-1-21T11:9:10Z</time></trkpt>
<trkpt lat="48.459057" lon="2.643618"><ele></ele><time>2023-1-21T11:9:13Z</time></trkpt>
<trkpt lat="48.459123" lon="2.643487"><ele></ele><time>2023-1-21T11:9:16Z</time></trkpt>
<trkpt lat="48.459165" lon="2.643353"><ele></ele><time>2023-1-21T11:9:19Z</time></trkpt>
<trkpt lat="48.459204" lon="2.643226"><ele></ele><time>2023-1-21T11:9:22Z</time></trkpt>
<trkpt lat="48.45926" lon="2.643059"><ele></ele><time>2023-1-21T11:9:25Z</time></trkpt>
<trkpt lat="48.459294" lon="2.642882"><ele></ele><time>2023-1-21T11:9:28Z</time></trkpt>
<trkpt lat="48.459319" lon="2.642712"><ele></ele><time>2023-1-21T11:9:31Z</time></trkpt>
<trkpt lat="48.459336" lon="2.642575"><ele></ele><time>2023-1-21T11:9:34Z</time></trkpt>
<trkpt lat="48.459334" lon="2.642417"><ele></ele><time>2023-1-21T11:9:37Z</time></trkpt>
<trkpt lat="48.459346" lon="2.64224"><ele></ele><time>2023-1-21T11:9:40Z</time></trkpt>
<trkpt lat="48.45937" lon="2.642053"><ele></ele><time>2023-1-21T11:9:43Z</time></trkpt>
<trkpt lat="48.459394" lon="2.641905"><ele></ele><time>2023-1-21T11:9:46Z</time></trkpt>
<trkpt lat="48.459423" lon="2.641732"><ele></ele><time>2023-1-21T11:9:49Z</time></trkpt>
<trkpt lat="48.459434" lon="2.641573"><ele></ele><time>2023-1-21T11:9:52Z</time></trkpt>
<trkpt lat="48.459419" lon="2.641432"><ele></ele><time>2023-1-21T11:9:55Z</time></trkpt>
<trkpt lat="48.459327" lon="2.641321"><ele></ele><time>2023-1-21T11:9:58Z</time></trkpt>
<trkpt lat="48.459231" lon="2.641275"><ele></ele><time>2023-1-21T11:10:1Z</time></trkpt>
<trkpt lat="48.459145" lon="2.641228"><ele></ele><time>2023-1-21T11:10:4Z</time></trkpt>
<trkpt lat="48.459043" lon="2.641209"><ele></ele><time>2023-1-21T11:10:7Z</time></trkpt>
<trkpt lat="48.45895" lon="2.641184"><ele></ele><time>2023-1-21T11:10:10Z</time></trkpt>
<trkpt lat="48.458848" lon="2.64117"><ele></ele><time>2023-1-21T11:10:13Z</time></trkpt>
<trkpt lat="48.45874" lon="2.641152"><ele></ele><time>2023-1-21T11:10:16Z</time></trkpt>
<trkpt lat="48.458639" lon="2.641123"><ele></ele><time>2023-1-21T11:10:19Z</time></trkpt>
<trkpt lat="48.458548" lon="2.641134"><ele></ele><time>2023-1-21T11:10:22Z</time></trkpt>
<trkpt lat="48.458454" lon="2.641145"><ele></ele><time>2023-1-21T11:10:25Z</time></trkpt>
<trkpt lat="48.458347" lon="2.641167"><ele></ele><time>2023-1-21T11:10:28Z</time></trkpt>
<trkpt lat="48.458241" lon="2.641175"><ele></ele><time>2023-1-21T11:10:31Z</time></trkpt>
<trkpt lat="48.458153" lon="2.641137"><ele></ele><time>2023-1-21T11:10:34Z</time></trkpt>
<trkpt lat="48.458053" lon="2.64108"><ele></ele><time>2023-1-21T11:10:37Z</time></trkpt>
<trkpt lat="48.457968" lon="2.640987"><ele></ele><time>2023-1-21T11:10:40Z</time></trkpt>
<trkpt lat="48.457905" lon="2.640871"><ele></ele><time>2023-1-21T11:10:43Z</time></trkpt>
<trkpt lat="48.457844" lon="2.640755"><ele></ele><time>2023-1-21T11:10:46Z</time></trkpt>
<trkpt lat="48.457789" lon="2.640624"><ele></ele><time>2023-1-21T11:10:49Z</time></trkpt>
<trkpt lat="48.457741" lon="2.6405"><ele></ele><time>2023-1-21T11:10:52Z</time></trkpt>
<trkpt lat="48.457681" lon="2.640365"><ele></ele><time>2023-1-21T11:10:55Z</time></trkpt>
<trkpt lat="48.45762" lon="2.640226"><ele></ele><time>2023-1-21T11:10:58Z</time></trkpt>
<trkpt lat="48.45758" lon="2.640084"><ele></ele><time>2023-1-21T11:11:1Z</time></trkpt>
<trkpt lat="48.45756" lon="2.639922"><ele></ele><time>2023-1-21T11:11:4Z</time></trkpt>
<trkpt lat="48.457543" lon="2.639766"><ele></ele><time>2023-1-21T11:11:7Z</time></trkpt>
<trkpt lat="48.457535" lon="2.639584"><ele></ele><time>2023-1-21T11:11:10Z</time></trkpt>
<trkpt lat="48.457585" lon="2.639426"><ele></ele><time>2023-1-21T11:11:13Z</time></trkpt>
<trkpt lat="48.457578" lon="2.63929"><ele></ele><time>2023-1-21T11:11:16Z</time></trkpt>
<trkpt lat="48.457568" lon="2.639124"><ele></ele><time>2023-1-21T11:11:19Z</time></trkpt>
<trkpt lat="48.457604" lon="2.638963"><ele></ele><time>2023-1-21T11:11:22Z</time></trkpt>
<trkpt lat="48.457642" lon="2.638806"><ele></ele><time>2023-1-21T11:11:25Z</time></trkpt>
<trkpt lat="48.457645" lon="2.638634"><ele></ele><time>2023-1-21T11:11:28Z</time></trkpt>
<trkpt lat="48.457612" lon="2.638469"><ele></ele><time>2023-1-21T11:11:31Z</time></trkpt>
<trkpt lat="48.457544" lon="2.638354"><ele></ele><time>2023-1-21T11:11:34Z</time></trkpt>
<trkpt lat="48.45745" lon="2.638333"><ele></ele><time>2023-1-21T11:11:37Z</time></trkpt>
<trkpt lat="48.457349" lon="2.63844"><ele></ele><time>2023-1-21T11:11:40Z</time></trkpt>
<trkpt lat="48.457309" lon="2.63857"><ele></ele><time>2023-1-21T11:11:43Z</time></trkpt>
<trkpt lat="48.457261" lon="2.638724"><ele></ele><time>2023-1-21T11:11:46Z</time></trkpt>
<trkpt lat="48.457219" lon="2.638875"><ele></ele><time>2023-1-21T11:11:49Z</time></trkpt>
<trkpt lat="48.457157" lon="2.639021"><ele></ele><time>2023-1-21T11:11:52Z</time></trkpt>
<trkpt lat="48.457102" lon="2.639128"><ele></ele><time>2023-1-21T11:11:55Z</time></trkpt>
<trkpt lat="48.45701" lon="2.639211"><ele></ele><time>2023-1-21T11:11:58Z</time></trkpt>
<trkpt lat="48.456887" lon="2.639246"><ele></ele><time>2023-1-21T11:12:1Z</time></trkpt>
<trkpt lat="48.456778" lon="2.639281"><ele></ele><time>2023-1-21T11:12:4Z</time></trkpt>
<trkpt lat="48.456667" lon="2.63932"><ele></ele><time>2023-1-21T11:12:7Z</time></trkpt>
<trkpt lat="48.456561" lon="2.639324"><ele></ele><time>2023-1-21T11:12:10Z</time></trkpt>
<trkpt lat="48.456451" lon="2.639309"><ele></ele><time>2023-1-21T11:12:13Z</time></trkpt>
<trkpt lat="48.456347" lon="2.639228"><ele></ele><time>2023-1-21T11:12:16Z</time></trkpt>
<trkpt lat="48.456282" lon="2.639104"><ele></ele><time>2023-1-21T11:12:19Z</time></trkpt>
<trkpt lat="48.456229" lon="2.63897"><ele></ele><time>2023-1-21T11:12:22Z</time></trkpt>
<trkpt lat="48.456172" lon="2.638811"><ele></ele><time>2023-1-21T11:12:25Z</time></trkpt>
<trkpt lat="48.456095" lon="2.638733"><ele></ele><time>2023-1-21T11:12:28Z</time></trkpt>
<trkpt lat="48.456006" lon="2.638692"><ele></ele><time>2023-1-21T11:12:31Z</time></trkpt>
<trkpt lat="48.455913" lon="2.638729"><ele></ele><time>2023-1-21T11:12:34Z</time></trkpt>
<trkpt lat="48.45582" lon="2.63878"><ele></ele><time>2023-1-21T11:12:37Z</time></trkpt>
<trkpt lat="48.455709" lon="2.638804"><ele></ele><time>2023-1-21T11:12:40Z</time></trkpt>
<trkpt lat="48.455612" lon="2.638761"><ele></ele><time>2023-1-21T11:12:43Z</time></trkpt>
<trkpt lat="48.455542" lon="2.638669"><ele></ele><time>2023-1-21T11:12:46Z</time></trkpt>
<trkpt lat="48.455464" lon="2.638591"><ele></ele><time>2023-1-21T11:12:49Z</time></trkpt>
<trkpt lat="48.455372" lon="2.638543"><ele></ele><time>2023-1-21T11:12:52Z</time></trkpt>
<trkpt lat="48.455272" lon="2.638525"><ele></ele><time>2023-1-21T11:12:55Z</time></trkpt>
<trkpt lat="48.455158" lon="2.63852"><ele></ele><time>2023-1-21T11:12:58Z</time></trkpt>
<trkpt lat="48.455065" lon="2.63853"><ele></ele><time>2023-1-21T11:13:1Z</time></trkpt>
<trkpt lat="48.454973" lon="2.638519"><ele></ele><time>2023-1-21T11:13:4Z</time></trkpt>
<trkpt lat="48.45487" lon="2.638461"><ele></ele><time>2023-1-21T11:13:7Z</time></trkpt>
<trkpt lat="48.454805" lon="2.638361"><ele></ele><time>2023-1-21T11:13:10Z</time></trkpt>
<trkpt lat="48.454764" lon="2.63824"><ele></ele><time>2023-1-21T11:13:13Z</time></trkpt>
<trkpt lat="48.454693" lon="2.638144"><ele></ele><time>2023-1-21T11:13:16Z</time></trkpt>
<trkpt lat="48.454616" lon="2.638039"><ele></ele><time>2023-1-21T11:13:19Z</time></trkpt>
<trkpt lat="48.454545" lon="2.637937"><ele></ele><time>2023-1-21T11:13:22Z</time></trkpt>
<trkpt lat="48.454479" lon="2.637843"><ele></ele><time>2023-1-21T11:13:25Z</time></trkpt>
<trkpt lat="48.454427" lon="2.637717"><ele></ele><time>2023-1-21T11:13:28Z</time></trkpt>
<trkpt lat="48.454385" lon="2.637579"><ele></ele><time>2023-1-21T11:13:31Z</time></trkpt>
<trkpt lat="48.454359" lon="2.637423"><ele></ele><time>2023-1-21T11:13:34Z</time></trkpt>
<trkpt lat="48.454338" lon="2.637264"><ele></ele><time>2023-1-21T11:13:37Z</time></trkpt>
<trkpt lat="48.454309" lon="2.637091"><ele></ele><time>2023-1-21T11:13:40Z</time></trkpt>
<trkpt lat="48.454284" lon="2.636944"><ele></ele><time>2023-1-21T11:13:43Z</time></trkpt>
<trkpt lat="48.454236" lon="2.636783"><ele></ele><time>2023-1-21T11:13:46Z</time></trkpt>
<trkpt lat="48.454167" lon="2.636639"><ele></ele><time>2023-1-21T11:13:49Z</time></trkpt>
<trkpt lat="48.454098" lon="2.636544"><ele></ele><time>2023-1-21T11:13:52Z</time></trkpt>
<trkpt lat="48.454027" lon="2.636459"><ele></ele><time>2023-1-21T11:13:55Z</time></trkpt>
<trkpt lat="48.453947" lon="2.636378"><ele></ele><time>2023-1-21T11:13:58Z</time></trkpt>
<trkpt lat="48.453857" lon="2.636329"><ele></ele><time>2023-1-21T11:14:1Z</time></trkpt>
<trkpt lat="48.453761" lon="2.636331"><ele></ele><time>2023-1-21T11:14:4Z</time></trkpt>
<trkpt lat="48.453667" lon="2.636367"><ele></ele><time>2023-1-21T11:14:7Z</time></trkpt>
<trkpt lat="48.453552" lon="2.636427"><ele></ele><time>2023-1-21T11:14:10Z</time></trkpt>
<trkpt lat="48.453459" lon="2.636495"><ele></ele><time>2023-1-21T11:14:13Z</time></trkpt>
<trkpt lat="48.453344" lon="2.636543"><ele></ele><time>2023-1-21T11:14:16Z</time></trkpt>
<trkpt lat="48.453259" lon="2.636609"><ele></ele><time>2023-1-21T11:14:19Z</time></trkpt>
<trkpt lat="48.453166" lon="2.636661"><ele></ele><time>2023-1-21T11:14:22Z</time></trkpt>
<trkpt lat="48.453078" lon="2.636619"><ele></ele><time>2023-1-21T11:14:25Z</time></trkpt>
<trkpt lat="48.452983" lon="2.636599"><ele></ele><time>2023-1-21T11:14:28Z</time></trkpt>
<trkpt lat="48.452893" lon="2.6365"><ele></ele><time>2023-1-21T11:14:31Z</time></trkpt>
<trkpt lat="48.452814" lon="2.63639"><ele></ele><time>2023-1-21T11:14:34Z</time></trkpt>
<trkpt lat="48.452756" lon="2.636266"><ele></ele><time>2023-1-21T11:14:37Z</time></trkpt>
<trkpt lat="48.452684" lon="2.636139"><ele></ele><time>2023-1-21T11:14:40Z</time></trkpt>
<trkpt lat="48.452612" lon="2.636046"><ele></ele><time>2023-1-21T11:14:43Z</time></trkpt>
<trkpt lat="48.452514" lon="2.63603"><ele></ele><time>2023-1-21T11:14:46Z</time></trkpt>
<trkpt lat="48.452411" lon="2.636053"><ele></ele><time>2023-1-21T11:14:49Z</time></trkpt>
<trkpt lat="48.452298" lon="2.636089"><ele></ele><time>2023-1-21T11:14:52Z</time></trkpt>
<trkpt lat="48.452176" lon="2.636086"><ele></ele><time>2023-1-21T11:14:55Z</time></trkpt>
<trkpt lat="48.452088" lon="2.636017"><ele></ele><time>2023-1-21T11:14:58Z</time></trkpt>
<trkpt lat="48.452023" lon="2.635896"><ele></ele><time>2023-1-21T11:15:1Z</time></trkpt>
<trkpt lat="48.45198" lon="2.635766"><ele></ele><time>2023-1-21T11:15:4Z</time></trkpt>
<trkpt lat="48.451958" lon="2.635589"><ele></ele><time>2023-1-21T11:15:7Z</time></trkpt>
<trkpt lat="48.451957" lon="2.635415"><ele></ele><time>2023-1-21T11:15:10Z</time></trkpt>
<trkpt lat="48.451953" lon="2.635237"><ele></ele><time>2023-1-21T11:15:13Z</time></trkpt>
<trkpt lat="48.451958" lon="2.635081"><ele></ele><time>2023-1-21T11:15:16Z</time></trkpt>
<trkpt lat="48.451962" lon="2.6349"><ele></ele><time>2023-1-21T11:15:19Z</time></trkpt>
<trkpt lat="48.451991" lon="2.634722"><ele></ele><time>2023-1-21T11:15:22Z</time></trkpt>
<trkpt lat="48.451997" lon="2.634584"><ele></ele><time>2023-1-21T11:15:25Z</time></trkpt>
<trkpt lat="48.452008" lon="2.634435"><ele></ele><time>2023-1-21T11:15:28Z</time></trkpt>
<trkpt lat="48.451994" lon="2.634262"><ele></ele><time>2023-1-21T11:15:31Z</time></trkpt>
<trkpt lat="48.451997" lon="2.634112"><ele></ele><time>2023-1-21T11:15:34Z</time></trkpt>
<trkpt lat="48.451997" lon="2.633972"><ele></ele><time>2023-1-21T11:15:37Z</time></trkpt>
<trkpt lat="48.452023" lon="2.633817"><ele></ele><time>2023-1-21T11:15:40Z</time></trkpt>
<trkpt lat="48.45207" lon="2.633691"><ele></ele><time>2023-1-21T11:15:43Z</time></trkpt>
<trkpt lat="48.452117" lon="2.633616"><ele></ele><time>2023-1-21T11:15:46Z</time></trkpt>
<trkpt lat="48.452119" lon="2.633614"><ele></ele><time>2023-1-21T11:15:49Z</time></trkpt>
<trkpt lat="48.45212" lon="2.633632"><ele></ele><time>2023-1-21T11:15:52Z</time></trkpt>
<trkpt lat="48.452121" lon="2.633634"><ele></ele><time>2023-1-21T11:15:55Z</time></trkpt>
<trkpt lat="48.452064" lon="2.633771"><ele></ele><time>2023-1-21T11:15:58Z</time></trkpt>
<trkpt lat="48.452032" lon="2.63391"><ele></ele><time>2023-1-21T11:16:1Z</time></trkpt>
<trkpt lat="48.452008" lon="2.634061"><ele></ele><time>2023-1-21T11:16:4Z</time></trkpt>
<trkpt lat="48.452003" lon="2.634228"><ele></ele><time>2023-1-21T11:16:7Z</time></trkpt>
<trkpt lat="48.452013" lon="2.634401"><ele></ele><time>2023-1-21T11:16:10Z</time></trkpt>
<trkpt lat="48.451993" lon="2.634569"><ele></ele><time>2023-1-21T11:16:13Z</time></trkpt>
<trkpt lat="48.45198" lon="2.634745"><ele></ele><time>2023-1-21T11:16:16Z</time></trkpt>
<trkpt lat="48.451976" lon="2.634897"><ele></ele><time>2023-1-21T11:16:19Z</time></trkpt>
<trkpt lat="48.451968" lon="2.635048"><ele></ele><time>2023-1-21T11:16:22Z</time></trkpt>
<trkpt lat="48.451935" lon="2.635192"><ele></ele><time>2023-1-21T11:16:25Z</time></trkpt>
<trkpt lat="48.451866" lon="2.635317"><ele></ele><time>2023-1-21T11:16:28Z</time></trkpt>
<trkpt lat="48.451801" lon="2.635429"><ele></ele><time>2023-1-21T11:16:31Z</time></trkpt>
<trkpt lat="48.451739" lon="2.635575"><ele></ele><time>2023-1-21T11:16:34Z</time></trkpt>
<trkpt lat="48.451738" lon="2.635729"><ele></ele><time>2023-1-21T11:16:37Z</time></trkpt>
<trkpt lat="48.451754" lon="2.635895"><ele></ele><time>2023-1-21T11:16:40Z</time></trkpt>
<trkpt lat="48.451788" lon="2.63604"><ele></ele><time>2023-1-21T11:16:43Z</time></trkpt>
<trkpt lat="48.451747" lon="2.636204"><ele></ele><time>2023-1-21T11:16:46Z</time></trkpt>
<trkpt lat="48.451664" lon="2.636276"><ele></ele><time>2023-1-21T11:16:49Z</time></trkpt>
<trkpt lat="48.451574" lon="2.636374"><ele></ele><time>2023-1-21T11:16:52Z</time></trkpt>
<trkpt lat="48.451478" lon="2.636476"><ele></ele><time>2023-1-21T11:16:55Z</time></trkpt>
<trkpt lat="48.451408" lon="2.636589"><ele></ele><time>2023-1-21T11:16:58Z</time></trkpt>
<trkpt lat="48.451342" lon="2.636709"><ele></ele><time>2023-1-21T11:17:1Z</time></trkpt>
<trkpt lat="48.451278" lon="2.636853"><ele></ele><time>2023-1-21T11:17:4Z</time></trkpt>
<trkpt lat="48.451221" lon="2.63696"><ele></ele><time>2023-1-21T11:17:7Z</time></trkpt>
<trkpt lat="48.451142" lon="2.637088"><ele></ele><time>2023-1-21T11:17:10Z</time></trkpt>
<trkpt lat="48.451054" lon="2.63721"><ele></ele><time>2023-1-21T11:17:13Z</time></trkpt>
<trkpt lat="48.451007" lon="2.637356"><ele></ele><time>2023-1-21T11:17:16Z</time></trkpt>
<trkpt lat="48.450972" lon="2.637525"><ele></ele><time>2023-1-21T11:17:19Z</time></trkpt>
<trkpt lat="48.450914" lon="2.63768"><ele></ele><time>2023-1-21T11:17:22Z</time></trkpt>
<trkpt lat="48.450875" lon="2.637813"><ele></ele><time>2023-1-21T11:17:25Z</time></trkpt>
<trkpt lat="48.450878" lon="2.63796"><ele></ele><time>2023-1-21T11:17:28Z</time></trkpt>
<trkpt lat="48.450878" lon="2.638141"><ele></ele><time>2023-1-21T11:17:31Z</time></trkpt>
<trkpt lat="48.45087" lon="2.638297"><ele></ele><time>2023-1-21T11:17:34Z</time></trkpt>
<trkpt lat="48.450868" lon="2.638446"><ele></ele><time>2023-1-21T11:17:37Z</time></trkpt>
<trkpt lat="48.450875" lon="2.638598"><ele></ele><time>2023-1-21T11:17:40Z</time></trkpt>
<trkpt lat="48.450873" lon="2.638758"><ele></ele><time>2023-1-21T11:17:43Z</time></trkpt>
<trkpt lat="48.450882" lon="2.63892"><ele></ele><time>2023-1-21T11:17:46Z</time></trkpt>
<trkpt lat="48.450892" lon="2.639079"><ele></ele><time>2023-1-21T11:17:49Z</time></trkpt>
<trkpt lat="48.450913" lon="2.639241"><ele></ele><time>2023-1-21T11:17:52Z</time></trkpt>
<trkpt lat="48.450923" lon="2.63938"><ele></ele><time>2023-1-21T11:17:55Z</time></trkpt>
<trkpt lat="48.450942" lon="2.63955"><ele></ele><time>2023-1-21T11:17:58Z</time></trkpt>
<trkpt lat="48.451007" lon="2.639689"><ele></ele><time>2023-1-21T11:18:1Z</time></trkpt>
<trkpt lat="48.451046" lon="2.639822"><ele></ele><time>2023-1-21T11:18:4Z</time></trkpt>
<trkpt lat="48.451087" lon="2.639957"><ele></ele><time>2023-1-21T11:18:7Z</time></trkpt>
<trkpt lat="48.451084" lon="2.640108"><ele></ele><time>2023-1-21T11:18:10Z</time></trkpt>
<trkpt lat="48.451029" lon="2.640273"><ele></ele><time>2023-1-21T11:18:13Z</time></trkpt>
<trkpt lat="48.450964" lon="2.640452"><ele></ele><time>2023-1-21T11:18:16Z</time></trkpt>
<trkpt lat="48.450921" lon="2.640601"><ele></ele><time>2023-1-21T11:18:19Z</time></trkpt>
<trkpt lat="48.450888" lon="2.640751"><ele></ele><time>2023-1-21T11:18:22Z</time></trkpt>
<trkpt lat="48.450844" lon="2.640894"><ele></ele><time>2023-1-21T11:18:25Z</time></trkpt>
<trkpt lat="48.450779" lon="2.64101"><ele></ele><time>2023-1-21T11:18:28Z</time></trkpt>
<trkpt lat="48.45071" lon="2.641108"><ele></ele><time>2023-1-21T11:18:31Z</time></trkpt>
<trkpt lat="48.450628" lon="2.64124"><ele></ele><time>2023-1-21T11:18:34Z</time></trkpt>
<trkpt lat="48.450504" lon="2.64135"><ele></ele><time>2023-1-21T11:18:37Z</time></trkpt>
<trkpt lat="48.450424" lon="2.641444"><ele></ele><time>2023-1-21T11:18:40Z</time></trkpt>
<trkpt lat="48.450351" lon="2.641536"><ele></ele><time>2023-1-21T11:18:43Z</time></trkpt>
<trkpt lat="48.450297" lon="2.64167"><ele></ele><time>2023-1-21T11:18:46Z</time></trkpt>
<trkpt lat="48.450231" lon="2.641786"><ele></ele><time>2023-1-21T11:18:49Z</time></trkpt>
<trkpt lat="48.450158" lon="2.641903"><ele></ele><time>2023-1-21T11:18:52Z</time></trkpt>
<trkpt lat="48.450082" lon="2.641983"><ele></ele><time>2023-1-21T11:18:55Z</time></trkpt>
<trkpt lat="48.449982" lon="2.64207"><ele></ele><time>2023-1-21T11:18:58Z</time></trkpt>
<trkpt lat="48.44991" lon="2.642173"><ele></ele><time>2023-1-21T11:19:1Z</time></trkpt>
<trkpt lat="48.449845" lon="2.642273"><ele></ele><time>2023-1-21T11:19:4Z</time></trkpt>
<trkpt lat="48.449771" lon="2.642411"><ele></ele><time>2023-1-21T11:19:7Z</time></trkpt>
<trkpt lat="48.449694" lon="2.642542"><ele></ele><time>2023-1-21T11:19:10Z</time></trkpt>
<trkpt lat="48.449622" lon="2.642669"><ele></ele><time>2023-1-21T11:19:13Z</time></trkpt>
<trkpt lat="48.449553" lon="2.642771"><ele></ele><time>2023-1-21T11:19:16Z</time></trkpt>
<trkpt lat="48.449474" lon="2.642849"><ele></ele><time>2023-1-21T11:19:19Z</time></trkpt>
<trkpt lat="48.4494" lon="2.642983"><ele></ele><time>2023-1-21T11:19:22Z</time></trkpt>
<trkpt lat="48.449348" lon="2.643149"><ele></ele><time>2023-1-21T11:19:25Z</time></trkpt>
<trkpt lat="48.449351" lon="2.643325"><ele></ele><time>2023-1-21T11:19:28Z</time></trkpt>
<trkpt lat="48.44935" lon="2.643463"><ele></ele><time>2023-1-21T11:19:31Z</time></trkpt>
<trkpt lat="48.449379" lon="2.64361"><ele></ele><time>2023-1-21T11:19:34Z</time></trkpt>
<trkpt lat="48.449446" lon="2.643726"><ele></ele><time>2023-1-21T11:19:37Z</time></trkpt>
<trkpt lat="48.449514" lon="2.643827"><ele></ele><time>2023-1-21T11:19:40Z</time></trkpt>
<trkpt lat="48.449572" lon="2.643937"><ele></ele><time>2023-1-21T11:19:43Z</time></trkpt>
<trkpt lat="48.449611" lon="2.644086"><ele></ele><time>2023-1-21T11:19:46Z</time></trkpt>
<trkpt lat="48.449604" lon="2.644224"><ele></ele><time>2023-1-21T11:19:49Z</time></trkpt>
<trkpt lat="48.449583" lon="2.644365"><ele></ele><time>2023-1-21T11:19:52Z</time></trkpt>
<trkpt lat="48.449564" lon="2.644513"><ele></ele><time>2023-1-21T11:19:55Z</time></trkpt>
<trkpt lat="48.449555" lon="2.644674"><ele></ele><time>2023-1-21T11:19:58Z</time></trkpt>
<trkpt lat="48.449571" lon="2.644839"><ele></ele><time>2023-1-21T11:20:1Z</time></trkpt>
<trkpt lat="48.449591" lon="2.644972"><ele></ele><time>2023-1-21T11:20:4Z</time></trkpt>
<trkpt lat="48.449613" lon="2.645129"><ele></ele><time>2023-1-21T11:20:7Z</time></trkpt>
<trkpt lat="48.449613" lon="2.64528"><ele></ele><time>2023-1-21T11:20:10Z</time></trkpt>
<trkpt lat="48.449624" lon="2.64546"><ele></ele><time>2023-1-21T11:20:13Z</time></trkpt>
<trkpt lat="48.449623" lon="2.645628"><ele></ele><time>2023-1-21T11:20:16Z</time></trkpt>
<trkpt lat="48.449629" lon="2.64578"><ele></ele><time>2023-1-21T11:20:19Z</time></trkpt>
<trkpt lat="48.449593" lon="2.645964"><ele></ele><time>2023-1-21T11:20:22Z</time></trkpt>
<trkpt lat="48.449586" lon="2.646128"><ele></ele><time>2023-1-21T11:20:25Z</time></trkpt>
<trkpt lat="48.449591" lon="2.646277"><ele></ele><time>2023-1-21T11:20:28Z</time></trkpt>
<trkpt lat="48.449581" lon="2.646451"><ele></ele><time>2023-1-21T11:20:31Z</time></trkpt>
<trkpt lat="48.449582" lon="2.646625"><ele></ele><time>2023-1-21T11:20:34Z</time></trkpt>
<trkpt lat="48.449598" lon="2.64676"><ele></ele><time>2023-1-21T11:20:37Z</time></trkpt>
<trkpt lat="48.449608" lon="2.646931"><ele></ele><time>2023-1-21T11:20:40Z</time></trkpt>
<trkpt lat="48.449538" lon="2.64705"><ele></ele><time>2023-1-21T11:20:43Z</time></trkpt>
<trkpt lat="48.449438" lon="2.647093"><ele></ele><time>2023-1-21T11:20:46Z</time></trkpt>
<trkpt lat="48.449333" lon="2.647101"><ele></ele><time>2023-1-21T11:20:49Z</time></trkpt>
<trkpt lat="48.449218" lon="2.647139"><ele></ele><time>2023-1-21T11:20:52Z</time></trkpt>
<trkpt lat="48.44913" lon="2.647248"><ele></ele><time>2023-1-21T11:20:55Z</time></trkpt>
<trkpt lat="48.449055" lon="2.647368"><ele></ele><time>2023-1-21T11:20:58Z</time></trkpt>
<trkpt lat="48.449005" lon="2.647501"><ele></ele><time>2023-1-21T11:21:1Z</time></trkpt>
<trkpt lat="48.448962" lon="2.647652"><ele></ele><time>2023-1-21T11:21:4Z</time></trkpt>
<trkpt lat="48.448926" lon="2.647798"><ele></ele><time>2023-1-21T11:21:7Z</time></trkpt>
<trkpt lat="48.448853" lon="2.647942"><ele></ele><time>2023-1-21T11:21:10Z</time></trkpt>
<trkpt lat="48.448796" lon="2.648095"><ele></ele><time>2023-1-21T11:21:13Z</time></trkpt>
<trkpt lat="48.448721" lon="2.648223"><ele></ele><time>2023-1-21T11:21:16Z</time></trkpt>
<trkpt lat="48.448667" lon="2.648347"><ele></ele><time>2023-1-21T11:21:19Z</time></trkpt>
<trkpt lat="48.448618" lon="2.648489"><ele></ele><time>2023-1-21T11:21:22Z</time></trkpt>
<trkpt lat="48.448553" lon="2.648622"><ele></ele><time>2023-1-21T11:21:25Z</time></trkpt>
<trkpt lat="48.44851" lon="2.648762"><ele></ele><time>2023-1-21T11:21:28Z</time></trkpt>
<trkpt lat="48.448455" lon="2.648887"><ele></ele><time>2023-1-21T11:21:31Z</time></trkpt>
<trkpt lat="48.448419" lon="2.649031"><ele></ele><time>2023-1-21T11:21:34Z</time></trkpt>
<trkpt lat="48.448368" lon="2.649173"><ele></ele><time>2023-1-21T11:21:37Z</time></trkpt>
<trkpt lat="48.448329" lon="2.649308"><ele></ele><time>2023-1-21T11:21:40Z</time></trkpt>
<trkpt lat="48.448294" lon="2.649434"><ele></ele><time>2023-1-21T11:21:43Z</time></trkpt>
<trkpt lat="48.448251" lon="2.649589"><ele></ele><time>2023-1-21T11:21:46Z</time></trkpt>
<trkpt lat="48.448194" lon="2.649733"><ele></ele><time>2023-1-21T11:21:49Z</time></trkpt>
<trkpt lat="48.448145" lon="2.649869"><ele></ele><time>2023-1-21T11:21:52Z</time></trkpt>
<trkpt lat="48.448106" lon="2.650034"><ele></ele><time>2023-1-21T11:21:55Z</time></trkpt>
<trkpt lat="48.448046" lon="2.65019"><ele></ele><time>2023-1-21T11:21:58Z</time></trkpt>
<trkpt lat="48.447996" lon="2.650342"><ele></ele><time>2023-1-21T11:22:1Z</time></trkpt>
<trkpt lat="48.44794" lon="2.650455"><ele></ele><time>2023-1-21T11:22:4Z</time></trkpt>
<trkpt lat="48.447904" lon="2.650605"><ele></ele><time>2023-1-21T11:22:7Z</time></trkpt>
<trkpt lat="48.44785" lon="2.650742"><ele></ele><time>2023-1-21T11:22:10Z</time></trkpt>
<trkpt lat="48.447827" lon="2.650901"><ele></ele><time>2023-1-21T11:22:13Z</time></trkpt>
<trkpt lat="48.44786" lon="2.651058"><ele></ele><time>2023-1-21T11:22:16Z</time></trkpt>
<trkpt lat="48.447899" lon="2.651198"><ele></ele><time>2023-1-21T11:22:19Z</time></trkpt>
<trkpt lat="48.44795" lon="2.651336"><ele></ele><time>2023-1-21T11:22:22Z</time></trkpt>
<trkpt lat="48.448007" lon="2.651466"><ele></ele><time>2023-1-21T11:22:25Z</time></trkpt>
<trkpt lat="48.448052" lon="2.651593"><ele></ele><time>2023-1-21T11:22:28Z</time></trkpt>
<trkpt lat="48.448095" lon="2.651771"><ele></ele><time>2023-1-21T11:22:31Z</time></trkpt>
<trkpt lat="48.448135" lon="2.651935"><ele></ele><time>2023-1-21T11:22:34Z</time></trkpt>
<trkpt lat="48.448188" lon="2.652104"><ele></ele><time>2023-1-21T11:22:37Z</time></trkpt>
<trkpt lat="48.448235" lon="2.652249"><ele></ele><time>2023-1-21T11:22:40Z</time></trkpt>
<trkpt lat="48.448291" lon="2.652402"><ele></ele><time>2023-1-21T11:22:43Z</time></trkpt>
<trkpt lat="48.448347" lon="2.652531"><ele></ele><time>2023-1-21T11:22:46Z</time></trkpt>
<trkpt lat="48.448405" lon="2.652671"><ele></ele><time>2023-1-21T11:22:49Z</time></trkpt>
<trkpt lat="48.448482" lon="2.652785"><ele></ele><time>2023-1-21T11:22:52Z</time></trkpt>
<trkpt lat="48.448558" lon="2.652882"><ele></ele><time>2023-1-21T11:22:55Z</time></trkpt>
<trkpt lat="48.448628" lon="2.653"><ele></ele><time>2023-1-21T11:22:58Z</time></trkpt>
<trkpt lat="48.448709" lon="2.653122"><ele></ele><time>2023-1-21T11:23:1Z</time></trkpt>
<trkpt lat="48.448791" lon="2.653215"><ele></ele><time>2023-1-21T11:23:4Z</time></trkpt>
<trkpt lat="48.448867" lon="2.653317"><ele></ele><time>2023-1-21T11:23:7Z</time></trkpt>
<trkpt lat="48.448931" lon="2.65344"><ele></ele><time>2023-1-21T11:23:10Z</time></trkpt>
<trkpt lat="48.448989" lon="2.653608"><ele></ele><time>2023-1-21T11:23:13Z</time></trkpt>
<trkpt lat="48.449031" lon="2.653764"><ele></ele><time>2023-1-21T11:23:16Z</time></trkpt>
<trkpt lat="48.449053" lon="2.653916"><ele></ele><time>2023-1-21T11:23:19Z</time></trkpt>
<trkpt lat="48.449064" lon="2.654087"><ele></ele><time>2023-1-21T11:23:22Z</time></trkpt>
<trkpt lat="48.449036" lon="2.654256"><ele></ele><time>2023-1-21T11:23:25Z</time></trkpt>
<trkpt lat="48.449005" lon="2.654417"><ele></ele><time>2023-1-21T11:23:28Z</time></trkpt>
<trkpt lat="48.448975" lon="2.654558"><ele></ele><time>2023-1-21T11:23:31Z</time></trkpt>
<trkpt lat="48.448927" lon="2.654701"><ele></ele><time>2023-1-21T11:23:34Z</time></trkpt>
<trkpt lat="48.448887" lon="2.654861"><ele></ele><time>2023-1-21T11:23:37Z</time></trkpt>
<trkpt lat="48.448838" lon="2.654974"><ele></ele><time>2023-1-21T11:23:40Z</time></trkpt>
<trkpt lat="48.448794" lon="2.655139"><ele></ele><time>2023-1-21T11:23:43Z</time></trkpt>
<trkpt lat="48.448752" lon="2.655307"><ele></ele><time>2023-1-21T11:23:46Z</time></trkpt>
<trkpt lat="48.448727" lon="2.655455"><ele></ele><time>2023-1-21T11:23:49Z</time></trkpt>
<trkpt lat="48.4487" lon="2.655608"><ele></ele><time>2023-1-21T11:23:52Z</time></trkpt>
<trkpt lat="48.448647" lon="2.655821"><ele></ele><time>2023-1-21T11:23:55Z</time></trkpt>
<trkpt lat="48.448598" lon="2.655953"><ele></ele><time>2023-1-21T11:23:58Z</time></trkpt>
<trkpt lat="48.448538" lon="2.65612"><ele></ele><time>2023-1-21T11:24:1Z</time></trkpt>
<trkpt lat="48.448489" lon="2.65628"><ele></ele><time>2023-1-21T11:24:4Z</time></trkpt>
<trkpt lat="48.448431" lon="2.656404"><ele></ele><time>2023-1-21T11:24:7Z</time></trkpt>
<trkpt lat="48.448401" lon="2.656539"><ele></ele><time>2023-1-21T11:24:10Z</time></trkpt>
<trkpt lat="48.448355" lon="2.656695"><ele></ele><time>2023-1-21T11:24:13Z</time></trkpt>
<trkpt lat="48.448321" lon="2.656822"><ele></ele><time>2023-1-21T11:24:16Z</time></trkpt>
<trkpt lat="48.448281" lon="2.656983"><ele></ele><time>2023-1-21T11:24:19Z</time></trkpt>
<trkpt lat="48.448234" lon="2.657125"><ele></ele><time>2023-1-21T11:24:22Z</time></trkpt>
<trkpt lat="48.448201" lon="2.657283"><ele></ele><time>2023-1-21T11:24:25Z</time></trkpt>
<trkpt lat="48.448153" lon="2.657461"><ele></ele><time>2023-1-21T11:24:28Z</time></trkpt>
<trkpt lat="48.448118" lon="2.657616"><ele></ele><time>2023-1-21T11:24:31Z</time></trkpt>
<trkpt lat="48.448103" lon="2.657783"><ele></ele><time>2023-1-21T11:24:34Z</time></trkpt>
<trkpt lat="48.448052" lon="2.657926"><ele></ele><time>2023-1-21T11:24:37Z</time></trkpt>
<trkpt lat="48.447998" lon="2.658091"><ele></ele><time>2023-1-21T11:24:40Z</time></trkpt>
<trkpt lat="48.447955" lon="2.65824"><ele></ele><time>2023-1-21T11:24:43Z</time></trkpt>
<trkpt lat="48.447915" lon="2.658394"><ele></ele><time>2023-1-21T11:24:46Z</time></trkpt>
<trkpt lat="48.447876" lon="2.658535"><ele></ele><time>2023-1-21T11:24:49Z</time></trkpt>
<trkpt lat="48.447823" lon="2.65868"><ele></ele><time>2023-1-21T11:24:52Z</time></trkpt>
<trkpt lat="48.447768" lon="2.658833"><ele></ele><time>2023-1-21T11:24:55Z</time></trkpt>
<trkpt lat="48.447708" lon="2.659011"><ele></ele><time>2023-1-21T11:24:58Z</time></trkpt>
<trkpt lat="48.447663" lon="2.659175"><ele></ele><time>2023-1-21T11:25:1Z</time></trkpt>
<trkpt lat="48.447619" lon="2.659338"><ele></ele><time>2023-1-21T11:25:4Z</time></trkpt>
<trkpt lat="48.447577" lon="2.659499"><ele></ele><time>2023-1-21T11:25:7Z</time></trkpt>
<trkpt lat="48.447535" lon="2.659648"><ele></ele><time>2023-1-21T11:25:10Z</time></trkpt>
<trkpt lat="48.447512" lon="2.659787"><ele></ele><time>2023-1-21T11:25:13Z</time></trkpt>
<trkpt lat="48.447483" lon="2.659918"><ele></ele><time>2023-1-21T11:25:16Z</time></trkpt>
<trkpt lat="48.447424" lon="2.660029"><ele></ele><time>2023-1-21T11:25:19Z</time></trkpt>
<trkpt lat="48.447378" lon="2.660156"><ele></ele><time>2023-1-21T11:25:22Z</time></trkpt>
<trkpt lat="48.447319" lon="2.660287"><ele></ele><time>2023-1-21T11:25:25Z</time></trkpt>
<trkpt lat="48.44727" lon="2.660406"><ele></ele><time>2023-1-21T11:25:28Z</time></trkpt>
<trkpt lat="48.447194" lon="2.660484"><ele></ele><time>2023-1-21T11:25:31Z</time></trkpt>
<trkpt lat="48.447096" lon="2.660574"><ele></ele><time>2023-1-21T11:25:34Z</time></trkpt>
<trkpt lat="48.446981" lon="2.660637"><ele></ele><time>2023-1-21T11:25:37Z</time></trkpt>
<trkpt lat="48.446869" lon="2.660715"><ele></ele><time>2023-1-21T11:25:40Z</time></trkpt>
<trkpt lat="48.446765" lon="2.660786"><ele></ele><time>2023-1-21T11:25:43Z</time></trkpt>
<trkpt lat="48.446668" lon="2.660848"><ele></ele><time>2023-1-21T11:25:46Z</time></trkpt>
<trkpt lat="48.446557" lon="2.660921"><ele></ele><time>2023-1-21T11:25:49Z</time></trkpt>
<trkpt lat="48.446452" lon="2.660967"><ele></ele><time>2023-1-21T11:25:52Z</time></trkpt>
<trkpt lat="48.446364" lon="2.661002"><ele></ele><time>2023-1-21T11:25:55Z</time></trkpt>
<trkpt lat="48.446267" lon="2.661055"><ele></ele><time>2023-1-21T11:25:58Z</time></trkpt>
<trkpt lat="48.446169" lon="2.661129"><ele></ele><time>2023-1-21T11:26:1Z</time></trkpt>
<trkpt lat="48.446048" lon="2.661204"><ele></ele><time>2023-1-21T11:26:4Z</time></trkpt>
<trkpt lat="48.44594" lon="2.661286"><ele></ele><time>2023-1-21T11:26:7Z</time></trkpt>
<trkpt lat="48.445848" lon="2.66135"><ele></ele><time>2023-1-21T11:26:10Z</time></trkpt>
<trkpt lat="48.445752" lon="2.661407"><ele></ele><time>2023-1-21T11:26:13Z</time></trkpt>
<trkpt lat="48.445672" lon="2.661471"><ele></ele><time>2023-1-21T11:26:16Z</time></trkpt>
<trkpt lat="48.445585" lon="2.66152"><ele></ele><time>2023-1-21T11:26:19Z</time></trkpt>
<trkpt lat="48.44548" lon="2.661576"><ele></ele><time>2023-1-21T11:26:22Z</time></trkpt>
<trkpt lat="48.445399" lon="2.661638"><ele></ele><time>2023-1-21T11:26:25Z</time></trkpt>
<trkpt lat="48.445321" lon="2.661706"><ele></ele><time>2023-1-21T11:26:28Z</time></trkpt>
<trkpt lat="48.445223" lon="2.661753"><ele></ele><time>2023-1-21T11:26:31Z</time></trkpt>
<trkpt lat="48.44511" lon="2.661785"><ele></ele><time>2023-1-21T11:26:34Z</time></trkpt>
<trkpt lat="48.444998" lon="2.661832"><ele></ele><time>2023-1-21T11:26:37Z</time></trkpt>
<trkpt lat="48.444883" lon="2.661891"><ele></ele><time>2023-1-21T11:26:40Z</time></trkpt>
<trkpt lat="48.444783" lon="2.661984"><ele></ele><time>2023-1-21T11:26:43Z</time></trkpt>
<trkpt lat="48.444707" lon="2.662075"><ele></ele><time>2023-1-21T11:26:46Z</time></trkpt>
<trkpt lat="48.444633" lon="2.662153"><ele></ele><time>2023-1-21T11:26:49Z</time></trkpt>
<trkpt lat="48.444595" lon="2.662282"><ele></ele><time>2023-1-21T11:26:52Z</time></trkpt>
<trkpt lat="48.444535" lon="2.662399"><ele></ele><time>2023-1-21T11:26:55Z</time></trkpt>
<trkpt lat="48.44448" lon="2.662509"><ele></ele><time>2023-1-21T11:26:58Z</time></trkpt>
<trkpt lat="48.444415" lon="2.662613"><ele></ele><time>2023-1-21T11:27:1Z</time></trkpt>
<trkpt lat="48.44436" lon="2.662732"><ele></ele><time>2023-1-21T11:27:4Z</time></trkpt>
<trkpt lat="48.444284" lon="2.662832"><ele></ele><time>2023-1-21T11:27:7Z</time></trkpt>
<trkpt lat="48.444207" lon="2.662969"><ele></ele><time>2023-1-21T11:27:10Z</time></trkpt>
<trkpt lat="48.444147" lon="2.663118"><ele></ele><time>2023-1-21T11:27:13Z</time></trkpt>
<trkpt lat="48.444099" lon="2.663253"><ele></ele><time>2023-1-21T11:27:16Z</time></trkpt>
<trkpt lat="48.44404" lon="2.663366"><ele></ele><time>2023-1-21T11:27:19Z</time></trkpt>
<trkpt lat="48.444022" lon="2.663511"><ele></ele><time>2023-1-21T11:27:22Z</time></trkpt>
<trkpt lat="48.443998" lon="2.663658"><ele></ele><time>2023-1-21T11:27:25Z</time></trkpt>
<trkpt lat="48.444005" lon="2.663795"><ele></ele><time>2023-1-21T11:27:28Z</time></trkpt>
<trkpt lat="48.444009" lon="2.663963"><ele></ele><time>2023-1-21T11:27:31Z</time></trkpt>
<trkpt lat="48.444013" lon="2.664101"><ele></ele><time>2023-1-21T11:27:34Z</time></trkpt>
<trkpt lat="48.444006" lon="2.664238"><ele></ele><time>2023-1-21T11:27:37Z</time></trkpt>
<trkpt lat="48.443985" lon="2.66439"><ele></ele><time>2023-1-21T11:27:40Z</time></trkpt>
<trkpt lat="48.443956" lon="2.664543"><ele></ele><time>2023-1-21T11:27:43Z</time></trkpt>
<trkpt lat="48.443941" lon="2.664682"><ele></ele><time>2023-1-21T11:27:46Z</time></trkpt>
<trkpt lat="48.443956" lon="2.664835"><ele></ele><time>2023-1-21T11:27:49Z</time></trkpt>
<trkpt lat="48.443942" lon="2.664975"><ele></ele><time>2023-1-21T11:27:52Z</time></trkpt>
<trkpt lat="48.443935" lon="2.665132"><ele></ele><time>2023-1-21T11:27:55Z</time></trkpt>
<trkpt lat="48.443933" lon="2.665324"><ele></ele><time>2023-1-21T11:27:58Z</time></trkpt>
<trkpt lat="48.443913" lon="2.66547"><ele></ele><time>2023-1-21T11:28:1Z</time></trkpt>
<trkpt lat="48.443893" lon="2.665622"><ele></ele><time>2023-1-21T11:28:4Z</time></trkpt>
<trkpt lat="48.443885" lon="2.665781"><ele></ele><time>2023-1-21T11:28:7Z</time></trkpt>
<trkpt lat="48.443877" lon="2.665933"><ele></ele><time>2023-1-21T11:28:10Z</time></trkpt>
<trkpt lat="48.44382" lon="2.666059"><ele></ele><time>2023-1-21T11:28:13Z</time></trkpt>
<trkpt lat="48.443803" lon="2.666196"><ele></ele><time>2023-1-21T11:28:16Z</time></trkpt>
<trkpt lat="48.443775" lon="2.666353"><ele></ele><time>2023-1-21T11:28:19Z</time></trkpt>
<trkpt lat="48.443713" lon="2.666471"><ele></ele><time>2023-1-21T11:28:22Z</time></trkpt>
<trkpt lat="48.443644" lon="2.666591"><ele></ele><time>2023-1-21T11:28:25Z</time></trkpt>
<trkpt lat="48.443612" lon="2.666744"><ele></ele><time>2023-1-21T11:28:28Z</time></trkpt>
<trkpt lat="48.44359" lon="2.666888"><ele></ele><time>2023-1-21T11:28:31Z</time></trkpt>
<trkpt lat="48.443562" lon="2.667041"><ele></ele><time>2023-1-21T11:28:34Z</time></trkpt>
<trkpt lat="48.443521" lon="2.66717"><ele></ele><time>2023-1-21T11:28:37Z</time></trkpt>
<trkpt lat="48.443479" lon="2.667326"><ele></ele><time>2023-1-21T11:28:40Z</time></trkpt>
<trkpt lat="48.443447" lon="2.66746"><ele></ele><time>2023-1-21T11:28:43Z</time></trkpt>
<trkpt lat="48.443391" lon="2.667604"><ele></ele><time>2023-1-21T11:28:46Z</time></trkpt>
<trkpt lat="48.443359" lon="2.667764"><ele></ele><time>2023-1-21T11:28:49Z</time></trkpt>
<trkpt lat="48.443297" lon="2.667866"><ele></ele><time>2023-1-21T11:28:52Z</time></trkpt>
<trkpt lat="48.443267" lon="2.667996"><ele></ele><time>2023-1-21T11:28:55Z</time></trkpt>
<trkpt lat="48.443213" lon="2.668152"><ele></ele><time>2023-1-21T11:28:58Z</time></trkpt>
<trkpt lat="48.443199" lon="2.668291"><ele></ele><time>2023-1-21T11:29:1Z</time></trkpt>
<trkpt lat="48.443217" lon="2.668435"><ele></ele><time>2023-1-21T11:29:4Z</time></trkpt>
<trkpt lat="48.443273" lon="2.668575"><ele></ele><time>2023-1-21T11:29:7Z</time></trkpt>
<trkpt lat="48.443372" lon="2.66868"><ele></ele><time>2023-1-21T11:29:10Z</time></trkpt>
<trkpt lat="48.443449" lon="2.668755"><ele></ele><time>2023-1-21T11:29:13Z</time></trkpt>
<trkpt lat="48.443497" lon="2.668816"><ele></ele><time>2023-1-21T11:29:16Z</time></trkpt>
<trkpt lat="48.443497" lon="2.668816"><ele></ele><time>2023-1-21T11:29:19Z</time></trkpt>
<trkpt lat="48.443586" lon="2.668855"><ele></ele><time>2023-1-21T11:29:22Z</time></trkpt>
<trkpt lat="48.443626" lon="2.668986"><ele></ele><time>2023-1-21T11:29:25Z</time></trkpt>
<trkpt lat="48.443659" lon="2.669133"><ele></ele><time>2023-1-21T11:29:28Z</time></trkpt>
<trkpt lat="48.443665" lon="2.669274"><ele></ele><time>2023-1-21T11:29:31Z</time></trkpt>
<trkpt lat="48.44372" lon="2.669407"><ele></ele><time>2023-1-21T11:29:34Z</time></trkpt>
<trkpt lat="48.443772" lon="2.669559"><ele></ele><time>2023-1-21T11:29:37Z</time></trkpt>
<trkpt lat="48.443798" lon="2.669741"><ele></ele><time>2023-1-21T11:29:40Z</time></trkpt>
<trkpt lat="48.443832" lon="2.669891"><ele></ele><time>2023-1-21T11:29:43Z</time></trkpt>
<trkpt lat="48.44386" lon="2.670041"><ele></ele><time>2023-1-21T11:29:46Z</time></trkpt>
<trkpt lat="48.443874" lon="2.670186"><ele></ele><time>2023-1-21T11:29:49Z</time></trkpt>
<trkpt lat="48.443861" lon="2.670368"><ele></ele><time>2023-1-21T11:29:52Z</time></trkpt>
<trkpt lat="48.443854" lon="2.670513"><ele></ele><time>2023-1-21T11:29:55Z</time></trkpt>
<trkpt lat="48.443844" lon="2.670666"><ele></ele><time>2023-1-21T11:29:58Z</time></trkpt>
<trkpt lat="48.443853" lon="2.670823"><ele></ele><time>2023-1-21T11:30:1Z</time></trkpt>
<trkpt lat="48.443869" lon="2.670984"><ele></ele><time>2023-1-21T11:30:4Z</time></trkpt>
<trkpt lat="48.443883" lon="2.671142"><ele></ele><time>2023-1-21T11:30:7Z</time></trkpt>
<trkpt lat="48.443879" lon="2.671286"><ele></ele><time>2023-1-21T11:30:10Z</time></trkpt>
<trkpt lat="48.443886" lon="2.671427"><ele></ele><time>2023-1-21T11:30:13Z</time></trkpt>
<trkpt lat="48.44387" lon="2.671564"><ele></ele><time>2023-1-21T11:30:16Z</time></trkpt>
<trkpt lat="48.443867" lon="2.671705"><ele></ele><time>2023-1-21T11:30:19Z</time></trkpt>
<trkpt lat="48.443863" lon="2.671844"><ele></ele><time>2023-1-21T11:30:22Z</time></trkpt>
<trkpt lat="48.443791" lon="2.671969"><ele></ele><time>2023-1-21T11:30:25Z</time></trkpt>
<trkpt lat="48.44371" lon="2.67207"><ele></ele><time>2023-1-21T11:30:28Z</time></trkpt>
<trkpt lat="48.443658" lon="2.672185"><ele></ele><time>2023-1-21T11:30:31Z</time></trkpt>
<trkpt lat="48.443597" lon="2.672342"><ele></ele><time>2023-1-21T11:30:34Z</time></trkpt>
<trkpt lat="48.443534" lon="2.672453"><ele></ele><time>2023-1-21T11:30:37Z</time></trkpt>
<trkpt lat="48.443488" lon="2.67259"><ele></ele><time>2023-1-21T11:30:40Z</time></trkpt>
<trkpt lat="48.443445" lon="2.672732"><ele></ele><time>2023-1-21T11:30:43Z</time></trkpt>
<trkpt lat="48.443362" lon="2.672841"><ele></ele><time>2023-1-21T11:30:46Z</time></trkpt>
<trkpt lat="48.443284" lon="2.672943"><ele></ele><time>2023-1-21T11:30:49Z</time></trkpt>
<trkpt lat="48.443199" lon="2.673078"><ele></ele><time>2023-1-21T11:30:52Z</time></trkpt>
<trkpt lat="48.443142" lon="2.673193"><ele></ele><time>2023-1-21T11:30:55Z</time></trkpt>
<trkpt lat="48.443095" lon="2.67335"><ele></ele><time>2023-1-21T11:30:58Z</time></trkpt>
<trkpt lat="48.44304" lon="2.673458"><ele></ele><time>2023-1-21T11:31:1Z</time></trkpt>
<trkpt lat="48.442982" lon="2.673562"><ele></ele><time>2023-1-21T11:31:4Z</time></trkpt>
<trkpt lat="48.442924" lon="2.673666"><ele></ele><time>2023-1-21T11:31:7Z</time></trkpt>
<trkpt lat="48.442829" lon="2.673762"><ele></ele><time>2023-1-21T11:31:10Z</time></trkpt>
<trkpt lat="48.44274" lon="2.673781"><ele></ele><time>2023-1-21T11:31:13Z</time></trkpt>
<trkpt lat="48.442645" lon="2.673855"><ele></ele><time>2023-1-21T11:31:16Z</time></trkpt>
<trkpt lat="48.442571" lon="2.673988"><ele></ele><time>2023-1-21T11:31:19Z</time></trkpt>
<trkpt lat="48.442473" lon="2.674123"><ele></ele><time>2023-1-21T11:31:22Z</time></trkpt>
<trkpt lat="48.442413" lon="2.674228"><ele></ele><time>2023-1-21T11:31:25Z</time></trkpt>
<trkpt lat="48.442359" lon="2.674372"><ele></ele><time>2023-1-21T11:31:28Z</time></trkpt>
<trkpt lat="48.442313" lon="2.674534"><ele></ele><time>2023-1-21T11:31:31Z</time></trkpt>
<trkpt lat="48.44226" lon="2.674651"><ele></ele><time>2023-1-21T11:31:34Z</time></trkpt>
<trkpt lat="48.44222" lon="2.674778"><ele></ele><time>2023-1-21T11:31:37Z</time></trkpt>
<trkpt lat="48.442243" lon="2.674919"><ele></ele><time>2023-1-21T11:31:40Z</time></trkpt>
<trkpt lat="48.442273" lon="2.675064"><ele></ele><time>2023-1-21T11:31:43Z</time></trkpt>
<trkpt lat="48.4423" lon="2.675209"><ele></ele><time>2023-1-21T11:31:46Z</time></trkpt>
<trkpt lat="48.442297" lon="2.675378"><ele></ele><time>2023-1-21T11:31:49Z</time></trkpt>
<trkpt lat="48.442267" lon="2.675541"><ele></ele><time>2023-1-21T11:31:52Z</time></trkpt>
<trkpt lat="48.442239" lon="2.675671"><ele></ele><time>2023-1-21T11:31:55Z</time></trkpt>
<trkpt lat="48.442145" lon="2.675783"><ele></ele><time>2023-1-21T11:31:58Z</time></trkpt>
<trkpt lat="48.442061" lon="2.675931"><ele></ele><time>2023-1-21T11:32:1Z</time></trkpt>
<trkpt lat="48.441961" lon="2.676067"><ele></ele><time>2023-1-21T11:32:4Z</time></trkpt>
<trkpt lat="48.441868" lon="2.676106"><ele></ele><time>2023-1-21T11:32:7Z</time></trkpt>
<trkpt lat="48.441787" lon="2.676168"><ele></ele><time>2023-1-21T11:32:10Z</time></trkpt>
<trkpt lat="48.441701" lon="2.676284"><ele></ele><time>2023-1-21T11:32:13Z</time></trkpt>
<trkpt lat="48.441632" lon="2.676426"><ele></ele><time>2023-1-21T11:32:16Z</time></trkpt>
<trkpt lat="48.441593" lon="2.676588"><ele></ele><time>2023-1-21T11:32:19Z</time></trkpt>
<trkpt lat="48.441556" lon="2.67674"><ele></ele><time>2023-1-21T11:32:22Z</time></trkpt>
<trkpt lat="48.441483" lon="2.676863"><ele></ele><time>2023-1-21T11:32:25Z</time></trkpt>
<trkpt lat="48.441395" lon="2.676951"><ele></ele><time>2023-1-21T11:32:28Z</time></trkpt>
<trkpt lat="48.441287" lon="2.677017"><ele></ele><time>2023-1-21T11:32:31Z</time></trkpt>
<trkpt lat="48.441201" lon="2.677098"><ele></ele><time>2023-1-21T11:32:34Z</time></trkpt>
<trkpt lat="48.44111" lon="2.67704"><ele></ele><time>2023-1-21T11:32:37Z</time></trkpt>
<trkpt lat="48.441025" lon="2.676993"><ele></ele><time>2023-1-21T11:32:40Z</time></trkpt>
<trkpt lat="48.440915" lon="2.676933"><ele></ele><time>2023-1-21T11:32:43Z</time></trkpt>
<trkpt lat="48.440822" lon="2.67692"><ele></ele><time>2023-1-21T11:32:46Z</time></trkpt>
<trkpt lat="48.440737" lon="2.676866"><ele></ele><time>2023-1-21T11:32:49Z</time></trkpt>
<trkpt lat="48.440646" lon="2.676872"><ele></ele><time>2023-1-21T11:32:52Z</time></trkpt>
<trkpt lat="48.440535" lon="2.676836"><ele></ele><time>2023-1-21T11:32:55Z</time></trkpt>
<trkpt lat="48.440555" lon="2.676684"><ele></ele><time>2023-1-21T11:32:58Z</time></trkpt>
<trkpt lat="48.440473" lon="2.676597"><ele></ele><time>2023-1-21T11:33:1Z</time></trkpt>
<trkpt lat="48.440381" lon="2.676568"><ele></ele><time>2023-1-21T11:33:4Z</time></trkpt>
<trkpt lat="48.440281" lon="2.676541"><ele></ele><time>2023-1-21T11:33:7Z</time></trkpt>
<trkpt lat="48.44019" lon="2.676485"><ele></ele><time>2023-1-21T11:33:10Z</time></trkpt>
<trkpt lat="48.440098" lon="2.676443"><ele></ele><time>2023-1-21T11:33:13Z</time></trkpt>
<trkpt lat="48.440014" lon="2.676497"><ele></ele><time>2023-1-21T11:33:16Z</time></trkpt>
<trkpt lat="48.439913" lon="2.676567"><ele></ele><time>2023-1-21T11:33:19Z</time></trkpt>
<trkpt lat="48.439825" lon="2.676623"><ele></ele><time>2023-1-21T11:33:22Z</time></trkpt>
<trkpt lat="48.439723" lon="2.676701"><ele></ele><time>2023-1-21T11:33:25Z</time></trkpt>
<trkpt lat="48.439609" lon="2.676648"><ele></ele><time>2023-1-21T11:33:28Z</time></trkpt>
<trkpt lat="48.439512" lon="2.676584"><ele></ele><time>2023-1-21T11:33:31Z</time></trkpt>
<trkpt lat="48.439417" lon="2.676545"><ele></ele><time>2023-1-21T11:33:34Z</time></trkpt>
<trkpt lat="48.439325" lon="2.67653"><ele></ele><time>2023-1-21T11:33:37Z</time></trkpt>
<trkpt lat="48.439237" lon="2.676439"><ele></ele><time>2023-1-21T11:33:40Z</time></trkpt>
<trkpt lat="48.439191" lon="2.676294"><ele></ele><time>2023-1-21T11:33:43Z</time></trkpt>
<trkpt lat="48.439137" lon="2.676141"><ele></ele><time>2023-1-21T11:33:46Z</time></trkpt>
<trkpt lat="48.439104" lon="2.675977"><ele></ele><time>2023-1-21T11:33:49Z</time></trkpt>
<trkpt lat="48.439059" lon="2.675813"><ele></ele><time>2023-1-21T11:33:52Z</time></trkpt>
<trkpt lat="48.439045" lon="2.675657"><ele></ele><time>2023-1-21T11:33:55Z</time></trkpt>
<trkpt lat="48.439003" lon="2.67551"><ele></ele><time>2023-1-21T11:33:58Z</time></trkpt>
<trkpt lat="48.438964" lon="2.675369"><ele></ele><time>2023-1-21T11:34:1Z</time></trkpt>
<trkpt lat="48.438911" lon="2.675246"><ele></ele><time>2023-1-21T11:34:4Z</time></trkpt>
<trkpt lat="48.438898" lon="2.675088"><ele></ele><time>2023-1-21T11:34:7Z</time></trkpt>
<trkpt lat="48.438869" lon="2.674958"><ele></ele><time>2023-1-21T11:34:10Z</time></trkpt>
<trkpt lat="48.438843" lon="2.674828"><ele></ele><time>2023-1-21T11:34:13Z</time></trkpt>
<trkpt lat="48.438827" lon="2.674677"><ele></ele><time>2023-1-21T11:34:16Z</time></trkpt>
<trkpt lat="48.438802" lon="2.674531"><ele></ele><time>2023-1-21T11:34:19Z</time></trkpt>
<trkpt lat="48.438774" lon="2.674399"><ele></ele><time>2023-1-21T11:34:22Z</time></trkpt>
<trkpt lat="48.438738" lon="2.674252"><ele></ele><time>2023-1-21T11:34:25Z</time></trkpt>
<trkpt lat="48.438673" lon="2.674132"><ele></ele><time>2023-1-21T11:34:28Z</time></trkpt>
<trkpt lat="48.438646" lon="2.673983"><ele></ele><time>2023-1-21T11:34:31Z</time></trkpt>
<trkpt lat="48.4386" lon="2.67386"><ele></ele><time>2023-1-21T11:34:34Z</time></trkpt>
<trkpt lat="48.438578" lon="2.673698"><ele></ele><time>2023-1-21T11:34:37Z</time></trkpt>
<trkpt lat="48.438546" lon="2.673563"><ele></ele><time>2023-1-21T11:34:40Z</time></trkpt>
<trkpt lat="48.438519" lon="2.673411"><ele></ele><time>2023-1-21T11:34:43Z</time></trkpt>
<trkpt lat="48.438504" lon="2.673264"><ele></ele><time>2023-1-21T11:34:46Z</time></trkpt>
<trkpt lat="48.438475" lon="2.673133"><ele></ele><time>2023-1-21T11:34:49Z</time></trkpt>
<trkpt lat="48.438436" lon="2.673002"><ele></ele><time>2023-1-21T11:34:52Z</time></trkpt>
<trkpt lat="48.438412" lon="2.672861"><ele></ele><time>2023-1-21T11:34:55Z</time></trkpt>
<trkpt lat="48.438384" lon="2.672714"><ele></ele><time>2023-1-21T11:34:58Z</time></trkpt>
<trkpt lat="48.438349" lon="2.672555"><ele></ele><time>2023-1-21T11:35:1Z</time></trkpt>
<trkpt lat="48.438299" lon="2.6724"><ele></ele><time>2023-1-21T11:35:4Z</time></trkpt>
<trkpt lat="48.438264" lon="2.672251"><ele></ele><time>2023-1-21T11:35:7Z</time></trkpt>
<trkpt lat="48.43822" lon="2.672103"><ele></ele><time>2023-1-21T11:35:10Z</time></trkpt>
<trkpt lat="48.438187" lon="2.671948"><ele></ele><time>2023-1-21T11:35:13Z</time></trkpt>
<trkpt lat="48.438156" lon="2.671805"><ele></ele><time>2023-1-21T11:35:16Z</time></trkpt>
<trkpt lat="48.43814" lon="2.671628"><ele></ele><time>2023-1-21T11:35:19Z</time></trkpt>
<trkpt lat="48.438139" lon="2.67147"><ele></ele><time>2023-1-21T11:35:22Z</time></trkpt>
<trkpt lat="48.438104" lon="2.671327"><ele></ele><time>2023-1-21T11:35:25Z</time></trkpt>
<trkpt lat="48.438063" lon="2.671173"><ele></ele><time>2023-1-21T11:35:28Z</time></trkpt>
<trkpt lat="48.437979" lon="2.671077"><ele></ele><time>2023-1-21T11:35:31Z</time></trkpt>
<trkpt lat="48.437875" lon="2.671059"><ele></ele><time>2023-1-21T11:35:34Z</time></trkpt>
<trkpt lat="48.43776" lon="2.671039"><ele></ele><time>2023-1-21T11:35:37Z</time></trkpt>
<trkpt lat="48.437639" lon="2.671009"><ele></ele><time>2023-1-21T11:35:40Z</time></trkpt>
<trkpt lat="48.43751" lon="2.67099"><ele></ele><time>2023-1-21T11:35:43Z</time></trkpt>
<trkpt lat="48.437404" lon="2.670985"><ele></ele><time>2023-1-21T11:35:46Z</time></trkpt>
<trkpt lat="48.437296" lon="2.670967"><ele></ele><time>2023-1-21T11:35:49Z</time></trkpt>
<trkpt lat="48.437171" lon="2.670968"><ele></ele><time>2023-1-21T11:35:52Z</time></trkpt>
<trkpt lat="48.437062" lon="2.670965"><ele></ele><time>2023-1-21T11:35:55Z</time></trkpt>
<trkpt lat="48.436947" lon="2.670964"><ele></ele><time>2023-1-21T11:35:58Z</time></trkpt>
<trkpt lat="48.43684" lon="2.670965"><ele></ele><time>2023-1-21T11:36:1Z</time></trkpt>
<trkpt lat="48.436731" lon="2.670939"><ele></ele><time>2023-1-21T11:36:4Z</time></trkpt>
<trkpt lat="48.436618" lon="2.670919"><ele></ele><time>2023-1-21T11:36:7Z</time></trkpt>
<trkpt lat="48.436504" lon="2.670921"><ele></ele><time>2023-1-21T11:36:10Z</time></trkpt>
<trkpt lat="48.436376" lon="2.670929"><ele></ele><time>2023-1-21T11:36:13Z</time></trkpt>
<trkpt lat="48.436245" lon="2.670939"><ele></ele><time>2023-1-21T11:36:16Z</time></trkpt>
<trkpt lat="48.436117" lon="2.670913"><ele></ele><time>2023-1-21T11:36:19Z</time></trkpt>
<trkpt lat="48.435989" lon="2.670911"><ele></ele><time>2023-1-21T11:36:22Z</time></trkpt>
<trkpt lat="48.435876" lon="2.670911"><ele></ele><time>2023-1-21T11:36:25Z</time></trkpt>
<trkpt lat="48.435755" lon="2.670924"><ele></ele><time>2023-1-21T11:36:28Z</time></trkpt>
<trkpt lat="48.435631" lon="2.670949"><ele></ele><time>2023-1-21T11:36:31Z</time></trkpt>
<trkpt lat="48.435518" lon="2.67099"><ele></ele><time>2023-1-21T11:36:34Z</time></trkpt>
<trkpt lat="48.43543" lon="2.671031"><ele></ele><time>2023-1-21T11:36:37Z</time></trkpt>
<trkpt lat="48.435315" lon="2.671059"><ele></ele><time>2023-1-21T11:36:40Z</time></trkpt>
<trkpt lat="48.435208" lon="2.671091"><ele></ele><time>2023-1-21T11:36:43Z</time></trkpt>
<trkpt lat="48.435128" lon="2.671192"><ele></ele><time>2023-1-21T11:36:46Z</time></trkpt>
<trkpt lat="48.435033" lon="2.671197"><ele></ele><time>2023-1-21T11:36:49Z</time></trkpt>
<trkpt lat="48.434925" lon="2.67118"><ele></ele><time>2023-1-21T11:36:52Z</time></trkpt>
<trkpt lat="48.434818" lon="2.671232"><ele></ele><time>2023-1-21T11:36:55Z</time></trkpt>
<trkpt lat="48.434714" lon="2.671274"><ele></ele><time>2023-1-21T11:36:58Z</time></trkpt>
<trkpt lat="48.434605" lon="2.671294"><ele></ele><time>2023-1-21T11:37:1Z</time></trkpt>
<trkpt lat="48.434493" lon="2.671339"><ele></ele><time>2023-1-21T11:37:4Z</time></trkpt>
<trkpt lat="48.434398" lon="2.671387"><ele></ele><time>2023-1-21T11:37:7Z</time></trkpt>
<trkpt lat="48.434305" lon="2.671419"><ele></ele><time>2023-1-21T11:37:10Z</time></trkpt>
<trkpt lat="48.434206" lon="2.671443"><ele></ele><time>2023-1-21T11:37:13Z</time></trkpt>
<trkpt lat="48.43409" lon="2.671464"><ele></ele><time>2023-1-21T11:37:16Z</time></trkpt>
<trkpt lat="48.433958" lon="2.671502"><ele></ele><time>2023-1-21T11:37:19Z</time></trkpt>
<trkpt lat="48.433869" lon="2.67153"><ele></ele><time>2023-1-21T11:37:22Z</time></trkpt>
<trkpt lat="48.433758" lon="2.671576"><ele></ele><time>2023-1-21T11:37:25Z</time></trkpt>
<trkpt lat="48.433632" lon="2.671624"><ele></ele><time>2023-1-21T11:37:28Z</time></trkpt>
<trkpt lat="48.433528" lon="2.67166"><ele></ele><time>2023-1-21T11:37:31Z</time></trkpt>
<trkpt lat="48.433428" lon="2.671636"><ele></ele><time>2023-1-21T11:37:34Z</time></trkpt>
<trkpt lat="48.43332" lon="2.671568"><ele></ele><time>2023-1-21T11:37:37Z</time></trkpt>
<trkpt lat="48.433237" lon="2.671494"><ele></ele><time>2023-1-21T11:37:40Z</time></trkpt>
<trkpt lat="48.433146" lon="2.671413"><ele></ele><time>2023-1-21T11:37:43Z</time></trkpt>
<trkpt lat="48.433043" lon="2.67135"><ele></ele><time>2023-1-21T11:37:46Z</time></trkpt>
<trkpt lat="48.432949" lon="2.671285"><ele></ele><time>2023-1-21T11:37:49Z</time></trkpt>
<trkpt lat="48.432858" lon="2.671213"><ele></ele><time>2023-1-21T11:37:52Z</time></trkpt>
<trkpt lat="48.432755" lon="2.671139"><ele></ele><time>2023-1-21T11:37:55Z</time></trkpt>
<trkpt lat="48.432651" lon="2.671066"><ele></ele><time>2023-1-21T11:37:58Z</time></trkpt>
<trkpt lat="48.432563" lon="2.671028"><ele></ele><time>2023-1-21T11:38:1Z</time></trkpt>
<trkpt lat="48.432471" lon="2.67101"><ele></ele><time>2023-1-21T11:38:4Z</time></trkpt>
<trkpt lat="48.432388" lon="2.670951"><ele></ele><time>2023-1-21T11:38:7Z</time></trkpt>
<trkpt lat="48.432294" lon="2.6709"><ele></ele><time>2023-1-21T11:38:10Z</time></trkpt>
<trkpt lat="48.432195" lon="2.670878"><ele></ele><time>2023-1-21T11:38:13Z</time></trkpt>
<trkpt lat="48.432096" lon="2.67084"><ele></ele><time>2023-1-21T11:38:16Z</time></trkpt>
<trkpt lat="48.432016" lon="2.670772"><ele></ele><time>2023-1-21T11:38:19Z</time></trkpt>
<trkpt lat="48.431904" lon="2.670763"><ele></ele><time>2023-1-21T11:38:22Z</time></trkpt>
<trkpt lat="48.431799" lon="2.670712"><ele></ele><time>2023-1-21T11:38:25Z</time></trkpt>
<trkpt lat="48.431708" lon="2.670653"><ele></ele><time>2023-1-21T11:38:28Z</time></trkpt>
<trkpt lat="48.4316" lon="2.670611"><ele></ele><time>2023-1-21T11:38:31Z</time></trkpt>
<trkpt lat="48.431495" lon="2.670579"><ele></ele><time>2023-1-21T11:38:34Z</time></trkpt>
<trkpt lat="48.431392" lon="2.670546"><ele></ele><time>2023-1-21T11:38:37Z</time></trkpt>
<trkpt lat="48.431289" lon="2.67051"><ele></ele><time>2023-1-21T11:38:40Z</time></trkpt>
<trkpt lat="48.431192" lon="2.670457"><ele></ele><time>2023-1-21T11:38:43Z</time></trkpt>
<trkpt lat="48.431075" lon="2.67043"><ele></ele><time>2023-1-21T11:38:46Z</time></trkpt>
<trkpt lat="48.430988" lon="2.670536"><ele></ele><time>2023-1-21T11:38:49Z</time></trkpt>
<trkpt lat="48.430943" lon="2.670712"><ele></ele><time>2023-1-21T11:38:52Z</time></trkpt>
<trkpt lat="48.430879" lon="2.670849"><ele></ele><time>2023-1-21T11:38:55Z</time></trkpt>
<trkpt lat="48.430829" lon="2.670964"><ele></ele><time>2023-1-21T11:38:58Z</time></trkpt>
<trkpt lat="48.430765" lon="2.671109"><ele></ele><time>2023-1-21T11:39:1Z</time></trkpt>
<trkpt lat="48.430712" lon="2.671261"><ele></ele><time>2023-1-21T11:39:4Z</time></trkpt>
<trkpt lat="48.430677" lon="2.671408"><ele></ele><time>2023-1-21T11:39:7Z</time></trkpt>
<trkpt lat="48.430623" lon="2.671535"><ele></ele><time>2023-1-21T11:39:10Z</time></trkpt>
<trkpt lat="48.430576" lon="2.67169"><ele></ele><time>2023-1-21T11:39:13Z</time></trkpt>
<trkpt lat="48.430525" lon="2.671853"><ele></ele><time>2023-1-21T11:39:16Z</time></trkpt>
<trkpt lat="48.430453" lon="2.671998"><ele></ele><time>2023-1-21T11:39:19Z</time></trkpt>
<trkpt lat="48.430394" lon="2.672116"><ele></ele><time>2023-1-21T11:39:22Z</time></trkpt>
<trkpt lat="48.430336" lon="2.672235"><ele></ele><time>2023-1-21T11:39:25Z</time></trkpt>
<trkpt lat="48.430281" lon="2.672363"><ele></ele><time>2023-1-21T11:39:28Z</time></trkpt>
<trkpt lat="48.430198" lon="2.67247"><ele></ele><time>2023-1-21T11:39:31Z</time></trkpt>
<trkpt lat="48.430169" lon="2.672599"><ele></ele><time>2023-1-21T11:39:34Z</time></trkpt>
<trkpt lat="48.430082" lon="2.672666"><ele></ele><time>2023-1-21T11:39:37Z</time></trkpt>
<trkpt lat="48.430002" lon="2.672749"><ele></ele><time>2023-1-21T11:39:40Z</time></trkpt>
<trkpt lat="48.429926" lon="2.672867"><ele></ele><time>2023-1-21T11:39:43Z</time></trkpt>
<trkpt lat="48.429859" lon="2.672974"><ele></ele><time>2023-1-21T11:39:46Z</time></trkpt>
<trkpt lat="48.429793" lon="2.67308"><ele></ele><time>2023-1-21T11:39:49Z</time></trkpt>
<trkpt lat="48.429733" lon="2.673195"><ele></ele><time>2023-1-21T11:39:52Z</time></trkpt>
<trkpt lat="48.429651" lon="2.673256"><ele></ele><time>2023-1-21T11:39:55Z</time></trkpt>
<trkpt lat="48.429559" lon="2.673291"><ele></ele><time>2023-1-21T11:39:58Z</time></trkpt>
<trkpt lat="48.429459" lon="2.673298"><ele></ele><time>2023-1-21T11:40:1Z</time></trkpt>
<trkpt lat="48.429367" lon="2.673341"><ele></ele><time>2023-1-21T11:40:4Z</time></trkpt>
<trkpt lat="48.429283" lon="2.673393"><ele></ele><time>2023-1-21T11:40:7Z</time></trkpt>
<trkpt lat="48.429195" lon="2.673464"><ele></ele><time>2023-1-21T11:40:10Z</time></trkpt>
<trkpt lat="48.429104" lon="2.673507"><ele></ele><time>2023-1-21T11:40:13Z</time></trkpt>
<trkpt lat="48.429034" lon="2.673616"><ele></ele><time>2023-1-21T11:40:16Z</time></trkpt>
<trkpt lat="48.428967" lon="2.67373"><ele></ele><time>2023-1-21T11:40:19Z</time></trkpt>
<trkpt lat="48.42888" lon="2.673822"><ele></ele><time>2023-1-21T11:40:22Z</time></trkpt>
<trkpt lat="48.428812" lon="2.673936"><ele></ele><time>2023-1-21T11:40:25Z</time></trkpt>
<trkpt lat="48.428754" lon="2.674053"><ele></ele><time>2023-1-21T11:40:28Z</time></trkpt>
<trkpt lat="48.428697" lon="2.674171"><ele></ele><time>2023-1-21T11:40:31Z</time></trkpt>
<trkpt lat="48.428609" lon="2.674246"><ele></ele><time>2023-1-21T11:40:34Z</time></trkpt>
<trkpt lat="48.428525" lon="2.674385"><ele></ele><time>2023-1-21T11:40:37Z</time></trkpt>
<trkpt lat="48.42847" lon="2.674515"><ele></ele><time>2023-1-21T11:40:40Z</time></trkpt>
<trkpt lat="48.428411" lon="2.674676"><ele></ele><time>2023-1-21T11:40:43Z</time></trkpt>
<trkpt lat="48.42832" lon="2.674772"><ele></ele><time>2023-1-21T11:40:46Z</time></trkpt>
<trkpt lat="48.428333" lon="2.674923"><ele></ele><time>2023-1-21T11:40:49Z</time></trkpt>
<trkpt lat="48.428289" lon="2.67505"><ele></ele><time>2023-1-21T11:40:52Z</time></trkpt>
<trkpt lat="48.428273" lon="2.675239"><ele></ele><time>2023-1-21T11:40:55Z</time></trkpt>
<trkpt lat="48.428262" lon="2.675414"><ele></ele><time>2023-1-21T11:40:58Z</time></trkpt>
<trkpt lat="48.428289" lon="2.675574"><ele></ele><time>2023-1-21T11:41:1Z</time></trkpt>
<trkpt lat="48.428308" lon="2.675715"><ele></ele><time>2023-1-21T11:41:4Z</time></trkpt>
<trkpt lat="48.428379" lon="2.675817"><ele></ele><time>2023-1-21T11:41:7Z</time></trkpt>
<trkpt lat="48.428436" lon="2.675932"><ele></ele><time>2023-1-21T11:41:10Z</time></trkpt>
<trkpt lat="48.428494" lon="2.676086"><ele></ele><time>2023-1-21T11:41:13Z</time></trkpt>
<trkpt lat="48.42858" lon="2.676173"><ele></ele><time>2023-1-21T11:41:16Z</time></trkpt>
<trkpt lat="48.42867" lon="2.676315"><ele></ele><time>2023-1-21T11:41:19Z</time></trkpt>
<trkpt lat="48.42872" lon="2.676489"><ele></ele><time>2023-1-21T11:41:22Z</time></trkpt>
<trkpt lat="48.428792" lon="2.676612"><ele></ele><time>2023-1-21T11:41:25Z</time></trkpt>
<trkpt lat="48.428853" lon="2.676717"><ele></ele><time>2023-1-21T11:41:28Z</time></trkpt>
<trkpt lat="48.428932" lon="2.676852"><ele></ele><time>2023-1-21T11:41:31Z</time></trkpt>
<trkpt lat="48.42899" lon="2.676997"><ele></ele><time>2023-1-21T11:41:34Z</time></trkpt>
<trkpt lat="48.429045" lon="2.677127"><ele></ele><time>2023-1-21T11:41:37Z</time></trkpt>
<trkpt lat="48.429117" lon="2.677228"><ele></ele><time>2023-1-21T11:41:40Z</time></trkpt>
<trkpt lat="48.429184" lon="2.677351"><ele></ele><time>2023-1-21T11:41:43Z</time></trkpt>
<trkpt lat="48.429252" lon="2.677448"><ele></ele><time>2023-1-21T11:41:46Z</time></trkpt>
<trkpt lat="48.429339" lon="2.677524"><ele></ele><time>2023-1-21T11:41:49Z</time></trkpt>
<trkpt lat="48.429428" lon="2.677574"><ele></ele><time>2023-1-21T11:41:52Z</time></trkpt>
<trkpt lat="48.429538" lon="2.677622"><ele></ele><time>2023-1-21T11:41:55Z</time></trkpt>
<trkpt lat="48.429641" lon="2.677612"><ele></ele><time>2023-1-21T11:41:58Z</time></trkpt>
<trkpt lat="48.429741" lon="2.677672"><ele></ele><time>2023-1-21T11:42:1Z</time></trkpt>
<trkpt lat="48.429819" lon="2.677741"><ele></ele><time>2023-1-21T11:42:4Z</time></trkpt>
<trkpt lat="48.429892" lon="2.677863"><ele></ele><time>2023-1-21T11:42:7Z</time></trkpt>
<trkpt lat="48.429975" lon="2.677969"><ele></ele><time>2023-1-21T11:42:10Z</time></trkpt>
<trkpt lat="48.430054" lon="2.67806"><ele></ele><time>2023-1-21T11:42:13Z</time></trkpt>
<trkpt lat="48.430054" lon="2.6781"><ele></ele><time>2023-1-21T11:42:16Z</time></trkpt>
<trkpt lat="48.430056" lon="2.678107"><ele></ele><time>2023-1-21T11:42:19Z</time></trkpt>
<trkpt lat="48.430072" lon="2.678146"><ele></ele><time>2023-1-21T11:42:22Z</time></trkpt>
<trkpt lat="48.430069" lon="2.678146"><ele></ele><time>2023-1-21T11:42:25Z</time></trkpt>
<trkpt lat="48.430052" lon="2.678143"><ele></ele><time>2023-1-21T11:42:28Z</time></trkpt>
<trkpt lat="48.430054" lon="2.678144"><ele></ele><time>2023-1-21T11:42:31Z</time></trkpt>
<trkpt lat="48.430129" lon="2.67829"><ele></ele><time>2023-1-21T11:42:34Z</time></trkpt>
<trkpt lat="48.430154" lon="2.678423"><ele></ele><time>2023-1-21T11:42:37Z</time></trkpt>
<trkpt lat="48.430236" lon="2.678517"><ele></ele><time>2023-1-21T11:42:40Z</time></trkpt>
<trkpt lat="48.430335" lon="2.678508"><ele></ele><time>2023-1-21T11:42:43Z</time></trkpt>
<trkpt lat="48.430423" lon="2.678543"><ele></ele><time>2023-1-21T11:42:46Z</time></trkpt>
<trkpt lat="48.430491" lon="2.678635"><ele></ele><time>2023-1-21T11:42:49Z</time></trkpt>
<trkpt lat="48.430579" lon="2.678717"><ele></ele><time>2023-1-21T11:42:52Z</time></trkpt>
<trkpt lat="48.430677" lon="2.678751"><ele></ele><time>2023-1-21T11:42:55Z</time></trkpt>
<trkpt lat="48.430773" lon="2.678807"><ele></ele><time>2023-1-21T11:42:58Z</time></trkpt>
<trkpt lat="48.430843" lon="2.678912"><ele></ele><time>2023-1-21T11:43:1Z</time></trkpt>
<trkpt lat="48.430936" lon="2.679"><ele></ele><time>2023-1-21T11:43:4Z</time></trkpt>
<trkpt lat="48.431004" lon="2.679095"><ele></ele><time>2023-1-21T11:43:7Z</time></trkpt>
<trkpt lat="48.431099" lon="2.679159"><ele></ele><time>2023-1-21T11:43:10Z</time></trkpt>
<trkpt lat="48.431181" lon="2.679241"><ele></ele><time>2023-1-21T11:43:13Z</time></trkpt>
<trkpt lat="48.431267" lon="2.679316"><ele></ele><time>2023-1-21T11:43:16Z</time></trkpt>
<trkpt lat="48.431358" lon="2.679348"><ele></ele><time>2023-1-21T11:43:19Z</time></trkpt>
<trkpt lat="48.431458" lon="2.679436"><ele></ele><time>2023-1-21T11:43:22Z</time></trkpt>
<trkpt lat="48.431556" lon="2.679558"><ele></ele><time>2023-1-21T11:43:25Z</time></trkpt>
<trkpt lat="48.43165" lon="2.679652"><ele></ele><time>2023-1-21T11:43:28Z</time></trkpt>
<trkpt lat="48.431725" lon="2.679729"><ele></ele><time>2023-1-21T11:43:31Z</time></trkpt>
<trkpt lat="48.431834" lon="2.679781"><ele></ele><time>2023-1-21T11:43:34Z</time></trkpt>
<trkpt lat="48.43192" lon="2.679842"><ele></ele><time>2023-1-21T11:43:37Z</time></trkpt>
<trkpt lat="48.431967" lon="2.679964"><ele></ele><time>2023-1-21T11:43:40Z</time></trkpt>
<trkpt lat="48.43201" lon="2.680109"><ele></ele><time>2023-1-21T11:43:43Z</time></trkpt>
<trkpt lat="48.432065" lon="2.680235"><ele></ele><time>2023-1-21T11:43:46Z</time></trkpt>
<trkpt lat="48.432115" lon="2.680357"><ele></ele><time>2023-1-21T11:43:49Z</time></trkpt>
<trkpt lat="48.432193" lon="2.680497"><ele></ele><time>2023-1-21T11:43:52Z</time></trkpt>
<trkpt lat="48.432253" lon="2.680607"><ele></ele><time>2023-1-21T11:43:55Z</time></trkpt>
<trkpt lat="48.432304" lon="2.680724"><ele></ele><time>2023-1-21T11:43:58Z</time></trkpt>
<trkpt lat="48.432372" lon="2.680849"><ele></ele><time>2023-1-21T11:44:1Z</time></trkpt>
<trkpt lat="48.432424" lon="2.680973"><ele></ele><time>2023-1-21T11:44:4Z</time></trkpt>
<trkpt lat="48.432492" lon="2.681071"><ele></ele><time>2023-1-21T11:44:7Z</time></trkpt>
<trkpt lat="48.432564" lon="2.681205"><ele></ele><time>2023-1-21T11:44:10Z</time></trkpt>
<trkpt lat="48.432605" lon="2.681347"><ele></ele><time>2023-1-21T11:44:13Z</time></trkpt>
<trkpt lat="48.432631" lon="2.681511"><ele></ele><time>2023-1-21T11:44:16Z</time></trkpt>
<trkpt lat="48.432673" lon="2.681657"><ele></ele><time>2023-1-21T11:44:19Z</time></trkpt>
<trkpt lat="48.43269" lon="2.681824"><ele></ele><time>2023-1-21T11:44:22Z</time></trkpt>
<trkpt lat="48.432668" lon="2.681986"><ele></ele><time>2023-1-21T11:44:25Z</time></trkpt>
<trkpt lat="48.432684" lon="2.682125"><ele></ele><time>2023-1-21T11:44:28Z</time></trkpt>
<trkpt lat="48.432681" lon="2.682269"><ele></ele><time>2023-1-21T11:44:31Z</time></trkpt>
<trkpt lat="48.432682" lon="2.682434"><ele></ele><time>2023-1-21T11:44:34Z</time></trkpt>
<trkpt lat="48.432678" lon="2.682577"><ele></ele><time>2023-1-21T11:44:37Z</time></trkpt>
<trkpt lat="48.432659" lon="2.682758"><ele></ele><time>2023-1-21T11:44:40Z</time></trkpt>
<trkpt lat="48.432622" lon="2.682903"><ele></ele><time>2023-1-21T11:44:43Z</time></trkpt>
<trkpt lat="48.432558" lon="2.683053"><ele></ele><time>2023-1-21T11:44:46Z</time></trkpt>
<trkpt lat="48.432516" lon="2.683198"><ele></ele><time>2023-1-21T11:44:49Z</time></trkpt>
<trkpt lat="48.432477" lon="2.683333"><ele></ele><time>2023-1-21T11:44:52Z</time></trkpt>
<trkpt lat="48.432423" lon="2.68346"><ele></ele><time>2023-1-21T11:44:55Z</time></trkpt>
<trkpt lat="48.432386" lon="2.683621"><ele></ele><time>2023-1-21T11:44:58Z</time></trkpt>
<trkpt lat="48.432288" lon="2.683717"><ele></ele><time>2023-1-21T11:45:1Z</time></trkpt>
<trkpt lat="48.432207" lon="2.683804"><ele></ele><time>2023-1-21T11:45:4Z</time></trkpt>
<trkpt lat="48.432166" lon="2.683926"><ele></ele><time>2023-1-21T11:45:7Z</time></trkpt>
<trkpt lat="48.432066" lon="2.684001"><ele></ele><time>2023-1-21T11:45:10Z</time></trkpt>
<trkpt lat="48.431977" lon="2.684037"><ele></ele><time>2023-1-21T11:45:13Z</time></trkpt>
<trkpt lat="48.431904" lon="2.684124"><ele></ele><time>2023-1-21T11:45:16Z</time></trkpt>
<trkpt lat="48.431823" lon="2.684214"><ele></ele><time>2023-1-21T11:45:19Z</time></trkpt>
<trkpt lat="48.431767" lon="2.68434"><ele></ele><time>2023-1-21T11:45:22Z</time></trkpt>
<trkpt lat="48.431758" lon="2.684486"><ele></ele><time>2023-1-21T11:45:25Z</time></trkpt>
<trkpt lat="48.431755" lon="2.684636"><ele></ele><time>2023-1-21T11:45:28Z</time></trkpt>
<trkpt lat="48.431694" lon="2.684745"><ele></ele><time>2023-1-21T11:45:31Z</time></trkpt>
<trkpt lat="48.431653" lon="2.684885"><ele></ele><time>2023-1-21T11:45:34Z</time></trkpt>
<trkpt lat="48.43162" lon="2.685045"><ele></ele><time>2023-1-21T11:45:37Z</time></trkpt>
<trkpt lat="48.431588" lon="2.68518"><ele></ele><time>2023-1-21T11:45:40Z</time></trkpt>
<trkpt lat="48.431557" lon="2.68534"><ele></ele><time>2023-1-21T11:45:43Z</time></trkpt>
<trkpt lat="48.431525" lon="2.685484"><ele></ele><time>2023-1-21T11:45:46Z</time></trkpt>
<trkpt lat="48.431456" lon="2.685618"><ele></ele><time>2023-1-21T11:45:49Z</time></trkpt>
<trkpt lat="48.431416" lon="2.685754"><ele></ele><time>2023-1-21T11:45:52Z</time></trkpt>
<trkpt lat="48.431328" lon="2.685834"><ele></ele><time>2023-1-21T11:45:55Z</time></trkpt>
<trkpt lat="48.431235" lon="2.68589"><ele></ele><time>2023-1-21T11:45:58Z</time></trkpt>
<trkpt lat="48.431159" lon="2.686009"><ele></ele><time>2023-1-21T11:46:1Z</time></trkpt>
<trkpt lat="48.431129" lon="2.686174"><ele></ele><time>2023-1-21T11:46:4Z</time></trkpt>
<trkpt lat="48.43109" lon="2.686324"><ele></ele><time>2023-1-21T11:46:7Z</time></trkpt>
<trkpt lat="48.43104" lon="2.686462"><ele></ele><time>2023-1-21T11:46:10Z</time></trkpt>
<trkpt lat="48.430959" lon="2.686579"><ele></ele><time>2023-1-21T11:46:13Z</time></trkpt>
<trkpt lat="48.430908" lon="2.686716"><ele></ele><time>2023-1-21T11:46:16Z</time></trkpt>
<trkpt lat="48.430911" lon="2.686879"><ele></ele><time>2023-1-21T11:46:19Z</time></trkpt>
<trkpt lat="48.430924" lon="2.687039"><ele></ele><time>2023-1-21T11:46:22Z</time></trkpt>
<trkpt lat="48.43091" lon="2.687191"><ele></ele><time>2023-1-21T11:46:25Z</time></trkpt>
<trkpt lat="48.430905" lon="2.687365"><ele></ele><time>2023-1-21T11:46:28Z</time></trkpt>
<trkpt lat="48.430908" lon="2.687528"><ele></ele><time>2023-1-21T11:46:31Z</time></trkpt>
<trkpt lat="48.430917" lon="2.687664"><ele></ele><time>2023-1-21T11:46:34Z</time></trkpt>
<trkpt lat="48.430951" lon="2.687823"><ele></ele><time>2023-1-21T11:46:37Z</time></trkpt>
<trkpt lat="48.430999" lon="2.687977"><ele></ele><time>2023-1-21T11:46:40Z</time></trkpt>
<trkpt lat="48.431085" lon="2.688073"><ele></ele><time>2023-1-21T11:46:43Z</time></trkpt>
<trkpt lat="48.431161" lon="2.688188"><ele></ele><time>2023-1-21T11:46:46Z</time></trkpt>
<trkpt lat="48.431195" lon="2.688324"><ele></ele><time>2023-1-21T11:46:49Z</time></trkpt>
<trkpt lat="48.431264" lon="2.688434"><ele></ele><time>2023-1-21T11:46:52Z</time></trkpt>
<trkpt lat="48.431283" lon="2.688581"><ele></ele><time>2023-1-21T11:46:55Z</time></trkpt>
<trkpt lat="48.431273" lon="2.688754"><ele></ele><time>2023-1-21T11:46:58Z</time></trkpt>
<trkpt lat="48.43128" lon="2.688917"><ele></ele><time>2023-1-21T11:47:1Z</time></trkpt>
<trkpt lat="48.431294" lon="2.689059"><ele></ele><time>2023-1-21T11:47:4Z</time></trkpt>
<trkpt lat="48.431309" lon="2.68921"><ele></ele><time>2023-1-21T11:47:7Z</time></trkpt>
<trkpt lat="48.431334" lon="2.689378"><ele></ele><time>2023-1-21T11:47:10Z</time></trkpt>
<trkpt lat="48.43135" lon="2.689542"><ele></ele><time>2023-1-21T11:47:13Z</time></trkpt>
<trkpt lat="48.431357" lon="2.689703"><ele></ele><time>2023-1-21T11:47:16Z</time></trkpt>
<trkpt lat="48.431342" lon="2.689863"><ele></ele><time>2023-1-21T11:47:19Z</time></trkpt>
<trkpt lat="48.431333" lon="2.690007"><ele></ele><time>2023-1-21T11:47:22Z</time></trkpt>
<trkpt lat="48.43136" lon="2.690157"><ele></ele><time>2023-1-21T11:47:25Z</time></trkpt>
<trkpt lat="48.431382" lon="2.690318"><ele></ele><time>2023-1-21T11:47:28Z</time></trkpt>
<trkpt lat="48.431413" lon="2.690472"><ele></ele><time>2023-1-21T11:47:31Z</time></trkpt>
<trkpt lat="48.431448" lon="2.690631"><ele></ele><time>2023-1-21T11:47:34Z</time></trkpt>
<trkpt lat="48.431503" lon="2.690786"><ele></ele><time>2023-1-21T11:47:37Z</time></trkpt>
<trkpt lat="48.431554" lon="2.690948"><ele></ele><time>2023-1-21T11:47:40Z</time></trkpt>
<trkpt lat="48.431594" lon="2.691078"><ele></ele><time>2023-1-21T11:47:43Z</time></trkpt>
<trkpt lat="48.431637" lon="2.691198"><ele></ele><time>2023-1-21T11:47:46Z</time></trkpt>
<trkpt lat="48.431698" lon="2.691333"><ele></ele><time>2023-1-21T11:47:49Z</time></trkpt>
<trkpt lat="48.431763" lon="2.691453"><ele></ele><time>2023-1-21T11:47:52Z</time></trkpt>
<trkpt lat="48.431824" lon="2.691587"><ele></ele><time>2023-1-21T11:47:55Z</time></trkpt>
<trkpt lat="48.431903" lon="2.691729"><ele></ele><time>2023-1-21T11:47:58Z</time></trkpt>
<trkpt lat="48.431963" lon="2.691851"><ele></ele><time>2023-1-21T11:48:1Z</time></trkpt>
<trkpt lat="48.432045" lon="2.692"><ele></ele><time>2023-1-21T11:48:4Z</time></trkpt>
<trkpt lat="48.432139" lon="2.692131"><ele></ele><time>2023-1-21T11:48:7Z</time></trkpt>
<trkpt lat="48.432235" lon="2.692273"><ele></ele><time>2023-1-21T11:48:10Z</time></trkpt>
<trkpt lat="48.432311" lon="2.692366"><ele></ele><time>2023-1-21T11:48:13Z</time></trkpt>
<trkpt lat="48.432368" lon="2.692477"><ele></ele><time>2023-1-21T11:48:16Z</time></trkpt>
<trkpt lat="48.432453" lon="2.692634"><ele></ele><time>2023-1-21T11:48:19Z</time></trkpt>
<trkpt lat="48.432515" lon="2.692758"><ele></ele><time>2023-1-21T11:48:22Z</time></trkpt>
<trkpt lat="48.432567" lon="2.692871"><ele></ele><time>2023-1-21T11:48:25Z</time></trkpt>
<trkpt lat="48.432634" lon="2.693007"><ele></ele><time>2023-1-21T11:48:28Z</time></trkpt>
<trkpt lat="48.432704" lon="2.693157"><ele></ele><time>2023-1-21T11:48:31Z</time></trkpt>
<trkpt lat="48.43278" lon="2.693297"><ele></ele><time>2023-1-21T11:48:34Z</time></trkpt>
<trkpt lat="48.432861" lon="2.693425"><ele></ele><time>2023-1-21T11:48:37Z</time></trkpt>
<trkpt lat="48.432948" lon="2.69356"><ele></ele><time>2023-1-21T11:48:40Z</time></trkpt>
<trkpt lat="48.433" lon="2.693687"><ele></ele><time>2023-1-21T11:48:43Z</time></trkpt>
<trkpt lat="48.433063" lon="2.693813"><ele></ele><time>2023-1-21T11:48:46Z</time></trkpt>
<trkpt lat="48.433134" lon="2.69393"><ele></ele><time>2023-1-21T11:48:49Z</time></trkpt>
<trkpt lat="48.433215" lon="2.694047"><ele></ele><time>2023-1-21T11:48:52Z</time></trkpt>
<trkpt lat="48.433299" lon="2.694164"><ele></ele><time>2023-1-21T11:48:55Z</time></trkpt>
<trkpt lat="48.433362" lon="2.694261"><ele></ele><time>2023-1-21T11:48:58Z</time></trkpt>
<trkpt lat="48.433455" lon="2.694387"><ele></ele><time>2023-1-21T11:49:1Z</time></trkpt>
<trkpt lat="48.433525" lon="2.694487"><ele></ele><time>2023-1-21T11:49:4Z</time></trkpt>
<trkpt lat="48.433589" lon="2.694614"><ele></ele><time>2023-1-21T11:49:7Z</time></trkpt>
<trkpt lat="48.433658" lon="2.69474"><ele></ele><time>2023-1-21T11:49:10Z</time></trkpt>
<trkpt lat="48.433736" lon="2.694859"><ele></ele><time>2023-1-21T11:49:13Z</time></trkpt>
<trkpt lat="48.433813" lon="2.694991"><ele></ele><time>2023-1-21T11:49:16Z</time></trkpt>
<trkpt lat="48.43389" lon="2.695131"><ele></ele><time>2023-1-21T11:49:19Z</time></trkpt>
<trkpt lat="48.433962" lon="2.69526"><ele></ele><time>2023-1-21T11:49:22Z</time></trkpt>
<trkpt lat="48.43403" lon="2.695393"><ele></ele><time>2023-1-21T11:49:25Z</time></trkpt>
<trkpt lat="48.43409" lon="2.695505"><ele></ele><time>2023-1-21T11:49:28Z</time></trkpt>
<trkpt lat="48.434158" lon="2.695617"><ele></ele><time>2023-1-21T11:49:31Z</time></trkpt>
<trkpt lat="48.434221" lon="2.695749"><ele></ele><time>2023-1-21T11:49:34Z</time></trkpt>
<trkpt lat="48.434279" lon="2.695876"><ele></ele><time>2023-1-21T11:49:37Z</time></trkpt>
<trkpt lat="48.434364" lon="2.695984"><ele></ele><time>2023-1-21T11:49:40Z</time></trkpt>
<trkpt lat="48.434432" lon="2.696091"><ele></ele><time>2023-1-21T11:49:43Z</time></trkpt>
<trkpt lat="48.434406" lon="2.696229"><ele></ele><time>2023-1-21T11:49:46Z</time></trkpt>
<trkpt lat="48.434482" lon="2.696354"><ele></ele><time>2023-1-21T11:49:49Z</time></trkpt>
<trkpt lat="48.434572" lon="2.696435"><ele></ele><time>2023-1-21T11:49:52Z</time></trkpt>
<trkpt lat="48.434666" lon="2.696489"><ele></ele><time>2023-1-21T11:49:55Z</time></trkpt>
<trkpt lat="48.434753" lon="2.696527"><ele></ele><time>2023-1-21T11:49:58Z</time></trkpt>
<trkpt lat="48.434851" lon="2.696564"><ele></ele><time>2023-1-21T11:50:1Z</time></trkpt>
<trkpt lat="48.434958" lon="2.696616"><ele></ele><time>2023-1-21T11:50:4Z</time></trkpt>
<trkpt lat="48.435052" lon="2.696656"><ele></ele><time>2023-1-21T11:50:7Z</time></trkpt>
<trkpt lat="48.435144" lon="2.69669"><ele></ele><time>2023-1-21T11:50:10Z</time></trkpt>
<trkpt lat="48.43525" lon="2.696741"><ele></ele><time>2023-1-21T11:50:13Z</time></trkpt>
<trkpt lat="48.43536" lon="2.696792"><ele></ele><time>2023-1-21T11:50:16Z</time></trkpt>
<trkpt lat="48.435476" lon="2.696839"><ele></ele><time>2023-1-21T11:50:19Z</time></trkpt>
<trkpt lat="48.435585" lon="2.696899"><ele></ele><time>2023-1-21T11:50:22Z</time></trkpt>
<trkpt lat="48.43569" lon="2.696931"><ele></ele><time>2023-1-21T11:50:25Z</time></trkpt>
<trkpt lat="48.4358" lon="2.696986"><ele></ele><time>2023-1-21T11:50:28Z</time></trkpt>
<trkpt lat="48.435884" lon="2.697037"><ele></ele><time>2023-1-21T11:50:31Z</time></trkpt>
<trkpt lat="48.435981" lon="2.697069"><ele></ele><time>2023-1-21T11:50:34Z</time></trkpt>
<trkpt lat="48.436078" lon="2.697139"><ele></ele><time>2023-1-21T11:50:37Z</time></trkpt>
<trkpt lat="48.436167" lon="2.697205"><ele></ele><time>2023-1-21T11:50:40Z</time></trkpt>
<trkpt lat="48.436253" lon="2.697263"><ele></ele><time>2023-1-21T11:50:43Z</time></trkpt>
<trkpt lat="48.436346" lon="2.697274"><ele></ele><time>2023-1-21T11:50:46Z</time></trkpt>
<trkpt lat="48.436442" lon="2.697336"><ele></ele><time>2023-1-21T11:50:49Z</time></trkpt>
<trkpt lat="48.436549" lon="2.697353"><ele></ele><time>2023-1-21T11:50:52Z</time></trkpt>
<trkpt lat="48.436651" lon="2.697378"><ele></ele><time>2023-1-21T11:50:55Z</time></trkpt>
<trkpt lat="48.436744" lon="2.697407"><ele></ele><time>2023-1-21T11:50:58Z</time></trkpt>
<trkpt lat="48.43683" lon="2.697471"><ele></ele><time>2023-1-21T11:51:1Z</time></trkpt>
<trkpt lat="48.43692" lon="2.697479"><ele></ele><time>2023-1-21T11:51:4Z</time></trkpt>
<trkpt lat="48.437019" lon="2.697519"><ele></ele><time>2023-1-21T11:51:7Z</time></trkpt>
<trkpt lat="48.437115" lon="2.697559"><ele></ele><time>2023-1-21T11:51:10Z</time></trkpt>
<trkpt lat="48.437213" lon="2.697612"><ele></ele><time>2023-1-21T11:51:13Z</time></trkpt>
<trkpt lat="48.437312" lon="2.69767"><ele></ele><time>2023-1-21T11:51:16Z</time></trkpt>
<trkpt lat="48.437413" lon="2.697685"><ele></ele><time>2023-1-21T11:51:19Z</time></trkpt>
<trkpt lat="48.437491" lon="2.697756"><ele></ele><time>2023-1-21T11:51:22Z</time></trkpt>
<trkpt lat="48.437576" lon="2.697832"><ele></ele><time>2023-1-21T11:51:25Z</time></trkpt>
<trkpt lat="48.437633" lon="2.69795"><ele></ele><time>2023-1-21T11:51:28Z</time></trkpt>
<trkpt lat="48.43771" lon="2.698024"><ele></ele><time>2023-1-21T11:51:31Z</time></trkpt>
<trkpt lat="48.437797" lon="2.698069"><ele></ele><time>2023-1-21T11:51:34Z</time></trkpt>
<trkpt lat="48.437879" lon="2.698155"><ele></ele><time>2023-1-21T11:51:37Z</time></trkpt>
<trkpt lat="48.437974" lon="2.698187"><ele></ele><time>2023-1-21T11:51:40Z</time></trkpt>
<trkpt lat="48.438065" lon="2.698211"><ele></ele><time>2023-1-21T11:51:43Z</time></trkpt>
<trkpt lat="48.438163" lon="2.698182"><ele></ele><time>2023-1-21T11:51:46Z</time></trkpt>
<trkpt lat="48.438251" lon="2.698088"><ele></ele><time>2023-1-21T11:51:49Z</time></trkpt>
<trkpt lat="48.438337" lon="2.697995"><ele></ele><time>2023-1-21T11:51:52Z</time></trkpt>
<trkpt lat="48.438419" lon="2.697937"><ele></ele><time>2023-1-21T11:51:55Z</time></trkpt>
<trkpt lat="48.438514" lon="2.697843"><ele></ele><time>2023-1-21T11:51:58Z</time></trkpt>
<trkpt lat="48.43859" lon="2.697728"><ele></ele><time>2023-1-21T11:52:1Z</time></trkpt>
<trkpt lat="48.438673" lon="2.697602"><ele></ele><time>2023-1-21T11:52:4Z</time></trkpt>
<trkpt lat="48.438792" lon="2.697606"><ele></ele><time>2023-1-21T11:52:7Z</time></trkpt>
<trkpt lat="48.438888" lon="2.697617"><ele></ele><time>2023-1-21T11:52:10Z</time></trkpt>
<trkpt lat="48.438982" lon="2.697639"><ele></ele><time>2023-1-21T11:52:13Z</time></trkpt>
<trkpt lat="48.439074" lon="2.697659"><ele></ele><time>2023-1-21T11:52:16Z</time></trkpt>
<trkpt lat="48.439199" lon="2.697666"><ele></ele><time>2023-1-21T11:52:19Z</time></trkpt>
<trkpt lat="48.439316" lon="2.697678"><ele></ele><time>2023-1-21T11:52:22Z</time></trkpt>
<trkpt lat="48.439409" lon="2.697662"><ele></ele><time>2023-1-21T11:52:25Z</time></trkpt>
<trkpt lat="48.439502" lon="2.697656"><ele></ele><time>2023-1-21T11:52:28Z</time></trkpt>
<trkpt lat="48.439598" lon="2.697676"><ele></ele><time>2023-1-21T11:52:31Z</time></trkpt>
<trkpt lat="48.439727" lon="2.697674"><ele></ele><time>2023-1-21T11:52:34Z</time></trkpt>
<trkpt lat="48.439873" lon="2.697701"><ele></ele><time>2023-1-21T11:52:37Z</time></trkpt>
<trkpt lat="48.440005" lon="2.697724"><ele></ele><time>2023-1-21T11:52:40Z</time></trkpt>
<trkpt lat="48.440125" lon="2.697757"><ele></ele><time>2023-1-21T11:52:43Z</time></trkpt>
<trkpt lat="48.440217" lon="2.6978"><ele></ele><time>2023-1-21T11:52:46Z</time></trkpt>
<trkpt lat="48.440337" lon="2.697863"><ele></ele><time>2023-1-21T11:52:49Z</time></trkpt>
<trkpt lat="48.440458" lon="2.697933"><ele></ele><time>2023-1-21T11:52:52Z</time></trkpt>
<trkpt lat="48.440462" lon="2.69808"><ele></ele><time>2023-1-21T11:52:55Z</time></trkpt>
<trkpt lat="48.440412" lon="2.698213"><ele></ele><time>2023-1-21T11:52:58Z</time></trkpt>
<trkpt lat="48.440394" lon="2.698353"><ele></ele><time>2023-1-21T11:53:1Z</time></trkpt>
<trkpt lat="48.440359" lon="2.69849"><ele></ele><time>2023-1-21T11:53:4Z</time></trkpt>
<trkpt lat="48.440404" lon="2.698631"><ele></ele><time>2023-1-21T11:53:7Z</time></trkpt>
<trkpt lat="48.440407" lon="2.698791"><ele></ele><time>2023-1-21T11:53:10Z</time></trkpt>
<trkpt lat="48.440419" lon="2.698956"><ele></ele><time>2023-1-21T11:53:13Z</time></trkpt>
<trkpt lat="48.44043" lon="2.699104"><ele></ele><time>2023-1-21T11:53:16Z</time></trkpt>
<trkpt lat="48.440418" lon="2.699256"><ele></ele><time>2023-1-21T11:53:19Z</time></trkpt>
<trkpt lat="48.440378" lon="2.699397"><ele></ele><time>2023-1-21T11:53:22Z</time></trkpt>
<trkpt lat="48.440385" lon="2.699551"><ele></ele><time>2023-1-21T11:53:25Z</time></trkpt>
<trkpt lat="48.440327" lon="2.699701"><ele></ele><time>2023-1-21T11:53:28Z</time></trkpt>
<trkpt lat="48.440289" lon="2.699826"><ele></ele><time>2023-1-21T11:53:31Z</time></trkpt>
<trkpt lat="48.440253" lon="2.699961"><ele></ele><time>2023-1-21T11:53:34Z</time></trkpt>
<trkpt lat="48.440309" lon="2.700113"><ele></ele><time>2023-1-21T11:53:37Z</time></trkpt>
<trkpt lat="48.440334" lon="2.700246"><ele></ele><time>2023-1-21T11:53:40Z</time></trkpt>
<trkpt lat="48.440358" lon="2.700407"><ele></ele><time>2023-1-21T11:53:43Z</time></trkpt>
<trkpt lat="48.440308" lon="2.700523"><ele></ele><time>2023-1-21T11:53:46Z</time></trkpt>
<trkpt lat="48.440244" lon="2.700671"><ele></ele><time>2023-1-21T11:53:49Z</time></trkpt>
<trkpt lat="48.440214" lon="2.700822"><ele></ele><time>2023-1-21T11:53:52Z</time></trkpt>
<trkpt lat="48.440175" lon="2.700953"><ele></ele><time>2023-1-21T11:53:55Z</time></trkpt>
<trkpt lat="48.440126" lon="2.701106"><ele></ele><time>2023-1-21T11:53:58Z</time></trkpt>
<trkpt lat="48.440079" lon="2.701223"><ele></ele><time>2023-1-21T11:54:1Z</time></trkpt>
<trkpt lat="48.440044" lon="2.701383"><ele></ele><time>2023-1-21T11:54:4Z</time></trkpt>
<trkpt lat="48.44005" lon="2.701524"><ele></ele><time>2023-1-21T11:54:7Z</time></trkpt>
<trkpt lat="48.440007" lon="2.701695"><ele></ele><time>2023-1-21T11:54:10Z</time></trkpt>
<trkpt lat="48.439942" lon="2.701841"><ele></ele><time>2023-1-21T11:54:13Z</time></trkpt>
<trkpt lat="48.439898" lon="2.701961"><ele></ele><time>2023-1-21T11:54:16Z</time></trkpt>
<trkpt lat="48.439898" lon="2.702109"><ele></ele><time>2023-1-21T11:54:19Z</time></trkpt>
<trkpt lat="48.439933" lon="2.702242"><ele></ele><time>2023-1-21T11:54:22Z</time></trkpt>
<trkpt lat="48.439976" lon="2.702361"><ele></ele><time>2023-1-21T11:54:25Z</time></trkpt>
<trkpt lat="48.439963" lon="2.7025"><ele></ele><time>2023-1-21T11:54:28Z</time></trkpt>
<trkpt lat="48.439927" lon="2.702665"><ele></ele><time>2023-1-21T11:54:31Z</time></trkpt>
<trkpt lat="48.439864" lon="2.7028"><ele></ele><time>2023-1-21T11:54:34Z</time></trkpt>
<trkpt lat="48.439778" lon="2.70289"><ele></ele><time>2023-1-21T11:54:37Z</time></trkpt>
<trkpt lat="48.439705" lon="2.702979"><ele></ele><time>2023-1-21T11:54:40Z</time></trkpt>
<trkpt lat="48.439617" lon="2.703028"><ele></ele><time>2023-1-21T11:54:43Z</time></trkpt>
<trkpt lat="48.439534" lon="2.703098"><ele></ele><time>2023-1-21T11:54:46Z</time></trkpt>
<trkpt lat="48.439445" lon="2.703173"><ele></ele><time>2023-1-21T11:54:49Z</time></trkpt>
<trkpt lat="48.439338" lon="2.703248"><ele></ele><time>2023-1-21T11:54:52Z</time></trkpt>
<trkpt lat="48.439281" lon="2.703357"><ele></ele><time>2023-1-21T11:54:55Z</time></trkpt>
<trkpt lat="48.439258" lon="2.703508"><ele></ele><time>2023-1-21T11:54:58Z</time></trkpt>
<trkpt lat="48.439278" lon="2.703654"><ele></ele><time>2023-1-21T11:55:1Z</time></trkpt>
<trkpt lat="48.43927" lon="2.703819"><ele></ele><time>2023-1-21T11:55:4Z</time></trkpt>
<trkpt lat="48.439267" lon="2.703956"><ele></ele><time>2023-1-21T11:55:7Z</time></trkpt>
<trkpt lat="48.439277" lon="2.704104"><ele></ele><time>2023-1-21T11:55:10Z</time></trkpt>
<trkpt lat="48.439315" lon="2.704244"><ele></ele><time>2023-1-21T11:55:13Z</time></trkpt>
<trkpt lat="48.43933" lon="2.704385"><ele></ele><time>2023-1-21T11:55:16Z</time></trkpt>
<trkpt lat="48.439332" lon="2.704533"><ele></ele><time>2023-1-21T11:55:19Z</time></trkpt>
<trkpt lat="48.439349" lon="2.704691"><ele></ele><time>2023-1-21T11:55:22Z</time></trkpt>
<trkpt lat="48.439385" lon="2.704857"><ele></ele><time>2023-1-21T11:55:25Z</time></trkpt>
<trkpt lat="48.439366" lon="2.705018"><ele></ele><time>2023-1-21T11:55:28Z</time></trkpt>
<trkpt lat="48.439349" lon="2.705181"><ele></ele><time>2023-1-21T11:55:31Z</time></trkpt>
<trkpt lat="48.439329" lon="2.705355"><ele></ele><time>2023-1-21T11:55:34Z</time></trkpt>
<trkpt lat="48.43928" lon="2.705487"><ele></ele><time>2023-1-21T11:55:37Z</time></trkpt>
<trkpt lat="48.439222" lon="2.705616"><ele></ele><time>2023-1-21T11:55:40Z</time></trkpt>
<trkpt lat="48.439179" lon="2.705761"><ele></ele><time>2023-1-21T11:55:43Z</time></trkpt>
<trkpt lat="48.439203" lon="2.705916"><ele></ele><time>2023-1-21T11:55:46Z</time></trkpt>
<trkpt lat="48.439231" lon="2.706053"><ele></ele><time>2023-1-21T11:55:49Z</time></trkpt>
<trkpt lat="48.439213" lon="2.706224"><ele></ele><time>2023-1-21T11:55:52Z</time></trkpt>
<trkpt lat="48.439168" lon="2.706352"><ele></ele><time>2023-1-21T11:55:55Z</time></trkpt>
<trkpt lat="48.439171" lon="2.706513"><ele></ele><time>2023-1-21T11:55:58Z</time></trkpt>
<trkpt lat="48.439143" lon="2.706677"><ele></ele><time>2023-1-21T11:56:1Z</time></trkpt>
<trkpt lat="48.439102" lon="2.706829"><ele></ele><time>2023-1-21T11:56:4Z</time></trkpt>
<trkpt lat="48.439078" lon="2.706961"><ele></ele><time>2023-1-21T11:56:7Z</time></trkpt>
<trkpt lat="48.439021" lon="2.707095"><ele></ele><time>2023-1-21T11:56:10Z</time></trkpt>
<trkpt lat="48.438967" lon="2.707211"><ele></ele><time>2023-1-21T11:56:13Z</time></trkpt>
<trkpt lat="48.438927" lon="2.70735"><ele></ele><time>2023-1-21T11:56:16Z</time></trkpt>
<trkpt lat="48.438942" lon="2.707505"><ele></ele><time>2023-1-21T11:56:19Z</time></trkpt>
<trkpt lat="48.438907" lon="2.707631"><ele></ele><time>2023-1-21T11:56:22Z</time></trkpt>
<trkpt lat="48.438901" lon="2.707768"><ele></ele><time>2023-1-21T11:56:25Z</time></trkpt>
<trkpt lat="48.438889" lon="2.707939"><ele></ele><time>2023-1-21T11:56:28Z</time></trkpt>
<trkpt lat="48.438869" lon="2.70809"><ele></ele><time>2023-1-21T11:56:31Z</time></trkpt>
<trkpt lat="48.438823" lon="2.708209"><ele></ele><time>2023-1-21T11:56:34Z</time></trkpt>
<trkpt lat="48.438783" lon="2.708358"><ele></ele><time>2023-1-21T11:56:37Z</time></trkpt>
<trkpt lat="48.43875" lon="2.708505"><ele></ele><time>2023-1-21T11:56:40Z</time></trkpt>
<trkpt lat="48.438718" lon="2.708648"><ele></ele><time>2023-1-21T11:56:43Z</time></trkpt>
<trkpt lat="48.438674" lon="2.708781"><ele></ele><time>2023-1-21T11:56:46Z</time></trkpt>
<trkpt lat="48.438617" lon="2.708921"><ele></ele><time>2023-1-21T11:56:49Z</time></trkpt>
<trkpt lat="48.438571" lon="2.709053"><ele></ele><time>2023-1-21T11:56:52Z</time></trkpt>
<trkpt lat="48.438545" lon="2.709225"><ele></ele><time>2023-1-21T11:56:55Z</time></trkpt>
<trkpt lat="48.438504" lon="2.709381"><ele></ele><time>2023-1-21T11:56:58Z</time></trkpt>
<trkpt lat="48.438487" lon="2.709539"><ele></ele><time>2023-1-21T11:57:1Z</time></trkpt>
<trkpt lat="48.438453" lon="2.709725"><ele></ele><time>2023-1-21T11:57:4Z</time></trkpt>
<trkpt lat="48.438426" lon="2.709887"><ele></ele><time>2023-1-21T11:57:7Z</time></trkpt>
<trkpt lat="48.438374" lon="2.710093"><ele></ele><time>2023-1-21T11:57:10Z</time></trkpt>
<trkpt lat="48.438342" lon="2.710266"><ele></ele><time>2023-1-21T11:57:13Z</time></trkpt>
<trkpt lat="48.438318" lon="2.710459"><ele></ele><time>2023-1-21T11:57:16Z</time></trkpt>
<trkpt lat="48.438315" lon="2.710648"><ele></ele><time>2023-1-21T11:57:19Z</time></trkpt>
<trkpt lat="48.438274" lon="2.710843"><ele></ele><time>2023-1-21T11:57:22Z</time></trkpt>
<trkpt lat="48.438243" lon="2.711028"><ele></ele><time>2023-1-21T11:57:25Z</time></trkpt>
<trkpt lat="48.438165" lon="2.711263"><ele></ele><time>2023-1-21T11:57:28Z</time></trkpt>
<trkpt lat="48.438099" lon="2.711498"><ele></ele><time>2023-1-21T11:57:31Z</time></trkpt>
<trkpt lat="48.438052" lon="2.711725"><ele></ele><time>2023-1-21T11:57:34Z</time></trkpt>
<trkpt lat="48.438018" lon="2.71196"><ele></ele><time>2023-1-21T11:57:37Z</time></trkpt>
<trkpt lat="48.43799" lon="2.712184"><ele></ele><time>2023-1-21T11:57:40Z</time></trkpt>
<trkpt lat="48.437954" lon="2.712389"><ele></ele><time>2023-1-21T11:57:43Z</time></trkpt>
<trkpt lat="48.437941" lon="2.712569"><ele></ele><time>2023-1-21T11:57:46Z</time></trkpt>
<trkpt lat="48.437935" lon="2.712732"><ele></ele><time>2023-1-21T11:57:49Z</time></trkpt>
<trkpt lat="48.437937" lon="2.712871"><ele></ele><time>2023-1-21T11:57:52Z</time></trkpt>
<trkpt lat="48.437888" lon="2.713103"><ele></ele><time>2023-1-21T11:57:55Z</time></trkpt>
<trkpt lat="48.437856" lon="2.713274"><ele></ele><time>2023-1-21T11:57:58Z</time></trkpt>
<trkpt lat="48.437826" lon="2.713433"><ele></ele><time>2023-1-21T11:58:1Z</time></trkpt>
<trkpt lat="48.437795" lon="2.713568"><ele></ele><time>2023-1-21T11:58:4Z</time></trkpt>
<trkpt lat="48.437772" lon="2.713746"><ele></ele><time>2023-1-21T11:58:7Z</time></trkpt>
<trkpt lat="48.437749" lon="2.713881"><ele></ele><time>2023-1-21T11:58:10Z</time></trkpt>
<trkpt lat="48.437714" lon="2.714084"><ele></ele><time>2023-1-21T11:58:13Z</time></trkpt>
<trkpt lat="48.437712" lon="2.714272"><ele></ele><time>2023-1-21T11:58:16Z</time></trkpt>
<trkpt lat="48.437698" lon="2.714443"><ele></ele><time>2023-1-21T11:58:19Z</time></trkpt>
<trkpt lat="48.437715" lon="2.714589"><ele></ele><time>2023-1-21T11:58:22Z</time></trkpt>
<trkpt lat="48.437708" lon="2.714771"><ele></ele><time>2023-1-21T11:58:25Z</time></trkpt>
<trkpt lat="48.43772" lon="2.714929"><ele></ele><time>2023-1-21T11:58:28Z</time></trkpt>
<trkpt lat="48.437714" lon="2.715081"><ele></ele><time>2023-1-21T11:58:31Z</time></trkpt>
<trkpt lat="48.437672" lon="2.715226"><ele></ele><time>2023-1-21T11:58:34Z</time></trkpt>
<trkpt lat="48.437655" lon="2.715399"><ele></ele><time>2023-1-21T11:58:37Z</time></trkpt>
<trkpt lat="48.437653" lon="2.71555"><ele></ele><time>2023-1-21T11:58:40Z</time></trkpt>
<trkpt lat="48.437614" lon="2.715727"><ele></ele><time>2023-1-21T11:58:43Z</time></trkpt>
<trkpt lat="48.437607" lon="2.715906"><ele></ele><time>2023-1-21T11:58:46Z</time></trkpt>
<trkpt lat="48.437574" lon="2.716087"><ele></ele><time>2023-1-21T11:58:49Z</time></trkpt>
<trkpt lat="48.437529" lon="2.716267"><ele></ele><time>2023-1-21T11:58:52Z</time></trkpt>
<trkpt lat="48.43749" lon="2.716447"><ele></ele><time>2023-1-21T11:58:55Z</time></trkpt>
<trkpt lat="48.437504" lon="2.716634"><ele></ele><time>2023-1-21T11:58:58Z</time></trkpt>
<trkpt lat="48.43748" lon="2.716786"><ele></ele><time>2023-1-21T11:59:1Z</time></trkpt>
<trkpt lat="48.437468" lon="2.716962"><ele></ele><time>2023-1-21T11:59:4Z</time></trkpt>
<trkpt lat="48.437458" lon="2.717149"><ele></ele><time>2023-1-21T11:59:7Z</time></trkpt>
<trkpt lat="48.437426" lon="2.717323"><ele></ele><time>2023-1-21T11:59:10Z</time></trkpt>
<trkpt lat="48.437403" lon="2.717493"><ele></ele><time>2023-1-21T11:59:13Z</time></trkpt>
<trkpt lat="48.437394" lon="2.717656"><ele></ele><time>2023-1-21T11:59:16Z</time></trkpt>
<trkpt lat="48.437364" lon="2.717825"><ele></ele><time>2023-1-21T11:59:19Z</time></trkpt>
<trkpt lat="48.437332" lon="2.717999"><ele></ele><time>2023-1-21T11:59:22Z</time></trkpt>
<trkpt lat="48.437293" lon="2.718139"><ele></ele><time>2023-1-21T11:59:25Z</time></trkpt>
<trkpt lat="48.437283" lon="2.718324"><ele></ele><time>2023-1-21T11:59:28Z</time></trkpt>
<trkpt lat="48.437257" lon="2.718478"><ele></ele><time>2023-1-21T11:59:31Z</time></trkpt>
<trkpt lat="48.437222" lon="2.718645"><ele></ele><time>2023-1-21T11:59:34Z</time></trkpt>
<trkpt lat="48.437137" lon="2.718729"><ele></ele><time>2023-1-21T11:59:37Z</time></trkpt>
<trkpt lat="48.437034" lon="2.7187"><ele></ele><time>2023-1-21T11:59:40Z</time></trkpt>
<trkpt lat="48.43694" lon="2.718669"><ele></ele><time>2023-1-21T11:59:43Z</time></trkpt>
<trkpt lat="48.436849" lon="2.718634"><ele></ele><time>2023-1-21T11:59:46Z</time></trkpt>
<trkpt lat="48.436754" lon="2.718578"><ele></ele><time>2023-1-21T11:59:49Z</time></trkpt>
<trkpt lat="48.436659" lon="2.718539"><ele></ele><time>2023-1-21T11:59:52Z</time></trkpt>
<trkpt lat="48.436571" lon="2.718488"><ele></ele><time>2023-1-21T11:59:55Z</time></trkpt>
<trkpt lat="48.436472" lon="2.718429"><ele></ele><time>2023-1-21T11:59:58Z</time></trkpt>
<trkpt lat="48.436379" lon="2.718386"><ele></ele><time>2023-1-21T12:0:1Z</time></trkpt>
<trkpt lat="48.436271" lon="2.71835"><ele></ele><time>2023-1-21T12:0:4Z</time></trkpt>
<trkpt lat="48.436159" lon="2.7183"><ele></ele><time>2023-1-21T12:0:7Z</time></trkpt>
<trkpt lat="48.436053" lon="2.718246"><ele></ele><time>2023-1-21T12:0:10Z</time></trkpt>
<trkpt lat="48.435961" lon="2.718208"><ele></ele><time>2023-1-21T12:0:13Z</time></trkpt>
<trkpt lat="48.435865" lon="2.718165"><ele></ele><time>2023-1-21T12:0:16Z</time></trkpt>
<trkpt lat="48.43578" lon="2.718123"><ele></ele><time>2023-1-21T12:0:19Z</time></trkpt>
<trkpt lat="48.435673" lon="2.718081"><ele></ele><time>2023-1-21T12:0:22Z</time></trkpt>
<trkpt lat="48.435586" lon="2.718035"><ele></ele><time>2023-1-21T12:0:25Z</time></trkpt>
<trkpt lat="48.435479" lon="2.717986"><ele></ele><time>2023-1-21T12:0:28Z</time></trkpt>
<trkpt lat="48.435387" lon="2.717948"><ele></ele><time>2023-1-21T12:0:31Z</time></trkpt>
<trkpt lat="48.435295" lon="2.717906"><ele></ele><time>2023-1-21T12:0:34Z</time></trkpt>
<trkpt lat="48.435208" lon="2.717855"><ele></ele><time>2023-1-21T12:0:37Z</time></trkpt>
<trkpt lat="48.435109" lon="2.717824"><ele></ele><time>2023-1-21T12:0:40Z</time></trkpt>
<trkpt lat="48.435006" lon="2.717799"><ele></ele><time>2023-1-21T12:0:43Z</time></trkpt>
<trkpt lat="48.43491" lon="2.717735"><ele></ele><time>2023-1-21T12:0:46Z</time></trkpt>
<trkpt lat="48.434814" lon="2.717692"><ele></ele><time>2023-1-21T12:0:49Z</time></trkpt>
<trkpt lat="48.434727" lon="2.717654"><ele></ele><time>2023-1-21T12:0:52Z</time></trkpt>
<trkpt lat="48.434637" lon="2.717619"><ele></ele><time>2023-1-21T12:0:55Z</time></trkpt>
<trkpt lat="48.434546" lon="2.717578"><ele></ele><time>2023-1-21T12:0:58Z</time></trkpt>
<trkpt lat="48.434462" lon="2.717492"><ele></ele><time>2023-1-21T12:1:1Z</time></trkpt>
<trkpt lat="48.434358" lon="2.717448"><ele></ele><time>2023-1-21T12:1:4Z</time></trkpt>
<trkpt lat="48.434236" lon="2.717393"><ele></ele><time>2023-1-21T12:1:7Z</time></trkpt>
<trkpt lat="48.43415" lon="2.717351"><ele></ele><time>2023-1-21T12:1:10Z</time></trkpt>
<trkpt lat="48.434038" lon="2.717281"><ele></ele><time>2023-1-21T12:1:13Z</time></trkpt>
<trkpt lat="48.433931" lon="2.717213"><ele></ele><time>2023-1-21T12:1:16Z</time></trkpt>
<trkpt lat="48.433875" lon="2.717089"><ele></ele><time>2023-1-21T12:1:19Z</time></trkpt>
<trkpt lat="48.433898" lon="2.716911"><ele></ele><time>2023-1-21T12:1:22Z</time></trkpt>
<trkpt lat="48.433903" lon="2.716761"><ele></ele><time>2023-1-21T12:1:25Z</time></trkpt>
<trkpt lat="48.433912" lon="2.716603"><ele></ele><time>2023-1-21T12:1:28Z</time></trkpt>
<trkpt lat="48.433925" lon="2.716428"><ele></ele><time>2023-1-21T12:1:31Z</time></trkpt>
<trkpt lat="48.433943" lon="2.71628"><ele></ele><time>2023-1-21T12:1:34Z</time></trkpt>
<trkpt lat="48.433963" lon="2.716132"><ele></ele><time>2023-1-21T12:1:37Z</time></trkpt>
<trkpt lat="48.433963" lon="2.715966"><ele></ele><time>2023-1-21T12:1:40Z</time></trkpt>
<trkpt lat="48.433969" lon="2.715824"><ele></ele><time>2023-1-21T12:1:43Z</time></trkpt>
<trkpt lat="48.433988" lon="2.715647"><ele></ele><time>2023-1-21T12:1:46Z</time></trkpt>
<trkpt lat="48.434012" lon="2.715493"><ele></ele><time>2023-1-21T12:1:49Z</time></trkpt>
<trkpt lat="48.434037" lon="2.715326"><ele></ele><time>2023-1-21T12:1:52Z</time></trkpt>
<trkpt lat="48.43406" lon="2.715168"><ele></ele><time>2023-1-21T12:1:55Z</time></trkpt>
<trkpt lat="48.43409" lon="2.715012"><ele></ele><time>2023-1-21T12:1:58Z</time></trkpt>
<trkpt lat="48.434112" lon="2.714869"><ele></ele><time>2023-1-21T12:2:1Z</time></trkpt>
<trkpt lat="48.434128" lon="2.714701"><ele></ele><time>2023-1-21T12:2:4Z</time></trkpt>
<trkpt lat="48.434162" lon="2.714564"><ele></ele><time>2023-1-21T12:2:7Z</time></trkpt>
<trkpt lat="48.434166" lon="2.714402"><ele></ele><time>2023-1-21T12:2:10Z</time></trkpt>
<trkpt lat="48.434168" lon="2.714256"><ele></ele><time>2023-1-21T12:2:13Z</time></trkpt>
<trkpt lat="48.434192" lon="2.714124"><ele></ele><time>2023-1-21T12:2:16Z</time></trkpt>
<trkpt lat="48.434183" lon="2.713988"><ele></ele><time>2023-1-21T12:2:19Z</time></trkpt>
<trkpt lat="48.434206" lon="2.713847"><ele></ele><time>2023-1-21T12:2:22Z</time></trkpt>
<trkpt lat="48.434225" lon="2.713706"><ele></ele><time>2023-1-21T12:2:25Z</time></trkpt>
<trkpt lat="48.434233" lon="2.71356"><ele></ele><time>2023-1-21T12:2:28Z</time></trkpt>
<trkpt lat="48.43427" lon="2.71342"><ele></ele><time>2023-1-21T12:2:31Z</time></trkpt>
<trkpt lat="48.434314" lon="2.713293"><ele></ele><time>2023-1-21T12:2:34Z</time></trkpt>
<trkpt lat="48.43435" lon="2.713163"><ele></ele><time>2023-1-21T12:2:37Z</time></trkpt>
<trkpt lat="48.434376" lon="2.713015"><ele></ele><time>2023-1-21T12:2:40Z</time></trkpt>
<trkpt lat="48.434377" lon="2.712868"><ele></ele><time>2023-1-21T12:2:43Z</time></trkpt>
<trkpt lat="48.434405" lon="2.712726"><ele></ele><time>2023-1-21T12:2:46Z</time></trkpt>
<trkpt lat="48.434416" lon="2.712567"><ele></ele><time>2023-1-21T12:2:49Z</time></trkpt>
<trkpt lat="48.434429" lon="2.712423"><ele></ele><time>2023-1-21T12:2:52Z</time></trkpt>
<trkpt lat="48.434461" lon="2.712263"><ele></ele><time>2023-1-21T12:2:55Z</time></trkpt>
<trkpt lat="48.434476" lon="2.712096"><ele></ele><time>2023-1-21T12:2:58Z</time></trkpt>
<trkpt lat="48.434517" lon="2.711916"><ele></ele><time>2023-1-21T12:3:1Z</time></trkpt>
<trkpt lat="48.43456" lon="2.711735"><ele></ele><time>2023-1-21T12:3:4Z</time></trkpt>
<trkpt lat="48.434603" lon="2.711579"><ele></ele><time>2023-1-21T12:3:7Z</time></trkpt>
<trkpt lat="48.434607" lon="2.711415"><ele></ele><time>2023-1-21T12:3:10Z</time></trkpt>
<trkpt lat="48.434632" lon="2.711282"><ele></ele><time>2023-1-21T12:3:13Z</time></trkpt>
<trkpt lat="48.43465" lon="2.711208"><ele></ele><time>2023-1-21T12:3:16Z</time></trkpt>
<trkpt lat="48.434651" lon="2.711199"><ele></ele><time>2023-1-21T12:3:19Z</time></trkpt>
<trkpt lat="48.434652" lon="2.711064"><ele></ele><time>2023-1-21T12:3:22Z</time></trkpt>
<trkpt lat="48.434672" lon="2.710919"><ele></ele><time>2023-1-21T12:3:25Z</time></trkpt>
<trkpt lat="48.434705" lon="2.710784"><ele></ele><time>2023-1-21T12:3:28Z</time></trkpt>
<trkpt lat="48.43474" lon="2.710644"><ele></ele><time>2023-1-21T12:3:31Z</time></trkpt>
<trkpt lat="48.434778" lon="2.710516"><ele></ele><time>2023-1-21T12:3:34Z</time></trkpt>
<trkpt lat="48.434882" lon="2.710541"><ele></ele><time>2023-1-21T12:3:37Z</time></trkpt>
<trkpt lat="48.434952" lon="2.710631"><ele></ele><time>2023-1-21T12:3:40Z</time></trkpt>
<trkpt lat="48.435036" lon="2.710746"><ele></ele><time>2023-1-21T12:3:43Z</time></trkpt>
<trkpt lat="48.435127" lon="2.710788"><ele></ele><time>2023-1-21T12:3:46Z</time></trkpt>
<trkpt lat="48.43522" lon="2.710795"><ele></ele><time>2023-1-21T12:3:49Z</time></trkpt>
<trkpt lat="48.435313" lon="2.710754"><ele></ele><time>2023-1-21T12:3:52Z</time></trkpt>
<trkpt lat="48.435416" lon="2.710728"><ele></ele><time>2023-1-21T12:3:55Z</time></trkpt>
<trkpt lat="48.435508" lon="2.710694"><ele></ele><time>2023-1-21T12:3:58Z</time></trkpt>
<trkpt lat="48.435586" lon="2.710623"><ele></ele><time>2023-1-21T12:4:1Z</time></trkpt>
<trkpt lat="48.435667" lon="2.710562"><ele></ele><time>2023-1-21T12:4:4Z</time></trkpt>
<trkpt lat="48.435765" lon="2.710504"><ele></ele><time>2023-1-21T12:4:7Z</time></trkpt>
<trkpt lat="48.435845" lon="2.710408"><ele></ele><time>2023-1-21T12:4:10Z</time></trkpt>
<trkpt lat="48.435924" lon="2.710301"><ele></ele><time>2023-1-21T12:4:13Z</time></trkpt>
<trkpt lat="48.435992" lon="2.7102"><ele></ele><time>2023-1-21T12:4:16Z</time></trkpt>
<trkpt lat="48.436044" lon="2.710078"><ele></ele><time>2023-1-21T12:4:19Z</time></trkpt>
<trkpt lat="48.436098" lon="2.709962"><ele></ele><time>2023-1-21T12:4:22Z</time></trkpt>
<trkpt lat="48.436161" lon="2.70984"><ele></ele><time>2023-1-21T12:4:25Z</time></trkpt>
<trkpt lat="48.436216" lon="2.709704"><ele></ele><time>2023-1-21T12:4:28Z</time></trkpt>
<trkpt lat="48.436273" lon="2.709578"><ele></ele><time>2023-1-21T12:4:31Z</time></trkpt>
<trkpt lat="48.436344" lon="2.709477"><ele></ele><time>2023-1-21T12:4:34Z</time></trkpt>
<trkpt lat="48.4364" lon="2.709363"><ele></ele><time>2023-1-21T12:4:37Z</time></trkpt>
<trkpt lat="48.436465" lon="2.709255"><ele></ele><time>2023-1-21T12:4:40Z</time></trkpt>
<trkpt lat="48.436544" lon="2.709176"><ele></ele><time>2023-1-21T12:4:43Z</time></trkpt>
<trkpt lat="48.436586" lon="2.709048"><ele></ele><time>2023-1-21T12:4:46Z</time></trkpt>
<trkpt lat="48.436635" lon="2.708924"><ele></ele><time>2023-1-21T12:4:49Z</time></trkpt>
<trkpt lat="48.436695" lon="2.708821"><ele></ele><time>2023-1-21T12:4:52Z</time></trkpt>
<trkpt lat="48.436766" lon="2.708729"><ele></ele><time>2023-1-21T12:4:55Z</time></trkpt>
<trkpt lat="48.436827" lon="2.70862"><ele></ele><time>2023-1-21T12:4:58Z</time></trkpt>
<trkpt lat="48.436885" lon="2.708509"><ele></ele><time>2023-1-21T12:5:1Z</time></trkpt>
<trkpt lat="48.436965" lon="2.708422"><ele></ele><time>2023-1-21T12:5:4Z</time></trkpt>
<trkpt lat="48.437049" lon="2.708365"><ele></ele><time>2023-1-21T12:5:7Z</time></trkpt>
<trkpt lat="48.437135" lon="2.708321"><ele></ele><time>2023-1-21T12:5:10Z</time></trkpt>
<trkpt lat="48.437225" lon="2.708297"><ele></ele><time>2023-1-21T12:5:13Z</time></trkpt>
<trkpt lat="48.437315" lon="2.708304"><ele></ele><time>2023-1-21T12:5:16Z</time></trkpt>
<trkpt lat="48.437408" lon="2.708315"><ele></ele><time>2023-1-21T12:5:19Z</time></trkpt>
<trkpt lat="48.437512" lon="2.708349"><ele></ele><time>2023-1-21T12:5:22Z</time></trkpt>
<trkpt lat="48.437611" lon="2.708339"><ele></ele><time>2023-1-21T12:5:25Z</time></trkpt>
<trkpt lat="48.437702" lon="2.708249"><ele></ele><time>2023-1-21T12:5:28Z</time></trkpt>
<trkpt lat="48.437747" lon="2.708127"><ele></ele><time>2023-1-21T12:5:31Z</time></trkpt>
<trkpt lat="48.437764" lon="2.707987"><ele></ele><time>2023-1-21T12:5:34Z</time></trkpt>
<trkpt lat="48.437717" lon="2.707854"><ele></ele><time>2023-1-21T12:5:37Z</time></trkpt>
<trkpt lat="48.437655" lon="2.707735"><ele></ele><time>2023-1-21T12:5:40Z</time></trkpt>
<trkpt lat="48.437565" lon="2.707653"><ele></ele><time>2023-1-21T12:5:43Z</time></trkpt>
<trkpt lat="48.437477" lon="2.707614"><ele></ele><time>2023-1-21T12:5:46Z</time></trkpt>
<trkpt lat="48.437372" lon="2.707593"><ele></ele><time>2023-1-21T12:5:49Z</time></trkpt>
<trkpt lat="48.437276" lon="2.707545"><ele></ele><time>2023-1-21T12:5:52Z</time></trkpt>
<trkpt lat="48.437175" lon="2.707479"><ele></ele><time>2023-1-21T12:5:55Z</time></trkpt>
<trkpt lat="48.437074" lon="2.707415"><ele></ele><time>2023-1-21T12:5:58Z</time></trkpt>
<trkpt lat="48.436979" lon="2.707328"><ele></ele><time>2023-1-21T12:6:1Z</time></trkpt>
<trkpt lat="48.436938" lon="2.707194"><ele></ele><time>2023-1-21T12:6:4Z</time></trkpt>
<trkpt lat="48.436925" lon="2.70704"><ele></ele><time>2023-1-21T12:6:7Z</time></trkpt>
<trkpt lat="48.436966" lon="2.706888"><ele></ele><time>2023-1-21T12:6:10Z</time></trkpt>
<trkpt lat="48.437017" lon="2.706719"><ele></ele><time>2023-1-21T12:6:13Z</time></trkpt>
<trkpt lat="48.437068" lon="2.706554"><ele></ele><time>2023-1-21T12:6:16Z</time></trkpt>
<trkpt lat="48.437129" lon="2.706393"><ele></ele><time>2023-1-21T12:6:19Z</time></trkpt>
<trkpt lat="48.437163" lon="2.706238"><ele></ele><time>2023-1-21T12:6:22Z</time></trkpt>
<trkpt lat="48.437208" lon="2.706088"><ele></ele><time>2023-1-21T12:6:25Z</time></trkpt>
<trkpt lat="48.437267" lon="2.705941"><ele></ele><time>2023-1-21T12:6:28Z</time></trkpt>
<trkpt lat="48.437357" lon="2.705824"><ele></ele><time>2023-1-21T12:6:31Z</time></trkpt>
<trkpt lat="48.437422" lon="2.705709"><ele></ele><time>2023-1-21T12:6:34Z</time></trkpt>
<trkpt lat="48.437432" lon="2.705573"><ele></ele><time>2023-1-21T12:6:37Z</time></trkpt>
<trkpt lat="48.437396" lon="2.705421"><ele></ele><time>2023-1-21T12:6:40Z</time></trkpt>
<trkpt lat="48.437362" lon="2.705264"><ele></ele><time>2023-1-21T12:6:43Z</time></trkpt>
<trkpt lat="48.437327" lon="2.705118"><ele></ele><time>2023-1-21T12:6:46Z</time></trkpt>
<trkpt lat="48.437282" lon="2.704992"><ele></ele><time>2023-1-21T12:6:49Z</time></trkpt>
<trkpt lat="48.43722" lon="2.704855"><ele></ele><time>2023-1-21T12:6:52Z</time></trkpt>
<trkpt lat="48.437188" lon="2.704698"><ele></ele><time>2023-1-21T12:6:55Z</time></trkpt>
<trkpt lat="48.437137" lon="2.704585"><ele></ele><time>2023-1-21T12:6:58Z</time></trkpt>
<trkpt lat="48.437059" lon="2.704438"><ele></ele><time>2023-1-21T12:7:1Z</time></trkpt>
<trkpt lat="48.436982" lon="2.704328"><ele></ele><time>2023-1-21T12:7:4Z</time></trkpt>
<trkpt lat="48.436898" lon="2.704203"><ele></ele><time>2023-1-21T12:7:7Z</time></trkpt>
<trkpt lat="48.436877" lon="2.704045"><ele></ele><time>2023-1-21T12:7:10Z</time></trkpt>
<trkpt lat="48.436924" lon="2.703906"><ele></ele><time>2023-1-21T12:7:13Z</time></trkpt>
<trkpt lat="48.436987" lon="2.703772"><ele></ele><time>2023-1-21T12:7:16Z</time></trkpt>
<trkpt lat="48.437048" lon="2.703645"><ele></ele><time>2023-1-21T12:7:19Z</time></trkpt>
<trkpt lat="48.437098" lon="2.703501"><ele></ele><time>2023-1-21T12:7:22Z</time></trkpt>
<trkpt lat="48.437139" lon="2.703354"><ele></ele><time>2023-1-21T12:7:25Z</time></trkpt>
<trkpt lat="48.437142" lon="2.703179"><ele></ele><time>2023-1-21T12:7:28Z</time></trkpt>
<trkpt lat="48.437117" lon="2.703047"><ele></ele><time>2023-1-21T12:7:31Z</time></trkpt>
<trkpt lat="48.437087" lon="2.702883"><ele></ele><time>2023-1-21T12:7:34Z</time></trkpt>
<trkpt lat="48.437015" lon="2.702763"><ele></ele><time>2023-1-21T12:7:37Z</time></trkpt>
<trkpt lat="48.436903" lon="2.702743"><ele></ele><time>2023-1-21T12:7:40Z</time></trkpt>
<trkpt lat="48.436816" lon="2.702807"><ele></ele><time>2023-1-21T12:7:43Z</time></trkpt>
<trkpt lat="48.436754" lon="2.702909"><ele></ele><time>2023-1-21T12:7:46Z</time></trkpt>
<trkpt lat="48.436723" lon="2.703055"><ele></ele><time>2023-1-21T12:7:49Z</time></trkpt>
<trkpt lat="48.436716" lon="2.703204"><ele></ele><time>2023-1-21T12:7:52Z</time></trkpt>
<trkpt lat="48.436685" lon="2.703365"><ele></ele><time>2023-1-21T12:7:55Z</time></trkpt>
<trkpt lat="48.436661" lon="2.703528"><ele></ele><time>2023-1-21T12:7:58Z</time></trkpt>
<trkpt lat="48.436645" lon="2.703701"><ele></ele><time>2023-1-21T12:8:1Z</time></trkpt>
<trkpt lat="48.436576" lon="2.70385"><ele></ele><time>2023-1-21T12:8:4Z</time></trkpt>
<trkpt lat="48.436488" lon="2.703935"><ele></ele><time>2023-1-21T12:8:7Z</time></trkpt>
<trkpt lat="48.436409" lon="2.70402"><ele></ele><time>2023-1-21T12:8:10Z</time></trkpt>
<trkpt lat="48.436301" lon="2.704089"><ele></ele><time>2023-1-21T12:8:13Z</time></trkpt>
<trkpt lat="48.436208" lon="2.704192"><ele></ele><time>2023-1-21T12:8:16Z</time></trkpt>
<trkpt lat="48.436137" lon="2.704277"><ele></ele><time>2023-1-21T12:8:19Z</time></trkpt>
<trkpt lat="48.436084" lon="2.70439"><ele></ele><time>2023-1-21T12:8:22Z</time></trkpt>
<trkpt lat="48.436049" lon="2.704527"><ele></ele><time>2023-1-21T12:8:25Z</time></trkpt>
<trkpt lat="48.436024" lon="2.704665"><ele></ele><time>2023-1-21T12:8:28Z</time></trkpt>
<trkpt lat="48.435981" lon="2.704836"><ele></ele><time>2023-1-21T12:8:31Z</time></trkpt>
<trkpt lat="48.435928" lon="2.704999"><ele></ele><time>2023-1-21T12:8:34Z</time></trkpt>
<trkpt lat="48.435854" lon="2.705147"><ele></ele><time>2023-1-21T12:8:37Z</time></trkpt>
<trkpt lat="48.435777" lon="2.70529"><ele></ele><time>2023-1-21T12:8:40Z</time></trkpt>
<trkpt lat="48.4357" lon="2.70544"><ele></ele><time>2023-1-21T12:8:43Z</time></trkpt>
<trkpt lat="48.435641" lon="2.705564"><ele></ele><time>2023-1-21T12:8:46Z</time></trkpt>
<trkpt lat="48.435556" lon="2.705674"><ele></ele><time>2023-1-21T12:8:49Z</time></trkpt>
<trkpt lat="48.43546" lon="2.705708"><ele></ele><time>2023-1-21T12:8:52Z</time></trkpt>
<trkpt lat="48.43535" lon="2.705641"><ele></ele><time>2023-1-21T12:8:55Z</time></trkpt>
<trkpt lat="48.435264" lon="2.705516"><ele></ele><time>2023-1-21T12:8:58Z</time></trkpt>
<trkpt lat="48.435201" lon="2.705343"><ele></ele><time>2023-1-21T12:9:1Z</time></trkpt>
<trkpt lat="48.435171" lon="2.705191"><ele></ele><time>2023-1-21T12:9:4Z</time></trkpt>
<trkpt lat="48.435117" lon="2.705071"><ele></ele><time>2023-1-21T12:9:7Z</time></trkpt>
<trkpt lat="48.435062" lon="2.704943"><ele></ele><time>2023-1-21T12:9:10Z</time></trkpt>
<trkpt lat="48.434997" lon="2.70482"><ele></ele><time>2023-1-21T12:9:13Z</time></trkpt>
<trkpt lat="48.434936" lon="2.704712"><ele></ele><time>2023-1-21T12:9:16Z</time></trkpt>
<trkpt lat="48.434865" lon="2.704614"><ele></ele><time>2023-1-21T12:9:19Z</time></trkpt>
<trkpt lat="48.434806" lon="2.704493"><ele></ele><time>2023-1-21T12:9:22Z</time></trkpt>
<trkpt lat="48.434719" lon="2.704405"><ele></ele><time>2023-1-21T12:9:25Z</time></trkpt>
<trkpt lat="48.434642" lon="2.704326"><ele></ele><time>2023-1-21T12:9:28Z</time></trkpt>
<trkpt lat="48.434565" lon="2.704244"><ele></ele><time>2023-1-21T12:9:31Z</time></trkpt>
<trkpt lat="48.434469" lon="2.704193"><ele></ele><time>2023-1-21T12:9:34Z</time></trkpt>
<trkpt lat="48.434381" lon="2.704155"><ele></ele><time>2023-1-21T12:9:37Z</time></trkpt>
<trkpt lat="48.434288" lon="2.704149"><ele></ele><time>2023-1-21T12:9:40Z</time></trkpt>
<trkpt lat="48.43419" lon="2.704113"><ele></ele><time>2023-1-21T12:9:43Z</time></trkpt>
<trkpt lat="48.434079" lon="2.704103"><ele></ele><time>2023-1-21T12:9:46Z</time></trkpt>
<trkpt lat="48.433973" lon="2.7041"><ele></ele><time>2023-1-21T12:9:49Z</time></trkpt>
<trkpt lat="48.433855" lon="2.704074"><ele></ele><time>2023-1-21T12:9:52Z</time></trkpt>
<trkpt lat="48.433763" lon="2.704082"><ele></ele><time>2023-1-21T12:9:55Z</time></trkpt>
<trkpt lat="48.433658" lon="2.704079"><ele></ele><time>2023-1-21T12:9:58Z</time></trkpt>
<trkpt lat="48.433553" lon="2.704045"><ele></ele><time>2023-1-21T12:10:1Z</time></trkpt>
<trkpt lat="48.433448" lon="2.704037"><ele></ele><time>2023-1-21T12:10:4Z</time></trkpt>
<trkpt lat="48.433341" lon="2.704009"><ele></ele><time>2023-1-21T12:10:7Z</time></trkpt>
<trkpt lat="48.433238" lon="2.703987"><ele></ele><time>2023-1-21T12:10:10Z</time></trkpt>
<trkpt lat="48.433136" lon="2.703931"><ele></ele><time>2023-1-21T12:10:13Z</time></trkpt>
<trkpt lat="48.43304" lon="2.703918"><ele></ele><time>2023-1-21T12:10:16Z</time></trkpt>
<trkpt lat="48.432934" lon="2.703939"><ele></ele><time>2023-1-21T12:10:19Z</time></trkpt>
<trkpt lat="48.432836" lon="2.703926"><ele></ele><time>2023-1-21T12:10:22Z</time></trkpt>
<trkpt lat="48.43274" lon="2.703915"><ele></ele><time>2023-1-21T12:10:25Z</time></trkpt>
<trkpt lat="48.432643" lon="2.703925"><ele></ele><time>2023-1-21T12:10:28Z</time></trkpt>
<trkpt lat="48.432542" lon="2.703901"><ele></ele><time>2023-1-21T12:10:31Z</time></trkpt>
<trkpt lat="48.432452" lon="2.703865"><ele></ele><time>2023-1-21T12:10:34Z</time></trkpt>
<trkpt lat="48.432347" lon="2.703886"><ele></ele><time>2023-1-21T12:10:37Z</time></trkpt>
<trkpt lat="48.43224" lon="2.703908"><ele></ele><time>2023-1-21T12:10:40Z</time></trkpt>
<trkpt lat="48.432127" lon="2.703915"><ele></ele><time>2023-1-21T12:10:43Z</time></trkpt>
<trkpt lat="48.432037" lon="2.703907"><ele></ele><time>2023-1-21T12:10:46Z</time></trkpt>
<trkpt lat="48.431942" lon="2.703921"><ele></ele><time>2023-1-21T12:10:49Z</time></trkpt>
<trkpt lat="48.431842" lon="2.703915"><ele></ele><time>2023-1-21T12:10:52Z</time></trkpt>
<trkpt lat="48.431752" lon="2.703962"><ele></ele><time>2023-1-21T12:10:55Z</time></trkpt>
<trkpt lat="48.431659" lon="2.703959"><ele></ele><time>2023-1-21T12:10:58Z</time></trkpt>
<trkpt lat="48.431575" lon="2.704029"><ele></ele><time>2023-1-21T12:11:1Z</time></trkpt>
<trkpt lat="48.431483" lon="2.704047"><ele></ele><time>2023-1-21T12:11:4Z</time></trkpt>
<trkpt lat="48.431375" lon="2.704076"><ele></ele><time>2023-1-21T12:11:7Z</time></trkpt>
<trkpt lat="48.431284" lon="2.7041"><ele></ele><time>2023-1-21T12:11:10Z</time></trkpt>
<trkpt lat="48.431175" lon="2.704125"><ele></ele><time>2023-1-21T12:11:13Z</time></trkpt>
<trkpt lat="48.431063" lon="2.704141"><ele></ele><time>2023-1-21T12:11:16Z</time></trkpt>
<trkpt lat="48.430959" lon="2.704162"><ele></ele><time>2023-1-21T12:11:19Z</time></trkpt>
<trkpt lat="48.430841" lon="2.70417"><ele></ele><time>2023-1-21T12:11:22Z</time></trkpt>
<trkpt lat="48.430749" lon="2.704184"><ele></ele><time>2023-1-21T12:11:25Z</time></trkpt>
<trkpt lat="48.430644" lon="2.704203"><ele></ele><time>2023-1-21T12:11:28Z</time></trkpt>
<trkpt lat="48.430546" lon="2.704213"><ele></ele><time>2023-1-21T12:11:31Z</time></trkpt>
<trkpt lat="48.430449" lon="2.704243"><ele></ele><time>2023-1-21T12:11:34Z</time></trkpt>
<trkpt lat="48.430328" lon="2.704274"><ele></ele><time>2023-1-21T12:11:37Z</time></trkpt>
<trkpt lat="48.430231" lon="2.70429"><ele></ele><time>2023-1-21T12:11:40Z</time></trkpt>
<trkpt lat="48.430114" lon="2.704308"><ele></ele><time>2023-1-21T12:11:43Z</time></trkpt>
<trkpt lat="48.430007" lon="2.704268"><ele></ele><time>2023-1-21T12:11:46Z</time></trkpt>
<trkpt lat="48.429915" lon="2.704238"><ele></ele><time>2023-1-21T12:11:49Z</time></trkpt>
<trkpt lat="48.429805" lon="2.704204"><ele></ele><time>2023-1-21T12:11:52Z</time></trkpt>
<trkpt lat="48.429683" lon="2.704176"><ele></ele><time>2023-1-21T12:11:55Z</time></trkpt>
<trkpt lat="48.429578" lon="2.704183"><ele></ele><time>2023-1-21T12:11:58Z</time></trkpt>
<trkpt lat="48.429476" lon="2.704165"><ele></ele><time>2023-1-21T12:12:1Z</time></trkpt>
<trkpt lat="48.429349" lon="2.704149"><ele></ele><time>2023-1-21T12:12:4Z</time></trkpt>
<trkpt lat="48.429247" lon="2.704182"><ele></ele><time>2023-1-21T12:12:7Z</time></trkpt>
<trkpt lat="48.429148" lon="2.704226"><ele></ele><time>2023-1-21T12:12:10Z</time></trkpt>
<trkpt lat="48.429123" lon="2.70427"><ele></ele><time>2023-1-21T12:12:13Z</time></trkpt>
<trkpt lat="48.429124" lon="2.704265"><ele></ele><time>2023-1-21T12:12:16Z</time></trkpt>
<trkpt lat="48.429126" lon="2.704253"><ele></ele><time>2023-1-21T12:12:19Z</time></trkpt>
<trkpt lat="48.429125" lon="2.704251"><ele></ele><time>2023-1-21T12:12:22Z</time></trkpt>
<trkpt lat="48.429122" lon="2.704243"><ele></ele><time>2023-1-21T12:12:25Z</time></trkpt>
<trkpt lat="48.429124" lon="2.704249"><ele></ele><time>2023-1-21T12:12:28Z</time></trkpt>
<trkpt lat="48.429125" lon="2.70425"><ele></ele><time>2023-1-21T12:12:31Z</time></trkpt>
<trkpt lat="48.429121" lon="2.704254"><ele></ele><time>2023-1-21T12:12:34Z</time></trkpt>
<trkpt lat="48.429121" lon="2.704393"><ele></ele><time>2023-1-21T12:12:37Z</time></trkpt>
<trkpt lat="48.429104" lon="2.704569"><ele></ele><time>2023-1-21T12:12:40Z</time></trkpt>
<trkpt lat="48.429078" lon="2.704716"><ele></ele><time>2023-1-21T12:12:43Z</time></trkpt>
<trkpt lat="48.42906" lon="2.704874"><ele></ele><time>2023-1-21T12:12:46Z</time></trkpt>
<trkpt lat="48.429036" lon="2.705036"><ele></ele><time>2023-1-21T12:12:49Z</time></trkpt>
<trkpt lat="48.429032" lon="2.705203"><ele></ele><time>2023-1-21T12:12:52Z</time></trkpt>
<trkpt lat="48.429018" lon="2.705358"><ele></ele><time>2023-1-21T12:12:55Z</time></trkpt>
<trkpt lat="48.429011" lon="2.705516"><ele></ele><time>2023-1-21T12:12:58Z</time></trkpt>
<trkpt lat="48.429009" lon="2.705675"><ele></ele><time>2023-1-21T12:13:1Z</time></trkpt>
<trkpt lat="48.429016" lon="2.705833"><ele></ele><time>2023-1-21T12:13:4Z</time></trkpt>
<trkpt lat="48.428973" lon="2.705954"><ele></ele><time>2023-1-21T12:13:7Z</time></trkpt>
<trkpt lat="48.429006" lon="2.706096"><ele></ele><time>2023-1-21T12:13:10Z</time></trkpt>
<trkpt lat="48.428998" lon="2.706257"><ele></ele><time>2023-1-21T12:13:13Z</time></trkpt>
<trkpt lat="48.428978" lon="2.706419"><ele></ele><time>2023-1-21T12:13:16Z</time></trkpt>
<trkpt lat="48.428966" lon="2.706563"><ele></ele><time>2023-1-21T12:13:19Z</time></trkpt>
<trkpt lat="48.428947" lon="2.706721"><ele></ele><time>2023-1-21T12:13:22Z</time></trkpt>
<trkpt lat="48.428943" lon="2.706883"><ele></ele><time>2023-1-21T12:13:25Z</time></trkpt>
<trkpt lat="48.428933" lon="2.707051"><ele></ele><time>2023-1-21T12:13:28Z</time></trkpt>
<trkpt lat="48.428919" lon="2.707218"><ele></ele><time>2023-1-21T12:13:31Z</time></trkpt>
<trkpt lat="48.428909" lon="2.707377"><ele></ele><time>2023-1-21T12:13:34Z</time></trkpt>
<trkpt lat="48.428892" lon="2.707521"><ele></ele><time>2023-1-21T12:13:37Z</time></trkpt>
<trkpt lat="48.428824" lon="2.707621"><ele></ele><time>2023-1-21T12:13:40Z</time></trkpt>
<trkpt lat="48.428728" lon="2.707616"><ele></ele><time>2023-1-21T12:13:43Z</time></trkpt>
<trkpt lat="48.428611" lon="2.707618"><ele></ele><time>2023-1-21T12:13:46Z</time></trkpt>
<trkpt lat="48.428518" lon="2.707643"><ele></ele><time>2023-1-21T12:13:49Z</time></trkpt>
<trkpt lat="48.428398" lon="2.707647"><ele></ele><time>2023-1-21T12:13:52Z</time></trkpt>
<trkpt lat="48.428284" lon="2.707666"><ele></ele><time>2023-1-21T12:13:55Z</time></trkpt>
<trkpt lat="48.428185" lon="2.707692"><ele></ele><time>2023-1-21T12:13:58Z</time></trkpt>
<trkpt lat="48.428083" lon="2.707696"><ele></ele><time>2023-1-21T12:14:1Z</time></trkpt>
<trkpt lat="48.427989" lon="2.707695"><ele></ele><time>2023-1-21T12:14:4Z</time></trkpt>
<trkpt lat="48.427888" lon="2.707711"><ele></ele><time>2023-1-21T12:14:7Z</time></trkpt>
<trkpt lat="48.427774" lon="2.707704"><ele></ele><time>2023-1-21T12:14:10Z</time></trkpt>
<trkpt lat="48.427687" lon="2.707668"><ele></ele><time>2023-1-21T12:14:13Z</time></trkpt>
<trkpt lat="48.427584" lon="2.70764"><ele></ele><time>2023-1-21T12:14:16Z</time></trkpt>
<trkpt lat="48.427484" lon="2.707672"><ele></ele><time>2023-1-21T12:14:19Z</time></trkpt>
<trkpt lat="48.427374" lon="2.707594"><ele></ele><time>2023-1-21T12:14:22Z</time></trkpt>
<trkpt lat="48.427256" lon="2.707542"><ele></ele><time>2023-1-21T12:14:25Z</time></trkpt>
<trkpt lat="48.427144" lon="2.707586"><ele></ele><time>2023-1-21T12:14:28Z</time></trkpt>
<trkpt lat="48.427049" lon="2.707654"><ele></ele><time>2023-1-21T12:14:31Z</time></trkpt>
<trkpt lat="48.426955" lon="2.707691"><ele></ele><time>2023-1-21T12:14:34Z</time></trkpt>
<trkpt lat="48.426853" lon="2.707739"><ele></ele><time>2023-1-21T12:14:37Z</time></trkpt>
<trkpt lat="48.426756" lon="2.70778"><ele></ele><time>2023-1-21T12:14:40Z</time></trkpt>
<trkpt lat="48.426661" lon="2.707803"><ele></ele><time>2023-1-21T12:14:43Z</time></trkpt>
<trkpt lat="48.426532" lon="2.707852"><ele></ele><time>2023-1-21T12:14:46Z</time></trkpt>
<trkpt lat="48.426411" lon="2.707884"><ele></ele><time>2023-1-21T12:14:49Z</time></trkpt>
<trkpt lat="48.426312" lon="2.707919"><ele></ele><time>2023-1-21T12:14:52Z</time></trkpt>
<trkpt lat="48.426196" lon="2.707977"><ele></ele><time>2023-1-21T12:14:55Z</time></trkpt>
<trkpt lat="48.426086" lon="2.707997"><ele></ele><time>2023-1-21T12:14:58Z</time></trkpt>
<trkpt lat="48.425995" lon="2.708046"><ele></ele><time>2023-1-21T12:15:1Z</time></trkpt>
<trkpt lat="48.425905" lon="2.708091"><ele></ele><time>2023-1-21T12:15:4Z</time></trkpt>
<trkpt lat="48.425787" lon="2.708132"><ele></ele><time>2023-1-21T12:15:7Z</time></trkpt>
<trkpt lat="48.425697" lon="2.708201"><ele></ele><time>2023-1-21T12:15:10Z</time></trkpt>
<trkpt lat="48.425659" lon="2.708346"><ele></ele><time>2023-1-21T12:15:13Z</time></trkpt>
<trkpt lat="48.425621" lon="2.708472"><ele></ele><time>2023-1-21T12:15:16Z</time></trkpt>
<trkpt lat="48.42556" lon="2.708581"><ele></ele><time>2023-1-21T12:15:19Z</time></trkpt>
<trkpt lat="48.425495" lon="2.708714"><ele></ele><time>2023-1-21T12:15:22Z</time></trkpt>
<trkpt lat="48.425403" lon="2.708827"><ele></ele><time>2023-1-21T12:15:25Z</time></trkpt>
<trkpt lat="48.425307" lon="2.708919"><ele></ele><time>2023-1-21T12:15:28Z</time></trkpt>
<trkpt lat="48.425255" lon="2.709039"><ele></ele><time>2023-1-21T12:15:31Z</time></trkpt>
<trkpt lat="48.425238" lon="2.709185"><ele></ele><time>2023-1-21T12:15:34Z</time></trkpt>
<trkpt lat="48.425274" lon="2.709323"><ele></ele><time>2023-1-21T12:15:37Z</time></trkpt>
<trkpt lat="48.425374" lon="2.709357"><ele></ele><time>2023-1-21T12:15:40Z</time></trkpt>
<trkpt lat="48.42548" lon="2.70941"><ele></ele><time>2023-1-21T12:15:43Z</time></trkpt>
<trkpt lat="48.425535" lon="2.709528"><ele></ele><time>2023-1-21T12:15:46Z</time></trkpt>
<trkpt lat="48.42549" lon="2.709677"><ele></ele><time>2023-1-21T12:15:49Z</time></trkpt>
<trkpt lat="48.425455" lon="2.709857"><ele></ele><time>2023-1-21T12:15:52Z</time></trkpt>
<trkpt lat="48.425389" lon="2.709971"><ele></ele><time>2023-1-21T12:15:55Z</time></trkpt>
<trkpt lat="48.425411" lon="2.710109"><ele></ele><time>2023-1-21T12:15:58Z</time></trkpt>
<trkpt lat="48.425454" lon="2.710233"><ele></ele><time>2023-1-21T12:16:1Z</time></trkpt>
<trkpt lat="48.425514" lon="2.710381"><ele></ele><time>2023-1-21T12:16:4Z</time></trkpt>
<trkpt lat="48.425567" lon="2.710527"><ele></ele><time>2023-1-21T12:16:7Z</time></trkpt>
<trkpt lat="48.425596" lon="2.710685"><ele></ele><time>2023-1-21T12:16:10Z</time></trkpt>
<trkpt lat="48.425618" lon="2.710844"><ele></ele><time>2023-1-21T12:16:13Z</time></trkpt>
<trkpt lat="48.425618" lon="2.711011"><ele></ele><time>2023-1-21T12:16:16Z</time></trkpt>
<trkpt lat="48.425586" lon="2.711152"><ele></ele><time>2023-1-21T12:16:19Z</time></trkpt>
<trkpt lat="48.425545" lon="2.711334"><ele></ele><time>2023-1-21T12:16:22Z</time></trkpt>
<trkpt lat="48.425515" lon="2.71149"><ele></ele><time>2023-1-21T12:16:25Z</time></trkpt>
<trkpt lat="48.425501" lon="2.711657"><ele></ele><time>2023-1-21T12:16:28Z</time></trkpt>
<trkpt lat="48.42551" lon="2.711821"><ele></ele><time>2023-1-21T12:16:31Z</time></trkpt>
<trkpt lat="48.425512" lon="2.711984"><ele></ele><time>2023-1-21T12:16:34Z</time></trkpt>
<trkpt lat="48.425527" lon="2.712154"><ele></ele><time>2023-1-21T12:16:37Z</time></trkpt>
<trkpt lat="48.425531" lon="2.712314"><ele></ele><time>2023-1-21T12:16:40Z</time></trkpt>
<trkpt lat="48.425509" lon="2.712473"><ele></ele><time>2023-1-21T12:16:43Z</time></trkpt>
<trkpt lat="48.425463" lon="2.71261"><ele></ele><time>2023-1-21T12:16:46Z</time></trkpt>
<trkpt lat="48.425427" lon="2.712787"><ele></ele><time>2023-1-21T12:16:49Z</time></trkpt>
<trkpt lat="48.425391" lon="2.712923"><ele></ele><time>2023-1-21T12:16:52Z</time></trkpt>
<trkpt lat="48.425352" lon="2.713091"><ele></ele><time>2023-1-21T12:16:55Z</time></trkpt>
<trkpt lat="48.425353" lon="2.713279"><ele></ele><time>2023-1-21T12:16:58Z</time></trkpt>
<trkpt lat="48.425333" lon="2.71345"><ele></ele><time>2023-1-21T12:17:1Z</time></trkpt>
<trkpt lat="48.425292" lon="2.713601"><ele></ele><time>2023-1-21T12:17:4Z</time></trkpt>
<trkpt lat="48.425357" lon="2.713732"><ele></ele><time>2023-1-21T12:17:7Z</time></trkpt>
<trkpt lat="48.425388" lon="2.713867"><ele></ele><time>2023-1-21T12:17:10Z</time></trkpt>
<trkpt lat="48.425309" lon="2.713979"><ele></ele><time>2023-1-21T12:17:13Z</time></trkpt>
<trkpt lat="48.425235" lon="2.714106"><ele></ele><time>2023-1-21T12:17:16Z</time></trkpt>
<trkpt lat="48.425175" lon="2.714238"><ele></ele><time>2023-1-21T12:17:19Z</time></trkpt>
<trkpt lat="48.425105" lon="2.714357"><ele></ele><time>2023-1-21T12:17:22Z</time></trkpt>
<trkpt lat="48.425025" lon="2.714468"><ele></ele><time>2023-1-21T12:17:25Z</time></trkpt>
<trkpt lat="48.424962" lon="2.714588"><ele></ele><time>2023-1-21T12:17:28Z</time></trkpt>
<trkpt lat="48.424893" lon="2.71468"><ele></ele><time>2023-1-21T12:17:31Z</time></trkpt>
<trkpt lat="48.424827" lon="2.714785"><ele></ele><time>2023-1-21T12:17:34Z</time></trkpt>
<trkpt lat="48.424771" lon="2.714901"><ele></ele><time>2023-1-21T12:17:37Z</time></trkpt>
<trkpt lat="48.424703" lon="2.715031"><ele></ele><time>2023-1-21T12:17:40Z</time></trkpt>
<trkpt lat="48.424627" lon="2.715165"><ele></ele><time>2023-1-21T12:17:43Z</time></trkpt>
<trkpt lat="48.424574" lon="2.715289"><ele></ele><time>2023-1-21T12:17:46Z</time></trkpt>
<trkpt lat="48.424515" lon="2.715396"><ele></ele><time>2023-1-21T12:17:49Z</time></trkpt>
<trkpt lat="48.424435" lon="2.715519"><ele></ele><time>2023-1-21T12:17:52Z</time></trkpt>
<trkpt lat="48.424379" lon="2.715629"><ele></ele><time>2023-1-21T12:17:55Z</time></trkpt>
<trkpt lat="48.424315" lon="2.715751"><ele></ele><time>2023-1-21T12:17:58Z</time></trkpt>
<trkpt lat="48.424241" lon="2.715895"><ele></ele><time>2023-1-21T12:18:1Z</time></trkpt>
<trkpt lat="48.424173" lon="2.716042"><ele></ele><time>2023-1-21T12:18:4Z</time></trkpt>
<trkpt lat="48.424118" lon="2.716158"><ele></ele><time>2023-1-21T12:18:7Z</time></trkpt>
<trkpt lat="48.424042" lon="2.7163"><ele></ele><time>2023-1-21T12:18:10Z</time></trkpt>
<trkpt lat="48.423981" lon="2.716442"><ele></ele><time>2023-1-21T12:18:13Z</time></trkpt>
<trkpt lat="48.42409" lon="2.716502"><ele></ele><time>2023-1-21T12:18:16Z</time></trkpt>
<trkpt lat="48.424193" lon="2.716496"><ele></ele><time>2023-1-21T12:18:19Z</time></trkpt>
<trkpt lat="48.424292" lon="2.716507"><ele></ele><time>2023-1-21T12:18:22Z</time></trkpt>
<trkpt lat="48.42441" lon="2.716518"><ele></ele><time>2023-1-21T12:18:25Z</time></trkpt>
<trkpt lat="48.424504" lon="2.716556"><ele></ele><time>2023-1-21T12:18:28Z</time></trkpt>
<trkpt lat="48.42461" lon="2.716609"><ele></ele><time>2023-1-21T12:18:31Z</time></trkpt>
<trkpt lat="48.424717" lon="2.716661"><ele></ele><time>2023-1-21T12:18:34Z</time></trkpt>
<trkpt lat="48.424829" lon="2.716726"><ele></ele><time>2023-1-21T12:18:37Z</time></trkpt>
<trkpt lat="48.424935" lon="2.716754"><ele></ele><time>2023-1-21T12:18:40Z</time></trkpt>
<trkpt lat="48.425037" lon="2.716805"><ele></ele><time>2023-1-21T12:18:43Z</time></trkpt>
<trkpt lat="48.425135" lon="2.716851"><ele></ele><time>2023-1-21T12:18:46Z</time></trkpt>
<trkpt lat="48.425269" lon="2.716879"><ele></ele><time>2023-1-21T12:18:49Z</time></trkpt>
<trkpt lat="48.425364" lon="2.716898"><ele></ele><time>2023-1-21T12:18:52Z</time></trkpt>
<trkpt lat="48.425455" lon="2.716922"><ele></ele><time>2023-1-21T12:18:55Z</time></trkpt>
<trkpt lat="48.425553" lon="2.716972"><ele></ele><time>2023-1-21T12:18:58Z</time></trkpt>
<trkpt lat="48.425645" lon="2.717009"><ele></ele><time>2023-1-21T12:19:1Z</time></trkpt>
<trkpt lat="48.425741" lon="2.717056"><ele></ele><time>2023-1-21T12:19:4Z</time></trkpt>
<trkpt lat="48.425849" lon="2.717092"><ele></ele><time>2023-1-21T12:19:7Z</time></trkpt>
<trkpt lat="48.425939" lon="2.717113"><ele></ele><time>2023-1-21T12:19:10Z</time></trkpt>
<trkpt lat="48.426028" lon="2.717155"><ele></ele><time>2023-1-21T12:19:13Z</time></trkpt>
<trkpt lat="48.426123" lon="2.717202"><ele></ele><time>2023-1-21T12:19:16Z</time></trkpt>
<trkpt lat="48.426218" lon="2.717251"><ele></ele><time>2023-1-21T12:19:19Z</time></trkpt>
<trkpt lat="48.426306" lon="2.717279"><ele></ele><time>2023-1-21T12:19:22Z</time></trkpt>
<trkpt lat="48.426399" lon="2.717307"><ele></ele><time>2023-1-21T12:19:25Z</time></trkpt>
<trkpt lat="48.426499" lon="2.71734"><ele></ele><time>2023-1-21T12:19:28Z</time></trkpt>
<trkpt lat="48.426591" lon="2.717351"><ele></ele><time>2023-1-21T12:19:31Z</time></trkpt>
<trkpt lat="48.426684" lon="2.717358"><ele></ele><time>2023-1-21T12:19:34Z</time></trkpt>
<trkpt lat="48.426787" lon="2.717407"><ele></ele><time>2023-1-21T12:19:37Z</time></trkpt>
<trkpt lat="48.426878" lon="2.717458"><ele></ele><time>2023-1-21T12:19:40Z</time></trkpt>
<trkpt lat="48.427001" lon="2.717503"><ele></ele><time>2023-1-21T12:19:43Z</time></trkpt>
<trkpt lat="48.427096" lon="2.717538"><ele></ele><time>2023-1-21T12:19:46Z</time></trkpt>
<trkpt lat="48.427222" lon="2.71759"><ele></ele><time>2023-1-21T12:19:49Z</time></trkpt>
<trkpt lat="48.427347" lon="2.717668"><ele></ele><time>2023-1-21T12:19:52Z</time></trkpt>
<trkpt lat="48.427442" lon="2.717746"><ele></ele><time>2023-1-21T12:19:55Z</time></trkpt>
<trkpt lat="48.427575" lon="2.717822"><ele></ele><time>2023-1-21T12:19:58Z</time></trkpt>
<trkpt lat="48.427668" lon="2.717866"><ele></ele><time>2023-1-21T12:20:1Z</time></trkpt>
<trkpt lat="48.427779" lon="2.717942"><ele></ele><time>2023-1-21T12:20:4Z</time></trkpt>
<trkpt lat="48.42788" lon="2.718005"><ele></ele><time>2023-1-21T12:20:7Z</time></trkpt>
<trkpt lat="48.427981" lon="2.718103"><ele></ele><time>2023-1-21T12:20:10Z</time></trkpt>
<trkpt lat="48.428073" lon="2.718101"><ele></ele><time>2023-1-21T12:20:13Z</time></trkpt>
<trkpt lat="48.428164" lon="2.718077"><ele></ele><time>2023-1-21T12:20:16Z</time></trkpt>
<trkpt lat="48.428261" lon="2.718072"><ele></ele><time>2023-1-21T12:20:19Z</time></trkpt>
<trkpt lat="48.428359" lon="2.718083"><ele></ele><time>2023-1-21T12:20:22Z</time></trkpt>
<trkpt lat="48.428445" lon="2.718122"><ele></ele><time>2023-1-21T12:20:25Z</time></trkpt>
<trkpt lat="48.428552" lon="2.718073"><ele></ele><time>2023-1-21T12:20:28Z</time></trkpt>
<trkpt lat="48.428647" lon="2.718088"><ele></ele><time>2023-1-21T12:20:31Z</time></trkpt>
<trkpt lat="48.428776" lon="2.718111"><ele></ele><time>2023-1-21T12:20:34Z</time></trkpt>
<trkpt lat="48.428897" lon="2.718137"><ele></ele><time>2023-1-21T12:20:37Z</time></trkpt>
<trkpt lat="48.429002" lon="2.718174"><ele></ele><time>2023-1-21T12:20:40Z</time></trkpt>
<trkpt lat="48.429074" lon="2.718268"><ele></ele><time>2023-1-21T12:20:43Z</time></trkpt>
<trkpt lat="48.429159" lon="2.718326"><ele></ele><time>2023-1-21T12:20:46Z</time></trkpt>
<trkpt lat="48.429254" lon="2.718352"><ele></ele><time>2023-1-21T12:20:49Z</time></trkpt>
<trkpt lat="48.429368" lon="2.718403"><ele></ele><time>2023-1-21T12:20:52Z</time></trkpt>
<trkpt lat="48.429473" lon="2.71844"><ele></ele><time>2023-1-21T12:20:55Z</time></trkpt>
<trkpt lat="48.429573" lon="2.718513"><ele></ele><time>2023-1-21T12:20:58Z</time></trkpt>
<trkpt lat="48.429672" lon="2.718599"><ele></ele><time>2023-1-21T12:21:1Z</time></trkpt>
<trkpt lat="48.429775" lon="2.718667"><ele></ele><time>2023-1-21T12:21:4Z</time></trkpt>
<trkpt lat="48.429875" lon="2.71871"><ele></ele><time>2023-1-21T12:21:7Z</time></trkpt>
<trkpt lat="48.429966" lon="2.718727"><ele></ele><time>2023-1-21T12:21:10Z</time></trkpt>
<trkpt lat="48.430065" lon="2.718721"><ele></ele><time>2023-1-21T12:21:13Z</time></trkpt>
<trkpt lat="48.430163" lon="2.718696"><ele></ele><time>2023-1-21T12:21:16Z</time></trkpt>
<trkpt lat="48.430282" lon="2.718713"><ele></ele><time>2023-1-21T12:21:19Z</time></trkpt>
<trkpt lat="48.430386" lon="2.71872"><ele></ele><time>2023-1-21T12:21:22Z</time></trkpt>
<trkpt lat="48.430471" lon="2.718767"><ele></ele><time>2023-1-21T12:21:25Z</time></trkpt>
<trkpt lat="48.430579" lon="2.718861"><ele></ele><time>2023-1-21T12:21:28Z</time></trkpt>
<trkpt lat="48.430686" lon="2.718937"><ele></ele><time>2023-1-21T12:21:31Z</time></trkpt>
<trkpt lat="48.430776" lon="2.719056"><ele></ele><time>2023-1-21T12:21:34Z</time></trkpt>
<trkpt lat="48.430847" lon="2.719177"><ele></ele><time>2023-1-21T12:21:37Z</time></trkpt>
<trkpt lat="48.430891" lon="2.719297"><ele></ele><time>2023-1-21T12:21:40Z</time></trkpt>
<trkpt lat="48.430966" lon="2.719406"><ele></ele><time>2023-1-21T12:21:43Z</time></trkpt>
<trkpt lat="48.431083" lon="2.719466"><ele></ele><time>2023-1-21T12:21:46Z</time></trkpt>
<trkpt lat="48.431182" lon="2.71952"><ele></ele><time>2023-1-21T12:21:49Z</time></trkpt>
<trkpt lat="48.431274" lon="2.71958"><ele></ele><time>2023-1-21T12:21:52Z</time></trkpt>
<trkpt lat="48.431375" lon="2.719653"><ele></ele><time>2023-1-21T12:21:55Z</time></trkpt>
<trkpt lat="48.431478" lon="2.719733"><ele></ele><time>2023-1-21T12:21:58Z</time></trkpt>
<trkpt lat="48.431597" lon="2.719829"><ele></ele><time>2023-1-21T12:22:1Z</time></trkpt>
<trkpt lat="48.431702" lon="2.719894"><ele></ele><time>2023-1-21T12:22:4Z</time></trkpt>
<trkpt lat="48.431804" lon="2.719919"><ele></ele><time>2023-1-21T12:22:7Z</time></trkpt>
<trkpt lat="48.431908" lon="2.719983"><ele></ele><time>2023-1-21T12:22:10Z</time></trkpt>
<trkpt lat="48.431998" lon="2.720036"><ele></ele><time>2023-1-21T12:22:13Z</time></trkpt>
<trkpt lat="48.432087" lon="2.720091"><ele></ele><time>2023-1-21T12:22:16Z</time></trkpt>
<trkpt lat="48.432132" lon="2.720223"><ele></ele><time>2023-1-21T12:22:19Z</time></trkpt>
<trkpt lat="48.432176" lon="2.720346"><ele></ele><time>2023-1-21T12:22:22Z</time></trkpt>
<trkpt lat="48.432219" lon="2.720473"><ele></ele><time>2023-1-21T12:22:25Z</time></trkpt>
<trkpt lat="48.432322" lon="2.720574"><ele></ele><time>2023-1-21T12:22:28Z</time></trkpt>
<trkpt lat="48.432432" lon="2.720638"><ele></ele><time>2023-1-21T12:22:31Z</time></trkpt>
<trkpt lat="48.432517" lon="2.720694"><ele></ele><time>2023-1-21T12:22:34Z</time></trkpt>
<trkpt lat="48.432616" lon="2.720783"><ele></ele><time>2023-1-21T12:22:37Z</time></trkpt>
<trkpt lat="48.432712" lon="2.720904"><ele></ele><time>2023-1-21T12:22:40Z</time></trkpt>
<trkpt lat="48.432836" lon="2.721027"><ele></ele><time>2023-1-21T12:22:43Z</time></trkpt>
<trkpt lat="48.432911" lon="2.721105"><ele></ele><time>2023-1-21T12:22:46Z</time></trkpt>
<trkpt lat="48.433023" lon="2.721136"><ele></ele><time>2023-1-21T12:22:49Z</time></trkpt>
<trkpt lat="48.433125" lon="2.721104"><ele></ele><time>2023-1-21T12:22:52Z</time></trkpt>
<trkpt lat="48.433237" lon="2.721029"><ele></ele><time>2023-1-21T12:22:55Z</time></trkpt>
<trkpt lat="48.433356" lon="2.720941"><ele></ele><time>2023-1-21T12:22:58Z</time></trkpt>
<trkpt lat="48.433446" lon="2.720896"><ele></ele><time>2023-1-21T12:23:1Z</time></trkpt>
<trkpt lat="48.433559" lon="2.720852"><ele></ele><time>2023-1-21T12:23:4Z</time></trkpt>
<trkpt lat="48.433666" lon="2.720791"><ele></ele><time>2023-1-21T12:23:7Z</time></trkpt>
<trkpt lat="48.433763" lon="2.72072"><ele></ele><time>2023-1-21T12:23:10Z</time></trkpt>
<trkpt lat="48.433889" lon="2.720651"><ele></ele><time>2023-1-21T12:23:13Z</time></trkpt>
<trkpt lat="48.43401" lon="2.720556"><ele></ele><time>2023-1-21T12:23:16Z</time></trkpt>
<trkpt lat="48.434133" lon="2.720476"><ele></ele><time>2023-1-21T12:23:19Z</time></trkpt>
<trkpt lat="48.434237" lon="2.720426"><ele></ele><time>2023-1-21T12:23:22Z</time></trkpt>
<trkpt lat="48.434334" lon="2.720381"><ele></ele><time>2023-1-21T12:23:25Z</time></trkpt>
<trkpt lat="48.434425" lon="2.720323"><ele></ele><time>2023-1-21T12:23:28Z</time></trkpt>
<trkpt lat="48.434544" lon="2.720244"><ele></ele><time>2023-1-21T12:23:31Z</time></trkpt>
<trkpt lat="48.43464" lon="2.720165"><ele></ele><time>2023-1-21T12:23:34Z</time></trkpt>
<trkpt lat="48.434753" lon="2.720093"><ele></ele><time>2023-1-21T12:23:37Z</time></trkpt>
<trkpt lat="48.434854" lon="2.720065"><ele></ele><time>2023-1-21T12:23:40Z</time></trkpt>
<trkpt lat="48.434948" lon="2.720055"><ele></ele><time>2023-1-21T12:23:43Z</time></trkpt>
<trkpt lat="48.435081" lon="2.720074"><ele></ele><time>2023-1-21T12:23:46Z</time></trkpt>
<trkpt lat="48.435197" lon="2.72009"><ele></ele><time>2023-1-21T12:23:49Z</time></trkpt>
<trkpt lat="48.435326" lon="2.720116"><ele></ele><time>2023-1-21T12:23:52Z</time></trkpt>
<trkpt lat="48.435444" lon="2.720127"><ele></ele><time>2023-1-21T12:23:55Z</time></trkpt>
<trkpt lat="48.435565" lon="2.720126"><ele></ele><time>2023-1-21T12:23:58Z</time></trkpt>
<trkpt lat="48.435702" lon="2.720097"><ele></ele><time>2023-1-21T12:24:1Z</time></trkpt>
<trkpt lat="48.435829" lon="2.720082"><ele></ele><time>2023-1-21T12:24:4Z</time></trkpt>
<trkpt lat="48.435937" lon="2.720077"><ele></ele><time>2023-1-21T12:24:7Z</time></trkpt>
<trkpt lat="48.436029" lon="2.720062"><ele></ele><time>2023-1-21T12:24:10Z</time></trkpt>
<trkpt lat="48.436121" lon="2.720081"><ele></ele><time>2023-1-21T12:24:13Z</time></trkpt>
<trkpt lat="48.436205" lon="2.720023"><ele></ele><time>2023-1-21T12:24:16Z</time></trkpt>
<trkpt lat="48.43624" lon="2.719894"><ele></ele><time>2023-1-21T12:24:19Z</time></trkpt>
<trkpt lat="48.436321" lon="2.719815"><ele></ele><time>2023-1-21T12:24:22Z</time></trkpt>
<trkpt lat="48.436396" lon="2.7197"><ele></ele><time>2023-1-21T12:24:25Z</time></trkpt>
<trkpt lat="48.436404" lon="2.719528"><ele></ele><time>2023-1-21T12:24:28Z</time></trkpt>
<trkpt lat="48.436433" lon="2.719379"><ele></ele><time>2023-1-21T12:24:31Z</time></trkpt>
<trkpt lat="48.436473" lon="2.719232"><ele></ele><time>2023-1-21T12:24:34Z</time></trkpt>
<trkpt lat="48.436547" lon="2.719152"><ele></ele><time>2023-1-21T12:24:37Z</time></trkpt>
<trkpt lat="48.436626" lon="2.71906"><ele></ele><time>2023-1-21T12:24:40Z</time></trkpt>
<trkpt lat="48.436716" lon="2.718964"><ele></ele><time>2023-1-21T12:24:43Z</time></trkpt>
<trkpt lat="48.436792" lon="2.718869"><ele></ele><time>2023-1-21T12:24:46Z</time></trkpt>
<trkpt lat="48.436884" lon="2.718795"><ele></ele><time>2023-1-21T12:24:49Z</time></trkpt>
<trkpt lat="48.436999" lon="2.718783"><ele></ele><time>2023-1-21T12:24:52Z</time></trkpt>
<trkpt lat="48.437116" lon="2.718741"><ele></ele><time>2023-1-21T12:24:55Z</time></trkpt>
<trkpt lat="48.437202" lon="2.718633"><ele></ele><time>2023-1-21T12:24:58Z</time></trkpt>
<trkpt lat="48.437274" lon="2.718529"><ele></ele><time>2023-1-21T12:25:1Z</time></trkpt>
<trkpt lat="48.437353" lon="2.718399"><ele></ele><time>2023-1-21T12:25:4Z</time></trkpt>
<trkpt lat="48.437418" lon="2.718267"><ele></ele><time>2023-1-21T12:25:7Z</time></trkpt>
<trkpt lat="48.437466" lon="2.718091"><ele></ele><time>2023-1-21T12:25:10Z</time></trkpt>
<trkpt lat="48.437548" lon="2.71794"><ele></ele><time>2023-1-21T12:25:13Z</time></trkpt>
<trkpt lat="48.437637" lon="2.717876"><ele></ele><time>2023-1-21T12:25:16Z</time></trkpt>
<trkpt lat="48.43773" lon="2.71778"><ele></ele><time>2023-1-21T12:25:19Z</time></trkpt>
<trkpt lat="48.437826" lon="2.717719"><ele></ele><time>2023-1-21T12:25:22Z</time></trkpt>
<trkpt lat="48.437917" lon="2.717629"><ele></ele><time>2023-1-21T12:25:25Z</time></trkpt>
<trkpt lat="48.437976" lon="2.717487"><ele></ele><time>2023-1-21T12:25:28Z</time></trkpt>
<trkpt lat="48.438012" lon="2.717337"><ele></ele><time>2023-1-21T12:25:31Z</time></trkpt>
<trkpt lat="48.438083" lon="2.717224"><ele></ele><time>2023-1-21T12:25:34Z</time></trkpt>
<trkpt lat="48.438077" lon="2.717057"><ele></ele><time>2023-1-21T12:25:37Z</time></trkpt>
<trkpt lat="48.438086" lon="2.716894"><ele></ele><time>2023-1-21T12:25:40Z</time></trkpt>
<trkpt lat="48.438125" lon="2.716749"><ele></ele><time>2023-1-21T12:25:43Z</time></trkpt>
<trkpt lat="48.438166" lon="2.716613"><ele></ele><time>2023-1-21T12:25:46Z</time></trkpt>
<trkpt lat="48.438225" lon="2.716472"><ele></ele><time>2023-1-21T12:25:49Z</time></trkpt>
<trkpt lat="48.438256" lon="2.716326"><ele></ele><time>2023-1-21T12:25:52Z</time></trkpt>
<trkpt lat="48.438259" lon="2.716177"><ele></ele><time>2023-1-21T12:25:55Z</time></trkpt>
<trkpt lat="48.438299" lon="2.716021"><ele></ele><time>2023-1-21T12:25:58Z</time></trkpt>
<trkpt lat="48.43838" lon="2.715928"><ele></ele><time>2023-1-21T12:26:1Z</time></trkpt>
<trkpt lat="48.438432" lon="2.715801"><ele></ele><time>2023-1-21T12:26:4Z</time></trkpt>
<trkpt lat="48.438505" lon="2.715673"><ele></ele><time>2023-1-21T12:26:7Z</time></trkpt>
<trkpt lat="48.438558" lon="2.715554"><ele></ele><time>2023-1-21T12:26:10Z</time></trkpt>
<trkpt lat="48.438661" lon="2.715539"><ele></ele><time>2023-1-21T12:26:13Z</time></trkpt>
<trkpt lat="48.438762" lon="2.715502"><ele></ele><time>2023-1-21T12:26:16Z</time></trkpt>
<trkpt lat="48.438861" lon="2.715525"><ele></ele><time>2023-1-21T12:26:19Z</time></trkpt>
<trkpt lat="48.438946" lon="2.715466"><ele></ele><time>2023-1-21T12:26:22Z</time></trkpt>
<trkpt lat="48.439004" lon="2.71535"><ele></ele><time>2023-1-21T12:26:25Z</time></trkpt>
<trkpt lat="48.439086" lon="2.715258"><ele></ele><time>2023-1-21T12:26:28Z</time></trkpt>
<trkpt lat="48.439192" lon="2.715277"><ele></ele><time>2023-1-21T12:26:31Z</time></trkpt>
<trkpt lat="48.439281" lon="2.715304"><ele></ele><time>2023-1-21T12:26:34Z</time></trkpt>
<trkpt lat="48.439366" lon="2.715397"><ele></ele><time>2023-1-21T12:26:37Z</time></trkpt>
<trkpt lat="48.439467" lon="2.715439"><ele></ele><time>2023-1-21T12:26:40Z</time></trkpt>
<trkpt lat="48.439582" lon="2.715474"><ele></ele><time>2023-1-21T12:26:43Z</time></trkpt>
<trkpt lat="48.439664" lon="2.715548"><ele></ele><time>2023-1-21T12:26:46Z</time></trkpt>
<trkpt lat="48.439722" lon="2.715661"><ele></ele><time>2023-1-21T12:26:49Z</time></trkpt>
<trkpt lat="48.439831" lon="2.715673"><ele></ele><time>2023-1-21T12:26:52Z</time></trkpt>
<trkpt lat="48.439899" lon="2.715555"><ele></ele><time>2023-1-21T12:26:55Z</time></trkpt>
<trkpt lat="48.439932" lon="2.715407"><ele></ele><time>2023-1-21T12:26:58Z</time></trkpt>
<trkpt lat="48.43996" lon="2.715269"><ele></ele><time>2023-1-21T12:27:1Z</time></trkpt>
<trkpt lat="48.439995" lon="2.715115"><ele></ele><time>2023-1-21T12:27:4Z</time></trkpt>
<trkpt lat="48.440041" lon="2.714949"><ele></ele><time>2023-1-21T12:27:7Z</time></trkpt>
<trkpt lat="48.440103" lon="2.714777"><ele></ele><time>2023-1-21T12:27:10Z</time></trkpt>
<trkpt lat="48.440143" lon="2.714611"><ele></ele><time>2023-1-21T12:27:13Z</time></trkpt>
<trkpt lat="48.440183" lon="2.714439"><ele></ele><time>2023-1-21T12:27:16Z</time></trkpt>
<trkpt lat="48.440226" lon="2.714279"><ele></ele><time>2023-1-21T12:27:19Z</time></trkpt>
<trkpt lat="48.440253" lon="2.714113"><ele></ele><time>2023-1-21T12:27:22Z</time></trkpt>
<trkpt lat="48.440309" lon="2.713939"><ele></ele><time>2023-1-21T12:27:25Z</time></trkpt>
<trkpt lat="48.44036" lon="2.713769"><ele></ele><time>2023-1-21T12:27:28Z</time></trkpt>
<trkpt lat="48.440422" lon="2.713569"><ele></ele><time>2023-1-21T12:27:31Z</time></trkpt>
<trkpt lat="48.440461" lon="2.713433"><ele></ele><time>2023-1-21T12:27:34Z</time></trkpt>
<trkpt lat="48.440475" lon="2.713297"><ele></ele><time>2023-1-21T12:27:37Z</time></trkpt>
<trkpt lat="48.440512" lon="2.713108"><ele></ele><time>2023-1-21T12:27:40Z</time></trkpt>
<trkpt lat="48.440543" lon="2.712925"><ele></ele><time>2023-1-21T12:27:43Z</time></trkpt>
<trkpt lat="48.440579" lon="2.712775"><ele></ele><time>2023-1-21T12:27:46Z</time></trkpt>
<trkpt lat="48.440628" lon="2.712607"><ele></ele><time>2023-1-21T12:27:49Z</time></trkpt>
<trkpt lat="48.440693" lon="2.71245"><ele></ele><time>2023-1-21T12:27:52Z</time></trkpt>
<trkpt lat="48.440716" lon="2.712301"><ele></ele><time>2023-1-21T12:27:55Z</time></trkpt>
<trkpt lat="48.440747" lon="2.712174"><ele></ele><time>2023-1-21T12:27:58Z</time></trkpt>
<trkpt lat="48.440784" lon="2.712012"><ele></ele><time>2023-1-21T12:28:1Z</time></trkpt>
<trkpt lat="48.440846" lon="2.711889"><ele></ele><time>2023-1-21T12:28:4Z</time></trkpt>
<trkpt lat="48.440928" lon="2.711783"><ele></ele><time>2023-1-21T12:28:7Z</time></trkpt>
<trkpt lat="48.441016" lon="2.711721"><ele></ele><time>2023-1-21T12:28:10Z</time></trkpt>
<trkpt lat="48.441098" lon="2.711664"><ele></ele><time>2023-1-21T12:28:13Z</time></trkpt>
<trkpt lat="48.441235" lon="2.711626"><ele></ele><time>2023-1-21T12:28:16Z</time></trkpt>
<trkpt lat="48.441335" lon="2.711563"><ele></ele><time>2023-1-21T12:28:19Z</time></trkpt>
<trkpt lat="48.44141" lon="2.711467"><ele></ele><time>2023-1-21T12:28:22Z</time></trkpt>
<trkpt lat="48.441497" lon="2.711431"><ele></ele><time>2023-1-21T12:28:25Z</time></trkpt>
<trkpt lat="48.441583" lon="2.711368"><ele></ele><time>2023-1-21T12:28:28Z</time></trkpt>
<trkpt lat="48.441698" lon="2.711294"><ele></ele><time>2023-1-21T12:28:31Z</time></trkpt>
<trkpt lat="48.441799" lon="2.71122"><ele></ele><time>2023-1-21T12:28:34Z</time></trkpt>
<trkpt lat="48.441886" lon="2.711134"><ele></ele><time>2023-1-21T12:28:37Z</time></trkpt>
<trkpt lat="48.441988" lon="2.711019"><ele></ele><time>2023-1-21T12:28:40Z</time></trkpt>
<trkpt lat="48.442081" lon="2.710969"><ele></ele><time>2023-1-21T12:28:43Z</time></trkpt>
<trkpt lat="48.442174" lon="2.710915"><ele></ele><time>2023-1-21T12:28:46Z</time></trkpt>
<trkpt lat="48.442303" lon="2.710815"><ele></ele><time>2023-1-21T12:28:49Z</time></trkpt>
<trkpt lat="48.442399" lon="2.710735"><ele></ele><time>2023-1-21T12:28:52Z</time></trkpt>
<trkpt lat="48.442487" lon="2.710703"><ele></ele><time>2023-1-21T12:28:55Z</time></trkpt>
<trkpt lat="48.442579" lon="2.710633"><ele></ele><time>2023-1-21T12:28:58Z</time></trkpt>
<trkpt lat="48.442667" lon="2.710562"><ele></ele><time>2023-1-21T12:29:1Z</time></trkpt>
<trkpt lat="48.442759" lon="2.710469"><ele></ele><time>2023-1-21T12:29:4Z</time></trkpt>
<trkpt lat="48.442862" lon="2.710406"><ele></ele><time>2023-1-21T12:29:7Z</time></trkpt>
<trkpt lat="48.442975" lon="2.71039"><ele></ele><time>2023-1-21T12:29:10Z</time></trkpt>
<trkpt lat="48.443087" lon="2.710287"><ele></ele><time>2023-1-21T12:29:13Z</time></trkpt>
<trkpt lat="48.443187" lon="2.710224"><ele></ele><time>2023-1-21T12:29:16Z</time></trkpt>
<trkpt lat="48.443268" lon="2.710164"><ele></ele><time>2023-1-21T12:29:19Z</time></trkpt>
<trkpt lat="48.443318" lon="2.710042"><ele></ele><time>2023-1-21T12:29:22Z</time></trkpt>
<trkpt lat="48.443354" lon="2.709899"><ele></ele><time>2023-1-21T12:29:25Z</time></trkpt>
<trkpt lat="48.443393" lon="2.709761"><ele></ele><time>2023-1-21T12:29:28Z</time></trkpt>
<trkpt lat="48.443423" lon="2.709616"><ele></ele><time>2023-1-21T12:29:31Z</time></trkpt>
<trkpt lat="48.443473" lon="2.709443"><ele></ele><time>2023-1-21T12:29:34Z</time></trkpt>
<trkpt lat="48.443506" lon="2.709276"><ele></ele><time>2023-1-21T12:29:37Z</time></trkpt>
<trkpt lat="48.443529" lon="2.709128"><ele></ele><time>2023-1-21T12:29:40Z</time></trkpt>
<trkpt lat="48.443559" lon="2.708982"><ele></ele><time>2023-1-21T12:29:43Z</time></trkpt>
<trkpt lat="48.443572" lon="2.70879"><ele></ele><time>2023-1-21T12:29:46Z</time></trkpt>
<trkpt lat="48.443591" lon="2.708647"><ele></ele><time>2023-1-21T12:29:49Z</time></trkpt>
<trkpt lat="48.443598" lon="2.708501"><ele></ele><time>2023-1-21T12:29:52Z</time></trkpt>
<trkpt lat="48.443606" lon="2.708353"><ele></ele><time>2023-1-21T12:29:55Z</time></trkpt>
<trkpt lat="48.443629" lon="2.708221"><ele></ele><time>2023-1-21T12:29:58Z</time></trkpt>
<trkpt lat="48.44365" lon="2.708033"><ele></ele><time>2023-1-21T12:30:1Z</time></trkpt>
<trkpt lat="48.443665" lon="2.707845"><ele></ele><time>2023-1-21T12:30:4Z</time></trkpt>
<trkpt lat="48.443676" lon="2.707666"><ele></ele><time>2023-1-21T12:30:7Z</time></trkpt>
<trkpt lat="48.443693" lon="2.707506"><ele></ele><time>2023-1-21T12:30:10Z</time></trkpt>
<trkpt lat="48.443731" lon="2.707336"><ele></ele><time>2023-1-21T12:30:13Z</time></trkpt>
<trkpt lat="48.443759" lon="2.707166"><ele></ele><time>2023-1-21T12:30:16Z</time></trkpt>
<trkpt lat="48.443785" lon="2.706995"><ele></ele><time>2023-1-21T12:30:19Z</time></trkpt>
<trkpt lat="48.44381" lon="2.706809"><ele></ele><time>2023-1-21T12:30:22Z</time></trkpt>
<trkpt lat="48.443832" lon="2.706643"><ele></ele><time>2023-1-21T12:30:25Z</time></trkpt>
<trkpt lat="48.443868" lon="2.706484"><ele></ele><time>2023-1-21T12:30:28Z</time></trkpt>
<trkpt lat="48.443895" lon="2.706321"><ele></ele><time>2023-1-21T12:30:31Z</time></trkpt>
<trkpt lat="48.443925" lon="2.706174"><ele></ele><time>2023-1-21T12:30:34Z</time></trkpt>
<trkpt lat="48.443948" lon="2.706023"><ele></ele><time>2023-1-21T12:30:37Z</time></trkpt>
<trkpt lat="48.444002" lon="2.705908"><ele></ele><time>2023-1-21T12:30:40Z</time></trkpt>
<trkpt lat="48.444087" lon="2.705853"><ele></ele><time>2023-1-21T12:30:43Z</time></trkpt>
<trkpt lat="48.444164" lon="2.705743"><ele></ele><time>2023-1-21T12:30:46Z</time></trkpt>
<trkpt lat="48.444282" lon="2.705687"><ele></ele><time>2023-1-21T12:30:49Z</time></trkpt>
<trkpt lat="48.444372" lon="2.70565"><ele></ele><time>2023-1-21T12:30:52Z</time></trkpt>
<trkpt lat="48.444461" lon="2.705603"><ele></ele><time>2023-1-21T12:30:55Z</time></trkpt>
<trkpt lat="48.444547" lon="2.705555"><ele></ele><time>2023-1-21T12:30:58Z</time></trkpt>
<trkpt lat="48.444655" lon="2.7055"><ele></ele><time>2023-1-21T12:31:1Z</time></trkpt>
<trkpt lat="48.444744" lon="2.705464"><ele></ele><time>2023-1-21T12:31:4Z</time></trkpt>
<trkpt lat="48.444853" lon="2.705403"><ele></ele><time>2023-1-21T12:31:7Z</time></trkpt>
<trkpt lat="48.444945" lon="2.705344"><ele></ele><time>2023-1-21T12:31:10Z</time></trkpt>
<trkpt lat="48.445034" lon="2.705306"><ele></ele><time>2023-1-21T12:31:13Z</time></trkpt>
<trkpt lat="48.445141" lon="2.705234"><ele></ele><time>2023-1-21T12:31:16Z</time></trkpt>
<trkpt lat="48.445236" lon="2.705172"><ele></ele><time>2023-1-21T12:31:19Z</time></trkpt>
<trkpt lat="48.44535" lon="2.70512"><ele></ele><time>2023-1-21T12:31:22Z</time></trkpt>
<trkpt lat="48.445466" lon="2.705093"><ele></ele><time>2023-1-21T12:31:25Z</time></trkpt>
<trkpt lat="48.445566" lon="2.705073"><ele></ele><time>2023-1-21T12:31:28Z</time></trkpt>
<trkpt lat="48.445661" lon="2.704996"><ele></ele><time>2023-1-21T12:31:31Z</time></trkpt>
<trkpt lat="48.445765" lon="2.704952"><ele></ele><time>2023-1-21T12:31:34Z</time></trkpt>
<trkpt lat="48.445888" lon="2.704949"><ele></ele><time>2023-1-21T12:31:37Z</time></trkpt>
<trkpt lat="48.445981" lon="2.704923"><ele></ele><time>2023-1-21T12:31:40Z</time></trkpt>
<trkpt lat="48.446113" lon="2.704901"><ele></ele><time>2023-1-21T12:31:43Z</time></trkpt>
<trkpt lat="48.446216" lon="2.704808"><ele></ele><time>2023-1-21T12:31:46Z</time></trkpt>
<trkpt lat="48.446266" lon="2.704693"><ele></ele><time>2023-1-21T12:31:49Z</time></trkpt>
<trkpt lat="48.446301" lon="2.704552"><ele></ele><time>2023-1-21T12:31:52Z</time></trkpt>
<trkpt lat="48.44636" lon="2.704376"><ele></ele><time>2023-1-21T12:31:55Z</time></trkpt>
<trkpt lat="48.446394" lon="2.70424"><ele></ele><time>2023-1-21T12:31:58Z</time></trkpt>
<trkpt lat="48.446415" lon="2.7041"><ele></ele><time>2023-1-21T12:32:1Z</time></trkpt>
<trkpt lat="48.446441" lon="2.703917"><ele></ele><time>2023-1-21T12:32:4Z</time></trkpt>
<trkpt lat="48.446468" lon="2.70373"><ele></ele><time>2023-1-21T12:32:7Z</time></trkpt>
<trkpt lat="48.446501" lon="2.703546"><ele></ele><time>2023-1-21T12:32:10Z</time></trkpt>
<trkpt lat="48.446544" lon="2.703371"><ele></ele><time>2023-1-21T12:32:13Z</time></trkpt>
<trkpt lat="48.446572" lon="2.703222"><ele></ele><time>2023-1-21T12:32:16Z</time></trkpt>
<trkpt lat="48.44661" lon="2.70308"><ele></ele><time>2023-1-21T12:32:19Z</time></trkpt>
<trkpt lat="48.44662" lon="2.70289"><ele></ele><time>2023-1-21T12:32:22Z</time></trkpt>
<trkpt lat="48.446633" lon="2.702712"><ele></ele><time>2023-1-21T12:32:25Z</time></trkpt>
<trkpt lat="48.446655" lon="2.702568"><ele></ele><time>2023-1-21T12:32:28Z</time></trkpt>
<trkpt lat="48.446683" lon="2.702419"><ele></ele><time>2023-1-21T12:32:31Z</time></trkpt>
<trkpt lat="48.446693" lon="2.702241"><ele></ele><time>2023-1-21T12:32:34Z</time></trkpt>
<trkpt lat="48.446708" lon="2.70205"><ele></ele><time>2023-1-21T12:32:37Z</time></trkpt>
<trkpt lat="48.446726" lon="2.701854"><ele></ele><time>2023-1-21T12:32:40Z</time></trkpt>
<trkpt lat="48.446752" lon="2.701676"><ele></ele><time>2023-1-21T12:32:43Z</time></trkpt>
<trkpt lat="48.446772" lon="2.701531"><ele></ele><time>2023-1-21T12:32:46Z</time></trkpt>
<trkpt lat="48.446782" lon="2.701386"><ele></ele><time>2023-1-21T12:32:49Z</time></trkpt>
<trkpt lat="48.446811" lon="2.701237"><ele></ele><time>2023-1-21T12:32:52Z</time></trkpt>
<trkpt lat="48.446828" lon="2.701088"><ele></ele><time>2023-1-21T12:32:55Z</time></trkpt>
<trkpt lat="48.446826" lon="2.700944"><ele></ele><time>2023-1-21T12:32:58Z</time></trkpt>
<trkpt lat="48.44683" lon="2.700773"><ele></ele><time>2023-1-21T12:33:1Z</time></trkpt>
<trkpt lat="48.446845" lon="2.700633"><ele></ele><time>2023-1-21T12:33:4Z</time></trkpt>
<trkpt lat="48.446886" lon="2.700463"><ele></ele><time>2023-1-21T12:33:7Z</time></trkpt>
<trkpt lat="48.446928" lon="2.700325"><ele></ele><time>2023-1-21T12:33:10Z</time></trkpt>
<trkpt lat="48.446932" lon="2.700186"><ele></ele><time>2023-1-21T12:33:13Z</time></trkpt>
<trkpt lat="48.446948" lon="2.70005"><ele></ele><time>2023-1-21T12:33:16Z</time></trkpt>
<trkpt lat="48.446985" lon="2.699884"><ele></ele><time>2023-1-21T12:33:19Z</time></trkpt>
<trkpt lat="48.446999" lon="2.699705"><ele></ele><time>2023-1-21T12:33:22Z</time></trkpt>
<trkpt lat="48.447019" lon="2.699539"><ele></ele><time>2023-1-21T12:33:25Z</time></trkpt>
<trkpt lat="48.447027" lon="2.699373"><ele></ele><time>2023-1-21T12:33:28Z</time></trkpt>
<trkpt lat="48.447043" lon="2.699198"><ele></ele><time>2023-1-21T12:33:31Z</time></trkpt>
<trkpt lat="48.447071" lon="2.699051"><ele></ele><time>2023-1-21T12:33:34Z</time></trkpt>
<trkpt lat="48.447086" lon="2.69886"><ele></ele><time>2023-1-21T12:33:37Z</time></trkpt>
<trkpt lat="48.447092" lon="2.698681"><ele></ele><time>2023-1-21T12:33:40Z</time></trkpt>
<trkpt lat="48.447111" lon="2.698514"><ele></ele><time>2023-1-21T12:33:43Z</time></trkpt>
<trkpt lat="48.447135" lon="2.698369"><ele></ele><time>2023-1-21T12:33:46Z</time></trkpt>
<trkpt lat="48.447142" lon="2.698212"><ele></ele><time>2023-1-21T12:33:49Z</time></trkpt>
<trkpt lat="48.447176" lon="2.698072"><ele></ele><time>2023-1-21T12:33:52Z</time></trkpt>
<trkpt lat="48.447188" lon="2.697937"><ele></ele><time>2023-1-21T12:33:55Z</time></trkpt>
<trkpt lat="48.447219" lon="2.697944"><ele></ele><time>2023-1-21T12:33:58Z</time></trkpt>
<trkpt lat="48.447216" lon="2.697945"><ele></ele><time>2023-1-21T12:34:1Z</time></trkpt>
<trkpt lat="48.447189" lon="2.697941"><ele></ele><time>2023-1-21T12:34:4Z</time></trkpt>
<trkpt lat="48.447185" lon="2.697937"><ele></ele><time>2023-1-21T12:34:7Z</time></trkpt>
<trkpt lat="48.447196" lon="2.697794"><ele></ele><time>2023-1-21T12:34:10Z</time></trkpt>
<trkpt lat="48.447226" lon="2.697649"><ele></ele><time>2023-1-21T12:34:13Z</time></trkpt>
<trkpt lat="48.447243" lon="2.69748"><ele></ele><time>2023-1-21T12:34:16Z</time></trkpt>
<trkpt lat="48.447261" lon="2.697318"><ele></ele><time>2023-1-21T12:34:19Z</time></trkpt>
<trkpt lat="48.4473" lon="2.697167"><ele></ele><time>2023-1-21T12:34:22Z</time></trkpt>
<trkpt lat="48.447326" lon="2.696997"><ele></ele><time>2023-1-21T12:34:25Z</time></trkpt>
<trkpt lat="48.447346" lon="2.696809"><ele></ele><time>2023-1-21T12:34:28Z</time></trkpt>
<trkpt lat="48.447366" lon="2.696649"><ele></ele><time>2023-1-21T12:34:31Z</time></trkpt>
<trkpt lat="48.447395" lon="2.696506"><ele></ele><time>2023-1-21T12:34:34Z</time></trkpt>
<trkpt lat="48.447414" lon="2.696341"><ele></ele><time>2023-1-21T12:34:37Z</time></trkpt>
<trkpt lat="48.447427" lon="2.696164"><ele></ele><time>2023-1-21T12:34:40Z</time></trkpt>
<trkpt lat="48.44744" lon="2.696002"><ele></ele><time>2023-1-21T12:34:43Z</time></trkpt>
<trkpt lat="48.447468" lon="2.695827"><ele></ele><time>2023-1-21T12:34:46Z</time></trkpt>
<trkpt lat="48.447494" lon="2.695687"><ele></ele><time>2023-1-21T12:34:49Z</time></trkpt>
<trkpt lat="48.447514" lon="2.695502"><ele></ele><time>2023-1-21T12:34:52Z</time></trkpt>
<trkpt lat="48.447534" lon="2.695309"><ele></ele><time>2023-1-21T12:34:55Z</time></trkpt>
<trkpt lat="48.447567" lon="2.695115"><ele></ele><time>2023-1-21T12:34:58Z</time></trkpt>
<trkpt lat="48.447586" lon="2.694945"><ele></ele><time>2023-1-21T12:35:1Z</time></trkpt>
<trkpt lat="48.447595" lon="2.694796"><ele></ele><time>2023-1-21T12:35:4Z</time></trkpt>
<trkpt lat="48.447611" lon="2.694642"><ele></ele><time>2023-1-21T12:35:7Z</time></trkpt>
<trkpt lat="48.447628" lon="2.694492"><ele></ele><time>2023-1-21T12:35:10Z</time></trkpt>
<trkpt lat="48.44764" lon="2.694355"><ele></ele><time>2023-1-21T12:35:13Z</time></trkpt>
<trkpt lat="48.447666" lon="2.69419"><ele></ele><time>2023-1-21T12:35:16Z</time></trkpt>
<trkpt lat="48.447696" lon="2.694039"><ele></ele><time>2023-1-21T12:35:19Z</time></trkpt>
<trkpt lat="48.447727" lon="2.693894"><ele></ele><time>2023-1-21T12:35:22Z</time></trkpt>
<trkpt lat="48.447752" lon="2.693722"><ele></ele><time>2023-1-21T12:35:25Z</time></trkpt>
<trkpt lat="48.447788" lon="2.693555"><ele></ele><time>2023-1-21T12:35:28Z</time></trkpt>
<trkpt lat="48.447818" lon="2.693379"><ele></ele><time>2023-1-21T12:35:31Z</time></trkpt>
<trkpt lat="48.44783" lon="2.693212"><ele></ele><time>2023-1-21T12:35:34Z</time></trkpt>
<trkpt lat="48.447853" lon="2.693049"><ele></ele><time>2023-1-21T12:35:37Z</time></trkpt>
<trkpt lat="48.447875" lon="2.692874"><ele></ele><time>2023-1-21T12:35:40Z</time></trkpt>
<trkpt lat="48.447905" lon="2.692733"><ele></ele><time>2023-1-21T12:35:43Z</time></trkpt>
<trkpt lat="48.447934" lon="2.692589"><ele></ele><time>2023-1-21T12:35:46Z</time></trkpt>
<trkpt lat="48.447937" lon="2.69242"><ele></ele><time>2023-1-21T12:35:49Z</time></trkpt>
<trkpt lat="48.447948" lon="2.692251"><ele></ele><time>2023-1-21T12:35:52Z</time></trkpt>
<trkpt lat="48.447962" lon="2.692094"><ele></ele><time>2023-1-21T12:35:55Z</time></trkpt>
<trkpt lat="48.447992" lon="2.691946"><ele></ele><time>2023-1-21T12:35:58Z</time></trkpt>
<trkpt lat="48.448011" lon="2.691798"><ele></ele><time>2023-1-21T12:36:1Z</time></trkpt>
<trkpt lat="48.448029" lon="2.691657"><ele></ele><time>2023-1-21T12:36:4Z</time></trkpt>
<trkpt lat="48.448043" lon="2.691522"><ele></ele><time>2023-1-21T12:36:7Z</time></trkpt>
<trkpt lat="48.448071" lon="2.691345"><ele></ele><time>2023-1-21T12:36:10Z</time></trkpt>
<trkpt lat="48.448089" lon="2.691178"><ele></ele><time>2023-1-21T12:36:13Z</time></trkpt>
<trkpt lat="48.448106" lon="2.691037"><ele></ele><time>2023-1-21T12:36:16Z</time></trkpt>
<trkpt lat="48.448131" lon="2.690903"><ele></ele><time>2023-1-21T12:36:19Z</time></trkpt>
<trkpt lat="48.44815" lon="2.690764"><ele></ele><time>2023-1-21T12:36:22Z</time></trkpt>
<trkpt lat="48.448157" lon="2.690617"><ele></ele><time>2023-1-21T12:36:25Z</time></trkpt>
<trkpt lat="48.448168" lon="2.690441"><ele></ele><time>2023-1-21T12:36:28Z</time></trkpt>
<trkpt lat="48.448192" lon="2.69028"><ele></ele><time>2023-1-21T12:36:31Z</time></trkpt>
<trkpt lat="48.448224" lon="2.690121"><ele></ele><time>2023-1-21T12:36:34Z</time></trkpt>
<trkpt lat="48.448264" lon="2.689974"><ele></ele><time>2023-1-21T12:36:37Z</time></trkpt>
<trkpt lat="48.448278" lon="2.689818"><ele></ele><time>2023-1-21T12:36:40Z</time></trkpt>
<trkpt lat="48.448276" lon="2.689679"><ele></ele><time>2023-1-21T12:36:43Z</time></trkpt>
<trkpt lat="48.448281" lon="2.689529"><ele></ele><time>2023-1-21T12:36:46Z</time></trkpt>
<trkpt lat="48.448285" lon="2.689364"><ele></ele><time>2023-1-21T12:36:49Z</time></trkpt>
<trkpt lat="48.448302" lon="2.689201"><ele></ele><time>2023-1-21T12:36:52Z</time></trkpt>
<trkpt lat="48.448315" lon="2.689038"><ele></ele><time>2023-1-21T12:36:55Z</time></trkpt>
<trkpt lat="48.448331" lon="2.688902"><ele></ele><time>2023-1-21T12:36:58Z</time></trkpt>
<trkpt lat="48.448353" lon="2.688768"><ele></ele><time>2023-1-21T12:37:1Z</time></trkpt>
<trkpt lat="48.448364" lon="2.688623"><ele></ele><time>2023-1-21T12:37:4Z</time></trkpt>
<trkpt lat="48.4484" lon="2.688483"><ele></ele><time>2023-1-21T12:37:7Z</time></trkpt>
<trkpt lat="48.448382" lon="2.688337"><ele></ele><time>2023-1-21T12:37:10Z</time></trkpt>
<trkpt lat="48.448354" lon="2.688204"><ele></ele><time>2023-1-21T12:37:13Z</time></trkpt>
<trkpt lat="48.448353" lon="2.688197"><ele></ele><time>2023-1-21T12:37:16Z</time></trkpt>
<trkpt lat="48.448356" lon="2.688186"><ele></ele><time>2023-1-21T12:37:19Z</time></trkpt>
<trkpt lat="48.448407" lon="2.688054"><ele></ele><time>2023-1-21T12:37:22Z</time></trkpt>
<trkpt lat="48.448427" lon="2.687917"><ele></ele><time>2023-1-21T12:37:25Z</time></trkpt>
<trkpt lat="48.448442" lon="2.687761"><ele></ele><time>2023-1-21T12:37:28Z</time></trkpt>
<trkpt lat="48.448479" lon="2.68762"><ele></ele><time>2023-1-21T12:37:31Z</time></trkpt>
<trkpt lat="48.448524" lon="2.6875"><ele></ele><time>2023-1-21T12:37:34Z</time></trkpt>
<trkpt lat="48.448544" lon="2.687362"><ele></ele><time>2023-1-21T12:37:37Z</time></trkpt>
<trkpt lat="48.448569" lon="2.68722"><ele></ele><time>2023-1-21T12:37:40Z</time></trkpt>
<trkpt lat="48.448572" lon="2.687084"><ele></ele><time>2023-1-21T12:37:43Z</time></trkpt>
<trkpt lat="48.448638" lon="2.686967"><ele></ele><time>2023-1-21T12:37:46Z</time></trkpt>
<trkpt lat="48.44871" lon="2.686855"><ele></ele><time>2023-1-21T12:37:49Z</time></trkpt>
<trkpt lat="48.448769" lon="2.686734"><ele></ele><time>2023-1-21T12:37:52Z</time></trkpt>
<trkpt lat="48.448835" lon="2.686617"><ele></ele><time>2023-1-21T12:37:55Z</time></trkpt>
<trkpt lat="48.448912" lon="2.686513"><ele></ele><time>2023-1-21T12:37:58Z</time></trkpt>
<trkpt lat="48.448993" lon="2.686385"><ele></ele><time>2023-1-21T12:38:1Z</time></trkpt>
<trkpt lat="48.449058" lon="2.686269"><ele></ele><time>2023-1-21T12:38:4Z</time></trkpt>
<trkpt lat="48.449135" lon="2.686157"><ele></ele><time>2023-1-21T12:38:7Z</time></trkpt>
<trkpt lat="48.44926" lon="2.68605"><ele></ele><time>2023-1-21T12:38:10Z</time></trkpt>
<trkpt lat="48.449366" lon="2.685956"><ele></ele><time>2023-1-21T12:38:13Z</time></trkpt>
<trkpt lat="48.449482" lon="2.685862"><ele></ele><time>2023-1-21T12:38:16Z</time></trkpt>
<trkpt lat="48.449592" lon="2.685741"><ele></ele><time>2023-1-21T12:38:19Z</time></trkpt>
<trkpt lat="48.4497" lon="2.685606"><ele></ele><time>2023-1-21T12:38:22Z</time></trkpt>
<trkpt lat="48.44979" lon="2.685482"><ele></ele><time>2023-1-21T12:38:25Z</time></trkpt>
<trkpt lat="48.449861" lon="2.685375"><ele></ele><time>2023-1-21T12:38:28Z</time></trkpt>
<trkpt lat="48.449939" lon="2.685305"><ele></ele><time>2023-1-21T12:38:31Z</time></trkpt>
<trkpt lat="48.450027" lon="2.685187"><ele></ele><time>2023-1-21T12:38:34Z</time></trkpt>
<trkpt lat="48.450106" lon="2.685103"><ele></ele><time>2023-1-21T12:38:37Z</time></trkpt>
<trkpt lat="48.450202" lon="2.685005"><ele></ele><time>2023-1-21T12:38:40Z</time></trkpt>
<trkpt lat="48.450288" lon="2.684925"><ele></ele><time>2023-1-21T12:38:43Z</time></trkpt>
<trkpt lat="48.450383" lon="2.684853"><ele></ele><time>2023-1-21T12:38:46Z</time></trkpt>
<trkpt lat="48.450466" lon="2.684767"><ele></ele><time>2023-1-21T12:38:49Z</time></trkpt>
<trkpt lat="48.450549" lon="2.684668"><ele></ele><time>2023-1-21T12:38:52Z</time></trkpt>
<trkpt lat="48.450639" lon="2.684562"><ele></ele><time>2023-1-21T12:38:55Z</time></trkpt>
<trkpt lat="48.450708" lon="2.684457"><ele></ele><time>2023-1-21T12:38:58Z</time></trkpt>
<trkpt lat="48.450784" lon="2.684356"><ele></ele><time>2023-1-21T12:39:1Z</time></trkpt>
<trkpt lat="48.450885" lon="2.684273"><ele></ele><time>2023-1-21T12:39:4Z</time></trkpt>
<trkpt lat="48.450969" lon="2.684165"><ele></ele><time>2023-1-21T12:39:7Z</time></trkpt>
<trkpt lat="48.451043" lon="2.684068"><ele></ele><time>2023-1-21T12:39:10Z</time></trkpt>
<trkpt lat="48.45111" lon="2.683963"><ele></ele><time>2023-1-21T12:39:13Z</time></trkpt>
<trkpt lat="48.451189" lon="2.683878"><ele></ele><time>2023-1-21T12:39:16Z</time></trkpt>
<trkpt lat="48.451271" lon="2.683802"><ele></ele><time>2023-1-21T12:39:19Z</time></trkpt>
<trkpt lat="48.451343" lon="2.683704"><ele></ele><time>2023-1-21T12:39:22Z</time></trkpt>
<trkpt lat="48.451417" lon="2.683593"><ele></ele><time>2023-1-21T12:39:25Z</time></trkpt>
<trkpt lat="48.451497" lon="2.683476"><ele></ele><time>2023-1-21T12:39:28Z</time></trkpt>
<trkpt lat="48.45157" lon="2.683386"><ele></ele><time>2023-1-21T12:39:31Z</time></trkpt>
<trkpt lat="48.45165" lon="2.683271"><ele></ele><time>2023-1-21T12:39:34Z</time></trkpt>
<trkpt lat="48.451728" lon="2.683182"><ele></ele><time>2023-1-21T12:39:37Z</time></trkpt>
<trkpt lat="48.451814" lon="2.683074"><ele></ele><time>2023-1-21T12:39:40Z</time></trkpt>
<trkpt lat="48.451897" lon="2.683004"><ele></ele><time>2023-1-21T12:39:43Z</time></trkpt>
<trkpt lat="48.451985" lon="2.68294"><ele></ele><time>2023-1-21T12:39:46Z</time></trkpt>
<trkpt lat="48.452067" lon="2.682863"><ele></ele><time>2023-1-21T12:39:49Z</time></trkpt>
<trkpt lat="48.452162" lon="2.682792"><ele></ele><time>2023-1-21T12:39:52Z</time></trkpt>
<trkpt lat="48.452271" lon="2.682734"><ele></ele><time>2023-1-21T12:39:55Z</time></trkpt>
<trkpt lat="48.452363" lon="2.68269"><ele></ele><time>2023-1-21T12:39:58Z</time></trkpt>
<trkpt lat="48.452481" lon="2.682626"><ele></ele><time>2023-1-21T12:40:1Z</time></trkpt>
<trkpt lat="48.452587" lon="2.682558"><ele></ele><time>2023-1-21T12:40:4Z</time></trkpt>
<trkpt lat="48.452689" lon="2.682497"><ele></ele><time>2023-1-21T12:40:7Z</time></trkpt>
<trkpt lat="48.452771" lon="2.682436"><ele></ele><time>2023-1-21T12:40:10Z</time></trkpt>
<trkpt lat="48.452872" lon="2.682369"><ele></ele><time>2023-1-21T12:40:13Z</time></trkpt>
<trkpt lat="48.452979" lon="2.682301"><ele></ele><time>2023-1-21T12:40:16Z</time></trkpt>
<trkpt lat="48.45309" lon="2.682221"><ele></ele><time>2023-1-21T12:40:19Z</time></trkpt>
<trkpt lat="48.453194" lon="2.682177"><ele></ele><time>2023-1-21T12:40:22Z</time></trkpt>
<trkpt lat="48.453299" lon="2.682103"><ele></ele><time>2023-1-21T12:40:25Z</time></trkpt>
<trkpt lat="48.453366" lon="2.68197"><ele></ele><time>2023-1-21T12:40:28Z</time></trkpt>
<trkpt lat="48.453407" lon="2.681808"><ele></ele><time>2023-1-21T12:40:31Z</time></trkpt>
<trkpt lat="48.453458" lon="2.68165"><ele></ele><time>2023-1-21T12:40:34Z</time></trkpt>
<trkpt lat="48.453522" lon="2.681496"><ele></ele><time>2023-1-21T12:40:37Z</time></trkpt>
<trkpt lat="48.453577" lon="2.681318"><ele></ele><time>2023-1-21T12:40:40Z</time></trkpt>
<trkpt lat="48.453631" lon="2.681157"><ele></ele><time>2023-1-21T12:40:43Z</time></trkpt>
<trkpt lat="48.45369" lon="2.680988"><ele></ele><time>2023-1-21T12:40:46Z</time></trkpt>
<trkpt lat="48.453745" lon="2.680816"><ele></ele><time>2023-1-21T12:40:49Z</time></trkpt>
<trkpt lat="48.453791" lon="2.680669"><ele></ele><time>2023-1-21T12:40:52Z</time></trkpt>
<trkpt lat="48.453835" lon="2.680515"><ele></ele><time>2023-1-21T12:40:55Z</time></trkpt>
<trkpt lat="48.453874" lon="2.680376"><ele></ele><time>2023-1-21T12:40:58Z</time></trkpt>
<trkpt lat="48.453917" lon="2.680254"><ele></ele><time>2023-1-21T12:41:1Z</time></trkpt>
<trkpt lat="48.453973" lon="2.680127"><ele></ele><time>2023-1-21T12:41:4Z</time></trkpt>
<trkpt lat="48.454006" lon="2.679997"><ele></ele><time>2023-1-21T12:41:7Z</time></trkpt>
<trkpt lat="48.454052" lon="2.679864"><ele></ele><time>2023-1-21T12:41:10Z</time></trkpt>
<trkpt lat="48.454091" lon="2.679723"><ele></ele><time>2023-1-21T12:41:13Z</time></trkpt>
<trkpt lat="48.454141" lon="2.679591"><ele></ele><time>2023-1-21T12:41:16Z</time></trkpt>
<trkpt lat="48.454192" lon="2.679438"><ele></ele><time>2023-1-21T12:41:19Z</time></trkpt>
<trkpt lat="48.454213" lon="2.67929"><ele></ele><time>2023-1-21T12:41:22Z</time></trkpt>
<trkpt lat="48.454242" lon="2.679148"><ele></ele><time>2023-1-21T12:41:25Z</time></trkpt>
<trkpt lat="48.454272" lon="2.679017"><ele></ele><time>2023-1-21T12:41:28Z</time></trkpt>
<trkpt lat="48.454326" lon="2.678888"><ele></ele><time>2023-1-21T12:41:31Z</time></trkpt>
<trkpt lat="48.454378" lon="2.67874"><ele></ele><time>2023-1-21T12:41:34Z</time></trkpt>
<trkpt lat="48.454432" lon="2.678609"><ele></ele><time>2023-1-21T12:41:37Z</time></trkpt>
<trkpt lat="48.454485" lon="2.678497"><ele></ele><time>2023-1-21T12:41:40Z</time></trkpt>
<trkpt lat="48.454531" lon="2.678372"><ele></ele><time>2023-1-21T12:41:43Z</time></trkpt>
<trkpt lat="48.454567" lon="2.678235"><ele></ele><time>2023-1-21T12:41:46Z</time></trkpt>
<trkpt lat="48.454616" lon="2.678081"><ele></ele><time>2023-1-21T12:41:49Z</time></trkpt>
<trkpt lat="48.454644" lon="2.677942"><ele></ele><time>2023-1-21T12:41:52Z</time></trkpt>
<trkpt lat="48.454689" lon="2.677786"><ele></ele><time>2023-1-21T12:41:55Z</time></trkpt>
<trkpt lat="48.454735" lon="2.677654"><ele></ele><time>2023-1-21T12:41:58Z</time></trkpt>
<trkpt lat="48.454782" lon="2.677496"><ele></ele><time>2023-1-21T12:42:1Z</time></trkpt>
<trkpt lat="48.454831" lon="2.677362"><ele></ele><time>2023-1-21T12:42:4Z</time></trkpt>
<trkpt lat="48.454856" lon="2.67723"><ele></ele><time>2023-1-21T12:42:7Z</time></trkpt>
<trkpt lat="48.454896" lon="2.677095"><ele></ele><time>2023-1-21T12:42:10Z</time></trkpt>
<trkpt lat="48.45494" lon="2.676962"><ele></ele><time>2023-1-21T12:42:13Z</time></trkpt>
<trkpt lat="48.454987" lon="2.676826"><ele></ele><time>2023-1-21T12:42:16Z</time></trkpt>
<trkpt lat="48.455032" lon="2.676675"><ele></ele><time>2023-1-21T12:42:19Z</time></trkpt>
<trkpt lat="48.455086" lon="2.676556"><ele></ele><time>2023-1-21T12:42:22Z</time></trkpt>
<trkpt lat="48.45514" lon="2.676421"><ele></ele><time>2023-1-21T12:42:25Z</time></trkpt>
<trkpt lat="48.455183" lon="2.676281"><ele></ele><time>2023-1-21T12:42:28Z</time></trkpt>
<trkpt lat="48.455218" lon="2.676154"><ele></ele><time>2023-1-21T12:42:31Z</time></trkpt>
<trkpt lat="48.45524" lon="2.675999"><ele></ele><time>2023-1-21T12:42:34Z</time></trkpt>
<trkpt lat="48.455308" lon="2.675878"><ele></ele><time>2023-1-21T12:42:37Z</time></trkpt>
<trkpt lat="48.455374" lon="2.675723"><ele></ele><time>2023-1-21T12:42:40Z</time></trkpt>
<trkpt lat="48.455428" lon="2.675569"><ele></ele><time>2023-1-21T12:42:43Z</time></trkpt>
<trkpt lat="48.455475" lon="2.675428"><ele></ele><time>2023-1-21T12:42:46Z</time></trkpt>
<trkpt lat="48.455535" lon="2.675279"><ele></ele><time>2023-1-21T12:42:49Z</time></trkpt>
<trkpt lat="48.455589" lon="2.675133"><ele></ele><time>2023-1-21T12:42:52Z</time></trkpt>
<trkpt lat="48.455664" lon="2.675036"><ele></ele><time>2023-1-21T12:42:55Z</time></trkpt>
<trkpt lat="48.455708" lon="2.674909"><ele></ele><time>2023-1-21T12:42:58Z</time></trkpt>
<trkpt lat="48.455719" lon="2.674763"><ele></ele><time>2023-1-21T12:43:1Z</time></trkpt>
<trkpt lat="48.455753" lon="2.674633"><ele></ele><time>2023-1-21T12:43:4Z</time></trkpt>
<trkpt lat="48.455793" lon="2.674453"><ele></ele><time>2023-1-21T12:43:7Z</time></trkpt>
<trkpt lat="48.455841" lon="2.674315"><ele></ele><time>2023-1-21T12:43:10Z</time></trkpt>
<trkpt lat="48.455882" lon="2.674181"><ele></ele><time>2023-1-21T12:43:13Z</time></trkpt>
<trkpt lat="48.45593" lon="2.674039"><ele></ele><time>2023-1-21T12:43:16Z</time></trkpt>
<trkpt lat="48.455984" lon="2.673921"><ele></ele><time>2023-1-21T12:43:19Z</time></trkpt>
<trkpt lat="48.456026" lon="2.673788"><ele></ele><time>2023-1-21T12:43:22Z</time></trkpt>
<trkpt lat="48.456063" lon="2.673644"><ele></ele><time>2023-1-21T12:43:25Z</time></trkpt>
<trkpt lat="48.456098" lon="2.673512"><ele></ele><time>2023-1-21T12:43:28Z</time></trkpt>
<trkpt lat="48.456144" lon="2.673379"><ele></ele><time>2023-1-21T12:43:31Z</time></trkpt>
<trkpt lat="48.45619" lon="2.673236"><ele></ele><time>2023-1-21T12:43:34Z</time></trkpt>
<trkpt lat="48.456233" lon="2.673054"><ele></ele><time>2023-1-21T12:43:37Z</time></trkpt>
<trkpt lat="48.456275" lon="2.672902"><ele></ele><time>2023-1-21T12:43:40Z</time></trkpt>
<trkpt lat="48.456319" lon="2.672746"><ele></ele><time>2023-1-21T12:43:43Z</time></trkpt>
<trkpt lat="48.456365" lon="2.672569"><ele></ele><time>2023-1-21T12:43:46Z</time></trkpt>
<trkpt lat="48.456417" lon="2.672419"><ele></ele><time>2023-1-21T12:43:49Z</time></trkpt>
<trkpt lat="48.456468" lon="2.672269"><ele></ele><time>2023-1-21T12:43:52Z</time></trkpt>
<trkpt lat="48.456505" lon="2.672145"><ele></ele><time>2023-1-21T12:43:55Z</time></trkpt>
<trkpt lat="48.456528" lon="2.671996"><ele></ele><time>2023-1-21T12:43:58Z</time></trkpt>
<trkpt lat="48.456579" lon="2.671844"><ele></ele><time>2023-1-21T12:44:1Z</time></trkpt>
<trkpt lat="48.456626" lon="2.671711"><ele></ele><time>2023-1-21T12:44:4Z</time></trkpt>
<trkpt lat="48.456677" lon="2.671573"><ele></ele><time>2023-1-21T12:44:7Z</time></trkpt>
<trkpt lat="48.456726" lon="2.671434"><ele></ele><time>2023-1-21T12:44:10Z</time></trkpt>
<trkpt lat="48.456778" lon="2.671301"><ele></ele><time>2023-1-21T12:44:13Z</time></trkpt>
<trkpt lat="48.456841" lon="2.671168"><ele></ele><time>2023-1-21T12:44:16Z</time></trkpt>
<trkpt lat="48.456902" lon="2.671058"><ele></ele><time>2023-1-21T12:44:19Z</time></trkpt>
<trkpt lat="48.45695" lon="2.670906"><ele></ele><time>2023-1-21T12:44:22Z</time></trkpt>
<trkpt lat="48.457013" lon="2.670795"><ele></ele><time>2023-1-21T12:44:25Z</time></trkpt>
<trkpt lat="48.457056" lon="2.670675"><ele></ele><time>2023-1-21T12:44:28Z</time></trkpt>
<trkpt lat="48.457101" lon="2.670527"><ele></ele><time>2023-1-21T12:44:31Z</time></trkpt>
<trkpt lat="48.45714" lon="2.670375"><ele></ele><time>2023-1-21T12:44:34Z</time></trkpt>
<trkpt lat="48.457152" lon="2.670233"><ele></ele><time>2023-1-21T12:44:37Z</time></trkpt>
<trkpt lat="48.457183" lon="2.67009"><ele></ele><time>2023-1-21T12:44:40Z</time></trkpt>
<trkpt lat="48.457229" lon="2.669951"><ele></ele><time>2023-1-21T12:44:43Z</time></trkpt>
<trkpt lat="48.457265" lon="2.669814"><ele></ele><time>2023-1-21T12:44:46Z</time></trkpt>
<trkpt lat="48.457314" lon="2.669692"><ele></ele><time>2023-1-21T12:44:49Z</time></trkpt>
<trkpt lat="48.45736" lon="2.669567"><ele></ele><time>2023-1-21T12:44:52Z</time></trkpt>
<trkpt lat="48.457412" lon="2.669437"><ele></ele><time>2023-1-21T12:44:55Z</time></trkpt>
<trkpt lat="48.457466" lon="2.669297"><ele></ele><time>2023-1-21T12:44:58Z</time></trkpt>
<trkpt lat="48.457504" lon="2.669146"><ele></ele><time>2023-1-21T12:45:1Z</time></trkpt>
<trkpt lat="48.457551" lon="2.668998"><ele></ele><time>2023-1-21T12:45:4Z</time></trkpt>
<trkpt lat="48.45761" lon="2.668849"><ele></ele><time>2023-1-21T12:45:7Z</time></trkpt>
<trkpt lat="48.457647" lon="2.668721"><ele></ele><time>2023-1-21T12:45:10Z</time></trkpt>
<trkpt lat="48.457686" lon="2.668568"><ele></ele><time>2023-1-21T12:45:13Z</time></trkpt>
<trkpt lat="48.457725" lon="2.668432"><ele></ele><time>2023-1-21T12:45:16Z</time></trkpt>
<trkpt lat="48.457773" lon="2.668303"><ele></ele><time>2023-1-21T12:45:19Z</time></trkpt>
<trkpt lat="48.45783" lon="2.668169"><ele></ele><time>2023-1-21T12:45:22Z</time></trkpt>
<trkpt lat="48.457881" lon="2.668034"><ele></ele><time>2023-1-21T12:45:25Z</time></trkpt>
<trkpt lat="48.457911" lon="2.667881"><ele></ele><time>2023-1-21T12:45:28Z</time></trkpt>
<trkpt lat="48.457965" lon="2.667752"><ele></ele><time>2023-1-21T12:45:31Z</time></trkpt>
<trkpt lat="48.458006" lon="2.667615"><ele></ele><time>2023-1-21T12:45:34Z</time></trkpt>
<trkpt lat="48.458067" lon="2.667478"><ele></ele><time>2023-1-21T12:45:37Z</time></trkpt>
<trkpt lat="48.458123" lon="2.667362"><ele></ele><time>2023-1-21T12:45:40Z</time></trkpt>
<trkpt lat="48.458199" lon="2.667225"><ele></ele><time>2023-1-21T12:45:43Z</time></trkpt>
<trkpt lat="48.458239" lon="2.667062"><ele></ele><time>2023-1-21T12:45:46Z</time></trkpt>
<trkpt lat="48.458298" lon="2.666909"><ele></ele><time>2023-1-21T12:45:49Z</time></trkpt>
<trkpt lat="48.458358" lon="2.666765"><ele></ele><time>2023-1-21T12:45:52Z</time></trkpt>
<trkpt lat="48.458416" lon="2.666598"><ele></ele><time>2023-1-21T12:45:55Z</time></trkpt>
<trkpt lat="48.458468" lon="2.666418"><ele></ele><time>2023-1-21T12:45:58Z</time></trkpt>
<trkpt lat="48.458518" lon="2.666235"><ele></ele><time>2023-1-21T12:46:1Z</time></trkpt>
<trkpt lat="48.458578" lon="2.666061"><ele></ele><time>2023-1-21T12:46:4Z</time></trkpt>
<trkpt lat="48.458629" lon="2.665885"><ele></ele><time>2023-1-21T12:46:7Z</time></trkpt>
<trkpt lat="48.458657" lon="2.665743"><ele></ele><time>2023-1-21T12:46:10Z</time></trkpt>
<trkpt lat="48.45869" lon="2.665601"><ele></ele><time>2023-1-21T12:46:13Z</time></trkpt>
<trkpt lat="48.458748" lon="2.665415"><ele></ele><time>2023-1-21T12:46:16Z</time></trkpt>
<trkpt lat="48.458784" lon="2.665263"><ele></ele><time>2023-1-21T12:46:19Z</time></trkpt>
<trkpt lat="48.458818" lon="2.665132"><ele></ele><time>2023-1-21T12:46:22Z</time></trkpt>
<trkpt lat="48.458865" lon="2.665002"><ele></ele><time>2023-1-21T12:46:25Z</time></trkpt>
<trkpt lat="48.458919" lon="2.664862"><ele></ele><time>2023-1-21T12:46:28Z</time></trkpt>
<trkpt lat="48.458958" lon="2.664719"><ele></ele><time>2023-1-21T12:46:31Z</time></trkpt>
<trkpt lat="48.459015" lon="2.664598"><ele></ele><time>2023-1-21T12:46:34Z</time></trkpt>
<trkpt lat="48.459081" lon="2.664452"><ele></ele><time>2023-1-21T12:46:37Z</time></trkpt>
<trkpt lat="48.459142" lon="2.664273"><ele></ele><time>2023-1-21T12:46:40Z</time></trkpt>
<trkpt lat="48.459193" lon="2.664103"><ele></ele><time>2023-1-21T12:46:43Z</time></trkpt>
<trkpt lat="48.459246" lon="2.663952"><ele></ele><time>2023-1-21T12:46:46Z</time></trkpt>
<trkpt lat="48.459291" lon="2.663798"><ele></ele><time>2023-1-21T12:46:49Z</time></trkpt>
<trkpt lat="48.45934" lon="2.663661"><ele></ele><time>2023-1-21T12:46:52Z</time></trkpt>
<trkpt lat="48.459395" lon="2.663526"><ele></ele><time>2023-1-21T12:46:55Z</time></trkpt>
<trkpt lat="48.459428" lon="2.663363"><ele></ele><time>2023-1-21T12:46:58Z</time></trkpt>
<trkpt lat="48.459468" lon="2.663186"><ele></ele><time>2023-1-21T12:47:1Z</time></trkpt>
<trkpt lat="48.459517" lon="2.663033"><ele></ele><time>2023-1-21T12:47:4Z</time></trkpt>
<trkpt lat="48.459551" lon="2.662872"><ele></ele><time>2023-1-21T12:47:7Z</time></trkpt>
<trkpt lat="48.45958" lon="2.662732"><ele></ele><time>2023-1-21T12:47:10Z</time></trkpt>
<trkpt lat="48.459614" lon="2.662536"><ele></ele><time>2023-1-21T12:47:13Z</time></trkpt>
<trkpt lat="48.459607" lon="2.662374"><ele></ele><time>2023-1-21T12:47:16Z</time></trkpt>
<trkpt lat="48.45961" lon="2.662216"><ele></ele><time>2023-1-21T12:47:19Z</time></trkpt>
<trkpt lat="48.459613" lon="2.662052"><ele></ele><time>2023-1-21T12:47:22Z</time></trkpt>
<trkpt lat="48.45962" lon="2.661911"><ele></ele><time>2023-1-21T12:47:25Z</time></trkpt>
<trkpt lat="48.459648" lon="2.66176"><ele></ele><time>2023-1-21T12:47:28Z</time></trkpt>
<trkpt lat="48.459683" lon="2.661596"><ele></ele><time>2023-1-21T12:47:31Z</time></trkpt>
<trkpt lat="48.459741" lon="2.661492"><ele></ele><time>2023-1-21T12:47:34Z</time></trkpt>
<trkpt lat="48.459844" lon="2.661498"><ele></ele><time>2023-1-21T12:47:37Z</time></trkpt>
<trkpt lat="48.459942" lon="2.661475"><ele></ele><time>2023-1-21T12:47:40Z</time></trkpt>
<trkpt lat="48.46004" lon="2.661408"><ele></ele><time>2023-1-21T12:47:43Z</time></trkpt>
<trkpt lat="48.460123" lon="2.661347"><ele></ele><time>2023-1-21T12:47:46Z</time></trkpt>
<trkpt lat="48.460217" lon="2.661283"><ele></ele><time>2023-1-21T12:47:49Z</time></trkpt>
<trkpt lat="48.460306" lon="2.661228"><ele></ele><time>2023-1-21T12:47:52Z</time></trkpt>
<trkpt lat="48.46041" lon="2.661168"><ele></ele><time>2023-1-21T12:47:55Z</time></trkpt>
<trkpt lat="48.460465" lon="2.661025"><ele></ele><time>2023-1-21T12:47:58Z</time></trkpt>
<trkpt lat="48.460513" lon="2.660887"><ele></ele><time>2023-1-21T12:48:1Z</time></trkpt>
<trkpt lat="48.460593" lon="2.660766"><ele></ele><time>2023-1-21T12:48:4Z</time></trkpt>
<trkpt lat="48.460685" lon="2.660681"><ele></ele><time>2023-1-21T12:48:7Z</time></trkpt>
<trkpt lat="48.460756" lon="2.660576"><ele></ele><time>2023-1-21T12:48:10Z</time></trkpt>
<trkpt lat="48.460853" lon="2.660511"><ele></ele><time>2023-1-21T12:48:13Z</time></trkpt>
<trkpt lat="48.46095" lon="2.660494"><ele></ele><time>2023-1-21T12:48:16Z</time></trkpt>
<trkpt lat="48.461053" lon="2.660464"><ele></ele><time>2023-1-21T12:48:19Z</time></trkpt>
<trkpt lat="48.461144" lon="2.660475"><ele></ele><time>2023-1-21T12:48:22Z</time></trkpt>
<trkpt lat="48.461241" lon="2.660532"><ele></ele><time>2023-1-21T12:48:25Z</time></trkpt>
<trkpt lat="48.461352" lon="2.660561"><ele></ele><time>2023-1-21T12:48:28Z</time></trkpt>
<trkpt lat="48.461449" lon="2.660578"><ele></ele><time>2023-1-21T12:48:31Z</time></trkpt>
<trkpt lat="48.461538" lon="2.66055"><ele></ele><time>2023-1-21T12:48:34Z</time></trkpt>
<trkpt lat="48.461671" lon="2.660488"><ele></ele><time>2023-1-21T12:48:37Z</time></trkpt>
<trkpt lat="48.461773" lon="2.660459"><ele></ele><time>2023-1-21T12:48:40Z</time></trkpt>
<trkpt lat="48.461878" lon="2.660417"><ele></ele><time>2023-1-21T12:48:43Z</time></trkpt>
<trkpt lat="48.461999" lon="2.660415"><ele></ele><time>2023-1-21T12:48:46Z</time></trkpt>
<trkpt lat="48.462142" lon="2.660352"><ele></ele><time>2023-1-21T12:48:49Z</time></trkpt>
<trkpt lat="48.462255" lon="2.660275"><ele></ele><time>2023-1-21T12:48:52Z</time></trkpt>
<trkpt lat="48.46237" lon="2.660185"><ele></ele><time>2023-1-21T12:48:55Z</time></trkpt>
<trkpt lat="48.462456" lon="2.66011"><ele></ele><time>2023-1-21T12:48:58Z</time></trkpt>
<trkpt lat="48.462543" lon="2.660045"><ele></ele><time>2023-1-21T12:49:1Z</time></trkpt>
<trkpt lat="48.462638" lon="2.659976"><ele></ele><time>2023-1-21T12:49:4Z</time></trkpt>
<trkpt lat="48.462741" lon="2.659887"><ele></ele><time>2023-1-21T12:49:7Z</time></trkpt>
<trkpt lat="48.462828" lon="2.659806"><ele></ele><time>2023-1-21T12:49:10Z</time></trkpt>
<trkpt lat="48.462939" lon="2.659707"><ele></ele><time>2023-1-21T12:49:13Z</time></trkpt>
<trkpt lat="48.463037" lon="2.65963"><ele></ele><time>2023-1-21T12:49:16Z</time></trkpt>
<trkpt lat="48.463139" lon="2.659543"><ele></ele><time>2023-1-21T12:49:19Z</time></trkpt>
<trkpt lat="48.463249" lon="2.659442"><ele></ele><time>2023-1-21T12:49:22Z</time></trkpt>
<trkpt lat="48.463363" lon="2.659341"><ele></ele><time>2023-1-21T12:49:25Z</time></trkpt>
<trkpt lat="48.463441" lon="2.659261"><ele></ele><time>2023-1-21T12:49:28Z</time></trkpt>
<trkpt lat="48.463544" lon="2.659181"><ele></ele><time>2023-1-21T12:49:31Z</time></trkpt>
<trkpt lat="48.463668" lon="2.659105"><ele></ele><time>2023-1-21T12:49:34Z</time></trkpt>
<trkpt lat="48.463796" lon="2.659019"><ele></ele><time>2023-1-21T12:49:37Z</time></trkpt>
<trkpt lat="48.463907" lon="2.658927"><ele></ele><time>2023-1-21T12:49:40Z</time></trkpt>
<trkpt lat="48.464013" lon="2.658847"><ele></ele><time>2023-1-21T12:49:43Z</time></trkpt>
<trkpt lat="48.464133" lon="2.658782"><ele></ele><time>2023-1-21T12:49:46Z</time></trkpt>
<trkpt lat="48.464227" lon="2.658716"><ele></ele><time>2023-1-21T12:49:49Z</time></trkpt>
<trkpt lat="48.464347" lon="2.658635"><ele></ele><time>2023-1-21T12:49:52Z</time></trkpt>
<trkpt lat="48.464448" lon="2.658571"><ele></ele><time>2023-1-21T12:49:55Z</time></trkpt>
<trkpt lat="48.464551" lon="2.658556"><ele></ele><time>2023-1-21T12:49:58Z</time></trkpt>
<trkpt lat="48.464655" lon="2.658552"><ele></ele><time>2023-1-21T12:50:1Z</time></trkpt>
<trkpt lat="48.464765" lon="2.658549"><ele></ele><time>2023-1-21T12:50:4Z</time></trkpt>
<trkpt lat="48.464868" lon="2.658486"><ele></ele><time>2023-1-21T12:50:7Z</time></trkpt>
<trkpt lat="48.464958" lon="2.658453"><ele></ele><time>2023-1-21T12:50:10Z</time></trkpt>
<trkpt lat="48.465062" lon="2.658445"><ele></ele><time>2023-1-21T12:50:13Z</time></trkpt>
<trkpt lat="48.465195" lon="2.65844"><ele></ele><time>2023-1-21T12:50:16Z</time></trkpt>
<trkpt lat="48.465287" lon="2.658426"><ele></ele><time>2023-1-21T12:50:19Z</time></trkpt>
<trkpt lat="48.465413" lon="2.658414"><ele></ele><time>2023-1-21T12:50:22Z</time></trkpt>
<trkpt lat="48.46551" lon="2.658462"><ele></ele><time>2023-1-21T12:50:25Z</time></trkpt>
<trkpt lat="48.465605" lon="2.658494"><ele></ele><time>2023-1-21T12:50:28Z</time></trkpt>
<trkpt lat="48.465709" lon="2.658445"><ele></ele><time>2023-1-21T12:50:31Z</time></trkpt>
<trkpt lat="48.46583" lon="2.658391"><ele></ele><time>2023-1-21T12:50:34Z</time></trkpt>
<trkpt lat="48.465932" lon="2.658362"><ele></ele><time>2023-1-21T12:50:37Z</time></trkpt>
<trkpt lat="48.466043" lon="2.65834"><ele></ele><time>2023-1-21T12:50:40Z</time></trkpt>
<trkpt lat="48.466153" lon="2.658354"><ele></ele><time>2023-1-21T12:50:43Z</time></trkpt>
<trkpt lat="48.466274" lon="2.658366"><ele></ele><time>2023-1-21T12:50:46Z</time></trkpt>
<trkpt lat="48.466392" lon="2.658383"><ele></ele><time>2023-1-21T12:50:49Z</time></trkpt>
<trkpt lat="48.466513" lon="2.658401"><ele></ele><time>2023-1-21T12:50:52Z</time></trkpt>
<trkpt lat="48.466628" lon="2.658436"><ele></ele><time>2023-1-21T12:50:55Z</time></trkpt>
<trkpt lat="48.466733" lon="2.658484"><ele></ele><time>2023-1-21T12:50:58Z</time></trkpt>
<trkpt lat="48.466839" lon="2.658494"><ele></ele><time>2023-1-21T12:51:1Z</time></trkpt>
<trkpt lat="48.466941" lon="2.6585"><ele></ele><time>2023-1-21T12:51:4Z</time></trkpt>
<trkpt lat="48.467061" lon="2.658495"><ele></ele><time>2023-1-21T12:51:7Z</time></trkpt>
<trkpt lat="48.467161" lon="2.658498"><ele></ele><time>2023-1-21T12:51:10Z</time></trkpt>
<trkpt lat="48.467252" lon="2.65849"><ele></ele><time>2023-1-21T12:51:13Z</time></trkpt>
<trkpt lat="48.467349" lon="2.658503"><ele></ele><time>2023-1-21T12:51:16Z</time></trkpt>
<trkpt lat="48.467441" lon="2.65852"><ele></ele><time>2023-1-21T12:51:19Z</time></trkpt>
<trkpt lat="48.467532" lon="2.658519"><ele></ele><time>2023-1-21T12:51:22Z</time></trkpt>
<trkpt lat="48.467652" lon="2.658556"><ele></ele><time>2023-1-21T12:51:25Z</time></trkpt>
<trkpt lat="48.467771" lon="2.658565"><ele></ele><time>2023-1-21T12:51:28Z</time></trkpt>
<trkpt lat="48.467875" lon="2.658564"><ele></ele><time>2023-1-21T12:51:31Z</time></trkpt>
<trkpt lat="48.467993" lon="2.658576"><ele></ele><time>2023-1-21T12:51:34Z</time></trkpt>
<trkpt lat="48.468124" lon="2.658588"><ele></ele><time>2023-1-21T12:51:37Z</time></trkpt>
<trkpt lat="48.468234" lon="2.658606"><ele></ele><time>2023-1-21T12:51:40Z</time></trkpt>
<trkpt lat="48.468355" lon="2.658635"><ele></ele><time>2023-1-21T12:51:43Z</time></trkpt>
<trkpt lat="48.468458" lon="2.658639"><ele></ele><time>2023-1-21T12:51:46Z</time></trkpt>
<trkpt lat="48.468564" lon="2.658634"><ele></ele><time>2023-1-21T12:51:49Z</time></trkpt>
<trkpt lat="48.468662" lon="2.658622"><ele></ele><time>2023-1-21T12:51:52Z</time></trkpt>
<trkpt lat="48.468766" lon="2.658645"><ele></ele><time>2023-1-21T12:51:55Z</time></trkpt>
<trkpt lat="48.468859" lon="2.658662"><ele></ele><time>2023-1-21T12:51:58Z</time></trkpt>
<trkpt lat="48.468956" lon="2.658672"><ele></ele><time>2023-1-21T12:52:1Z</time></trkpt>
<trkpt lat="48.469058" lon="2.65868"><ele></ele><time>2023-1-21T12:52:4Z</time></trkpt>
<trkpt lat="48.469176" lon="2.658708"><ele></ele><time>2023-1-21T12:52:7Z</time></trkpt>
<trkpt lat="48.469311" lon="2.658711"><ele></ele><time>2023-1-21T12:52:10Z</time></trkpt>
<trkpt lat="48.469439" lon="2.65872"><ele></ele><time>2023-1-21T12:52:13Z</time></trkpt>
<trkpt lat="48.469532" lon="2.658737"><ele></ele><time>2023-1-21T12:52:16Z</time></trkpt>
<trkpt lat="48.469653" lon="2.658745"><ele></ele><time>2023-1-21T12:52:19Z</time></trkpt>
<trkpt lat="48.469752" lon="2.658766"><ele></ele><time>2023-1-21T12:52:22Z</time></trkpt>
<trkpt lat="48.469849" lon="2.658816"><ele></ele><time>2023-1-21T12:52:25Z</time></trkpt>
<trkpt lat="48.469966" lon="2.658828"><ele></ele><time>2023-1-21T12:52:28Z</time></trkpt>
<trkpt lat="48.470079" lon="2.658829"><ele></ele><time>2023-1-21T12:52:31Z</time></trkpt>
<trkpt lat="48.470189" lon="2.658852"><ele></ele><time>2023-1-21T12:52:34Z</time></trkpt>
<trkpt lat="48.470295" lon="2.658872"><ele></ele><time>2023-1-21T12:52:37Z</time></trkpt>
<trkpt lat="48.470398" lon="2.658889"><ele></ele><time>2023-1-21T12:52:40Z</time></trkpt>
<trkpt lat="48.47049" lon="2.658889"><ele></ele><time>2023-1-21T12:52:43Z</time></trkpt>
<trkpt lat="48.470597" lon="2.658886"><ele></ele><time>2023-1-21T12:52:46Z</time></trkpt>
<trkpt lat="48.470715" lon="2.658898"><ele></ele><time>2023-1-21T12:52:49Z</time></trkpt>
<trkpt lat="48.470814" lon="2.658901"><ele></ele><time>2023-1-21T12:52:52Z</time></trkpt>
<trkpt lat="48.470915" lon="2.658865"><ele></ele><time>2023-1-21T12:52:55Z</time></trkpt>
<trkpt lat="48.471017" lon="2.65883"><ele></ele><time>2023-1-21T12:52:58Z</time></trkpt>
<trkpt lat="48.471123" lon="2.658775"><ele></ele><time>2023-1-21T12:53:1Z</time></trkpt>
<trkpt lat="48.471236" lon="2.658708"><ele></ele><time>2023-1-21T12:53:4Z</time></trkpt>
<trkpt lat="48.471324" lon="2.658674"><ele></ele><time>2023-1-21T12:53:7Z</time></trkpt>
<trkpt lat="48.471416" lon="2.658629"><ele></ele><time>2023-1-21T12:53:10Z</time></trkpt>
<trkpt lat="48.471477" lon="2.658568"><ele></ele><time>2023-1-21T12:53:13Z</time></trkpt>
<trkpt lat="48.471479" lon="2.658566"><ele></ele><time>2023-1-21T12:53:16Z</time></trkpt>
<trkpt lat="48.471479" lon="2.658565"><ele></ele><time>2023-1-21T12:53:19Z</time></trkpt>
<trkpt lat="48.471481" lon="2.658558"><ele></ele><time>2023-1-21T12:53:22Z</time></trkpt>
<trkpt lat="48.471554" lon="2.658469"><ele></ele><time>2023-1-21T12:53:25Z</time></trkpt>
<trkpt lat="48.471645" lon="2.658382"><ele></ele><time>2023-1-21T12:53:28Z</time></trkpt>
<trkpt lat="48.471757" lon="2.65829"><ele></ele><time>2023-1-21T12:53:31Z</time></trkpt>
<trkpt lat="48.471857" lon="2.658209"><ele></ele><time>2023-1-21T12:53:34Z</time></trkpt>
<trkpt lat="48.471931" lon="2.658128"><ele></ele><time>2023-1-21T12:53:37Z</time></trkpt>
<trkpt lat="48.472027" lon="2.658051"><ele></ele><time>2023-1-21T12:53:40Z</time></trkpt>
<trkpt lat="48.472114" lon="2.658"><ele></ele><time>2023-1-21T12:53:43Z</time></trkpt>
<trkpt lat="48.472227" lon="2.657926"><ele></ele><time>2023-1-21T12:53:46Z</time></trkpt>
<trkpt lat="48.472314" lon="2.657829"><ele></ele><time>2023-1-21T12:53:49Z</time></trkpt>
<trkpt lat="48.472413" lon="2.657721"><ele></ele><time>2023-1-21T12:53:52Z</time></trkpt>
<trkpt lat="48.472523" lon="2.657632"><ele></ele><time>2023-1-21T12:53:55Z</time></trkpt>
<trkpt lat="48.472631" lon="2.657573"><ele></ele><time>2023-1-21T12:53:58Z</time></trkpt>
<trkpt lat="48.472732" lon="2.65753"><ele></ele><time>2023-1-21T12:54:1Z</time></trkpt>
<trkpt lat="48.472845" lon="2.65747"><ele></ele><time>2023-1-21T12:54:4Z</time></trkpt>
<trkpt lat="48.472922" lon="2.657395"><ele></ele><time>2023-1-21T12:54:7Z</time></trkpt>
<trkpt lat="48.473003" lon="2.657317"><ele></ele><time>2023-1-21T12:54:10Z</time></trkpt>
<trkpt lat="48.47308" lon="2.657246"><ele></ele><time>2023-1-21T12:54:13Z</time></trkpt>
<trkpt lat="48.473185" lon="2.657143"><ele></ele><time>2023-1-21T12:54:16Z</time></trkpt>
<trkpt lat="48.473265" lon="2.657069"><ele></ele><time>2023-1-21T12:54:19Z</time></trkpt>
<trkpt lat="48.473377" lon="2.656993"><ele></ele><time>2023-1-21T12:54:22Z</time></trkpt>
<trkpt lat="48.473487" lon="2.656903"><ele></ele><time>2023-1-21T12:54:25Z</time></trkpt>
<trkpt lat="48.473573" lon="2.656838"><ele></ele><time>2023-1-21T12:54:28Z</time></trkpt>
<trkpt lat="48.473685" lon="2.656737"><ele></ele><time>2023-1-21T12:54:31Z</time></trkpt>
<trkpt lat="48.4738" lon="2.656657"><ele></ele><time>2023-1-21T12:54:34Z</time></trkpt>
<trkpt lat="48.473877" lon="2.656564"><ele></ele><time>2023-1-21T12:54:37Z</time></trkpt>
<trkpt lat="48.47396" lon="2.656463"><ele></ele><time>2023-1-21T12:54:40Z</time></trkpt>
<trkpt lat="48.474055" lon="2.656384"><ele></ele><time>2023-1-21T12:54:43Z</time></trkpt>
<trkpt lat="48.474146" lon="2.656298"><ele></ele><time>2023-1-21T12:54:46Z</time></trkpt>
<trkpt lat="48.474256" lon="2.656194"><ele></ele><time>2023-1-21T12:54:49Z</time></trkpt>
<trkpt lat="48.474374" lon="2.656111"><ele></ele><time>2023-1-21T12:54:52Z</time></trkpt>
<trkpt lat="48.474474" lon="2.656042"><ele></ele><time>2023-1-21T12:54:55Z</time></trkpt>
<trkpt lat="48.474583" lon="2.655946"><ele></ele><time>2023-1-21T12:54:58Z</time></trkpt>
<trkpt lat="48.474689" lon="2.655838"><ele></ele><time>2023-1-21T12:55:1Z</time></trkpt>
<trkpt lat="48.474779" lon="2.65576"><ele></ele><time>2023-1-21T12:55:4Z</time></trkpt>
<trkpt lat="48.47486" lon="2.655685"><ele></ele><time>2023-1-21T12:55:7Z</time></trkpt>
<trkpt lat="48.474941" lon="2.655569"><ele></ele><time>2023-1-21T12:55:10Z</time></trkpt>
<trkpt lat="48.475023" lon="2.655485"><ele></ele><time>2023-1-21T12:55:13Z</time></trkpt>
<trkpt lat="48.475147" lon="2.655416"><ele></ele><time>2023-1-21T12:55:16Z</time></trkpt>
<trkpt lat="48.475257" lon="2.655323"><ele></ele><time>2023-1-21T12:55:19Z</time></trkpt>
<trkpt lat="48.475376" lon="2.655267"><ele></ele><time>2023-1-21T12:55:22Z</time></trkpt>
<trkpt lat="48.47548" lon="2.655171"><ele></ele><time>2023-1-21T12:55:25Z</time></trkpt>
<trkpt lat="48.475581" lon="2.655091"><ele></ele><time>2023-1-21T12:55:28Z</time></trkpt>
<trkpt lat="48.475682" lon="2.654994"><ele></ele><time>2023-1-21T12:55:31Z</time></trkpt>
<trkpt lat="48.475748" lon="2.654898"><ele></ele><time>2023-1-21T12:55:34Z</time></trkpt>
<trkpt lat="48.475858" lon="2.654847"><ele></ele><time>2023-1-21T12:55:37Z</time></trkpt>
<trkpt lat="48.475939" lon="2.654769"><ele></ele><time>2023-1-21T12:55:40Z</time></trkpt>
<trkpt lat="48.476016" lon="2.654686"><ele></ele><time>2023-1-21T12:55:43Z</time></trkpt>
<trkpt lat="48.476127" lon="2.654618"><ele></ele><time>2023-1-21T12:55:46Z</time></trkpt>
<trkpt lat="48.476217" lon="2.654528"><ele></ele><time>2023-1-21T12:55:49Z</time></trkpt>
<trkpt lat="48.476317" lon="2.654455"><ele></ele><time>2023-1-21T12:55:52Z</time></trkpt>
<trkpt lat="48.476427" lon="2.65438"><ele></ele><time>2023-1-21T12:55:55Z</time></trkpt>
<trkpt lat="48.476534" lon="2.654335"><ele></ele><time>2023-1-21T12:55:58Z</time></trkpt>
<trkpt lat="48.476638" lon="2.654249"><ele></ele><time>2023-1-21T12:56:1Z</time></trkpt>
<trkpt lat="48.476746" lon="2.654163"><ele></ele><time>2023-1-21T12:56:4Z</time></trkpt>
<trkpt lat="48.476829" lon="2.654048"><ele></ele><time>2023-1-21T12:56:7Z</time></trkpt>
<trkpt lat="48.476916" lon="2.653962"><ele></ele><time>2023-1-21T12:56:10Z</time></trkpt>
<trkpt lat="48.477014" lon="2.65386"><ele></ele><time>2023-1-21T12:56:13Z</time></trkpt>
<trkpt lat="48.477114" lon="2.653781"><ele></ele><time>2023-1-21T12:56:16Z</time></trkpt>
<trkpt lat="48.477213" lon="2.653689"><ele></ele><time>2023-1-21T12:56:19Z</time></trkpt>
<trkpt lat="48.477306" lon="2.65361"><ele></ele><time>2023-1-21T12:56:22Z</time></trkpt>
<trkpt lat="48.477382" lon="2.653536"><ele></ele><time>2023-1-21T12:56:25Z</time></trkpt>
<trkpt lat="48.477485" lon="2.653429"><ele></ele><time>2023-1-21T12:56:28Z</time></trkpt>
<trkpt lat="48.477571" lon="2.653333"><ele></ele><time>2023-1-21T12:56:31Z</time></trkpt>
<trkpt lat="48.477675" lon="2.653234"><ele></ele><time>2023-1-21T12:56:34Z</time></trkpt>
<trkpt lat="48.477769" lon="2.653155"><ele></ele><time>2023-1-21T12:56:37Z</time></trkpt>
<trkpt lat="48.477859" lon="2.653099"><ele></ele><time>2023-1-21T12:56:40Z</time></trkpt>
<trkpt lat="48.477972" lon="2.653026"><ele></ele><time>2023-1-21T12:56:43Z</time></trkpt>
<trkpt lat="48.478076" lon="2.652943"><ele></ele><time>2023-1-21T12:56:46Z</time></trkpt>
<trkpt lat="48.47817" lon="2.652853"><ele></ele><time>2023-1-21T12:56:49Z</time></trkpt>
<trkpt lat="48.478261" lon="2.652762"><ele></ele><time>2023-1-21T12:56:52Z</time></trkpt>
<trkpt lat="48.478352" lon="2.652677"><ele></ele><time>2023-1-21T12:56:55Z</time></trkpt>
<trkpt lat="48.478448" lon="2.65261"><ele></ele><time>2023-1-21T12:56:58Z</time></trkpt>
<trkpt lat="48.47853" lon="2.652547"><ele></ele><time>2023-1-21T12:57:1Z</time></trkpt>
<trkpt lat="48.478611" lon="2.652473"><ele></ele><time>2023-1-21T12:57:4Z</time></trkpt>
<trkpt lat="48.478701" lon="2.652378"><ele></ele><time>2023-1-21T12:57:7Z</time></trkpt>
<trkpt lat="48.478785" lon="2.65231"><ele></ele><time>2023-1-21T12:57:10Z</time></trkpt>
<trkpt lat="48.478863" lon="2.652211"><ele></ele><time>2023-1-21T12:57:13Z</time></trkpt>
<trkpt lat="48.478961" lon="2.65213"><ele></ele><time>2023-1-21T12:57:16Z</time></trkpt>
<trkpt lat="48.479048" lon="2.652086"><ele></ele><time>2023-1-21T12:57:19Z</time></trkpt>
<trkpt lat="48.479131" lon="2.652027"><ele></ele><time>2023-1-21T12:57:22Z</time></trkpt>
<trkpt lat="48.479232" lon="2.651972"><ele></ele><time>2023-1-21T12:57:25Z</time></trkpt>
<trkpt lat="48.479322" lon="2.651895"><ele></ele><time>2023-1-21T12:57:28Z</time></trkpt>
<trkpt lat="48.479402" lon="2.651823"><ele></ele><time>2023-1-21T12:57:31Z</time></trkpt>
<trkpt lat="48.479481" lon="2.651756"><ele></ele><time>2023-1-21T12:57:34Z</time></trkpt>
<trkpt lat="48.479565" lon="2.651695"><ele></ele><time>2023-1-21T12:57:37Z</time></trkpt>
<trkpt lat="48.47966" lon="2.65162"><ele></ele><time>2023-1-21T12:57:40Z</time></trkpt>
<trkpt lat="48.479741" lon="2.651541"><ele></ele><time>2023-1-21T12:57:43Z</time></trkpt>
<trkpt lat="48.479829" lon="2.651495"><ele></ele><time>2023-1-21T12:57:46Z</time></trkpt>
<trkpt lat="48.479917" lon="2.651424"><ele></ele><time>2023-1-21T12:57:49Z</time></trkpt>
<trkpt lat="48.479995" lon="2.651334"><ele></ele><time>2023-1-21T12:57:52Z</time></trkpt>
<trkpt lat="48.480095" lon="2.651267"><ele></ele><time>2023-1-21T12:57:55Z</time></trkpt>
<trkpt lat="48.480177" lon="2.651165"><ele></ele><time>2023-1-21T12:57:58Z</time></trkpt>
<trkpt lat="48.480266" lon="2.651112"><ele></ele><time>2023-1-21T12:58:1Z</time></trkpt>
<trkpt lat="48.480368" lon="2.651042"><ele></ele><time>2023-1-21T12:58:4Z</time></trkpt>
<trkpt lat="48.480455" lon="2.650941"><ele></ele><time>2023-1-21T12:58:7Z</time></trkpt>
<trkpt lat="48.480549" lon="2.650887"><ele></ele><time>2023-1-21T12:58:10Z</time></trkpt>
<trkpt lat="48.480629" lon="2.65079"><ele></ele><time>2023-1-21T12:58:13Z</time></trkpt>
<trkpt lat="48.480727" lon="2.650724"><ele></ele><time>2023-1-21T12:58:16Z</time></trkpt>
<trkpt lat="48.480808" lon="2.650622"><ele></ele><time>2023-1-21T12:58:19Z</time></trkpt>
<trkpt lat="48.48089" lon="2.650544"><ele></ele><time>2023-1-21T12:58:22Z</time></trkpt>
<trkpt lat="48.48098" lon="2.650471"><ele></ele><time>2023-1-21T12:58:25Z</time></trkpt>
<trkpt lat="48.481074" lon="2.650388"><ele></ele><time>2023-1-21T12:58:28Z</time></trkpt>
<trkpt lat="48.481152" lon="2.650284"><ele></ele><time>2023-1-21T12:58:31Z</time></trkpt>
<trkpt lat="48.48125" lon="2.650217"><ele></ele><time>2023-1-21T12:58:34Z</time></trkpt>
<trkpt lat="48.481338" lon="2.65016"><ele></ele><time>2023-1-21T12:58:37Z</time></trkpt>
<trkpt lat="48.481425" lon="2.650104"><ele></ele><time>2023-1-21T12:58:40Z</time></trkpt>
<trkpt lat="48.481483" lon="2.64999"><ele></ele><time>2023-1-21T12:58:43Z</time></trkpt>
<trkpt lat="48.481572" lon="2.649921"><ele></ele><time>2023-1-21T12:58:46Z</time></trkpt>
<trkpt lat="48.481662" lon="2.649864"><ele></ele><time>2023-1-21T12:58:49Z</time></trkpt>
<trkpt lat="48.481754" lon="2.649812"><ele></ele><time>2023-1-21T12:58:52Z</time></trkpt>
<trkpt lat="48.481838" lon="2.649728"><ele></ele><time>2023-1-21T12:58:55Z</time></trkpt>
<trkpt lat="48.481915" lon="2.649648"><ele></ele><time>2023-1-21T12:58:58Z</time></trkpt>
<trkpt lat="48.481995" lon="2.649563"><ele></ele><time>2023-1-21T12:59:1Z</time></trkpt>
<trkpt lat="48.482091" lon="2.649523"><ele></ele><time>2023-1-21T12:59:4Z</time></trkpt>
<trkpt lat="48.482184" lon="2.649447"><ele></ele><time>2023-1-21T12:59:7Z</time></trkpt>
<trkpt lat="48.482284" lon="2.649398"><ele></ele><time>2023-1-21T12:59:10Z</time></trkpt>
<trkpt lat="48.482367" lon="2.649333"><ele></ele><time>2023-1-21T12:59:13Z</time></trkpt>
<trkpt lat="48.482453" lon="2.649231"><ele></ele><time>2023-1-21T12:59:16Z</time></trkpt>
<trkpt lat="48.482539" lon="2.649163"><ele></ele><time>2023-1-21T12:59:19Z</time></trkpt>
<trkpt lat="48.482628" lon="2.649094"><ele></ele><time>2023-1-21T12:59:22Z</time></trkpt>
<trkpt lat="48.482716" lon="2.649024"><ele></ele><time>2023-1-21T12:59:25Z</time></trkpt>
<trkpt lat="48.482814" lon="2.648931"><ele></ele><time>2023-1-21T12:59:28Z</time></trkpt>
<trkpt lat="48.482905" lon="2.648852"><ele></ele><time>2023-1-21T12:59:31Z</time></trkpt>
<trkpt lat="48.483005" lon="2.64878"><ele></ele><time>2023-1-21T12:59:34Z</time></trkpt>
<trkpt lat="48.483094" lon="2.648677"><ele></ele><time>2023-1-21T12:59:37Z</time></trkpt>
<trkpt lat="48.483196" lon="2.648581"><ele></ele><time>2023-1-21T12:59:40Z</time></trkpt>
<trkpt lat="48.483271" lon="2.648499"><ele></ele><time>2023-1-21T12:59:43Z</time></trkpt>
<trkpt lat="48.483364" lon="2.648427"><ele></ele><time>2023-1-21T12:59:46Z</time></trkpt>
<trkpt lat="48.483458" lon="2.648352"><ele></ele><time>2023-1-21T12:59:49Z</time></trkpt>
<trkpt lat="48.48357" lon="2.648259"><ele></ele><time>2023-1-21T12:59:52Z</time></trkpt>
<trkpt lat="48.483661" lon="2.648201"><ele></ele><time>2023-1-21T12:59:55Z</time></trkpt>
<trkpt lat="48.483754" lon="2.648113"><ele></ele><time>2023-1-21T12:59:58Z</time></trkpt>
<trkpt lat="48.483848" lon="2.648057"><ele></ele><time>2023-1-21T13:0:1Z</time></trkpt>
<trkpt lat="48.48393" lon="2.647999"><ele></ele><time>2023-1-21T13:0:4Z</time></trkpt>
<trkpt lat="48.484016" lon="2.647951"><ele></ele><time>2023-1-21T13:0:7Z</time></trkpt>
<trkpt lat="48.484123" lon="2.647879"><ele></ele><time>2023-1-21T13:0:10Z</time></trkpt>
<trkpt lat="48.484219" lon="2.647791"><ele></ele><time>2023-1-21T13:0:13Z</time></trkpt>
<trkpt lat="48.48432" lon="2.647698"><ele></ele><time>2023-1-21T13:0:16Z</time></trkpt>
<trkpt lat="48.484403" lon="2.647639"><ele></ele><time>2023-1-21T13:0:19Z</time></trkpt>
<trkpt lat="48.484509" lon="2.647545"><ele></ele><time>2023-1-21T13:0:22Z</time></trkpt>
<trkpt lat="48.484595" lon="2.647431"><ele></ele><time>2023-1-21T13:0:25Z</time></trkpt>
<trkpt lat="48.484684" lon="2.647328"><ele></ele><time>2023-1-21T13:0:28Z</time></trkpt>
<trkpt lat="48.484769" lon="2.647227"><ele></ele><time>2023-1-21T13:0:31Z</time></trkpt>
<trkpt lat="48.484868" lon="2.647151"><ele></ele><time>2023-1-21T13:0:34Z</time></trkpt>
<trkpt lat="48.484978" lon="2.64707"><ele></ele><time>2023-1-21T13:0:37Z</time></trkpt>
<trkpt lat="48.485099" lon="2.646985"><ele></ele><time>2023-1-21T13:0:40Z</time></trkpt>
<trkpt lat="48.485192" lon="2.646899"><ele></ele><time>2023-1-21T13:0:43Z</time></trkpt>
<trkpt lat="48.485297" lon="2.646797"><ele></ele><time>2023-1-21T13:0:46Z</time></trkpt>
<trkpt lat="48.485375" lon="2.646718"><ele></ele><time>2023-1-21T13:0:49Z</time></trkpt>
<trkpt lat="48.485463" lon="2.646641"><ele></ele><time>2023-1-21T13:0:52Z</time></trkpt>
<trkpt lat="48.485551" lon="2.646551"><ele></ele><time>2023-1-21T13:0:55Z</time></trkpt>
<trkpt lat="48.485639" lon="2.646475"><ele></ele><time>2023-1-21T13:0:58Z</time></trkpt>
<trkpt lat="48.485737" lon="2.646423"><ele></ele><time>2023-1-21T13:1:1Z</time></trkpt>
<trkpt lat="48.485839" lon="2.646377"><ele></ele><time>2023-1-21T13:1:4Z</time></trkpt>
<trkpt lat="48.485934" lon="2.646294"><ele></ele><time>2023-1-21T13:1:7Z</time></trkpt>
<trkpt lat="48.486019" lon="2.646209"><ele></ele><time>2023-1-21T13:1:10Z</time></trkpt>
<trkpt lat="48.486133" lon="2.646094"><ele></ele><time>2023-1-21T13:1:13Z</time></trkpt>
<trkpt lat="48.486213" lon="2.646017"><ele></ele><time>2023-1-21T13:1:16Z</time></trkpt>
<trkpt lat="48.486311" lon="2.645905"><ele></ele><time>2023-1-21T13:1:19Z</time></trkpt>
<trkpt lat="48.486407" lon="2.645791"><ele></ele><time>2023-1-21T13:1:22Z</time></trkpt>
<trkpt lat="48.48649" lon="2.64573"><ele></ele><time>2023-1-21T13:1:25Z</time></trkpt>
<trkpt lat="48.486574" lon="2.645676"><ele></ele><time>2023-1-21T13:1:28Z</time></trkpt>
<trkpt lat="48.486674" lon="2.645595"><ele></ele><time>2023-1-21T13:1:31Z</time></trkpt>
<trkpt lat="48.486763" lon="2.645537"><ele></ele><time>2023-1-21T13:1:34Z</time></trkpt>
<trkpt lat="48.486861" lon="2.645449"><ele></ele><time>2023-1-21T13:1:37Z</time></trkpt>
<trkpt lat="48.486949" lon="2.645376"><ele></ele><time>2023-1-21T13:1:40Z</time></trkpt>
<trkpt lat="48.487054" lon="2.6453"><ele></ele><time>2023-1-21T13:1:43Z</time></trkpt>
<trkpt lat="48.487141" lon="2.645241"><ele></ele><time>2023-1-21T13:1:46Z</time></trkpt>
<trkpt lat="48.487244" lon="2.645135"><ele></ele><time>2023-1-21T13:1:49Z</time></trkpt>
<trkpt lat="48.48733" lon="2.645057"><ele></ele><time>2023-1-21T13:1:52Z</time></trkpt>
<trkpt lat="48.487416" lon="2.644964"><ele></ele><time>2023-1-21T13:1:55Z</time></trkpt>
<trkpt lat="48.487498" lon="2.644897"><ele></ele><time>2023-1-21T13:1:58Z</time></trkpt>
<trkpt lat="48.487581" lon="2.644826"><ele></ele><time>2023-1-21T13:2:1Z</time></trkpt>
<trkpt lat="48.487681" lon="2.64476"><ele></ele><time>2023-1-21T13:2:4Z</time></trkpt>
<trkpt lat="48.487767" lon="2.644692"><ele></ele><time>2023-1-21T13:2:7Z</time></trkpt>
<trkpt lat="48.487848" lon="2.644613"><ele></ele><time>2023-1-21T13:2:10Z</time></trkpt>
<trkpt lat="48.48795" lon="2.644536"><ele></ele><time>2023-1-21T13:2:13Z</time></trkpt>
<trkpt lat="48.488051" lon="2.644461"><ele></ele><time>2023-1-21T13:2:16Z</time></trkpt>
<trkpt lat="48.488155" lon="2.644367"><ele></ele><time>2023-1-21T13:2:19Z</time></trkpt>
<trkpt lat="48.488225" lon="2.644259"><ele></ele><time>2023-1-21T13:2:22Z</time></trkpt>
<trkpt lat="48.4883" lon="2.644172"><ele></ele><time>2023-1-21T13:2:25Z</time></trkpt>
<trkpt lat="48.488387" lon="2.644117"><ele></ele><time>2023-1-21T13:2:28Z</time></trkpt>
<trkpt lat="48.488477" lon="2.644046"><ele></ele><time>2023-1-21T13:2:31Z</time></trkpt>
<trkpt lat="48.488573" lon="2.643969"><ele></ele><time>2023-1-21T13:2:34Z</time></trkpt>
<trkpt lat="48.488655" lon="2.643915"><ele></ele><time>2023-1-21T13:2:37Z</time></trkpt>
<trkpt lat="48.488752" lon="2.643848"><ele></ele><time>2023-1-21T13:2:40Z</time></trkpt>
<trkpt lat="48.488839" lon="2.643789"><ele></ele><time>2023-1-21T13:2:43Z</time></trkpt>
<trkpt lat="48.488941" lon="2.64375"><ele></ele><time>2023-1-21T13:2:46Z</time></trkpt>
<trkpt lat="48.489041" lon="2.643714"><ele></ele><time>2023-1-21T13:2:49Z</time></trkpt>
<trkpt lat="48.489143" lon="2.643669"><ele></ele><time>2023-1-21T13:2:52Z</time></trkpt>
<trkpt lat="48.48925" lon="2.643665"><ele></ele><time>2023-1-21T13:2:55Z</time></trkpt>
<trkpt lat="48.489346" lon="2.643656"><ele></ele><time>2023-1-21T13:2:58Z</time></trkpt>
<trkpt lat="48.489438" lon="2.643601"><ele></ele><time>2023-1-21T13:3:1Z</time></trkpt>
<trkpt lat="48.489543" lon="2.643503"><ele></ele><time>2023-1-21T13:3:4Z</time></trkpt>
<trkpt lat="48.489639" lon="2.643395"><ele></ele><time>2023-1-21T13:3:7Z</time></trkpt>
<trkpt lat="48.489721" lon="2.643289"><ele></ele><time>2023-1-21T13:3:10Z</time></trkpt>
<trkpt lat="48.489821" lon="2.643228"><ele></ele><time>2023-1-21T13:3:13Z</time></trkpt>
<trkpt lat="48.48992" lon="2.643159"><ele></ele><time>2023-1-21T13:3:16Z</time></trkpt>
<trkpt lat="48.490004" lon="2.643072"><ele></ele><time>2023-1-21T13:3:19Z</time></trkpt>
<trkpt lat="48.490079" lon="2.642991"><ele></ele><time>2023-1-21T13:3:22Z</time></trkpt>
<trkpt lat="48.490187" lon="2.64289"><ele></ele><time>2023-1-21T13:3:25Z</time></trkpt>
<trkpt lat="48.490263" lon="2.642787"><ele></ele><time>2023-1-21T13:3:28Z</time></trkpt>
<trkpt lat="48.490359" lon="2.642692"><ele></ele><time>2023-1-21T13:3:31Z</time></trkpt>
<trkpt lat="48.490446" lon="2.642636"><ele></ele><time>2023-1-21T13:3:34Z</time></trkpt>
<trkpt lat="48.490529" lon="2.642572"><ele></ele><time>2023-1-21T13:3:37Z</time></trkpt>
<trkpt lat="48.490616" lon="2.642528"><ele></ele><time>2023-1-21T13:3:40Z</time></trkpt>
<trkpt lat="48.490701" lon="2.642449"><ele></ele><time>2023-1-21T13:3:43Z</time></trkpt>
<trkpt lat="48.490771" lon="2.64233"><ele></ele><time>2023-1-21T13:3:46Z</time></trkpt>
<trkpt lat="48.490849" lon="2.642203"><ele></ele><time>2023-1-21T13:3:49Z</time></trkpt>
<trkpt lat="48.490923" lon="2.642064"><ele></ele><time>2023-1-21T13:3:52Z</time></trkpt>
<trkpt lat="48.491005" lon="2.641972"><ele></ele><time>2023-1-21T13:3:55Z</time></trkpt>
<trkpt lat="48.491091" lon="2.641882"><ele></ele><time>2023-1-21T13:3:58Z</time></trkpt>
<trkpt lat="48.49119" lon="2.641768"><ele></ele><time>2023-1-21T13:4:1Z</time></trkpt>
<trkpt lat="48.491264" lon="2.641676"><ele></ele><time>2023-1-21T13:4:4Z</time></trkpt>
<trkpt lat="48.491329" lon="2.641557"><ele></ele><time>2023-1-21T13:4:7Z</time></trkpt>
<trkpt lat="48.4914" lon="2.641454"><ele></ele><time>2023-1-21T13:4:10Z</time></trkpt>
<trkpt lat="48.491489" lon="2.641335"><ele></ele><time>2023-1-21T13:4:13Z</time></trkpt>
<trkpt lat="48.491585" lon="2.641223"><ele></ele><time>2023-1-21T13:4:16Z</time></trkpt>
<trkpt lat="48.491677" lon="2.641108"><ele></ele><time>2023-1-21T13:4:19Z</time></trkpt>
<trkpt lat="48.491745" lon="2.640982"><ele></ele><time>2023-1-21T13:4:22Z</time></trkpt>
<trkpt lat="48.491813" lon="2.640873"><ele></ele><time>2023-1-21T13:4:25Z</time></trkpt>
<trkpt lat="48.491917" lon="2.640746"><ele></ele><time>2023-1-21T13:4:28Z</time></trkpt>
<trkpt lat="48.491988" lon="2.640653"><ele></ele><time>2023-1-21T13:4:31Z</time></trkpt>
<trkpt lat="48.492056" lon="2.640546"><ele></ele><time>2023-1-21T13:4:34Z</time></trkpt>
<trkpt lat="48.492142" lon="2.640416"><ele></ele><time>2023-1-21T13:4:37Z</time></trkpt>
<trkpt lat="48.49222" lon="2.640312"><ele></ele><time>2023-1-21T13:4:40Z</time></trkpt>
<trkpt lat="48.492287" lon="2.640201"><ele></ele><time>2023-1-21T13:4:43Z</time></trkpt>
<trkpt lat="48.492359" lon="2.640116"><ele></ele><time>2023-1-21T13:4:46Z</time></trkpt>
<trkpt lat="48.492451" lon="2.640026"><ele></ele><time>2023-1-21T13:4:49Z</time></trkpt>
<trkpt lat="48.492524" lon="2.63992"><ele></ele><time>2023-1-21T13:4:52Z</time></trkpt>
<trkpt lat="48.492597" lon="2.639831"><ele></ele><time>2023-1-21T13:4:55Z</time></trkpt>
<trkpt lat="48.492703" lon="2.63974"><ele></ele><time>2023-1-21T13:4:58Z</time></trkpt>
<trkpt lat="48.492806" lon="2.639628"><ele></ele><time>2023-1-21T13:5:1Z</time></trkpt>
<trkpt lat="48.492889" lon="2.639567"><ele></ele><time>2023-1-21T13:5:4Z</time></trkpt>
<trkpt lat="48.492983" lon="2.639482"><ele></ele><time>2023-1-21T13:5:7Z</time></trkpt>
<trkpt lat="48.49307" lon="2.639368"><ele></ele><time>2023-1-21T13:5:10Z</time></trkpt>
<trkpt lat="48.493135" lon="2.639275"><ele></ele><time>2023-1-21T13:5:13Z</time></trkpt>
<trkpt lat="48.493221" lon="2.639152"><ele></ele><time>2023-1-21T13:5:16Z</time></trkpt>
<trkpt lat="48.493312" lon="2.639047"><ele></ele><time>2023-1-21T13:5:19Z</time></trkpt>
<trkpt lat="48.493412" lon="2.638933"><ele></ele><time>2023-1-21T13:5:22Z</time></trkpt>
<trkpt lat="48.493484" lon="2.638848"><ele></ele><time>2023-1-21T13:5:25Z</time></trkpt>
<trkpt lat="48.493582" lon="2.638709"><ele></ele><time>2023-1-21T13:5:28Z</time></trkpt>
<trkpt lat="48.493645" lon="2.638602"><ele></ele><time>2023-1-21T13:5:31Z</time></trkpt>
<trkpt lat="48.493747" lon="2.638474"><ele></ele><time>2023-1-21T13:5:34Z</time></trkpt>
<trkpt lat="48.49385" lon="2.638357"><ele></ele><time>2023-1-21T13:5:37Z</time></trkpt>
<trkpt lat="48.493942" lon="2.638238"><ele></ele><time>2023-1-21T13:5:40Z</time></trkpt>
<trkpt lat="48.494026" lon="2.638135"><ele></ele><time>2023-1-21T13:5:43Z</time></trkpt>
<trkpt lat="48.494111" lon="2.638034"><ele></ele><time>2023-1-21T13:5:46Z</time></trkpt>
<trkpt lat="48.494206" lon="2.637894"><ele></ele><time>2023-1-21T13:5:49Z</time></trkpt>
<trkpt lat="48.494303" lon="2.637756"><ele></ele><time>2023-1-21T13:5:52Z</time></trkpt>
<trkpt lat="48.494403" lon="2.637625"><ele></ele><time>2023-1-21T13:5:55Z</time></trkpt>
<trkpt lat="48.494508" lon="2.637498"><ele></ele><time>2023-1-21T13:5:58Z</time></trkpt>
<trkpt lat="48.494601" lon="2.63736"><ele></ele><time>2023-1-21T13:6:1Z</time></trkpt>
<trkpt lat="48.494683" lon="2.637239"><ele></ele><time>2023-1-21T13:6:4Z</time></trkpt>
<trkpt lat="48.494774" lon="2.637098"><ele></ele><time>2023-1-21T13:6:7Z</time></trkpt>
<trkpt lat="48.494874" lon="2.636967"><ele></ele><time>2023-1-21T13:6:10Z</time></trkpt>
<trkpt lat="48.494981" lon="2.636847"><ele></ele><time>2023-1-21T13:6:13Z</time></trkpt>
<trkpt lat="48.495055" lon="2.636746"><ele></ele><time>2023-1-21T13:6:16Z</time></trkpt>
<trkpt lat="48.495153" lon="2.636629"><ele></ele><time>2023-1-21T13:6:19Z</time></trkpt>
<trkpt lat="48.495247" lon="2.636505"><ele></ele><time>2023-1-21T13:6:22Z</time></trkpt>
<trkpt lat="48.495341" lon="2.636388"><ele></ele><time>2023-1-21T13:6:25Z</time></trkpt>
<trkpt lat="48.495436" lon="2.636287"><ele></ele><time>2023-1-21T13:6:28Z</time></trkpt>
<trkpt lat="48.495528" lon="2.636182"><ele></ele><time>2023-1-21T13:6:31Z</time></trkpt>
<trkpt lat="48.495618" lon="2.63606"><ele></ele><time>2023-1-21T13:6:34Z</time></trkpt>
<trkpt lat="48.495706" lon="2.635941"><ele></ele><time>2023-1-21T13:6:37Z</time></trkpt>
<trkpt lat="48.495792" lon="2.635825"><ele></ele><time>2023-1-21T13:6:40Z</time></trkpt>
<trkpt lat="48.495874" lon="2.635755"><ele></ele><time>2023-1-21T13:6:43Z</time></trkpt>
<trkpt lat="48.495982" lon="2.635666"><ele></ele><time>2023-1-21T13:6:46Z</time></trkpt>
<trkpt lat="48.496048" lon="2.635565"><ele></ele><time>2023-1-21T13:6:49Z</time></trkpt>
<trkpt lat="48.496155" lon="2.635445"><ele></ele><time>2023-1-21T13:6:52Z</time></trkpt>
<trkpt lat="48.496245" lon="2.635302"><ele></ele><time>2023-1-21T13:6:55Z</time></trkpt>
<trkpt lat="48.496334" lon="2.635187"><ele></ele><time>2023-1-21T13:6:58Z</time></trkpt>
<trkpt lat="48.496414" lon="2.635091"><ele></ele><time>2023-1-21T13:7:1Z</time></trkpt>
<trkpt lat="48.496506" lon="2.634987"><ele></ele><time>2023-1-21T13:7:4Z</time></trkpt>
<trkpt lat="48.496592" lon="2.634892"><ele></ele><time>2023-1-21T13:7:7Z</time></trkpt>
<trkpt lat="48.496667" lon="2.634797"><ele></ele><time>2023-1-21T13:7:10Z</time></trkpt>
<trkpt lat="48.496714" lon="2.634757"><ele></ele><time>2023-1-21T13:7:13Z</time></trkpt>
<trkpt lat="48.496711" lon="2.634752"><ele></ele><time>2023-1-21T13:7:16Z</time></trkpt>
<trkpt lat="48.496702" lon="2.634738"><ele></ele><time>2023-1-21T13:7:19Z</time></trkpt>
<trkpt lat="48.496701" lon="2.634739"><ele></ele><time>2023-1-21T13:7:22Z</time></trkpt>
<trkpt lat="48.49669" lon="2.634738"><ele></ele><time>2023-1-21T13:7:25Z</time></trkpt>
<trkpt lat="48.496686" lon="2.634736"><ele></ele><time>2023-1-21T13:7:28Z</time></trkpt>
<trkpt lat="48.496678" lon="2.634734"><ele></ele><time>2023-1-21T13:7:31Z</time></trkpt>
<trkpt lat="48.496686" lon="2.634733"><ele></ele><time>2023-1-21T13:7:34Z</time></trkpt>
<trkpt lat="48.496687" lon="2.634733"><ele></ele><time>2023-1-21T13:7:37Z</time></trkpt>
<trkpt lat="48.496697" lon="2.634734"><ele></ele><time>2023-1-21T13:7:40Z</time></trkpt>
<trkpt lat="48.496697" lon="2.634735"><ele></ele><time>2023-1-21T13:7:43Z</time></trkpt>
<trkpt lat="48.496697" lon="2.634733"><ele></ele><time>2023-1-21T13:7:46Z</time></trkpt>
<trkpt lat="48.496697" lon="2.634733"><ele></ele><time>2023-1-21T13:7:49Z</time></trkpt>
</trkseg></trk></gpx>